<?xml version="1.0" encoding="UTF-8" standalone="no" ?>
<gpx xmlns="http://www.topografix.com/GPX/1/1" xmlns:xsi="http://www.w3.org/2001/XMLSchema-instance" xsi:schemaLocation="http://www.topografix.com/GPX/1/1 http://www.topografix.com/GPX/1/1/gpx.xsd" version="1.1" creator="VisuGPX - https://www.visugpx.com">
  <metadata>
    <name>ITINERAIRE LA LONDE</name>
    <desc><![CDATA[TRACE VTT LA LONDE]]></desc>
  </metadata>
  <wpt lat="49.32388" lon="1.01281">
    <ele>115</ele>
    <name><![CDATA[champs de bosses]]></name>
    <desc><![CDATA[27-AVR-08 13:08:33]]></desc>
    <cmt><![CDATA[27-AVR-08 13:08:33]]></cmt>
  </wpt>
  <trk>
    <name><![CDATA[Oxybike2008]]></name>
    <trkseg>
      <trkpt lat="49.38656" lon="1.06749">
        <ele>71</ele>
        <time>2008-04-27T07:11:31Z</time>
      </trkpt>
      <trkpt lat="49.38659" lon="1.06744">
        <ele>71</ele>
        <time>2008-04-27T07:13:26Z</time>
      </trkpt>
      <trkpt lat="49.3867" lon="1.06734">
        <ele>71</ele>
        <time>2008-04-27T07:13:36Z</time>
      </trkpt>
      <trkpt lat="49.38671" lon="1.06743">
        <ele>71</ele>
        <time>2008-04-27T07:13:43Z</time>
      </trkpt>
      <trkpt lat="49.38662" lon="1.06738">
        <ele>71</ele>
        <time>2008-04-27T07:13:56Z</time>
      </trkpt>
      <trkpt lat="49.38661" lon="1.06737">
        <ele>71</ele>
        <time>2008-04-27T07:14:10Z</time>
      </trkpt>
      <trkpt lat="49.38661" lon="1.06723">
        <ele>71</ele>
        <time>2008-04-27T07:14:26Z</time>
      </trkpt>
      <trkpt lat="49.38661" lon="1.06738">
        <ele>71</ele>
        <time>2008-04-27T07:16:44Z</time>
      </trkpt>
      <trkpt lat="49.38664" lon="1.06752">
        <ele>71</ele>
        <time>2008-04-27T07:16:50Z</time>
      </trkpt>
      <trkpt lat="49.38665" lon="1.06768">
        <ele>71</ele>
        <time>2008-04-27T07:16:55Z</time>
      </trkpt>
      <trkpt lat="49.3866" lon="1.06784">
        <ele>71</ele>
        <time>2008-04-27T07:16:59Z</time>
      </trkpt>
      <trkpt lat="49.38655" lon="1.06799">
        <ele>71</ele>
        <time>2008-04-27T07:17:03Z</time>
      </trkpt>
      <trkpt lat="49.3865" lon="1.06816">
        <ele>71</ele>
        <time>2008-04-27T07:17:07Z</time>
      </trkpt>
      <trkpt lat="49.38644" lon="1.06832">
        <ele>71</ele>
        <time>2008-04-27T07:17:10Z</time>
      </trkpt>
      <trkpt lat="49.38642" lon="1.06845">
        <ele>71</ele>
        <time>2008-04-27T07:17:13Z</time>
      </trkpt>
      <trkpt lat="49.38636" lon="1.06857">
        <ele>71</ele>
        <time>2008-04-27T07:17:17Z</time>
      </trkpt>
      <trkpt lat="49.38628" lon="1.06854">
        <ele>71</ele>
        <time>2008-04-27T07:17:21Z</time>
      </trkpt>
      <trkpt lat="49.38618" lon="1.06846">
        <ele>71</ele>
        <time>2008-04-27T07:17:26Z</time>
      </trkpt>
      <trkpt lat="49.38612" lon="1.06835">
        <ele>71</ele>
        <time>2008-04-27T07:17:31Z</time>
      </trkpt>
      <trkpt lat="49.38614" lon="1.06819">
        <ele>71</ele>
        <time>2008-04-27T07:17:35Z</time>
      </trkpt>
      <trkpt lat="49.38621" lon="1.06805">
        <ele>71</ele>
        <time>2008-04-27T07:17:39Z</time>
      </trkpt>
      <trkpt lat="49.38625" lon="1.06792">
        <ele>71</ele>
        <time>2008-04-27T07:17:43Z</time>
      </trkpt>
      <trkpt lat="49.38629" lon="1.06777">
        <ele>71</ele>
        <time>2008-04-27T07:17:47Z</time>
      </trkpt>
      <trkpt lat="49.38634" lon="1.06762">
        <ele>71</ele>
        <time>2008-04-27T07:17:51Z</time>
      </trkpt>
      <trkpt lat="49.38638" lon="1.06746">
        <ele>71</ele>
        <time>2008-04-27T07:17:55Z</time>
      </trkpt>
      <trkpt lat="49.38643" lon="1.06729">
        <ele>71</ele>
        <time>2008-04-27T07:17:59Z</time>
      </trkpt>
      <trkpt lat="49.38648" lon="1.06712">
        <ele>71</ele>
        <time>2008-04-27T07:18:03Z</time>
      </trkpt>
      <trkpt lat="49.38652" lon="1.06696">
        <ele>71</ele>
        <time>2008-04-27T07:18:07Z</time>
      </trkpt>
      <trkpt lat="49.38657" lon="1.06679">
        <ele>71</ele>
        <time>2008-04-27T07:18:11Z</time>
      </trkpt>
      <trkpt lat="49.38662" lon="1.06663">
        <ele>71</ele>
        <time>2008-04-27T07:18:15Z</time>
      </trkpt>
      <trkpt lat="49.38668" lon="1.06647">
        <ele>71</ele>
        <time>2008-04-27T07:18:19Z</time>
      </trkpt>
      <trkpt lat="49.38672" lon="1.0663">
        <ele>71</ele>
        <time>2008-04-27T07:18:23Z</time>
      </trkpt>
      <trkpt lat="49.38676" lon="1.06612">
        <ele>71</ele>
        <time>2008-04-27T07:18:27Z</time>
      </trkpt>
      <trkpt lat="49.38679" lon="1.06597">
        <ele>71</ele>
        <time>2008-04-27T07:18:30Z</time>
      </trkpt>
      <trkpt lat="49.38683" lon="1.06583">
        <ele>71</ele>
        <time>2008-04-27T07:18:33Z</time>
      </trkpt>
      <trkpt lat="49.38688" lon="1.06571">
        <ele>71</ele>
        <time>2008-04-27T07:18:36Z</time>
      </trkpt>
      <trkpt lat="49.38692" lon="1.06558">
        <ele>71</ele>
        <time>2008-04-27T07:18:39Z</time>
      </trkpt>
      <trkpt lat="49.38697" lon="1.06544">
        <ele>71</ele>
        <time>2008-04-27T07:18:42Z</time>
      </trkpt>
      <trkpt lat="49.38701" lon="1.06531">
        <ele>71</ele>
        <time>2008-04-27T07:18:45Z</time>
      </trkpt>
      <trkpt lat="49.38706" lon="1.06517">
        <ele>71</ele>
        <time>2008-04-27T07:18:48Z</time>
      </trkpt>
      <trkpt lat="49.38712" lon="1.06505">
        <ele>71</ele>
        <time>2008-04-27T07:18:51Z</time>
      </trkpt>
      <trkpt lat="49.38716" lon="1.06492">
        <ele>71</ele>
        <time>2008-04-27T07:18:54Z</time>
      </trkpt>
      <trkpt lat="49.38724" lon="1.06482">
        <ele>71</ele>
        <time>2008-04-27T07:18:58Z</time>
      </trkpt>
      <trkpt lat="49.38732" lon="1.06469">
        <ele>71</ele>
        <time>2008-04-27T07:19:02Z</time>
      </trkpt>
      <trkpt lat="49.38736" lon="1.06455">
        <ele>71</ele>
        <time>2008-04-27T07:19:05Z</time>
      </trkpt>
      <trkpt lat="49.38738" lon="1.0644">
        <ele>71</ele>
        <time>2008-04-27T07:19:08Z</time>
      </trkpt>
      <trkpt lat="49.38742" lon="1.06423">
        <ele>71</ele>
        <time>2008-04-27T07:19:12Z</time>
      </trkpt>
      <trkpt lat="49.38747" lon="1.06409">
        <ele>71</ele>
        <time>2008-04-27T07:19:17Z</time>
      </trkpt>
      <trkpt lat="49.3875" lon="1.06383">
        <ele>71</ele>
        <time>2008-04-27T07:19:55Z</time>
      </trkpt>
      <trkpt lat="49.38756" lon="1.06407">
        <ele>71</ele>
        <time>2008-04-27T07:20:22Z</time>
      </trkpt>
      <trkpt lat="49.38752" lon="1.06429">
        <ele>71</ele>
        <time>2008-04-27T07:20:48Z</time>
      </trkpt>
      <trkpt lat="49.38759" lon="1.0642">
        <ele>71</ele>
        <time>2008-04-27T07:20:56Z</time>
      </trkpt>
      <trkpt lat="49.38753" lon="1.06423">
        <ele>71</ele>
        <time>2008-04-27T07:21:06Z</time>
      </trkpt>
      <trkpt lat="49.38766" lon="1.06427">
        <ele>71</ele>
        <time>2008-04-27T07:21:22Z</time>
      </trkpt>
      <trkpt lat="49.38778" lon="1.06428">
        <ele>71</ele>
        <time>2008-04-27T07:21:28Z</time>
      </trkpt>
      <trkpt lat="49.38787" lon="1.06431">
        <ele>71</ele>
        <time>2008-04-27T07:21:34Z</time>
      </trkpt>
      <trkpt lat="49.38787" lon="1.06419">
        <ele>71</ele>
        <time>2008-04-27T07:21:46Z</time>
      </trkpt>
      <trkpt lat="49.38786" lon="1.06414">
        <ele>71</ele>
        <time>2008-04-27T07:22:12Z</time>
      </trkpt>
      <trkpt lat="49.38773" lon="1.0644">
        <ele>71</ele>
        <time>2008-04-27T07:22:39Z</time>
      </trkpt>
      <trkpt lat="49.38766" lon="1.06432">
        <ele>71</ele>
        <time>2008-04-27T07:23:02Z</time>
      </trkpt>
      <trkpt lat="49.38779" lon="1.06423">
        <ele>71</ele>
        <time>2008-04-27T07:23:55Z</time>
      </trkpt>
      <trkpt lat="49.3878" lon="1.06426">
        <ele>71</ele>
        <time>2008-04-27T07:24:03Z</time>
      </trkpt>
      <trkpt lat="49.38772" lon="1.06426">
        <ele>71</ele>
        <time>2008-04-27T07:24:09Z</time>
      </trkpt>
      <trkpt lat="49.38768" lon="1.06406">
        <ele>71</ele>
        <time>2008-04-27T07:24:33Z</time>
      </trkpt>
      <trkpt lat="49.38779" lon="1.06396">
        <ele>71</ele>
        <time>2008-04-27T07:25:04Z</time>
      </trkpt>
      <trkpt lat="49.38764" lon="1.0639">
        <ele>71</ele>
        <time>2008-04-27T07:25:28Z</time>
      </trkpt>
      <trkpt lat="49.38743" lon="1.06381">
        <ele>71</ele>
        <time>2008-04-27T07:28:47Z</time>
      </trkpt>
      <trkpt lat="49.3877" lon="1.06385">
        <ele>71</ele>
        <time>2008-04-27T07:29:57Z</time>
      </trkpt>
      <trkpt lat="49.3879" lon="1.06381">
        <ele>71</ele>
        <time>2008-04-27T07:32:23Z</time>
      </trkpt>
      <trkpt lat="49.38774" lon="1.06368">
        <ele>71</ele>
        <time>2008-04-27T07:32:44Z</time>
      </trkpt>
      <trkpt lat="49.38769" lon="1.06352">
        <ele>71</ele>
        <time>2008-04-27T07:32:52Z</time>
      </trkpt>
      <trkpt lat="49.38767" lon="1.06334">
        <ele>71</ele>
        <time>2008-04-27T07:32:56Z</time>
      </trkpt>
      <trkpt lat="49.38766" lon="1.06318">
        <ele>71</ele>
        <time>2008-04-27T07:33:00Z</time>
      </trkpt>
      <trkpt lat="49.38771" lon="1.06302">
        <ele>71</ele>
        <time>2008-04-27T07:33:04Z</time>
      </trkpt>
      <trkpt lat="49.38774" lon="1.06288">
        <ele>71</ele>
        <time>2008-04-27T07:33:07Z</time>
      </trkpt>
      <trkpt lat="49.38778" lon="1.06273">
        <ele>71</ele>
        <time>2008-04-27T07:33:10Z</time>
      </trkpt>
      <trkpt lat="49.38782" lon="1.06258">
        <ele>71</ele>
        <time>2008-04-27T07:33:13Z</time>
      </trkpt>
      <trkpt lat="49.38787" lon="1.06243">
        <ele>71</ele>
        <time>2008-04-27T07:33:16Z</time>
      </trkpt>
      <trkpt lat="49.38791" lon="1.06228">
        <ele>71</ele>
        <time>2008-04-27T07:33:19Z</time>
      </trkpt>
      <trkpt lat="49.38795" lon="1.06213">
        <ele>71</ele>
        <time>2008-04-27T07:33:22Z</time>
      </trkpt>
      <trkpt lat="49.38797" lon="1.06197">
        <ele>71</ele>
        <time>2008-04-27T07:33:25Z</time>
      </trkpt>
      <trkpt lat="49.38802" lon="1.06184">
        <ele>71</ele>
        <time>2008-04-27T07:33:28Z</time>
      </trkpt>
      <trkpt lat="49.38807" lon="1.0617">
        <ele>71</ele>
        <time>2008-04-27T07:33:31Z</time>
      </trkpt>
      <trkpt lat="49.38811" lon="1.06155">
        <ele>71</ele>
        <time>2008-04-27T07:33:34Z</time>
      </trkpt>
      <trkpt lat="49.38816" lon="1.06139">
        <ele>71</ele>
        <time>2008-04-27T07:33:37Z</time>
      </trkpt>
      <trkpt lat="49.38822" lon="1.06122">
        <ele>71</ele>
        <time>2008-04-27T07:33:40Z</time>
      </trkpt>
      <trkpt lat="49.38827" lon="1.06105">
        <ele>71</ele>
        <time>2008-04-27T07:33:43Z</time>
      </trkpt>
      <trkpt lat="49.38832" lon="1.06088">
        <ele>71</ele>
        <time>2008-04-27T07:33:46Z</time>
      </trkpt>
      <trkpt lat="49.38837" lon="1.0607">
        <ele>71</ele>
        <time>2008-04-27T07:33:49Z</time>
      </trkpt>
      <trkpt lat="49.38842" lon="1.06052">
        <ele>71</ele>
        <time>2008-04-27T07:33:52Z</time>
      </trkpt>
      <trkpt lat="49.38848" lon="1.06033">
        <ele>71</ele>
        <time>2008-04-27T07:33:55Z</time>
      </trkpt>
      <trkpt lat="49.38853" lon="1.06015">
        <ele>71</ele>
        <time>2008-04-27T07:33:58Z</time>
      </trkpt>
      <trkpt lat="49.38857" lon="1.05996">
        <ele>71</ele>
        <time>2008-04-27T07:34:01Z</time>
      </trkpt>
      <trkpt lat="49.38855" lon="1.05978">
        <ele>71</ele>
        <time>2008-04-27T07:34:04Z</time>
      </trkpt>
      <trkpt lat="49.38853" lon="1.05961">
        <ele>71</ele>
        <time>2008-04-27T07:34:07Z</time>
      </trkpt>
      <trkpt lat="49.38852" lon="1.05946">
        <ele>71</ele>
        <time>2008-04-27T07:34:10Z</time>
      </trkpt>
      <trkpt lat="49.3885" lon="1.0593">
        <ele>71</ele>
        <time>2008-04-27T07:34:13Z</time>
      </trkpt>
      <trkpt lat="49.38847" lon="1.05914">
        <ele>71</ele>
        <time>2008-04-27T07:34:16Z</time>
      </trkpt>
      <trkpt lat="49.38844" lon="1.05897">
        <ele>71</ele>
        <time>2008-04-27T07:34:19Z</time>
      </trkpt>
      <trkpt lat="49.38842" lon="1.05879">
        <ele>71</ele>
        <time>2008-04-27T07:34:22Z</time>
      </trkpt>
      <trkpt lat="49.3884" lon="1.05861">
        <ele>70</ele>
        <time>2008-04-27T07:34:25Z</time>
      </trkpt>
      <trkpt lat="49.38839" lon="1.05842">
        <ele>70</ele>
        <time>2008-04-27T07:34:28Z</time>
      </trkpt>
      <trkpt lat="49.3884" lon="1.05823">
        <ele>70</ele>
        <time>2008-04-27T07:34:31Z</time>
      </trkpt>
      <trkpt lat="49.38842" lon="1.05804">
        <ele>70</ele>
        <time>2008-04-27T07:34:34Z</time>
      </trkpt>
      <trkpt lat="49.38844" lon="1.05784">
        <ele>70</ele>
        <time>2008-04-27T07:34:37Z</time>
      </trkpt>
      <trkpt lat="49.38847" lon="1.05765">
        <ele>70</ele>
        <time>2008-04-27T07:34:40Z</time>
      </trkpt>
      <trkpt lat="49.3885" lon="1.05746">
        <ele>70</ele>
        <time>2008-04-27T07:34:43Z</time>
      </trkpt>
      <trkpt lat="49.38855" lon="1.05727">
        <ele>69</ele>
        <time>2008-04-27T07:34:46Z</time>
      </trkpt>
      <trkpt lat="49.3886" lon="1.05708">
        <ele>69</ele>
        <time>2008-04-27T07:34:49Z</time>
      </trkpt>
      <trkpt lat="49.38866" lon="1.05689">
        <ele>69</ele>
        <time>2008-04-27T07:34:52Z</time>
      </trkpt>
      <trkpt lat="49.38872" lon="1.0567">
        <ele>69</ele>
        <time>2008-04-27T07:34:55Z</time>
      </trkpt>
      <trkpt lat="49.38882" lon="1.05657">
        <ele>69</ele>
        <time>2008-04-27T07:34:58Z</time>
      </trkpt>
      <trkpt lat="49.38895" lon="1.05647">
        <ele>69</ele>
        <time>2008-04-27T07:35:01Z</time>
      </trkpt>
      <trkpt lat="49.38902" lon="1.05637">
        <ele>69</ele>
        <time>2008-04-27T07:35:03Z</time>
      </trkpt>
      <trkpt lat="49.38908" lon="1.05626">
        <ele>69</ele>
        <time>2008-04-27T07:35:05Z</time>
      </trkpt>
      <trkpt lat="49.38911" lon="1.05612">
        <ele>69</ele>
        <time>2008-04-27T07:35:07Z</time>
      </trkpt>
      <trkpt lat="49.38912" lon="1.05597">
        <ele>69</ele>
        <time>2008-04-27T07:35:09Z</time>
      </trkpt>
      <trkpt lat="49.38911" lon="1.05582">
        <ele>68</ele>
        <time>2008-04-27T07:35:11Z</time>
      </trkpt>
      <trkpt lat="49.38908" lon="1.05566">
        <ele>68</ele>
        <time>2008-04-27T07:35:13Z</time>
      </trkpt>
      <trkpt lat="49.38907" lon="1.05551">
        <ele>68</ele>
        <time>2008-04-27T07:35:15Z</time>
      </trkpt>
      <trkpt lat="49.38907" lon="1.05535">
        <ele>68</ele>
        <time>2008-04-27T07:35:17Z</time>
      </trkpt>
      <trkpt lat="49.38908" lon="1.05518">
        <ele>68</ele>
        <time>2008-04-27T07:35:19Z</time>
      </trkpt>
      <trkpt lat="49.38908" lon="1.05502">
        <ele>68</ele>
        <time>2008-04-27T07:35:21Z</time>
      </trkpt>
      <trkpt lat="49.38915" lon="1.0546">
        <ele>68</ele>
        <time>2008-04-27T07:35:26Z</time>
      </trkpt>
      <trkpt lat="49.38919" lon="1.05443">
        <ele>68</ele>
        <time>2008-04-27T07:35:28Z</time>
      </trkpt>
      <trkpt lat="49.38927" lon="1.05419">
        <ele>68</ele>
        <time>2008-04-27T07:35:31Z</time>
      </trkpt>
      <trkpt lat="49.38931" lon="1.05403">
        <ele>67</ele>
        <time>2008-04-27T07:35:33Z</time>
      </trkpt>
      <trkpt lat="49.38936" lon="1.05387">
        <ele>67</ele>
        <time>2008-04-27T07:35:35Z</time>
      </trkpt>
      <trkpt lat="49.38941" lon="1.05371">
        <ele>67</ele>
        <time>2008-04-27T07:35:37Z</time>
      </trkpt>
      <trkpt lat="49.38945" lon="1.05355">
        <ele>67</ele>
        <time>2008-04-27T07:35:39Z</time>
      </trkpt>
      <trkpt lat="49.38949" lon="1.05339">
        <ele>67</ele>
        <time>2008-04-27T07:35:41Z</time>
      </trkpt>
      <trkpt lat="49.38953" lon="1.05323">
        <ele>67</ele>
        <time>2008-04-27T07:35:43Z</time>
      </trkpt>
      <trkpt lat="49.38957" lon="1.05306">
        <ele>67</ele>
        <time>2008-04-27T07:35:45Z</time>
      </trkpt>
      <trkpt lat="49.38962" lon="1.0529">
        <ele>67</ele>
        <time>2008-04-27T07:35:47Z</time>
      </trkpt>
      <trkpt lat="49.38966" lon="1.05273">
        <ele>67</ele>
        <time>2008-04-27T07:35:49Z</time>
      </trkpt>
      <trkpt lat="49.38971" lon="1.05255">
        <ele>67</ele>
        <time>2008-04-27T07:35:51Z</time>
      </trkpt>
      <trkpt lat="49.38976" lon="1.05237">
        <ele>67</ele>
        <time>2008-04-27T07:35:53Z</time>
      </trkpt>
      <trkpt lat="49.38982" lon="1.05219">
        <ele>66</ele>
        <time>2008-04-27T07:35:55Z</time>
      </trkpt>
      <trkpt lat="49.38987" lon="1.052">
        <ele>66</ele>
        <time>2008-04-27T07:35:57Z</time>
      </trkpt>
      <trkpt lat="49.38992" lon="1.05181">
        <ele>66</ele>
        <time>2008-04-27T07:35:59Z</time>
      </trkpt>
      <trkpt lat="49.38997" lon="1.05162">
        <ele>66</ele>
        <time>2008-04-27T07:36:01Z</time>
      </trkpt>
      <trkpt lat="49.39003" lon="1.05144">
        <ele>66</ele>
        <time>2008-04-27T07:36:03Z</time>
      </trkpt>
      <trkpt lat="49.39008" lon="1.05126">
        <ele>66</ele>
        <time>2008-04-27T07:36:05Z</time>
      </trkpt>
      <trkpt lat="49.39013" lon="1.05109">
        <ele>66</ele>
        <time>2008-04-27T07:36:07Z</time>
      </trkpt>
      <trkpt lat="49.39021" lon="1.05096">
        <ele>66</ele>
        <time>2008-04-27T07:36:09Z</time>
      </trkpt>
      <trkpt lat="49.39025" lon="1.05079">
        <ele>66</ele>
        <time>2008-04-27T07:36:11Z</time>
      </trkpt>
      <trkpt lat="49.39021" lon="1.05064">
        <ele>66</ele>
        <time>2008-04-27T07:36:13Z</time>
      </trkpt>
      <trkpt lat="49.39012" lon="1.05055">
        <ele>66</ele>
        <time>2008-04-27T07:36:15Z</time>
      </trkpt>
      <trkpt lat="49.39002" lon="1.05052">
        <ele>66</ele>
        <time>2008-04-27T07:36:17Z</time>
      </trkpt>
      <trkpt lat="49.38992" lon="1.05048">
        <ele>66</ele>
        <time>2008-04-27T07:36:19Z</time>
      </trkpt>
      <trkpt lat="49.38982" lon="1.05042">
        <ele>66</ele>
        <time>2008-04-27T07:36:21Z</time>
      </trkpt>
      <trkpt lat="49.38972" lon="1.05035">
        <ele>66</ele>
        <time>2008-04-27T07:36:23Z</time>
      </trkpt>
      <trkpt lat="49.38963" lon="1.05028">
        <ele>66</ele>
        <time>2008-04-27T07:36:25Z</time>
      </trkpt>
      <trkpt lat="49.38953" lon="1.05021">
        <ele>66</ele>
        <time>2008-04-27T07:36:27Z</time>
      </trkpt>
      <trkpt lat="49.38944" lon="1.05014">
        <ele>66</ele>
        <time>2008-04-27T07:36:29Z</time>
      </trkpt>
      <trkpt lat="49.38935" lon="1.05007">
        <ele>66</ele>
        <time>2008-04-27T07:36:31Z</time>
      </trkpt>
      <trkpt lat="49.38925" lon="1.05">
        <ele>66</ele>
        <time>2008-04-27T07:36:33Z</time>
      </trkpt>
      <trkpt lat="49.38916" lon="1.04994">
        <ele>66</ele>
        <time>2008-04-27T07:36:35Z</time>
      </trkpt>
      <trkpt lat="49.38907" lon="1.04987">
        <ele>66</ele>
        <time>2008-04-27T07:36:37Z</time>
      </trkpt>
      <trkpt lat="49.38899" lon="1.0498">
        <ele>66</ele>
        <time>2008-04-27T07:36:39Z</time>
      </trkpt>
      <trkpt lat="49.3889" lon="1.04974">
        <ele>66</ele>
        <time>2008-04-27T07:36:41Z</time>
      </trkpt>
      <trkpt lat="49.38882" lon="1.04967">
        <ele>66</ele>
        <time>2008-04-27T07:36:43Z</time>
      </trkpt>
      <trkpt lat="49.38874" lon="1.04959">
        <ele>66</ele>
        <time>2008-04-27T07:36:45Z</time>
      </trkpt>
      <trkpt lat="49.38866" lon="1.04949">
        <ele>66</ele>
        <time>2008-04-27T07:36:47Z</time>
      </trkpt>
      <trkpt lat="49.38859" lon="1.04939">
        <ele>66</ele>
        <time>2008-04-27T07:36:49Z</time>
      </trkpt>
      <trkpt lat="49.38853" lon="1.04928">
        <ele>66</ele>
        <time>2008-04-27T07:36:51Z</time>
      </trkpt>
      <trkpt lat="49.38846" lon="1.04916">
        <ele>65</ele>
        <time>2008-04-27T07:36:53Z</time>
      </trkpt>
      <trkpt lat="49.38841" lon="1.04903">
        <ele>65</ele>
        <time>2008-04-27T07:36:55Z</time>
      </trkpt>
      <trkpt lat="49.38836" lon="1.0489">
        <ele>65</ele>
        <time>2008-04-27T07:36:57Z</time>
      </trkpt>
      <trkpt lat="49.38831" lon="1.04877">
        <ele>65</ele>
        <time>2008-04-27T07:36:59Z</time>
      </trkpt>
      <trkpt lat="49.38826" lon="1.04864">
        <ele>65</ele>
        <time>2008-04-27T07:37:01Z</time>
      </trkpt>
      <trkpt lat="49.38821" lon="1.04851">
        <ele>65</ele>
        <time>2008-04-27T07:37:03Z</time>
      </trkpt>
      <trkpt lat="49.38817" lon="1.04838">
        <ele>64</ele>
        <time>2008-04-27T07:37:05Z</time>
      </trkpt>
      <trkpt lat="49.38813" lon="1.04825">
        <ele>64</ele>
        <time>2008-04-27T07:37:07Z</time>
      </trkpt>
      <trkpt lat="49.38808" lon="1.04812">
        <ele>64</ele>
        <time>2008-04-27T07:37:09Z</time>
      </trkpt>
      <trkpt lat="49.38803" lon="1.04799">
        <ele>64</ele>
        <time>2008-04-27T07:37:11Z</time>
      </trkpt>
      <trkpt lat="49.38798" lon="1.04783">
        <ele>64</ele>
        <time>2008-04-27T07:37:13Z</time>
      </trkpt>
      <trkpt lat="49.38791" lon="1.04766">
        <ele>63</ele>
        <time>2008-04-27T07:37:15Z</time>
      </trkpt>
      <trkpt lat="49.38784" lon="1.04747">
        <ele>63</ele>
        <time>2008-04-27T07:37:17Z</time>
      </trkpt>
      <trkpt lat="49.38777" lon="1.04726">
        <ele>63</ele>
        <time>2008-04-27T07:37:19Z</time>
      </trkpt>
      <trkpt lat="49.38768" lon="1.04704">
        <ele>63</ele>
        <time>2008-04-27T07:37:21Z</time>
      </trkpt>
      <trkpt lat="49.38759" lon="1.04681">
        <ele>62</ele>
        <time>2008-04-27T07:37:23Z</time>
      </trkpt>
      <trkpt lat="49.3875" lon="1.04659">
        <ele>62</ele>
        <time>2008-04-27T07:37:25Z</time>
      </trkpt>
      <trkpt lat="49.38741" lon="1.04635">
        <ele>62</ele>
        <time>2008-04-27T07:37:27Z</time>
      </trkpt>
      <trkpt lat="49.38734" lon="1.04612">
        <ele>61</ele>
        <time>2008-04-27T07:37:29Z</time>
      </trkpt>
      <trkpt lat="49.38726" lon="1.04589">
        <ele>61</ele>
        <time>2008-04-27T07:37:31Z</time>
      </trkpt>
      <trkpt lat="49.38719" lon="1.04567">
        <ele>61</ele>
        <time>2008-04-27T07:37:33Z</time>
      </trkpt>
      <trkpt lat="49.3871" lon="1.04544">
        <ele>60</ele>
        <time>2008-04-27T07:37:35Z</time>
      </trkpt>
      <trkpt lat="49.38702" lon="1.04521">
        <ele>60</ele>
        <time>2008-04-27T07:37:37Z</time>
      </trkpt>
      <trkpt lat="49.38698" lon="1.04497">
        <ele>60</ele>
        <time>2008-04-27T07:37:39Z</time>
      </trkpt>
      <trkpt lat="49.38696" lon="1.04473">
        <ele>59</ele>
        <time>2008-04-27T07:37:41Z</time>
      </trkpt>
      <trkpt lat="49.38695" lon="1.0445">
        <ele>60</ele>
        <time>2008-04-27T07:37:43Z</time>
      </trkpt>
      <trkpt lat="49.38696" lon="1.04429">
        <ele>60</ele>
        <time>2008-04-27T07:37:45Z</time>
      </trkpt>
      <trkpt lat="49.387" lon="1.0441">
        <ele>61</ele>
        <time>2008-04-27T07:37:47Z</time>
      </trkpt>
      <trkpt lat="49.38704" lon="1.04393">
        <ele>62</ele>
        <time>2008-04-27T07:37:49Z</time>
      </trkpt>
      <trkpt lat="49.38709" lon="1.04375">
        <ele>62</ele>
        <time>2008-04-27T07:37:51Z</time>
      </trkpt>
      <trkpt lat="49.38714" lon="1.04358">
        <ele>63</ele>
        <time>2008-04-27T07:37:53Z</time>
      </trkpt>
      <trkpt lat="49.38719" lon="1.04342">
        <ele>63</ele>
        <time>2008-04-27T07:37:55Z</time>
      </trkpt>
      <trkpt lat="49.38723" lon="1.04324">
        <ele>63</ele>
        <time>2008-04-27T07:37:57Z</time>
      </trkpt>
      <trkpt lat="49.38728" lon="1.04307">
        <ele>63</ele>
        <time>2008-04-27T07:37:59Z</time>
      </trkpt>
      <trkpt lat="49.38734" lon="1.0429">
        <ele>63</ele>
        <time>2008-04-27T07:38:01Z</time>
      </trkpt>
      <trkpt lat="49.38739" lon="1.04274">
        <ele>63</ele>
        <time>2008-04-27T07:38:03Z</time>
      </trkpt>
      <trkpt lat="49.38743" lon="1.0426">
        <ele>63</ele>
        <time>2008-04-27T07:38:05Z</time>
      </trkpt>
      <trkpt lat="49.38749" lon="1.04242">
        <ele>63</ele>
        <time>2008-04-27T07:38:08Z</time>
      </trkpt>
      <trkpt lat="49.38754" lon="1.04227">
        <ele>63</ele>
        <time>2008-04-27T07:38:11Z</time>
      </trkpt>
      <trkpt lat="49.38758" lon="1.04212">
        <ele>62</ele>
        <time>2008-04-27T07:38:15Z</time>
      </trkpt>
      <trkpt lat="49.38761" lon="1.04198">
        <ele>62</ele>
        <time>2008-04-27T07:38:19Z</time>
      </trkpt>
      <trkpt lat="49.38754" lon="1.04186">
        <ele>62</ele>
        <time>2008-04-27T07:38:23Z</time>
      </trkpt>
      <trkpt lat="49.38746" lon="1.04175">
        <ele>62</ele>
        <time>2008-04-27T07:38:27Z</time>
      </trkpt>
      <trkpt lat="49.38735" lon="1.0417">
        <ele>63</ele>
        <time>2008-04-27T07:38:33Z</time>
      </trkpt>
      <trkpt lat="49.38725" lon="1.04165">
        <ele>63</ele>
        <time>2008-04-27T07:38:37Z</time>
      </trkpt>
      <trkpt lat="49.38711" lon="1.0416">
        <ele>63</ele>
        <time>2008-04-27T07:38:46Z</time>
      </trkpt>
      <trkpt lat="49.38699" lon="1.0415">
        <ele>62</ele>
        <time>2008-04-27T07:38:55Z</time>
      </trkpt>
      <trkpt lat="49.38687" lon="1.04158">
        <ele>63</ele>
        <time>2008-04-27T07:39:04Z</time>
      </trkpt>
      <trkpt lat="49.38673" lon="1.04147">
        <ele>62</ele>
        <time>2008-04-27T07:39:09Z</time>
      </trkpt>
      <trkpt lat="49.38662" lon="1.04141">
        <ele>62</ele>
        <time>2008-04-27T07:39:12Z</time>
      </trkpt>
      <trkpt lat="49.3865" lon="1.04133">
        <ele>62</ele>
        <time>2008-04-27T07:39:15Z</time>
      </trkpt>
      <trkpt lat="49.38636" lon="1.04131">
        <ele>62</ele>
        <time>2008-04-27T07:39:18Z</time>
      </trkpt>
      <trkpt lat="49.38621" lon="1.04123">
        <ele>62</ele>
        <time>2008-04-27T07:39:21Z</time>
      </trkpt>
      <trkpt lat="49.38612" lon="1.04113">
        <ele>61</ele>
        <time>2008-04-27T07:39:23Z</time>
      </trkpt>
      <trkpt lat="49.386" lon="1.04101">
        <ele>61</ele>
        <time>2008-04-27T07:39:26Z</time>
      </trkpt>
      <trkpt lat="49.3859" lon="1.04089">
        <ele>61</ele>
        <time>2008-04-27T07:39:29Z</time>
      </trkpt>
      <trkpt lat="49.38583" lon="1.04081">
        <ele>60</ele>
        <time>2008-04-27T07:39:32Z</time>
      </trkpt>
      <trkpt lat="49.38571" lon="1.04073">
        <ele>60</ele>
        <time>2008-04-27T07:39:35Z</time>
      </trkpt>
      <trkpt lat="49.38561" lon="1.04066">
        <ele>59</ele>
        <time>2008-04-27T07:39:38Z</time>
      </trkpt>
      <trkpt lat="49.38549" lon="1.04057">
        <ele>58</ele>
        <time>2008-04-27T07:39:41Z</time>
      </trkpt>
      <trkpt lat="49.38536" lon="1.04045">
        <ele>58</ele>
        <time>2008-04-27T07:39:44Z</time>
      </trkpt>
      <trkpt lat="49.38524" lon="1.04036">
        <ele>57</ele>
        <time>2008-04-27T07:39:46Z</time>
      </trkpt>
      <trkpt lat="49.38515" lon="1.04034">
        <ele>56</ele>
        <time>2008-04-27T07:39:48Z</time>
      </trkpt>
      <trkpt lat="49.38513" lon="1.04055">
        <ele>54</ele>
        <time>2008-04-27T07:39:52Z</time>
      </trkpt>
      <trkpt lat="49.38511" lon="1.04076">
        <ele>53</ele>
        <time>2008-04-27T07:39:55Z</time>
      </trkpt>
      <trkpt lat="49.38499" lon="1.04097">
        <ele>51</ele>
        <time>2008-04-27T07:39:58Z</time>
      </trkpt>
      <trkpt lat="49.3849" lon="1.04111">
        <ele>49</ele>
        <time>2008-04-27T07:40:00Z</time>
      </trkpt>
      <trkpt lat="49.38479" lon="1.04118">
        <ele>48</ele>
        <time>2008-04-27T07:40:03Z</time>
      </trkpt>
      <trkpt lat="49.38469" lon="1.04104">
        <ele>47</ele>
        <time>2008-04-27T07:40:07Z</time>
      </trkpt>
      <trkpt lat="49.38462" lon="1.04088">
        <ele>46</ele>
        <time>2008-04-27T07:40:10Z</time>
      </trkpt>
      <trkpt lat="49.38451" lon="1.04072">
        <ele>45</ele>
        <time>2008-04-27T07:40:13Z</time>
      </trkpt>
      <trkpt lat="49.38438" lon="1.04054">
        <ele>44</ele>
        <time>2008-04-27T07:40:16Z</time>
      </trkpt>
      <trkpt lat="49.38432" lon="1.04037">
        <ele>44</ele>
        <time>2008-04-27T07:40:18Z</time>
      </trkpt>
      <trkpt lat="49.38426" lon="1.04019">
        <ele>44</ele>
        <time>2008-04-27T07:40:20Z</time>
      </trkpt>
      <trkpt lat="49.38416" lon="1.03998">
        <ele>43</ele>
        <time>2008-04-27T07:40:24Z</time>
      </trkpt>
      <trkpt lat="49.38402" lon="1.03972">
        <ele>42</ele>
        <time>2008-04-27T07:40:30Z</time>
      </trkpt>
      <trkpt lat="49.38387" lon="1.03942">
        <ele>42</ele>
        <time>2008-04-27T07:40:43Z</time>
      </trkpt>
      <trkpt lat="49.38376" lon="1.03934">
        <ele>41</ele>
        <time>2008-04-27T07:40:51Z</time>
      </trkpt>
      <trkpt lat="49.38364" lon="1.03924">
        <ele>39</ele>
        <time>2008-04-27T07:41:00Z</time>
      </trkpt>
      <trkpt lat="49.3835" lon="1.03915">
        <ele>41</ele>
        <time>2008-04-27T07:41:10Z</time>
      </trkpt>
      <trkpt lat="49.38338" lon="1.03907">
        <ele>43</ele>
        <time>2008-04-27T07:41:19Z</time>
      </trkpt>
      <trkpt lat="49.38327" lon="1.03897">
        <ele>45</ele>
        <time>2008-04-27T07:41:29Z</time>
      </trkpt>
      <trkpt lat="49.38319" lon="1.03905">
        <ele>47</ele>
        <time>2008-04-27T07:41:37Z</time>
      </trkpt>
      <trkpt lat="49.38314" lon="1.03921">
        <ele>47</ele>
        <time>2008-04-27T07:41:43Z</time>
      </trkpt>
      <trkpt lat="49.38307" lon="1.0394">
        <ele>47</ele>
        <time>2008-04-27T07:41:48Z</time>
      </trkpt>
      <trkpt lat="49.38301" lon="1.03955">
        <ele>48</ele>
        <time>2008-04-27T07:41:52Z</time>
      </trkpt>
      <trkpt lat="49.38295" lon="1.03972">
        <ele>48</ele>
        <time>2008-04-27T07:41:58Z</time>
      </trkpt>
      <trkpt lat="49.38289" lon="1.03989">
        <ele>48</ele>
        <time>2008-04-27T07:42:03Z</time>
      </trkpt>
      <trkpt lat="49.38281" lon="1.04005">
        <ele>49</ele>
        <time>2008-04-27T07:42:08Z</time>
      </trkpt>
      <trkpt lat="49.38275" lon="1.04022">
        <ele>50</ele>
        <time>2008-04-27T07:42:13Z</time>
      </trkpt>
      <trkpt lat="49.38268" lon="1.04038">
        <ele>50</ele>
        <time>2008-04-27T07:42:17Z</time>
      </trkpt>
      <trkpt lat="49.38262" lon="1.04055">
        <ele>50</ele>
        <time>2008-04-27T07:42:21Z</time>
      </trkpt>
      <trkpt lat="49.38252" lon="1.04078">
        <ele>50</ele>
        <time>2008-04-27T07:42:27Z</time>
      </trkpt>
      <trkpt lat="49.38245" lon="1.04093">
        <ele>50</ele>
        <time>2008-04-27T07:42:31Z</time>
      </trkpt>
      <trkpt lat="49.38237" lon="1.0411">
        <ele>51</ele>
        <time>2008-04-27T07:42:36Z</time>
      </trkpt>
      <trkpt lat="49.38231" lon="1.04128">
        <ele>51</ele>
        <time>2008-04-27T07:42:41Z</time>
      </trkpt>
      <trkpt lat="49.38225" lon="1.04144">
        <ele>51</ele>
        <time>2008-04-27T07:42:45Z</time>
      </trkpt>
      <trkpt lat="49.38218" lon="1.04159">
        <ele>51</ele>
        <time>2008-04-27T07:42:49Z</time>
      </trkpt>
      <trkpt lat="49.38212" lon="1.04177">
        <ele>51</ele>
        <time>2008-04-27T07:42:55Z</time>
      </trkpt>
      <trkpt lat="49.38203" lon="1.042">
        <ele>51</ele>
        <time>2008-04-27T07:43:01Z</time>
      </trkpt>
      <trkpt lat="49.38197" lon="1.04218">
        <ele>52</ele>
        <time>2008-04-27T07:43:06Z</time>
      </trkpt>
      <trkpt lat="49.38191" lon="1.04237">
        <ele>53</ele>
        <time>2008-04-27T07:43:11Z</time>
      </trkpt>
      <trkpt lat="49.38184" lon="1.04255">
        <ele>54</ele>
        <time>2008-04-27T07:43:16Z</time>
      </trkpt>
      <trkpt lat="49.38179" lon="1.04272">
        <ele>55</ele>
        <time>2008-04-27T07:43:21Z</time>
      </trkpt>
      <trkpt lat="49.38172" lon="1.04291">
        <ele>55</ele>
        <time>2008-04-27T07:43:26Z</time>
      </trkpt>
      <trkpt lat="49.38166" lon="1.04308">
        <ele>55</ele>
        <time>2008-04-27T07:43:30Z</time>
      </trkpt>
      <trkpt lat="49.38159" lon="1.04326">
        <ele>56</ele>
        <time>2008-04-27T07:43:34Z</time>
      </trkpt>
      <trkpt lat="49.38152" lon="1.04342">
        <ele>57</ele>
        <time>2008-04-27T07:43:38Z</time>
      </trkpt>
      <trkpt lat="49.38145" lon="1.0436">
        <ele>57</ele>
        <time>2008-04-27T07:43:42Z</time>
      </trkpt>
      <trkpt lat="49.38139" lon="1.04378">
        <ele>57</ele>
        <time>2008-04-27T07:43:46Z</time>
      </trkpt>
      <trkpt lat="49.38132" lon="1.04397">
        <ele>57</ele>
        <time>2008-04-27T07:43:50Z</time>
      </trkpt>
      <trkpt lat="49.38125" lon="1.04414">
        <ele>57</ele>
        <time>2008-04-27T07:43:54Z</time>
      </trkpt>
      <trkpt lat="49.38118" lon="1.04432">
        <ele>58</ele>
        <time>2008-04-27T07:43:58Z</time>
      </trkpt>
      <trkpt lat="49.38111" lon="1.04452">
        <ele>58</ele>
        <time>2008-04-27T07:44:02Z</time>
      </trkpt>
      <trkpt lat="49.381" lon="1.04462">
        <ele>58</ele>
        <time>2008-04-27T07:44:06Z</time>
      </trkpt>
      <trkpt lat="49.38089" lon="1.04461">
        <ele>59</ele>
        <time>2008-04-27T07:44:10Z</time>
      </trkpt>
      <trkpt lat="49.38075" lon="1.04468">
        <ele>60</ele>
        <time>2008-04-27T07:44:15Z</time>
      </trkpt>
      <trkpt lat="49.38061" lon="1.04462">
        <ele>61</ele>
        <time>2008-04-27T07:44:20Z</time>
      </trkpt>
      <trkpt lat="49.38047" lon="1.04455">
        <ele>62</ele>
        <time>2008-04-27T07:44:25Z</time>
      </trkpt>
      <trkpt lat="49.38032" lon="1.04463">
        <ele>62</ele>
        <time>2008-04-27T07:44:30Z</time>
      </trkpt>
      <trkpt lat="49.38014" lon="1.04479">
        <ele>62</ele>
        <time>2008-04-27T07:44:36Z</time>
      </trkpt>
      <trkpt lat="49.37998" lon="1.04471">
        <ele>62</ele>
        <time>2008-04-27T07:44:43Z</time>
      </trkpt>
      <trkpt lat="49.37984" lon="1.04467">
        <ele>63</ele>
        <time>2008-04-27T07:44:48Z</time>
      </trkpt>
      <trkpt lat="49.37969" lon="1.04469">
        <ele>63</ele>
        <time>2008-04-27T07:44:55Z</time>
      </trkpt>
      <trkpt lat="49.3795" lon="1.04473">
        <ele>64</ele>
        <time>2008-04-27T07:45:03Z</time>
      </trkpt>
      <trkpt lat="49.37938" lon="1.04468">
        <ele>65</ele>
        <time>2008-04-27T07:45:09Z</time>
      </trkpt>
      <trkpt lat="49.37928" lon="1.04457">
        <ele>65</ele>
        <time>2008-04-27T07:45:16Z</time>
      </trkpt>
      <trkpt lat="49.37913" lon="1.04451">
        <ele>66</ele>
        <time>2008-04-27T07:45:21Z</time>
      </trkpt>
      <trkpt lat="49.37898" lon="1.04446">
        <ele>67</ele>
        <time>2008-04-27T07:45:31Z</time>
      </trkpt>
      <trkpt lat="49.37884" lon="1.04452">
        <ele>67</ele>
        <time>2008-04-27T07:45:49Z</time>
      </trkpt>
      <trkpt lat="49.37872" lon="1.04428">
        <ele>68</ele>
        <time>2008-04-27T07:46:04Z</time>
      </trkpt>
      <trkpt lat="49.37859" lon="1.04428">
        <ele>68</ele>
        <time>2008-04-27T07:46:09Z</time>
      </trkpt>
      <trkpt lat="49.37851" lon="1.04414">
        <ele>69</ele>
        <time>2008-04-27T07:46:14Z</time>
      </trkpt>
      <trkpt lat="49.3785" lon="1.04397">
        <ele>70</ele>
        <time>2008-04-27T07:46:18Z</time>
      </trkpt>
      <trkpt lat="49.37843" lon="1.04381">
        <ele>70</ele>
        <time>2008-04-27T07:46:21Z</time>
      </trkpt>
      <trkpt lat="49.37835" lon="1.04367">
        <ele>71</ele>
        <time>2008-04-27T07:46:24Z</time>
      </trkpt>
      <trkpt lat="49.37828" lon="1.04353">
        <ele>72</ele>
        <time>2008-04-27T07:46:28Z</time>
      </trkpt>
      <trkpt lat="49.37818" lon="1.0435">
        <ele>72</ele>
        <time>2008-04-27T07:46:32Z</time>
      </trkpt>
      <trkpt lat="49.37806" lon="1.04357">
        <ele>72</ele>
        <time>2008-04-27T07:46:36Z</time>
      </trkpt>
      <trkpt lat="49.37795" lon="1.04359">
        <ele>72</ele>
        <time>2008-04-27T07:46:39Z</time>
      </trkpt>
      <trkpt lat="49.37785" lon="1.04361">
        <ele>73</ele>
        <time>2008-04-27T07:46:42Z</time>
      </trkpt>
      <trkpt lat="49.37773" lon="1.04359">
        <ele>73</ele>
        <time>2008-04-27T07:46:46Z</time>
      </trkpt>
      <trkpt lat="49.37764" lon="1.04352">
        <ele>74</ele>
        <time>2008-04-27T07:46:49Z</time>
      </trkpt>
      <trkpt lat="49.3775" lon="1.04338">
        <ele>75</ele>
        <time>2008-04-27T07:46:53Z</time>
      </trkpt>
      <trkpt lat="49.37739" lon="1.04327">
        <ele>75</ele>
        <time>2008-04-27T07:46:56Z</time>
      </trkpt>
      <trkpt lat="49.37728" lon="1.04318">
        <ele>76</ele>
        <time>2008-04-27T07:46:59Z</time>
      </trkpt>
      <trkpt lat="49.37717" lon="1.04308">
        <ele>76</ele>
        <time>2008-04-27T07:47:02Z</time>
      </trkpt>
      <trkpt lat="49.37707" lon="1.04296">
        <ele>77</ele>
        <time>2008-04-27T07:47:06Z</time>
      </trkpt>
      <trkpt lat="49.37696" lon="1.04287">
        <ele>78</ele>
        <time>2008-04-27T07:47:11Z</time>
      </trkpt>
      <trkpt lat="49.37686" lon="1.04272">
        <ele>78</ele>
        <time>2008-04-27T07:47:16Z</time>
      </trkpt>
      <trkpt lat="49.3768" lon="1.04256">
        <ele>78</ele>
        <time>2008-04-27T07:47:21Z</time>
      </trkpt>
      <trkpt lat="49.37673" lon="1.0424">
        <ele>78</ele>
        <time>2008-04-27T07:47:25Z</time>
      </trkpt>
      <trkpt lat="49.37668" lon="1.04224">
        <ele>78</ele>
        <time>2008-04-27T07:47:33Z</time>
      </trkpt>
      <trkpt lat="49.37658" lon="1.04212">
        <ele>78</ele>
        <time>2008-04-27T07:47:38Z</time>
      </trkpt>
      <trkpt lat="49.37647" lon="1.04214">
        <ele>79</ele>
        <time>2008-04-27T07:47:43Z</time>
      </trkpt>
      <trkpt lat="49.37634" lon="1.04212">
        <ele>79</ele>
        <time>2008-04-27T07:47:47Z</time>
      </trkpt>
      <trkpt lat="49.3762" lon="1.04209">
        <ele>79</ele>
        <time>2008-04-27T07:47:52Z</time>
      </trkpt>
      <trkpt lat="49.37607" lon="1.0421">
        <ele>80</ele>
        <time>2008-04-27T07:47:56Z</time>
      </trkpt>
      <trkpt lat="49.37598" lon="1.04219">
        <ele>80</ele>
        <time>2008-04-27T07:48:00Z</time>
      </trkpt>
      <trkpt lat="49.37588" lon="1.04232">
        <ele>80</ele>
        <time>2008-04-27T07:48:04Z</time>
      </trkpt>
      <trkpt lat="49.37576" lon="1.04237">
        <ele>81</ele>
        <time>2008-04-27T07:48:08Z</time>
      </trkpt>
      <trkpt lat="49.37564" lon="1.04229">
        <ele>81</ele>
        <time>2008-04-27T07:48:12Z</time>
      </trkpt>
      <trkpt lat="49.37557" lon="1.04213">
        <ele>81</ele>
        <time>2008-04-27T07:48:17Z</time>
      </trkpt>
      <trkpt lat="49.37549" lon="1.04195">
        <ele>80</ele>
        <time>2008-04-27T07:48:21Z</time>
      </trkpt>
      <trkpt lat="49.37545" lon="1.04177">
        <ele>80</ele>
        <time>2008-04-27T07:48:25Z</time>
      </trkpt>
      <trkpt lat="49.37544" lon="1.04152">
        <ele>79</ele>
        <time>2008-04-27T07:48:28Z</time>
      </trkpt>
      <trkpt lat="49.37542" lon="1.04132">
        <ele>78</ele>
        <time>2008-04-27T07:48:30Z</time>
      </trkpt>
      <trkpt lat="49.37539" lon="1.04117">
        <ele>78</ele>
        <time>2008-04-27T07:48:32Z</time>
      </trkpt>
      <trkpt lat="49.3753" lon="1.04104">
        <ele>77</ele>
        <time>2008-04-27T07:48:35Z</time>
      </trkpt>
      <trkpt lat="49.37518" lon="1.04114">
        <ele>78</ele>
        <time>2008-04-27T07:48:39Z</time>
      </trkpt>
      <trkpt lat="49.37507" lon="1.04123">
        <ele>78</ele>
        <time>2008-04-27T07:48:43Z</time>
      </trkpt>
      <trkpt lat="49.37495" lon="1.04134">
        <ele>78</ele>
        <time>2008-04-27T07:48:48Z</time>
      </trkpt>
      <trkpt lat="49.37485" lon="1.04143">
        <ele>79</ele>
        <time>2008-04-27T07:48:53Z</time>
      </trkpt>
      <trkpt lat="49.37477" lon="1.04134">
        <ele>78</ele>
        <time>2008-04-27T07:48:59Z</time>
      </trkpt>
      <trkpt lat="49.37485" lon="1.04115">
        <ele>77</ele>
        <time>2008-04-27T07:49:03Z</time>
      </trkpt>
      <trkpt lat="49.37495" lon="1.04097">
        <ele>77</ele>
        <time>2008-04-27T07:49:06Z</time>
      </trkpt>
      <trkpt lat="49.37501" lon="1.04083">
        <ele>76</ele>
        <time>2008-04-27T07:49:08Z</time>
      </trkpt>
      <trkpt lat="49.37509" lon="1.04068">
        <ele>75</ele>
        <time>2008-04-27T07:49:10Z</time>
      </trkpt>
      <trkpt lat="49.37517" lon="1.04054">
        <ele>74</ele>
        <time>2008-04-27T07:49:12Z</time>
      </trkpt>
      <trkpt lat="49.37527" lon="1.04039">
        <ele>74</ele>
        <time>2008-04-27T07:49:14Z</time>
      </trkpt>
      <trkpt lat="49.37539" lon="1.0402">
        <ele>73</ele>
        <time>2008-04-27T07:49:16Z</time>
      </trkpt>
      <trkpt lat="49.37555" lon="1.03997">
        <ele>72</ele>
        <time>2008-04-27T07:49:18Z</time>
      </trkpt>
      <trkpt lat="49.37561" lon="1.03983">
        <ele>71</ele>
        <time>2008-04-27T07:49:19Z</time>
      </trkpt>
      <trkpt lat="49.37572" lon="1.03964">
        <ele>70</ele>
        <time>2008-04-27T07:49:21Z</time>
      </trkpt>
      <trkpt lat="49.37577" lon="1.03956">
        <ele>70</ele>
        <time>2008-04-27T07:49:25Z</time>
      </trkpt>
      <trkpt lat="49.37558" lon="1.03933">
        <ele>67</ele>
        <time>2008-04-27T07:49:36Z</time>
      </trkpt>
      <trkpt lat="49.37545" lon="1.03916">
        <ele>65</ele>
        <time>2008-04-27T07:49:40Z</time>
      </trkpt>
      <trkpt lat="49.37534" lon="1.03896">
        <ele>64</ele>
        <time>2008-04-27T07:49:46Z</time>
      </trkpt>
      <trkpt lat="49.37522" lon="1.03883">
        <ele>64</ele>
        <time>2008-04-27T07:49:51Z</time>
      </trkpt>
      <trkpt lat="49.3751" lon="1.03868">
        <ele>64</ele>
        <time>2008-04-27T07:49:55Z</time>
      </trkpt>
      <trkpt lat="49.37497" lon="1.03855">
        <ele>64</ele>
        <time>2008-04-27T07:49:59Z</time>
      </trkpt>
      <trkpt lat="49.37483" lon="1.03845">
        <ele>66</ele>
        <time>2008-04-27T07:50:04Z</time>
      </trkpt>
      <trkpt lat="49.37468" lon="1.03836">
        <ele>67</ele>
        <time>2008-04-27T07:50:09Z</time>
      </trkpt>
      <trkpt lat="49.37453" lon="1.03828">
        <ele>69</ele>
        <time>2008-04-27T07:50:15Z</time>
      </trkpt>
      <trkpt lat="49.37436" lon="1.03821">
        <ele>71</ele>
        <time>2008-04-27T07:50:22Z</time>
      </trkpt>
      <trkpt lat="49.37419" lon="1.0381">
        <ele>73</ele>
        <time>2008-04-27T07:50:28Z</time>
      </trkpt>
      <trkpt lat="49.37406" lon="1.03797">
        <ele>72</ele>
        <time>2008-04-27T07:50:32Z</time>
      </trkpt>
      <trkpt lat="49.37389" lon="1.03777">
        <ele>72</ele>
        <time>2008-04-27T07:50:38Z</time>
      </trkpt>
      <trkpt lat="49.37374" lon="1.03755">
        <ele>72</ele>
        <time>2008-04-27T07:50:44Z</time>
      </trkpt>
      <trkpt lat="49.37361" lon="1.03738">
        <ele>71</ele>
        <time>2008-04-27T07:50:48Z</time>
      </trkpt>
      <trkpt lat="49.3735" lon="1.0372">
        <ele>71</ele>
        <time>2008-04-27T07:50:51Z</time>
      </trkpt>
      <trkpt lat="49.37341" lon="1.03707">
        <ele>71</ele>
        <time>2008-04-27T07:50:53Z</time>
      </trkpt>
      <trkpt lat="49.3733" lon="1.03694">
        <ele>71</ele>
        <time>2008-04-27T07:50:55Z</time>
      </trkpt>
      <trkpt lat="49.37315" lon="1.03684">
        <ele>72</ele>
        <time>2008-04-27T07:50:57Z</time>
      </trkpt>
      <trkpt lat="49.37303" lon="1.03672">
        <ele>72</ele>
        <time>2008-04-27T07:50:59Z</time>
      </trkpt>
      <trkpt lat="49.3729" lon="1.03658">
        <ele>71</ele>
        <time>2008-04-27T07:51:01Z</time>
      </trkpt>
      <trkpt lat="49.37276" lon="1.03647">
        <ele>71</ele>
        <time>2008-04-27T07:51:03Z</time>
      </trkpt>
      <trkpt lat="49.3726" lon="1.03637">
        <ele>71</ele>
        <time>2008-04-27T07:51:05Z</time>
      </trkpt>
      <trkpt lat="49.37245" lon="1.03627">
        <ele>70</ele>
        <time>2008-04-27T07:51:07Z</time>
      </trkpt>
      <trkpt lat="49.3723" lon="1.03615">
        <ele>70</ele>
        <time>2008-04-27T07:51:09Z</time>
      </trkpt>
      <trkpt lat="49.37216" lon="1.03605">
        <ele>69</ele>
        <time>2008-04-27T07:51:11Z</time>
      </trkpt>
      <trkpt lat="49.37205" lon="1.03592">
        <ele>69</ele>
        <time>2008-04-27T07:51:13Z</time>
      </trkpt>
      <trkpt lat="49.37191" lon="1.03576">
        <ele>68</ele>
        <time>2008-04-27T07:51:16Z</time>
      </trkpt>
      <trkpt lat="49.37178" lon="1.03565">
        <ele>68</ele>
        <time>2008-04-27T07:51:19Z</time>
      </trkpt>
      <trkpt lat="49.37164" lon="1.03549">
        <ele>68</ele>
        <time>2008-04-27T07:51:22Z</time>
      </trkpt>
      <trkpt lat="49.3715" lon="1.03539">
        <ele>68</ele>
        <time>2008-04-27T07:51:25Z</time>
      </trkpt>
      <trkpt lat="49.37135" lon="1.03528">
        <ele>69</ele>
        <time>2008-04-27T07:51:28Z</time>
      </trkpt>
      <trkpt lat="49.3712" lon="1.03517">
        <ele>69</ele>
        <time>2008-04-27T07:51:31Z</time>
      </trkpt>
      <trkpt lat="49.37105" lon="1.03506">
        <ele>70</ele>
        <time>2008-04-27T07:51:34Z</time>
      </trkpt>
      <trkpt lat="49.37091" lon="1.03494">
        <ele>70</ele>
        <time>2008-04-27T07:51:37Z</time>
      </trkpt>
      <trkpt lat="49.37075" lon="1.03477">
        <ele>70</ele>
        <time>2008-04-27T07:51:40Z</time>
      </trkpt>
      <trkpt lat="49.37058" lon="1.03461">
        <ele>70</ele>
        <time>2008-04-27T07:51:43Z</time>
      </trkpt>
      <trkpt lat="49.37041" lon="1.03445">
        <ele>69</ele>
        <time>2008-04-27T07:51:46Z</time>
      </trkpt>
      <trkpt lat="49.37028" lon="1.03435">
        <ele>68</ele>
        <time>2008-04-27T07:51:48Z</time>
      </trkpt>
      <trkpt lat="49.37017" lon="1.03424">
        <ele>68</ele>
        <time>2008-04-27T07:51:50Z</time>
      </trkpt>
      <trkpt lat="49.37006" lon="1.03413">
        <ele>68</ele>
        <time>2008-04-27T07:51:52Z</time>
      </trkpt>
      <trkpt lat="49.36992" lon="1.03399">
        <ele>67</ele>
        <time>2008-04-27T07:51:55Z</time>
      </trkpt>
      <trkpt lat="49.36982" lon="1.03392">
        <ele>68</ele>
        <time>2008-04-27T07:51:59Z</time>
      </trkpt>
      <trkpt lat="49.3697" lon="1.03382">
        <ele>68</ele>
        <time>2008-04-27T07:52:06Z</time>
      </trkpt>
      <trkpt lat="49.36957" lon="1.03371">
        <ele>69</ele>
        <time>2008-04-27T07:52:12Z</time>
      </trkpt>
      <trkpt lat="49.36946" lon="1.03363">
        <ele>70</ele>
        <time>2008-04-27T07:52:18Z</time>
      </trkpt>
      <trkpt lat="49.36935" lon="1.03353">
        <ele>71</ele>
        <time>2008-04-27T07:52:24Z</time>
      </trkpt>
      <trkpt lat="49.36924" lon="1.03344">
        <ele>71</ele>
        <time>2008-04-27T07:52:31Z</time>
      </trkpt>
      <trkpt lat="49.36913" lon="1.03336">
        <ele>72</ele>
        <time>2008-04-27T07:52:35Z</time>
      </trkpt>
      <trkpt lat="49.36903" lon="1.03327">
        <ele>73</ele>
        <time>2008-04-27T07:52:39Z</time>
      </trkpt>
      <trkpt lat="49.36895" lon="1.03319">
        <ele>73</ele>
        <time>2008-04-27T07:52:43Z</time>
      </trkpt>
      <trkpt lat="49.36885" lon="1.03311">
        <ele>74</ele>
        <time>2008-04-27T07:52:47Z</time>
      </trkpt>
      <trkpt lat="49.36875" lon="1.03302">
        <ele>75</ele>
        <time>2008-04-27T07:52:51Z</time>
      </trkpt>
      <trkpt lat="49.36865" lon="1.03294">
        <ele>75</ele>
        <time>2008-04-27T07:52:55Z</time>
      </trkpt>
      <trkpt lat="49.36854" lon="1.03285">
        <ele>76</ele>
        <time>2008-04-27T07:52:59Z</time>
      </trkpt>
      <trkpt lat="49.36842" lon="1.03275">
        <ele>77</ele>
        <time>2008-04-27T07:53:03Z</time>
      </trkpt>
      <trkpt lat="49.36831" lon="1.03266">
        <ele>78</ele>
        <time>2008-04-27T07:53:07Z</time>
      </trkpt>
      <trkpt lat="49.36823" lon="1.03257">
        <ele>78</ele>
        <time>2008-04-27T07:53:10Z</time>
      </trkpt>
      <trkpt lat="49.36817" lon="1.03245">
        <ele>79</ele>
        <time>2008-04-27T07:53:13Z</time>
      </trkpt>
      <trkpt lat="49.36815" lon="1.03227">
        <ele>79</ele>
        <time>2008-04-27T07:53:17Z</time>
      </trkpt>
      <trkpt lat="49.3681" lon="1.0321">
        <ele>80</ele>
        <time>2008-04-27T07:53:20Z</time>
      </trkpt>
      <trkpt lat="49.36804" lon="1.03188">
        <ele>80</ele>
        <time>2008-04-27T07:53:23Z</time>
      </trkpt>
      <trkpt lat="49.36801" lon="1.03175">
        <ele>80</ele>
        <time>2008-04-27T07:53:25Z</time>
      </trkpt>
      <trkpt lat="49.36799" lon="1.0316">
        <ele>79</ele>
        <time>2008-04-27T07:53:27Z</time>
      </trkpt>
      <trkpt lat="49.36797" lon="1.03144">
        <ele>79</ele>
        <time>2008-04-27T07:53:29Z</time>
      </trkpt>
      <trkpt lat="49.36794" lon="1.03126">
        <ele>79</ele>
        <time>2008-04-27T07:53:31Z</time>
      </trkpt>
      <trkpt lat="49.3679" lon="1.03106">
        <ele>78</ele>
        <time>2008-04-27T07:53:33Z</time>
      </trkpt>
      <trkpt lat="49.36786" lon="1.03086">
        <ele>77</ele>
        <time>2008-04-27T07:53:35Z</time>
      </trkpt>
      <trkpt lat="49.3678" lon="1.03067">
        <ele>76</ele>
        <time>2008-04-27T07:53:38Z</time>
      </trkpt>
      <trkpt lat="49.3677" lon="1.03059">
        <ele>76</ele>
        <time>2008-04-27T07:53:41Z</time>
      </trkpt>
      <trkpt lat="49.3676" lon="1.03059">
        <ele>76</ele>
        <time>2008-04-27T07:53:44Z</time>
      </trkpt>
      <trkpt lat="49.36746" lon="1.03062">
        <ele>77</ele>
        <time>2008-04-27T07:53:48Z</time>
      </trkpt>
      <trkpt lat="49.36733" lon="1.03063">
        <ele>78</ele>
        <time>2008-04-27T07:53:52Z</time>
      </trkpt>
      <trkpt lat="49.36719" lon="1.03061">
        <ele>78</ele>
        <time>2008-04-27T07:53:56Z</time>
      </trkpt>
      <trkpt lat="49.36707" lon="1.03058">
        <ele>78</ele>
        <time>2008-04-27T07:54:00Z</time>
      </trkpt>
      <trkpt lat="49.36697" lon="1.03057">
        <ele>79</ele>
        <time>2008-04-27T07:54:04Z</time>
      </trkpt>
      <trkpt lat="49.36686" lon="1.03056">
        <ele>79</ele>
        <time>2008-04-27T07:54:08Z</time>
      </trkpt>
      <trkpt lat="49.36676" lon="1.03056">
        <ele>80</ele>
        <time>2008-04-27T07:54:12Z</time>
      </trkpt>
      <trkpt lat="49.36665" lon="1.03055">
        <ele>81</ele>
        <time>2008-04-27T07:54:16Z</time>
      </trkpt>
      <trkpt lat="49.36654" lon="1.03054">
        <ele>81</ele>
        <time>2008-04-27T07:54:20Z</time>
      </trkpt>
      <trkpt lat="49.36643" lon="1.03056">
        <ele>82</ele>
        <time>2008-04-27T07:54:25Z</time>
      </trkpt>
      <trkpt lat="49.36632" lon="1.03056">
        <ele>83</ele>
        <time>2008-04-27T07:54:30Z</time>
      </trkpt>
      <trkpt lat="49.3662" lon="1.03055">
        <ele>84</ele>
        <time>2008-04-27T07:54:35Z</time>
      </trkpt>
      <trkpt lat="49.36606" lon="1.03055">
        <ele>86</ele>
        <time>2008-04-27T07:54:41Z</time>
      </trkpt>
      <trkpt lat="49.36588" lon="1.03052">
        <ele>87</ele>
        <time>2008-04-27T07:54:49Z</time>
      </trkpt>
      <trkpt lat="49.36573" lon="1.03053">
        <ele>88</ele>
        <time>2008-04-27T07:54:56Z</time>
      </trkpt>
      <trkpt lat="49.36558" lon="1.03051">
        <ele>90</ele>
        <time>2008-04-27T07:55:04Z</time>
      </trkpt>
      <trkpt lat="49.36543" lon="1.03049">
        <ele>91</ele>
        <time>2008-04-27T07:55:12Z</time>
      </trkpt>
      <trkpt lat="49.36525" lon="1.03048">
        <ele>93</ele>
        <time>2008-04-27T07:55:20Z</time>
      </trkpt>
      <trkpt lat="49.3651" lon="1.03046">
        <ele>94</ele>
        <time>2008-04-27T07:55:27Z</time>
      </trkpt>
      <trkpt lat="49.36497" lon="1.03044">
        <ele>96</ele>
        <time>2008-04-27T07:55:34Z</time>
      </trkpt>
      <trkpt lat="49.36483" lon="1.03045">
        <ele>97</ele>
        <time>2008-04-27T07:55:40Z</time>
      </trkpt>
      <trkpt lat="49.36468" lon="1.03046">
        <ele>99</ele>
        <time>2008-04-27T07:55:47Z</time>
      </trkpt>
      <trkpt lat="49.36455" lon="1.03041">
        <ele>100</ele>
        <time>2008-04-27T07:55:53Z</time>
      </trkpt>
      <trkpt lat="49.36441" lon="1.03036">
        <ele>101</ele>
        <time>2008-04-27T07:55:58Z</time>
      </trkpt>
      <trkpt lat="49.36427" lon="1.03034">
        <ele>102</ele>
        <time>2008-04-27T07:56:04Z</time>
      </trkpt>
      <trkpt lat="49.36414" lon="1.03035">
        <ele>103</ele>
        <time>2008-04-27T07:56:10Z</time>
      </trkpt>
      <trkpt lat="49.364" lon="1.03034">
        <ele>104</ele>
        <time>2008-04-27T07:56:16Z</time>
      </trkpt>
      <trkpt lat="49.36387" lon="1.03035">
        <ele>105</ele>
        <time>2008-04-27T07:56:22Z</time>
      </trkpt>
      <trkpt lat="49.36371" lon="1.03034">
        <ele>106</ele>
        <time>2008-04-27T07:56:29Z</time>
      </trkpt>
      <trkpt lat="49.36356" lon="1.03037">
        <ele>107</ele>
        <time>2008-04-27T07:56:35Z</time>
      </trkpt>
      <trkpt lat="49.36342" lon="1.03036">
        <ele>108</ele>
        <time>2008-04-27T07:56:41Z</time>
      </trkpt>
      <trkpt lat="49.36329" lon="1.03038">
        <ele>108</ele>
        <time>2008-04-27T07:56:45Z</time>
      </trkpt>
      <trkpt lat="49.36316" lon="1.03039">
        <ele>109</ele>
        <time>2008-04-27T07:56:49Z</time>
      </trkpt>
      <trkpt lat="49.36302" lon="1.03042">
        <ele>110</ele>
        <time>2008-04-27T07:56:53Z</time>
      </trkpt>
      <trkpt lat="49.36291" lon="1.03045">
        <ele>110</ele>
        <time>2008-04-27T07:56:57Z</time>
      </trkpt>
      <trkpt lat="49.36278" lon="1.03047">
        <ele>111</ele>
        <time>2008-04-27T07:57:01Z</time>
      </trkpt>
      <trkpt lat="49.36264" lon="1.03048">
        <ele>111</ele>
        <time>2008-04-27T07:57:05Z</time>
      </trkpt>
      <trkpt lat="49.36248" lon="1.03049">
        <ele>111</ele>
        <time>2008-04-27T07:57:09Z</time>
      </trkpt>
      <trkpt lat="49.36232" lon="1.03047">
        <ele>111</ele>
        <time>2008-04-27T07:57:14Z</time>
      </trkpt>
      <trkpt lat="49.36218" lon="1.03048">
        <ele>111</ele>
        <time>2008-04-27T07:57:18Z</time>
      </trkpt>
      <trkpt lat="49.362" lon="1.0305">
        <ele>111</ele>
        <time>2008-04-27T07:57:22Z</time>
      </trkpt>
      <trkpt lat="49.36188" lon="1.03053">
        <ele>111</ele>
        <time>2008-04-27T07:57:25Z</time>
      </trkpt>
      <trkpt lat="49.36174" lon="1.03055">
        <ele>111</ele>
        <time>2008-04-27T07:57:28Z</time>
      </trkpt>
      <trkpt lat="49.36157" lon="1.03052">
        <ele>111</ele>
        <time>2008-04-27T07:57:31Z</time>
      </trkpt>
      <trkpt lat="49.36142" lon="1.03049">
        <ele>111</ele>
        <time>2008-04-27T07:57:34Z</time>
      </trkpt>
      <trkpt lat="49.36129" lon="1.03048">
        <ele>111</ele>
        <time>2008-04-27T07:57:36Z</time>
      </trkpt>
      <trkpt lat="49.36115" lon="1.03045">
        <ele>111</ele>
        <time>2008-04-27T07:57:38Z</time>
      </trkpt>
      <trkpt lat="49.36101" lon="1.03045">
        <ele>111</ele>
        <time>2008-04-27T07:57:40Z</time>
      </trkpt>
      <trkpt lat="49.36084" lon="1.03041">
        <ele>110</ele>
        <time>2008-04-27T07:57:42Z</time>
      </trkpt>
      <trkpt lat="49.36067" lon="1.03033">
        <ele>110</ele>
        <time>2008-04-27T07:57:44Z</time>
      </trkpt>
      <trkpt lat="49.3605" lon="1.03028">
        <ele>110</ele>
        <time>2008-04-27T07:57:46Z</time>
      </trkpt>
      <trkpt lat="49.36036" lon="1.03024">
        <ele>110</ele>
        <time>2008-04-27T07:57:48Z</time>
      </trkpt>
      <trkpt lat="49.36023" lon="1.0302">
        <ele>110</ele>
        <time>2008-04-27T07:57:50Z</time>
      </trkpt>
      <trkpt lat="49.36008" lon="1.03015">
        <ele>110</ele>
        <time>2008-04-27T07:57:52Z</time>
      </trkpt>
      <trkpt lat="49.35994" lon="1.0301">
        <ele>110</ele>
        <time>2008-04-27T07:57:54Z</time>
      </trkpt>
      <trkpt lat="49.3598" lon="1.03007">
        <ele>110</ele>
        <time>2008-04-27T07:57:56Z</time>
      </trkpt>
      <trkpt lat="49.35965" lon="1.03002">
        <ele>111</ele>
        <time>2008-04-27T07:57:58Z</time>
      </trkpt>
      <trkpt lat="49.35951" lon="1.02999">
        <ele>111</ele>
        <time>2008-04-27T07:58:00Z</time>
      </trkpt>
      <trkpt lat="49.35938" lon="1.02995">
        <ele>111</ele>
        <time>2008-04-27T07:58:02Z</time>
      </trkpt>
      <trkpt lat="49.35923" lon="1.0299">
        <ele>111</ele>
        <time>2008-04-27T07:58:04Z</time>
      </trkpt>
      <trkpt lat="49.35911" lon="1.02988">
        <ele>112</ele>
        <time>2008-04-27T07:58:06Z</time>
      </trkpt>
      <trkpt lat="49.35898" lon="1.02984">
        <ele>112</ele>
        <time>2008-04-27T07:58:08Z</time>
      </trkpt>
      <trkpt lat="49.35885" lon="1.02982">
        <ele>112</ele>
        <time>2008-04-27T07:58:10Z</time>
      </trkpt>
      <trkpt lat="49.35875" lon="1.02982">
        <ele>113</ele>
        <time>2008-04-27T07:58:12Z</time>
      </trkpt>
      <trkpt lat="49.35864" lon="1.0298">
        <ele>113</ele>
        <time>2008-04-27T07:58:14Z</time>
      </trkpt>
      <trkpt lat="49.35854" lon="1.0298">
        <ele>113</ele>
        <time>2008-04-27T07:58:16Z</time>
      </trkpt>
      <trkpt lat="49.35843" lon="1.02978">
        <ele>113</ele>
        <time>2008-04-27T07:58:18Z</time>
      </trkpt>
      <trkpt lat="49.35832" lon="1.02978">
        <ele>114</ele>
        <time>2008-04-27T07:58:20Z</time>
      </trkpt>
      <trkpt lat="49.35822" lon="1.02977">
        <ele>114</ele>
        <time>2008-04-27T07:58:22Z</time>
      </trkpt>
      <trkpt lat="49.35812" lon="1.02977">
        <ele>114</ele>
        <time>2008-04-27T07:58:24Z</time>
      </trkpt>
      <trkpt lat="49.35803" lon="1.02978">
        <ele>114</ele>
        <time>2008-04-27T07:58:26Z</time>
      </trkpt>
      <trkpt lat="49.35793" lon="1.02978">
        <ele>115</ele>
        <time>2008-04-27T07:58:28Z</time>
      </trkpt>
      <trkpt lat="49.35783" lon="1.02977">
        <ele>115</ele>
        <time>2008-04-27T07:58:30Z</time>
      </trkpt>
      <trkpt lat="49.35772" lon="1.02975">
        <ele>115</ele>
        <time>2008-04-27T07:58:32Z</time>
      </trkpt>
      <trkpt lat="49.35761" lon="1.02974">
        <ele>115</ele>
        <time>2008-04-27T07:58:34Z</time>
      </trkpt>
      <trkpt lat="49.3575" lon="1.02972">
        <ele>116</ele>
        <time>2008-04-27T07:58:36Z</time>
      </trkpt>
      <trkpt lat="49.35739" lon="1.02971">
        <ele>116</ele>
        <time>2008-04-27T07:58:38Z</time>
      </trkpt>
      <trkpt lat="49.35729" lon="1.0297">
        <ele>116</ele>
        <time>2008-04-27T07:58:40Z</time>
      </trkpt>
      <trkpt lat="49.35718" lon="1.02969">
        <ele>116</ele>
        <time>2008-04-27T07:58:42Z</time>
      </trkpt>
      <trkpt lat="49.35707" lon="1.02969">
        <ele>117</ele>
        <time>2008-04-27T07:58:44Z</time>
      </trkpt>
      <trkpt lat="49.35697" lon="1.02967">
        <ele>117</ele>
        <time>2008-04-27T07:58:46Z</time>
      </trkpt>
      <trkpt lat="49.35686" lon="1.02966">
        <ele>117</ele>
        <time>2008-04-27T07:58:48Z</time>
      </trkpt>
      <trkpt lat="49.35675" lon="1.02965">
        <ele>117</ele>
        <time>2008-04-27T07:58:50Z</time>
      </trkpt>
      <trkpt lat="49.35664" lon="1.02963">
        <ele>117</ele>
        <time>2008-04-27T07:58:52Z</time>
      </trkpt>
      <trkpt lat="49.35652" lon="1.02961">
        <ele>117</ele>
        <time>2008-04-27T07:58:54Z</time>
      </trkpt>
      <trkpt lat="49.35641" lon="1.0296">
        <ele>117</ele>
        <time>2008-04-27T07:58:56Z</time>
      </trkpt>
      <trkpt lat="49.3563" lon="1.02959">
        <ele>118</ele>
        <time>2008-04-27T07:58:58Z</time>
      </trkpt>
      <trkpt lat="49.35619" lon="1.02959">
        <ele>118</ele>
        <time>2008-04-27T07:59:00Z</time>
      </trkpt>
      <trkpt lat="49.35608" lon="1.02959">
        <ele>118</ele>
        <time>2008-04-27T07:59:02Z</time>
      </trkpt>
      <trkpt lat="49.35597" lon="1.02959">
        <ele>118</ele>
        <time>2008-04-27T07:59:04Z</time>
      </trkpt>
      <trkpt lat="49.35583" lon="1.02961">
        <ele>119</ele>
        <time>2008-04-27T07:59:07Z</time>
      </trkpt>
      <trkpt lat="49.35569" lon="1.02958">
        <ele>119</ele>
        <time>2008-04-27T07:59:10Z</time>
      </trkpt>
      <trkpt lat="49.35555" lon="1.02957">
        <ele>119</ele>
        <time>2008-04-27T07:59:13Z</time>
      </trkpt>
      <trkpt lat="49.35541" lon="1.02957">
        <ele>119</ele>
        <time>2008-04-27T07:59:16Z</time>
      </trkpt>
      <trkpt lat="49.35531" lon="1.0296">
        <ele>119</ele>
        <time>2008-04-27T07:59:18Z</time>
      </trkpt>
      <trkpt lat="49.35513" lon="1.02964">
        <ele>119</ele>
        <time>2008-04-27T07:59:21Z</time>
      </trkpt>
      <trkpt lat="49.35502" lon="1.02965">
        <ele>119</ele>
        <time>2008-04-27T07:59:23Z</time>
      </trkpt>
      <trkpt lat="49.35491" lon="1.02962">
        <ele>120</ele>
        <time>2008-04-27T07:59:25Z</time>
      </trkpt>
      <trkpt lat="49.35476" lon="1.02956">
        <ele>120</ele>
        <time>2008-04-27T07:59:28Z</time>
      </trkpt>
      <trkpt lat="49.35465" lon="1.0295">
        <ele>120</ele>
        <time>2008-04-27T07:59:31Z</time>
      </trkpt>
      <trkpt lat="49.35464" lon="1.02928">
        <ele>120</ele>
        <time>2008-04-27T07:59:34Z</time>
      </trkpt>
      <trkpt lat="49.35465" lon="1.02901">
        <ele>120</ele>
        <time>2008-04-27T07:59:37Z</time>
      </trkpt>
      <trkpt lat="49.3547" lon="1.02879">
        <ele>120</ele>
        <time>2008-04-27T07:59:40Z</time>
      </trkpt>
      <trkpt lat="49.35476" lon="1.02859">
        <ele>120</ele>
        <time>2008-04-27T07:59:43Z</time>
      </trkpt>
      <trkpt lat="49.35482" lon="1.0284">
        <ele>120</ele>
        <time>2008-04-27T07:59:46Z</time>
      </trkpt>
      <trkpt lat="49.35486" lon="1.02821">
        <ele>120</ele>
        <time>2008-04-27T07:59:49Z</time>
      </trkpt>
      <trkpt lat="49.35491" lon="1.02804">
        <ele>120</ele>
        <time>2008-04-27T07:59:52Z</time>
      </trkpt>
      <trkpt lat="49.35496" lon="1.02788">
        <ele>120</ele>
        <time>2008-04-27T07:59:55Z</time>
      </trkpt>
      <trkpt lat="49.35499" lon="1.02772">
        <ele>120</ele>
        <time>2008-04-27T07:59:58Z</time>
      </trkpt>
      <trkpt lat="49.35503" lon="1.02757">
        <ele>120</ele>
        <time>2008-04-27T08:00:01Z</time>
      </trkpt>
      <trkpt lat="49.35507" lon="1.02741">
        <ele>120</ele>
        <time>2008-04-27T08:00:04Z</time>
      </trkpt>
      <trkpt lat="49.35512" lon="1.02721">
        <ele>121</ele>
        <time>2008-04-27T08:00:08Z</time>
      </trkpt>
      <trkpt lat="49.35517" lon="1.02702">
        <ele>121</ele>
        <time>2008-04-27T08:00:11Z</time>
      </trkpt>
      <trkpt lat="49.3552" lon="1.02679">
        <ele>121</ele>
        <time>2008-04-27T08:00:14Z</time>
      </trkpt>
      <trkpt lat="49.3552" lon="1.02662">
        <ele>121</ele>
        <time>2008-04-27T08:00:16Z</time>
      </trkpt>
      <trkpt lat="49.3552" lon="1.02645">
        <ele>121</ele>
        <time>2008-04-27T08:00:18Z</time>
      </trkpt>
      <trkpt lat="49.35519" lon="1.02626">
        <ele>121</ele>
        <time>2008-04-27T08:00:20Z</time>
      </trkpt>
      <trkpt lat="49.35518" lon="1.02606">
        <ele>121</ele>
        <time>2008-04-27T08:00:22Z</time>
      </trkpt>
      <trkpt lat="49.35516" lon="1.02586">
        <ele>121</ele>
        <time>2008-04-27T08:00:24Z</time>
      </trkpt>
      <trkpt lat="49.35514" lon="1.02569">
        <ele>121</ele>
        <time>2008-04-27T08:00:26Z</time>
      </trkpt>
      <trkpt lat="49.35514" lon="1.02553">
        <ele>121</ele>
        <time>2008-04-27T08:00:29Z</time>
      </trkpt>
      <trkpt lat="49.35518" lon="1.02531">
        <ele>121</ele>
        <time>2008-04-27T08:00:36Z</time>
      </trkpt>
      <trkpt lat="49.35513" lon="1.02507">
        <ele>121</ele>
        <time>2008-04-27T08:00:40Z</time>
      </trkpt>
      <trkpt lat="49.3551" lon="1.02489">
        <ele>121</ele>
        <time>2008-04-27T08:00:43Z</time>
      </trkpt>
      <trkpt lat="49.35507" lon="1.02472">
        <ele>121</ele>
        <time>2008-04-27T08:00:46Z</time>
      </trkpt>
      <trkpt lat="49.35501" lon="1.02458">
        <ele>122</ele>
        <time>2008-04-27T08:00:49Z</time>
      </trkpt>
      <trkpt lat="49.35491" lon="1.02447">
        <ele>122</ele>
        <time>2008-04-27T08:00:52Z</time>
      </trkpt>
      <trkpt lat="49.35479" lon="1.02438">
        <ele>122</ele>
        <time>2008-04-27T08:00:55Z</time>
      </trkpt>
      <trkpt lat="49.35469" lon="1.02425">
        <ele>122</ele>
        <time>2008-04-27T08:00:58Z</time>
      </trkpt>
      <trkpt lat="49.35461" lon="1.02408">
        <ele>122</ele>
        <time>2008-04-27T08:01:01Z</time>
      </trkpt>
      <trkpt lat="49.35453" lon="1.02389">
        <ele>122</ele>
        <time>2008-04-27T08:01:04Z</time>
      </trkpt>
      <trkpt lat="49.35447" lon="1.0237">
        <ele>122</ele>
        <time>2008-04-27T08:01:07Z</time>
      </trkpt>
      <trkpt lat="49.3544" lon="1.02352">
        <ele>122</ele>
        <time>2008-04-27T08:01:10Z</time>
      </trkpt>
      <trkpt lat="49.35435" lon="1.02339">
        <ele>122</ele>
        <time>2008-04-27T08:01:12Z</time>
      </trkpt>
      <trkpt lat="49.35431" lon="1.02326">
        <ele>122</ele>
        <time>2008-04-27T08:01:14Z</time>
      </trkpt>
      <trkpt lat="49.35426" lon="1.02313">
        <ele>122</ele>
        <time>2008-04-27T08:01:16Z</time>
      </trkpt>
      <trkpt lat="49.35419" lon="1.02294">
        <ele>123</ele>
        <time>2008-04-27T08:01:19Z</time>
      </trkpt>
      <trkpt lat="49.35415" lon="1.02281">
        <ele>123</ele>
        <time>2008-04-27T08:01:21Z</time>
      </trkpt>
      <trkpt lat="49.3541" lon="1.02267">
        <ele>123</ele>
        <time>2008-04-27T08:01:23Z</time>
      </trkpt>
      <trkpt lat="49.35405" lon="1.02254">
        <ele>123</ele>
        <time>2008-04-27T08:01:25Z</time>
      </trkpt>
      <trkpt lat="49.354" lon="1.02242">
        <ele>123</ele>
        <time>2008-04-27T08:01:27Z</time>
      </trkpt>
      <trkpt lat="49.35396" lon="1.02228">
        <ele>123</ele>
        <time>2008-04-27T08:01:29Z</time>
      </trkpt>
      <trkpt lat="49.35391" lon="1.02215">
        <ele>123</ele>
        <time>2008-04-27T08:01:31Z</time>
      </trkpt>
      <trkpt lat="49.35387" lon="1.02201">
        <ele>123</ele>
        <time>2008-04-27T08:01:33Z</time>
      </trkpt>
      <trkpt lat="49.35382" lon="1.02188">
        <ele>123</ele>
        <time>2008-04-27T08:01:35Z</time>
      </trkpt>
      <trkpt lat="49.35377" lon="1.02175">
        <ele>123</ele>
        <time>2008-04-27T08:01:37Z</time>
      </trkpt>
      <trkpt lat="49.35372" lon="1.02161">
        <ele>123</ele>
        <time>2008-04-27T08:01:39Z</time>
      </trkpt>
      <trkpt lat="49.35366" lon="1.02146">
        <ele>123</ele>
        <time>2008-04-27T08:01:41Z</time>
      </trkpt>
      <trkpt lat="49.35361" lon="1.02131">
        <ele>123</ele>
        <time>2008-04-27T08:01:43Z</time>
      </trkpt>
      <trkpt lat="49.35356" lon="1.02118">
        <ele>123</ele>
        <time>2008-04-27T08:01:45Z</time>
      </trkpt>
      <trkpt lat="49.35351" lon="1.02104">
        <ele>123</ele>
        <time>2008-04-27T08:01:47Z</time>
      </trkpt>
      <trkpt lat="49.35346" lon="1.02089">
        <ele>123</ele>
        <time>2008-04-27T08:01:49Z</time>
      </trkpt>
      <trkpt lat="49.35341" lon="1.02076">
        <ele>123</ele>
        <time>2008-04-27T08:01:51Z</time>
      </trkpt>
      <trkpt lat="49.35336" lon="1.02062">
        <ele>123</ele>
        <time>2008-04-27T08:01:53Z</time>
      </trkpt>
      <trkpt lat="49.35331" lon="1.02048">
        <ele>123</ele>
        <time>2008-04-27T08:01:55Z</time>
      </trkpt>
      <trkpt lat="49.35327" lon="1.02034">
        <ele>122</ele>
        <time>2008-04-27T08:01:57Z</time>
      </trkpt>
      <trkpt lat="49.35322" lon="1.0202">
        <ele>122</ele>
        <time>2008-04-27T08:01:59Z</time>
      </trkpt>
      <trkpt lat="49.35316" lon="1.02005">
        <ele>122</ele>
        <time>2008-04-27T08:02:01Z</time>
      </trkpt>
      <trkpt lat="49.35311" lon="1.01991">
        <ele>122</ele>
        <time>2008-04-27T08:02:03Z</time>
      </trkpt>
      <trkpt lat="49.35306" lon="1.01976">
        <ele>122</ele>
        <time>2008-04-27T08:02:05Z</time>
      </trkpt>
      <trkpt lat="49.35301" lon="1.01962">
        <ele>122</ele>
        <time>2008-04-27T08:02:07Z</time>
      </trkpt>
      <trkpt lat="49.35295" lon="1.01948">
        <ele>122</ele>
        <time>2008-04-27T08:02:09Z</time>
      </trkpt>
      <trkpt lat="49.3529" lon="1.01934">
        <ele>122</ele>
        <time>2008-04-27T08:02:11Z</time>
      </trkpt>
      <trkpt lat="49.35286" lon="1.0192">
        <ele>122</ele>
        <time>2008-04-27T08:02:13Z</time>
      </trkpt>
      <trkpt lat="49.3528" lon="1.01906">
        <ele>122</ele>
        <time>2008-04-27T08:02:15Z</time>
      </trkpt>
      <trkpt lat="49.35273" lon="1.01898">
        <ele>122</ele>
        <time>2008-04-27T08:02:17Z</time>
      </trkpt>
      <trkpt lat="49.35263" lon="1.01906">
        <ele>122</ele>
        <time>2008-04-27T08:02:20Z</time>
      </trkpt>
      <trkpt lat="49.35255" lon="1.01928">
        <ele>122</ele>
        <time>2008-04-27T08:02:23Z</time>
      </trkpt>
      <trkpt lat="49.3525" lon="1.01943">
        <ele>122</ele>
        <time>2008-04-27T08:02:25Z</time>
      </trkpt>
      <trkpt lat="49.35244" lon="1.01957">
        <ele>122</ele>
        <time>2008-04-27T08:02:27Z</time>
      </trkpt>
      <trkpt lat="49.35236" lon="1.01976">
        <ele>123</ele>
        <time>2008-04-27T08:02:30Z</time>
      </trkpt>
      <trkpt lat="49.3523" lon="1.01993">
        <ele>123</ele>
        <time>2008-04-27T08:02:33Z</time>
      </trkpt>
      <trkpt lat="49.35218" lon="1.02001">
        <ele>123</ele>
        <time>2008-04-27T08:02:38Z</time>
      </trkpt>
      <trkpt lat="49.35205" lon="1.01995">
        <ele>123</ele>
        <time>2008-04-27T08:02:42Z</time>
      </trkpt>
      <trkpt lat="49.35194" lon="1.01989">
        <ele>123</ele>
        <time>2008-04-27T08:02:47Z</time>
      </trkpt>
      <trkpt lat="49.35181" lon="1.01985">
        <ele>123</ele>
        <time>2008-04-27T08:02:53Z</time>
      </trkpt>
      <trkpt lat="49.35168" lon="1.01972">
        <ele>123</ele>
        <time>2008-04-27T08:02:58Z</time>
      </trkpt>
      <trkpt lat="49.35158" lon="1.01959">
        <ele>123</ele>
        <time>2008-04-27T08:03:02Z</time>
      </trkpt>
      <trkpt lat="49.35147" lon="1.01951">
        <ele>123</ele>
        <time>2008-04-27T08:03:06Z</time>
      </trkpt>
      <trkpt lat="49.35136" lon="1.01939">
        <ele>123</ele>
        <time>2008-04-27T08:03:09Z</time>
      </trkpt>
      <trkpt lat="49.35121" lon="1.01927">
        <ele>123</ele>
        <time>2008-04-27T08:03:12Z</time>
      </trkpt>
      <trkpt lat="49.35107" lon="1.01916">
        <ele>123</ele>
        <time>2008-04-27T08:03:15Z</time>
      </trkpt>
      <trkpt lat="49.35094" lon="1.01907">
        <ele>123</ele>
        <time>2008-04-27T08:03:18Z</time>
      </trkpt>
      <trkpt lat="49.35082" lon="1.01897">
        <ele>123</ele>
        <time>2008-04-27T08:03:21Z</time>
      </trkpt>
      <trkpt lat="49.35068" lon="1.01887">
        <ele>123</ele>
        <time>2008-04-27T08:03:24Z</time>
      </trkpt>
      <trkpt lat="49.35054" lon="1.01879">
        <ele>123</ele>
        <time>2008-04-27T08:03:27Z</time>
      </trkpt>
      <trkpt lat="49.35041" lon="1.0187">
        <ele>123</ele>
        <time>2008-04-27T08:03:30Z</time>
      </trkpt>
      <trkpt lat="49.35032" lon="1.01862">
        <ele>123</ele>
        <time>2008-04-27T08:03:33Z</time>
      </trkpt>
      <trkpt lat="49.35022" lon="1.01852">
        <ele>123</ele>
        <time>2008-04-27T08:03:36Z</time>
      </trkpt>
      <trkpt lat="49.3501" lon="1.01844">
        <ele>123</ele>
        <time>2008-04-27T08:03:38Z</time>
      </trkpt>
      <trkpt lat="49.35" lon="1.01838">
        <ele>123</ele>
        <time>2008-04-27T08:03:40Z</time>
      </trkpt>
      <trkpt lat="49.3498" lon="1.01826">
        <ele>123</ele>
        <time>2008-04-27T08:03:45Z</time>
      </trkpt>
      <trkpt lat="49.34966" lon="1.01817">
        <ele>123</ele>
        <time>2008-04-27T08:03:48Z</time>
      </trkpt>
      <trkpt lat="49.34948" lon="1.01802">
        <ele>122</ele>
        <time>2008-04-27T08:03:51Z</time>
      </trkpt>
      <trkpt lat="49.34937" lon="1.01791">
        <ele>122</ele>
        <time>2008-04-27T08:03:53Z</time>
      </trkpt>
      <trkpt lat="49.3493" lon="1.01789">
        <ele>122</ele>
        <time>2008-04-27T08:03:56Z</time>
      </trkpt>
      <trkpt lat="49.34919" lon="1.0178">
        <ele>121</ele>
        <time>2008-04-27T08:03:59Z</time>
      </trkpt>
      <trkpt lat="49.34905" lon="1.01769">
        <ele>120</ele>
        <time>2008-04-27T08:04:02Z</time>
      </trkpt>
      <trkpt lat="49.34895" lon="1.01763">
        <ele>120</ele>
        <time>2008-04-27T08:04:06Z</time>
      </trkpt>
      <trkpt lat="49.34879" lon="1.01752">
        <ele>118</ele>
        <time>2008-04-27T08:04:15Z</time>
      </trkpt>
      <trkpt lat="49.34863" lon="1.0176">
        <ele>117</ele>
        <time>2008-04-27T08:04:29Z</time>
      </trkpt>
      <trkpt lat="49.34857" lon="1.01748">
        <ele>115</ele>
        <time>2008-04-27T08:04:34Z</time>
      </trkpt>
      <trkpt lat="49.34845" lon="1.01737">
        <ele>112</ele>
        <time>2008-04-27T08:04:40Z</time>
      </trkpt>
      <trkpt lat="49.3485" lon="1.01717">
        <ele>111</ele>
        <time>2008-04-27T08:04:44Z</time>
      </trkpt>
      <trkpt lat="49.34857" lon="1.01693">
        <ele>109</ele>
        <time>2008-04-27T08:04:47Z</time>
      </trkpt>
      <trkpt lat="49.34864" lon="1.01673">
        <ele>109</ele>
        <time>2008-04-27T08:04:49Z</time>
      </trkpt>
      <trkpt lat="49.3487" lon="1.01643">
        <ele>106</ele>
        <time>2008-04-27T08:04:51Z</time>
      </trkpt>
      <trkpt lat="49.34874" lon="1.01606">
        <ele>100</ele>
        <time>2008-04-27T08:04:53Z</time>
      </trkpt>
      <trkpt lat="49.34877" lon="1.0159">
        <ele>98</ele>
        <time>2008-04-27T08:04:54Z</time>
      </trkpt>
      <trkpt lat="49.34881" lon="1.01576">
        <ele>97</ele>
        <time>2008-04-27T08:04:55Z</time>
      </trkpt>
      <trkpt lat="49.3489" lon="1.01551">
        <ele>95</ele>
        <time>2008-04-27T08:04:57Z</time>
      </trkpt>
      <trkpt lat="49.34897" lon="1.0153">
        <ele>93</ele>
        <time>2008-04-27T08:04:59Z</time>
      </trkpt>
      <trkpt lat="49.34905" lon="1.01514">
        <ele>91</ele>
        <time>2008-04-27T08:05:01Z</time>
      </trkpt>
      <trkpt lat="49.34915" lon="1.015">
        <ele>89</ele>
        <time>2008-04-27T08:05:03Z</time>
      </trkpt>
      <trkpt lat="49.34928" lon="1.01485">
        <ele>87</ele>
        <time>2008-04-27T08:05:05Z</time>
      </trkpt>
      <trkpt lat="49.34941" lon="1.01474">
        <ele>86</ele>
        <time>2008-04-27T08:05:07Z</time>
      </trkpt>
      <trkpt lat="49.34955" lon="1.0146">
        <ele>85</ele>
        <time>2008-04-27T08:05:09Z</time>
      </trkpt>
      <trkpt lat="49.34973" lon="1.0145">
        <ele>84</ele>
        <time>2008-04-27T08:05:11Z</time>
      </trkpt>
      <trkpt lat="49.34987" lon="1.01433">
        <ele>81</ele>
        <time>2008-04-27T08:05:13Z</time>
      </trkpt>
      <trkpt lat="49.35002" lon="1.01414">
        <ele>76</ele>
        <time>2008-04-27T08:05:15Z</time>
      </trkpt>
      <trkpt lat="49.35014" lon="1.01406">
        <ele>75</ele>
        <time>2008-04-27T08:05:17Z</time>
      </trkpt>
      <trkpt lat="49.35023" lon="1.014">
        <ele>73</ele>
        <time>2008-04-27T08:05:19Z</time>
      </trkpt>
      <trkpt lat="49.35037" lon="1.01386">
        <ele>71</ele>
        <time>2008-04-27T08:05:22Z</time>
      </trkpt>
      <trkpt lat="49.35045" lon="1.01376">
        <ele>69</ele>
        <time>2008-04-27T08:05:24Z</time>
      </trkpt>
      <trkpt lat="49.35057" lon="1.0137">
        <ele>68</ele>
        <time>2008-04-27T08:05:26Z</time>
      </trkpt>
      <trkpt lat="49.35073" lon="1.01363">
        <ele>67</ele>
        <time>2008-04-27T08:05:28Z</time>
      </trkpt>
      <trkpt lat="49.35086" lon="1.01356">
        <ele>66</ele>
        <time>2008-04-27T08:05:30Z</time>
      </trkpt>
      <trkpt lat="49.35094" lon="1.01346">
        <ele>65</ele>
        <time>2008-04-27T08:05:32Z</time>
      </trkpt>
      <trkpt lat="49.35104" lon="1.0134">
        <ele>63</ele>
        <time>2008-04-27T08:05:35Z</time>
      </trkpt>
      <trkpt lat="49.35113" lon="1.01331">
        <ele>62</ele>
        <time>2008-04-27T08:05:41Z</time>
      </trkpt>
      <trkpt lat="49.35105" lon="1.01319">
        <ele>60</ele>
        <time>2008-04-27T08:05:48Z</time>
      </trkpt>
      <trkpt lat="49.351" lon="1.01303">
        <ele>60</ele>
        <time>2008-04-27T08:05:55Z</time>
      </trkpt>
      <trkpt lat="49.35094" lon="1.01288">
        <ele>60</ele>
        <time>2008-04-27T08:06:01Z</time>
      </trkpt>
      <trkpt lat="49.35088" lon="1.01272">
        <ele>60</ele>
        <time>2008-04-27T08:06:06Z</time>
      </trkpt>
      <trkpt lat="49.3508" lon="1.0126">
        <ele>60</ele>
        <time>2008-04-27T08:06:11Z</time>
      </trkpt>
      <trkpt lat="49.35073" lon="1.01248">
        <ele>62</ele>
        <time>2008-04-27T08:06:16Z</time>
      </trkpt>
      <trkpt lat="49.35068" lon="1.01229">
        <ele>64</ele>
        <time>2008-04-27T08:06:21Z</time>
      </trkpt>
      <trkpt lat="49.35062" lon="1.01216">
        <ele>66</ele>
        <time>2008-04-27T08:06:26Z</time>
      </trkpt>
      <trkpt lat="49.35054" lon="1.01202">
        <ele>68</ele>
        <time>2008-04-27T08:06:32Z</time>
      </trkpt>
      <trkpt lat="49.35048" lon="1.01186">
        <ele>70</ele>
        <time>2008-04-27T08:06:40Z</time>
      </trkpt>
      <trkpt lat="49.35043" lon="1.01168">
        <ele>72</ele>
        <time>2008-04-27T08:06:45Z</time>
      </trkpt>
      <trkpt lat="49.35038" lon="1.01155">
        <ele>73</ele>
        <time>2008-04-27T08:06:50Z</time>
      </trkpt>
      <trkpt lat="49.35035" lon="1.01137">
        <ele>74</ele>
        <time>2008-04-27T08:06:55Z</time>
      </trkpt>
      <trkpt lat="49.35039" lon="1.01123">
        <ele>74</ele>
        <time>2008-04-27T08:07:00Z</time>
      </trkpt>
      <trkpt lat="49.35041" lon="1.01107">
        <ele>74</ele>
        <time>2008-04-27T08:07:07Z</time>
      </trkpt>
      <trkpt lat="49.35037" lon="1.01089">
        <ele>76</ele>
        <time>2008-04-27T08:07:16Z</time>
      </trkpt>
      <trkpt lat="49.35039" lon="1.01068">
        <ele>78</ele>
        <time>2008-04-27T08:07:28Z</time>
      </trkpt>
      <trkpt lat="49.35038" lon="1.0105">
        <ele>79</ele>
        <time>2008-04-27T08:07:35Z</time>
      </trkpt>
      <trkpt lat="49.3504" lon="1.01031">
        <ele>80</ele>
        <time>2008-04-27T08:07:42Z</time>
      </trkpt>
      <trkpt lat="49.35044" lon="1.01015">
        <ele>81</ele>
        <time>2008-04-27T08:07:48Z</time>
      </trkpt>
      <trkpt lat="49.35045" lon="1.00998">
        <ele>83</ele>
        <time>2008-04-27T08:07:54Z</time>
      </trkpt>
      <trkpt lat="49.35051" lon="1.00986">
        <ele>83</ele>
        <time>2008-04-27T08:07:58Z</time>
      </trkpt>
      <trkpt lat="49.35055" lon="1.00971">
        <ele>84</ele>
        <time>2008-04-27T08:08:02Z</time>
      </trkpt>
      <trkpt lat="49.35055" lon="1.00956">
        <ele>85</ele>
        <time>2008-04-27T08:08:06Z</time>
      </trkpt>
      <trkpt lat="49.35054" lon="1.00939">
        <ele>87</ele>
        <time>2008-04-27T08:08:11Z</time>
      </trkpt>
      <trkpt lat="49.35055" lon="1.00922">
        <ele>88</ele>
        <time>2008-04-27T08:08:16Z</time>
      </trkpt>
      <trkpt lat="49.35057" lon="1.00904">
        <ele>88</ele>
        <time>2008-04-27T08:08:20Z</time>
      </trkpt>
      <trkpt lat="49.35058" lon="1.00887">
        <ele>88</ele>
        <time>2008-04-27T08:08:24Z</time>
      </trkpt>
      <trkpt lat="49.35057" lon="1.00871">
        <ele>89</ele>
        <time>2008-04-27T08:08:28Z</time>
      </trkpt>
      <trkpt lat="49.35055" lon="1.00857">
        <ele>89</ele>
        <time>2008-04-27T08:08:32Z</time>
      </trkpt>
      <trkpt lat="49.35051" lon="1.00843">
        <ele>90</ele>
        <time>2008-04-27T08:08:37Z</time>
      </trkpt>
      <trkpt lat="49.35049" lon="1.00825">
        <ele>90</ele>
        <time>2008-04-27T08:08:43Z</time>
      </trkpt>
      <trkpt lat="49.35045" lon="1.00808">
        <ele>91</ele>
        <time>2008-04-27T08:08:47Z</time>
      </trkpt>
      <trkpt lat="49.3504" lon="1.00796">
        <ele>92</ele>
        <time>2008-04-27T08:08:51Z</time>
      </trkpt>
      <trkpt lat="49.35037" lon="1.00782">
        <ele>92</ele>
        <time>2008-04-27T08:08:55Z</time>
      </trkpt>
      <trkpt lat="49.35034" lon="1.00768">
        <ele>92</ele>
        <time>2008-04-27T08:08:59Z</time>
      </trkpt>
      <trkpt lat="49.3503" lon="1.00753">
        <ele>93</ele>
        <time>2008-04-27T08:09:04Z</time>
      </trkpt>
      <trkpt lat="49.35023" lon="1.00741">
        <ele>94</ele>
        <time>2008-04-27T08:09:10Z</time>
      </trkpt>
      <trkpt lat="49.35012" lon="1.00733">
        <ele>96</ele>
        <time>2008-04-27T08:09:16Z</time>
      </trkpt>
      <trkpt lat="49.35003" lon="1.00726">
        <ele>97</ele>
        <time>2008-04-27T08:09:22Z</time>
      </trkpt>
      <trkpt lat="49.34994" lon="1.00721">
        <ele>99</ele>
        <time>2008-04-27T08:09:28Z</time>
      </trkpt>
      <trkpt lat="49.34984" lon="1.00715">
        <ele>101</ele>
        <time>2008-04-27T08:09:35Z</time>
      </trkpt>
      <trkpt lat="49.34973" lon="1.00708">
        <ele>104</ele>
        <time>2008-04-27T08:09:43Z</time>
      </trkpt>
      <trkpt lat="49.34963" lon="1.00698">
        <ele>105</ele>
        <time>2008-04-27T08:09:52Z</time>
      </trkpt>
      <trkpt lat="49.34952" lon="1.00689">
        <ele>107</ele>
        <time>2008-04-27T08:10:00Z</time>
      </trkpt>
      <trkpt lat="49.3494" lon="1.00687">
        <ele>109</ele>
        <time>2008-04-27T08:10:09Z</time>
      </trkpt>
      <trkpt lat="49.34929" lon="1.00685">
        <ele>111</ele>
        <time>2008-04-27T08:10:18Z</time>
      </trkpt>
      <trkpt lat="49.34917" lon="1.00676">
        <ele>113</ele>
        <time>2008-04-27T08:10:27Z</time>
      </trkpt>
      <trkpt lat="49.34906" lon="1.00666">
        <ele>114</ele>
        <time>2008-04-27T08:10:34Z</time>
      </trkpt>
      <trkpt lat="49.34894" lon="1.00658">
        <ele>115</ele>
        <time>2008-04-27T08:10:41Z</time>
      </trkpt>
      <trkpt lat="49.34882" lon="1.00655">
        <ele>116</ele>
        <time>2008-04-27T08:10:49Z</time>
      </trkpt>
      <trkpt lat="49.34871" lon="1.00649">
        <ele>117</ele>
        <time>2008-04-27T08:10:55Z</time>
      </trkpt>
      <trkpt lat="49.3486" lon="1.00644">
        <ele>118</ele>
        <time>2008-04-27T08:11:00Z</time>
      </trkpt>
      <trkpt lat="49.34848" lon="1.00642">
        <ele>119</ele>
        <time>2008-04-27T08:11:06Z</time>
      </trkpt>
      <trkpt lat="49.34839" lon="1.0065">
        <ele>120</ele>
        <time>2008-04-27T08:11:11Z</time>
      </trkpt>
      <trkpt lat="49.34833" lon="1.00664">
        <ele>120</ele>
        <time>2008-04-27T08:11:16Z</time>
      </trkpt>
      <trkpt lat="49.34825" lon="1.0067">
        <ele>121</ele>
        <time>2008-04-27T08:11:20Z</time>
      </trkpt>
      <trkpt lat="49.34814" lon="1.00674">
        <ele>122</ele>
        <time>2008-04-27T08:11:25Z</time>
      </trkpt>
      <trkpt lat="49.34803" lon="1.00672">
        <ele>122</ele>
        <time>2008-04-27T08:11:30Z</time>
      </trkpt>
      <trkpt lat="49.34792" lon="1.00671">
        <ele>123</ele>
        <time>2008-04-27T08:11:35Z</time>
      </trkpt>
      <trkpt lat="49.34783" lon="1.00667">
        <ele>123</ele>
        <time>2008-04-27T08:11:39Z</time>
      </trkpt>
      <trkpt lat="49.34772" lon="1.00659">
        <ele>124</ele>
        <time>2008-04-27T08:11:44Z</time>
      </trkpt>
      <trkpt lat="49.34761" lon="1.00654">
        <ele>124</ele>
        <time>2008-04-27T08:11:48Z</time>
      </trkpt>
      <trkpt lat="49.34748" lon="1.00645">
        <ele>125</ele>
        <time>2008-04-27T08:11:52Z</time>
      </trkpt>
      <trkpt lat="49.34739" lon="1.00641">
        <ele>125</ele>
        <time>2008-04-27T08:11:55Z</time>
      </trkpt>
      <trkpt lat="49.3473" lon="1.00639">
        <ele>126</ele>
        <time>2008-04-27T08:11:58Z</time>
      </trkpt>
      <trkpt lat="49.34719" lon="1.00635">
        <ele>126</ele>
        <time>2008-04-27T08:12:01Z</time>
      </trkpt>
      <trkpt lat="49.3471" lon="1.00633">
        <ele>126</ele>
        <time>2008-04-27T08:12:04Z</time>
      </trkpt>
      <trkpt lat="49.34696" lon="1.00629">
        <ele>126</ele>
        <time>2008-04-27T08:12:08Z</time>
      </trkpt>
      <trkpt lat="49.34687" lon="1.00627">
        <ele>126</ele>
        <time>2008-04-27T08:12:11Z</time>
      </trkpt>
      <trkpt lat="49.34676" lon="1.00623">
        <ele>126</ele>
        <time>2008-04-27T08:12:15Z</time>
      </trkpt>
      <trkpt lat="49.34662" lon="1.00618">
        <ele>127</ele>
        <time>2008-04-27T08:12:20Z</time>
      </trkpt>
      <trkpt lat="49.34646" lon="1.00612">
        <ele>127</ele>
        <time>2008-04-27T08:12:25Z</time>
      </trkpt>
      <trkpt lat="49.34635" lon="1.00616">
        <ele>127</ele>
        <time>2008-04-27T08:12:29Z</time>
      </trkpt>
      <trkpt lat="49.34625" lon="1.0063">
        <ele>127</ele>
        <time>2008-04-27T08:12:33Z</time>
      </trkpt>
      <trkpt lat="49.34619" lon="1.00643">
        <ele>127</ele>
        <time>2008-04-27T08:12:36Z</time>
      </trkpt>
      <trkpt lat="49.34612" lon="1.00654">
        <ele>128</ele>
        <time>2008-04-27T08:12:39Z</time>
      </trkpt>
      <trkpt lat="49.34603" lon="1.0067">
        <ele>128</ele>
        <time>2008-04-27T08:12:43Z</time>
      </trkpt>
      <trkpt lat="49.34596" lon="1.0068">
        <ele>128</ele>
        <time>2008-04-27T08:12:46Z</time>
      </trkpt>
      <trkpt lat="49.34586" lon="1.00695">
        <ele>128</ele>
        <time>2008-04-27T08:12:50Z</time>
      </trkpt>
      <trkpt lat="49.34578" lon="1.00706">
        <ele>128</ele>
        <time>2008-04-27T08:12:53Z</time>
      </trkpt>
      <trkpt lat="49.34571" lon="1.00717">
        <ele>129</ele>
        <time>2008-04-27T08:12:56Z</time>
      </trkpt>
      <trkpt lat="49.34563" lon="1.00727">
        <ele>129</ele>
        <time>2008-04-27T08:12:59Z</time>
      </trkpt>
      <trkpt lat="49.34555" lon="1.00738">
        <ele>129</ele>
        <time>2008-04-27T08:13:02Z</time>
      </trkpt>
      <trkpt lat="49.34547" lon="1.00746">
        <ele>129</ele>
        <time>2008-04-27T08:13:05Z</time>
      </trkpt>
      <trkpt lat="49.3454" lon="1.00756">
        <ele>129</ele>
        <time>2008-04-27T08:13:08Z</time>
      </trkpt>
      <trkpt lat="49.34533" lon="1.00765">
        <ele>129</ele>
        <time>2008-04-27T08:13:12Z</time>
      </trkpt>
      <trkpt lat="49.34526" lon="1.00774">
        <ele>129</ele>
        <time>2008-04-27T08:13:18Z</time>
      </trkpt>
      <trkpt lat="49.34516" lon="1.00769">
        <ele>129</ele>
        <time>2008-04-27T08:13:28Z</time>
      </trkpt>
      <trkpt lat="49.34507" lon="1.00753">
        <ele>129</ele>
        <time>2008-04-27T08:13:36Z</time>
      </trkpt>
      <trkpt lat="49.34501" lon="1.00738">
        <ele>129</ele>
        <time>2008-04-27T08:13:41Z</time>
      </trkpt>
      <trkpt lat="49.34495" lon="1.00723">
        <ele>129</ele>
        <time>2008-04-27T08:13:45Z</time>
      </trkpt>
      <trkpt lat="49.34489" lon="1.00705">
        <ele>129</ele>
        <time>2008-04-27T08:13:49Z</time>
      </trkpt>
      <trkpt lat="49.34483" lon="1.00686">
        <ele>129</ele>
        <time>2008-04-27T08:13:53Z</time>
      </trkpt>
      <trkpt lat="49.3448" lon="1.00671">
        <ele>129</ele>
        <time>2008-04-27T08:13:56Z</time>
      </trkpt>
      <trkpt lat="49.34473" lon="1.00653">
        <ele>129</ele>
        <time>2008-04-27T08:13:59Z</time>
      </trkpt>
      <trkpt lat="49.34468" lon="1.00637">
        <ele>129</ele>
        <time>2008-04-27T08:14:02Z</time>
      </trkpt>
      <trkpt lat="49.34462" lon="1.00622">
        <ele>129</ele>
        <time>2008-04-27T08:14:05Z</time>
      </trkpt>
      <trkpt lat="49.34455" lon="1.00603">
        <ele>130</ele>
        <time>2008-04-27T08:14:08Z</time>
      </trkpt>
      <trkpt lat="49.3445" lon="1.00587">
        <ele>130</ele>
        <time>2008-04-27T08:14:11Z</time>
      </trkpt>
      <trkpt lat="49.34446" lon="1.00569">
        <ele>130</ele>
        <time>2008-04-27T08:14:14Z</time>
      </trkpt>
      <trkpt lat="49.34439" lon="1.00547">
        <ele>130</ele>
        <time>2008-04-27T08:14:17Z</time>
      </trkpt>
      <trkpt lat="49.34435" lon="1.00533">
        <ele>130</ele>
        <time>2008-04-27T08:14:19Z</time>
      </trkpt>
      <trkpt lat="49.34432" lon="1.00521">
        <ele>130</ele>
        <time>2008-04-27T08:14:21Z</time>
      </trkpt>
      <trkpt lat="49.34425" lon="1.005">
        <ele>130</ele>
        <time>2008-04-27T08:14:24Z</time>
      </trkpt>
      <trkpt lat="49.3442" lon="1.00485">
        <ele>130</ele>
        <time>2008-04-27T08:14:26Z</time>
      </trkpt>
      <trkpt lat="49.34414" lon="1.00462">
        <ele>130</ele>
        <time>2008-04-27T08:14:29Z</time>
      </trkpt>
      <trkpt lat="49.34409" lon="1.00448">
        <ele>130</ele>
        <time>2008-04-27T08:14:31Z</time>
      </trkpt>
      <trkpt lat="49.34402" lon="1.00428">
        <ele>130</ele>
        <time>2008-04-27T08:14:34Z</time>
      </trkpt>
      <trkpt lat="49.34398" lon="1.00414">
        <ele>130</ele>
        <time>2008-04-27T08:14:36Z</time>
      </trkpt>
      <trkpt lat="49.34394" lon="1.00401">
        <ele>130</ele>
        <time>2008-04-27T08:14:38Z</time>
      </trkpt>
      <trkpt lat="49.34391" lon="1.00386">
        <ele>130</ele>
        <time>2008-04-27T08:14:40Z</time>
      </trkpt>
      <trkpt lat="49.34383" lon="1.00369">
        <ele>131</ele>
        <time>2008-04-27T08:14:42Z</time>
      </trkpt>
      <trkpt lat="49.34376" lon="1.00349">
        <ele>130</ele>
        <time>2008-04-27T08:14:45Z</time>
      </trkpt>
      <trkpt lat="49.34369" lon="1.00328">
        <ele>130</ele>
        <time>2008-04-27T08:14:48Z</time>
      </trkpt>
      <trkpt lat="49.34365" lon="1.00312">
        <ele>130</ele>
        <time>2008-04-27T08:14:50Z</time>
      </trkpt>
      <trkpt lat="49.3436" lon="1.00297">
        <ele>130</ele>
        <time>2008-04-27T08:14:52Z</time>
      </trkpt>
      <trkpt lat="49.34356" lon="1.00283">
        <ele>130</ele>
        <time>2008-04-27T08:14:54Z</time>
      </trkpt>
      <trkpt lat="49.34352" lon="1.0027">
        <ele>130</ele>
        <time>2008-04-27T08:14:56Z</time>
      </trkpt>
      <trkpt lat="49.34348" lon="1.00256">
        <ele>130</ele>
        <time>2008-04-27T08:14:58Z</time>
      </trkpt>
      <trkpt lat="49.34341" lon="1.00233">
        <ele>131</ele>
        <time>2008-04-27T08:15:01Z</time>
      </trkpt>
      <trkpt lat="49.34337" lon="1.00217">
        <ele>131</ele>
        <time>2008-04-27T08:15:03Z</time>
      </trkpt>
      <trkpt lat="49.34332" lon="1.00201">
        <ele>131</ele>
        <time>2008-04-27T08:15:05Z</time>
      </trkpt>
      <trkpt lat="49.34327" lon="1.00187">
        <ele>131</ele>
        <time>2008-04-27T08:15:07Z</time>
      </trkpt>
      <trkpt lat="49.34322" lon="1.00171">
        <ele>131</ele>
        <time>2008-04-27T08:15:09Z</time>
      </trkpt>
      <trkpt lat="49.34318" lon="1.00157">
        <ele>131</ele>
        <time>2008-04-27T08:15:11Z</time>
      </trkpt>
      <trkpt lat="49.34312" lon="1.00136">
        <ele>131</ele>
        <time>2008-04-27T08:15:14Z</time>
      </trkpt>
      <trkpt lat="49.34305" lon="1.00114">
        <ele>131</ele>
        <time>2008-04-27T08:15:17Z</time>
      </trkpt>
      <trkpt lat="49.34297" lon="1.00094">
        <ele>131</ele>
        <time>2008-04-27T08:15:20Z</time>
      </trkpt>
      <trkpt lat="49.34287" lon="1.00066">
        <ele>131</ele>
        <time>2008-04-27T08:15:23Z</time>
      </trkpt>
      <trkpt lat="49.34283" lon="1.0005">
        <ele>131</ele>
        <time>2008-04-27T08:15:25Z</time>
      </trkpt>
      <trkpt lat="49.34278" lon="1.00034">
        <ele>132</ele>
        <time>2008-04-27T08:15:27Z</time>
      </trkpt>
      <trkpt lat="49.34271" lon="1.00015">
        <ele>131</ele>
        <time>2008-04-27T08:15:29Z</time>
      </trkpt>
      <trkpt lat="49.34267" lon="1">
        <ele>130</ele>
        <time>2008-04-27T08:15:31Z</time>
      </trkpt>
      <trkpt lat="49.34262" lon="0.99985">
        <ele>130</ele>
        <time>2008-04-27T08:15:33Z</time>
      </trkpt>
      <trkpt lat="49.34256" lon="0.99968">
        <ele>129</ele>
        <time>2008-04-27T08:15:35Z</time>
      </trkpt>
      <trkpt lat="49.34251" lon="0.99953">
        <ele>129</ele>
        <time>2008-04-27T08:15:37Z</time>
      </trkpt>
      <trkpt lat="49.34247" lon="0.99938">
        <ele>129</ele>
        <time>2008-04-27T08:15:39Z</time>
      </trkpt>
      <trkpt lat="49.34242" lon="0.99922">
        <ele>129</ele>
        <time>2008-04-27T08:15:41Z</time>
      </trkpt>
      <trkpt lat="49.34238" lon="0.99909">
        <ele>129</ele>
        <time>2008-04-27T08:15:43Z</time>
      </trkpt>
      <trkpt lat="49.34235" lon="0.99895">
        <ele>129</ele>
        <time>2008-04-27T08:15:45Z</time>
      </trkpt>
      <trkpt lat="49.3423" lon="0.99881">
        <ele>129</ele>
        <time>2008-04-27T08:15:47Z</time>
      </trkpt>
      <trkpt lat="49.34226" lon="0.99867">
        <ele>129</ele>
        <time>2008-04-27T08:15:49Z</time>
      </trkpt>
      <trkpt lat="49.34221" lon="0.99853">
        <ele>129</ele>
        <time>2008-04-27T08:15:51Z</time>
      </trkpt>
      <trkpt lat="49.34217" lon="0.99838">
        <ele>129</ele>
        <time>2008-04-27T08:15:53Z</time>
      </trkpt>
      <trkpt lat="49.34211" lon="0.99822">
        <ele>130</ele>
        <time>2008-04-27T08:15:55Z</time>
      </trkpt>
      <trkpt lat="49.34206" lon="0.99808">
        <ele>130</ele>
        <time>2008-04-27T08:15:57Z</time>
      </trkpt>
      <trkpt lat="49.34202" lon="0.99796">
        <ele>130</ele>
        <time>2008-04-27T08:15:59Z</time>
      </trkpt>
      <trkpt lat="49.34198" lon="0.99782">
        <ele>130</ele>
        <time>2008-04-27T08:16:01Z</time>
      </trkpt>
      <trkpt lat="49.34194" lon="0.99768">
        <ele>131</ele>
        <time>2008-04-27T08:16:03Z</time>
      </trkpt>
      <trkpt lat="49.34189" lon="0.99755">
        <ele>131</ele>
        <time>2008-04-27T08:16:05Z</time>
      </trkpt>
      <trkpt lat="49.34184" lon="0.99739">
        <ele>132</ele>
        <time>2008-04-27T08:16:07Z</time>
      </trkpt>
      <trkpt lat="49.34179" lon="0.99723">
        <ele>132</ele>
        <time>2008-04-27T08:16:09Z</time>
      </trkpt>
      <trkpt lat="49.34172" lon="0.99709">
        <ele>133</ele>
        <time>2008-04-27T08:16:12Z</time>
      </trkpt>
      <trkpt lat="49.3416" lon="0.99705">
        <ele>133</ele>
        <time>2008-04-27T08:16:15Z</time>
      </trkpt>
      <trkpt lat="49.34147" lon="0.99704">
        <ele>134</ele>
        <time>2008-04-27T08:16:18Z</time>
      </trkpt>
      <trkpt lat="49.34134" lon="0.99704">
        <ele>135</ele>
        <time>2008-04-27T08:16:21Z</time>
      </trkpt>
      <trkpt lat="49.34121" lon="0.99705">
        <ele>136</ele>
        <time>2008-04-27T08:16:24Z</time>
      </trkpt>
      <trkpt lat="49.34109" lon="0.99706">
        <ele>137</ele>
        <time>2008-04-27T08:16:27Z</time>
      </trkpt>
      <trkpt lat="49.34099" lon="0.99712">
        <ele>137</ele>
        <time>2008-04-27T08:16:30Z</time>
      </trkpt>
      <trkpt lat="49.34079" lon="0.99711">
        <ele>138</ele>
        <time>2008-04-27T08:16:33Z</time>
      </trkpt>
      <trkpt lat="49.34069" lon="0.9971">
        <ele>138</ele>
        <time>2008-04-27T08:16:35Z</time>
      </trkpt>
      <trkpt lat="49.34059" lon="0.9971">
        <ele>138</ele>
        <time>2008-04-27T08:16:37Z</time>
      </trkpt>
      <trkpt lat="49.34048" lon="0.99706">
        <ele>138</ele>
        <time>2008-04-27T08:16:39Z</time>
      </trkpt>
      <trkpt lat="49.34037" lon="0.99707">
        <ele>138</ele>
        <time>2008-04-27T08:16:41Z</time>
      </trkpt>
      <trkpt lat="49.34027" lon="0.99704">
        <ele>138</ele>
        <time>2008-04-27T08:16:43Z</time>
      </trkpt>
      <trkpt lat="49.34016" lon="0.99702">
        <ele>138</ele>
        <time>2008-04-27T08:16:45Z</time>
      </trkpt>
      <trkpt lat="49.34007" lon="0.99704">
        <ele>138</ele>
        <time>2008-04-27T08:16:47Z</time>
      </trkpt>
      <trkpt lat="49.33996" lon="0.99704">
        <ele>138</ele>
        <time>2008-04-27T08:16:49Z</time>
      </trkpt>
      <trkpt lat="49.33988" lon="0.99706">
        <ele>138</ele>
        <time>2008-04-27T08:16:51Z</time>
      </trkpt>
      <trkpt lat="49.33975" lon="0.99708">
        <ele>138</ele>
        <time>2008-04-27T08:16:54Z</time>
      </trkpt>
      <trkpt lat="49.33961" lon="0.99711">
        <ele>138</ele>
        <time>2008-04-27T08:16:57Z</time>
      </trkpt>
      <trkpt lat="49.33951" lon="0.99714">
        <ele>138</ele>
        <time>2008-04-27T08:16:59Z</time>
      </trkpt>
      <trkpt lat="49.33941" lon="0.99715">
        <ele>138</ele>
        <time>2008-04-27T08:17:01Z</time>
      </trkpt>
      <trkpt lat="49.3393" lon="0.99716">
        <ele>138</ele>
        <time>2008-04-27T08:17:03Z</time>
      </trkpt>
      <trkpt lat="49.3392" lon="0.99717">
        <ele>138</ele>
        <time>2008-04-27T08:17:05Z</time>
      </trkpt>
      <trkpt lat="49.33909" lon="0.99717">
        <ele>138</ele>
        <time>2008-04-27T08:17:07Z</time>
      </trkpt>
      <trkpt lat="49.33899" lon="0.99718">
        <ele>138</ele>
        <time>2008-04-27T08:17:09Z</time>
      </trkpt>
      <trkpt lat="49.33888" lon="0.99717">
        <ele>138</ele>
        <time>2008-04-27T08:17:11Z</time>
      </trkpt>
      <trkpt lat="49.33876" lon="0.99714">
        <ele>138</ele>
        <time>2008-04-27T08:17:13Z</time>
      </trkpt>
      <trkpt lat="49.33866" lon="0.99713">
        <ele>138</ele>
        <time>2008-04-27T08:17:15Z</time>
      </trkpt>
      <trkpt lat="49.33855" lon="0.99713">
        <ele>138</ele>
        <time>2008-04-27T08:17:17Z</time>
      </trkpt>
      <trkpt lat="49.33844" lon="0.99713">
        <ele>138</ele>
        <time>2008-04-27T08:17:19Z</time>
      </trkpt>
      <trkpt lat="49.33833" lon="0.99713">
        <ele>138</ele>
        <time>2008-04-27T08:17:21Z</time>
      </trkpt>
      <trkpt lat="49.3382" lon="0.99713">
        <ele>138</ele>
        <time>2008-04-27T08:17:23Z</time>
      </trkpt>
      <trkpt lat="49.33809" lon="0.99714">
        <ele>138</ele>
        <time>2008-04-27T08:17:25Z</time>
      </trkpt>
      <trkpt lat="49.33797" lon="0.99715">
        <ele>137</ele>
        <time>2008-04-27T08:17:27Z</time>
      </trkpt>
      <trkpt lat="49.33782" lon="0.99716">
        <ele>137</ele>
        <time>2008-04-27T08:17:29Z</time>
      </trkpt>
      <trkpt lat="49.3377" lon="0.99714">
        <ele>137</ele>
        <time>2008-04-27T08:17:31Z</time>
      </trkpt>
      <trkpt lat="49.33757" lon="0.99715">
        <ele>137</ele>
        <time>2008-04-27T08:17:33Z</time>
      </trkpt>
      <trkpt lat="49.33744" lon="0.99717">
        <ele>137</ele>
        <time>2008-04-27T08:17:35Z</time>
      </trkpt>
      <trkpt lat="49.33732" lon="0.99718">
        <ele>137</ele>
        <time>2008-04-27T08:17:37Z</time>
      </trkpt>
      <trkpt lat="49.3372" lon="0.9972">
        <ele>137</ele>
        <time>2008-04-27T08:17:39Z</time>
      </trkpt>
      <trkpt lat="49.33708" lon="0.99713">
        <ele>136</ele>
        <time>2008-04-27T08:17:42Z</time>
      </trkpt>
      <trkpt lat="49.33704" lon="0.99687">
        <ele>136</ele>
        <time>2008-04-27T08:17:46Z</time>
      </trkpt>
      <trkpt lat="49.33698" lon="0.99669">
        <ele>136</ele>
        <time>2008-04-27T08:17:49Z</time>
      </trkpt>
      <trkpt lat="49.33693" lon="0.99646">
        <ele>136</ele>
        <time>2008-04-27T08:17:52Z</time>
      </trkpt>
      <trkpt lat="49.33689" lon="0.9962">
        <ele>136</ele>
        <time>2008-04-27T08:17:56Z</time>
      </trkpt>
      <trkpt lat="49.33678" lon="0.99596">
        <ele>135</ele>
        <time>2008-04-27T08:17:59Z</time>
      </trkpt>
      <trkpt lat="49.33671" lon="0.99574">
        <ele>135</ele>
        <time>2008-04-27T08:18:01Z</time>
      </trkpt>
      <trkpt lat="49.33661" lon="0.99544">
        <ele>135</ele>
        <time>2008-04-27T08:18:04Z</time>
      </trkpt>
      <trkpt lat="49.33651" lon="0.99517">
        <ele>135</ele>
        <time>2008-04-27T08:18:07Z</time>
      </trkpt>
      <trkpt lat="49.33641" lon="0.99493">
        <ele>135</ele>
        <time>2008-04-27T08:18:10Z</time>
      </trkpt>
      <trkpt lat="49.33633" lon="0.99467">
        <ele>135</ele>
        <time>2008-04-27T08:18:13Z</time>
      </trkpt>
      <trkpt lat="49.33624" lon="0.99441">
        <ele>135</ele>
        <time>2008-04-27T08:18:16Z</time>
      </trkpt>
      <trkpt lat="49.33616" lon="0.99412">
        <ele>135</ele>
        <time>2008-04-27T08:18:19Z</time>
      </trkpt>
      <trkpt lat="49.33606" lon="0.99382">
        <ele>134</ele>
        <time>2008-04-27T08:18:23Z</time>
      </trkpt>
      <trkpt lat="49.336" lon="0.99354">
        <ele>134</ele>
        <time>2008-04-27T08:18:26Z</time>
      </trkpt>
      <trkpt lat="49.3359" lon="0.99326">
        <ele>134</ele>
        <time>2008-04-27T08:18:29Z</time>
      </trkpt>
      <trkpt lat="49.33581" lon="0.99297">
        <ele>134</ele>
        <time>2008-04-27T08:18:32Z</time>
      </trkpt>
      <trkpt lat="49.33574" lon="0.99276">
        <ele>134</ele>
        <time>2008-04-27T08:18:34Z</time>
      </trkpt>
      <trkpt lat="49.33566" lon="0.99255">
        <ele>133</ele>
        <time>2008-04-27T08:18:36Z</time>
      </trkpt>
      <trkpt lat="49.33556" lon="0.99234">
        <ele>133</ele>
        <time>2008-04-27T08:18:38Z</time>
      </trkpt>
      <trkpt lat="49.33553" lon="0.99216">
        <ele>133</ele>
        <time>2008-04-27T08:18:40Z</time>
      </trkpt>
      <trkpt lat="49.33545" lon="0.99192">
        <ele>133</ele>
        <time>2008-04-27T08:18:43Z</time>
      </trkpt>
      <trkpt lat="49.33539" lon="0.99167">
        <ele>133</ele>
        <time>2008-04-27T08:18:46Z</time>
      </trkpt>
      <trkpt lat="49.33548" lon="0.99149">
        <ele>133</ele>
        <time>2008-04-27T08:18:50Z</time>
      </trkpt>
      <trkpt lat="49.33563" lon="0.99131">
        <ele>133</ele>
        <time>2008-04-27T08:18:56Z</time>
      </trkpt>
      <trkpt lat="49.33581" lon="0.9912">
        <ele>133</ele>
        <time>2008-04-27T08:19:00Z</time>
      </trkpt>
      <trkpt lat="49.33598" lon="0.99108">
        <ele>133</ele>
        <time>2008-04-27T08:19:04Z</time>
      </trkpt>
      <trkpt lat="49.33617" lon="0.99093">
        <ele>134</ele>
        <time>2008-04-27T08:19:11Z</time>
      </trkpt>
      <trkpt lat="49.33632" lon="0.99066">
        <ele>134</ele>
        <time>2008-04-27T08:19:21Z</time>
      </trkpt>
      <trkpt lat="49.3364" lon="0.99045">
        <ele>133</ele>
        <time>2008-04-27T08:19:26Z</time>
      </trkpt>
      <trkpt lat="49.3365" lon="0.99024">
        <ele>133</ele>
        <time>2008-04-27T08:19:30Z</time>
      </trkpt>
      <trkpt lat="49.33661" lon="0.99003">
        <ele>134</ele>
        <time>2008-04-27T08:19:36Z</time>
      </trkpt>
      <trkpt lat="49.33674" lon="0.98979">
        <ele>134</ele>
        <time>2008-04-27T08:19:43Z</time>
      </trkpt>
      <trkpt lat="49.33685" lon="0.98961">
        <ele>134</ele>
        <time>2008-04-27T08:19:50Z</time>
      </trkpt>
      <trkpt lat="49.33697" lon="0.98944">
        <ele>134</ele>
        <time>2008-04-27T08:19:56Z</time>
      </trkpt>
      <trkpt lat="49.33712" lon="0.98926">
        <ele>134</ele>
        <time>2008-04-27T08:20:04Z</time>
      </trkpt>
      <trkpt lat="49.33725" lon="0.98916">
        <ele>134</ele>
        <time>2008-04-27T08:20:09Z</time>
      </trkpt>
      <trkpt lat="49.3372" lon="0.98896">
        <ele>134</ele>
        <time>2008-04-27T08:20:14Z</time>
      </trkpt>
      <trkpt lat="49.33721" lon="0.98871">
        <ele>134</ele>
        <time>2008-04-27T08:20:19Z</time>
      </trkpt>
      <trkpt lat="49.33721" lon="0.98854">
        <ele>134</ele>
        <time>2008-04-27T08:20:23Z</time>
      </trkpt>
      <trkpt lat="49.33719" lon="0.98834">
        <ele>134</ele>
        <time>2008-04-27T08:20:27Z</time>
      </trkpt>
      <trkpt lat="49.33716" lon="0.98812">
        <ele>134</ele>
        <time>2008-04-27T08:20:31Z</time>
      </trkpt>
      <trkpt lat="49.33712" lon="0.98783">
        <ele>133</ele>
        <time>2008-04-27T08:20:35Z</time>
      </trkpt>
      <trkpt lat="49.33705" lon="0.98761">
        <ele>133</ele>
        <time>2008-04-27T08:20:39Z</time>
      </trkpt>
      <trkpt lat="49.33705" lon="0.98741">
        <ele>133</ele>
        <time>2008-04-27T08:20:44Z</time>
      </trkpt>
      <trkpt lat="49.33696" lon="0.98719">
        <ele>132</ele>
        <time>2008-04-27T08:20:48Z</time>
      </trkpt>
      <trkpt lat="49.33687" lon="0.98696">
        <ele>132</ele>
        <time>2008-04-27T08:20:52Z</time>
      </trkpt>
      <trkpt lat="49.33684" lon="0.98674">
        <ele>131</ele>
        <time>2008-04-27T08:20:57Z</time>
      </trkpt>
      <trkpt lat="49.33679" lon="0.98652">
        <ele>130</ele>
        <time>2008-04-27T08:21:03Z</time>
      </trkpt>
      <trkpt lat="49.33675" lon="0.98627">
        <ele>129</ele>
        <time>2008-04-27T08:21:08Z</time>
      </trkpt>
      <trkpt lat="49.33669" lon="0.98599">
        <ele>127</ele>
        <time>2008-04-27T08:21:14Z</time>
      </trkpt>
      <trkpt lat="49.33657" lon="0.98577">
        <ele>125</ele>
        <time>2008-04-27T08:21:23Z</time>
      </trkpt>
      <trkpt lat="49.33652" lon="0.98552">
        <ele>123</ele>
        <time>2008-04-27T08:21:27Z</time>
      </trkpt>
      <trkpt lat="49.33638" lon="0.98537">
        <ele>121</ele>
        <time>2008-04-27T08:21:34Z</time>
      </trkpt>
      <trkpt lat="49.33634" lon="0.98514">
        <ele>118</ele>
        <time>2008-04-27T08:21:40Z</time>
      </trkpt>
      <trkpt lat="49.33634" lon="0.98493">
        <ele>117</ele>
        <time>2008-04-27T08:21:47Z</time>
      </trkpt>
      <trkpt lat="49.33618" lon="0.98453">
        <ele>113</ele>
        <time>2008-04-27T08:21:51Z</time>
      </trkpt>
      <trkpt lat="49.3361" lon="0.98434">
        <ele>111</ele>
        <time>2008-04-27T08:21:53Z</time>
      </trkpt>
      <trkpt lat="49.33603" lon="0.98412">
        <ele>108</ele>
        <time>2008-04-27T08:21:55Z</time>
      </trkpt>
      <trkpt lat="49.33591" lon="0.98386">
        <ele>106</ele>
        <time>2008-04-27T08:21:58Z</time>
      </trkpt>
      <trkpt lat="49.33591" lon="0.98364">
        <ele>107</ele>
        <time>2008-04-27T08:22:06Z</time>
      </trkpt>
      <trkpt lat="49.3359" lon="0.98336">
        <ele>107</ele>
        <time>2008-04-27T08:22:25Z</time>
      </trkpt>
      <trkpt lat="49.33595" lon="0.98314">
        <ele>111</ele>
        <time>2008-04-27T08:22:37Z</time>
      </trkpt>
      <trkpt lat="49.3359" lon="0.98292">
        <ele>112</ele>
        <time>2008-04-27T08:22:47Z</time>
      </trkpt>
      <trkpt lat="49.3358" lon="0.9827">
        <ele>113</ele>
        <time>2008-04-27T08:22:57Z</time>
      </trkpt>
      <trkpt lat="49.3357" lon="0.9826">
        <ele>112</ele>
        <time>2008-04-27T08:23:02Z</time>
      </trkpt>
      <trkpt lat="49.33561" lon="0.9825">
        <ele>111</ele>
        <time>2008-04-27T08:23:06Z</time>
      </trkpt>
      <trkpt lat="49.3355" lon="0.98244">
        <ele>109</ele>
        <time>2008-04-27T08:23:10Z</time>
      </trkpt>
      <trkpt lat="49.33538" lon="0.98228">
        <ele>109</ele>
        <time>2008-04-27T08:23:14Z</time>
      </trkpt>
      <trkpt lat="49.33521" lon="0.9821">
        <ele>109</ele>
        <time>2008-04-27T08:23:18Z</time>
      </trkpt>
      <trkpt lat="49.33522" lon="0.98188">
        <ele>112</ele>
        <time>2008-04-27T08:23:22Z</time>
      </trkpt>
      <trkpt lat="49.33524" lon="0.98167">
        <ele>114</ele>
        <time>2008-04-27T08:23:27Z</time>
      </trkpt>
      <trkpt lat="49.33518" lon="0.98142">
        <ele>115</ele>
        <time>2008-04-27T08:23:32Z</time>
      </trkpt>
      <trkpt lat="49.33517" lon="0.98119">
        <ele>116</ele>
        <time>2008-04-27T08:23:37Z</time>
      </trkpt>
      <trkpt lat="49.33516" lon="0.98095">
        <ele>115</ele>
        <time>2008-04-27T08:23:42Z</time>
      </trkpt>
      <trkpt lat="49.3352" lon="0.98066">
        <ele>116</ele>
        <time>2008-04-27T08:23:47Z</time>
      </trkpt>
      <trkpt lat="49.33539" lon="0.98052">
        <ele>118</ele>
        <time>2008-04-27T08:23:54Z</time>
      </trkpt>
      <trkpt lat="49.33556" lon="0.98038">
        <ele>119</ele>
        <time>2008-04-27T08:24:03Z</time>
      </trkpt>
      <trkpt lat="49.33572" lon="0.98026">
        <ele>120</ele>
        <time>2008-04-27T08:24:12Z</time>
      </trkpt>
      <trkpt lat="49.33584" lon="0.98013">
        <ele>121</ele>
        <time>2008-04-27T08:24:19Z</time>
      </trkpt>
      <trkpt lat="49.33599" lon="0.98001">
        <ele>122</ele>
        <time>2008-04-27T08:24:26Z</time>
      </trkpt>
      <trkpt lat="49.33615" lon="0.97988">
        <ele>122</ele>
        <time>2008-04-27T08:24:34Z</time>
      </trkpt>
      <trkpt lat="49.33616" lon="0.97967">
        <ele>122</ele>
        <time>2008-04-27T08:24:41Z</time>
      </trkpt>
      <trkpt lat="49.33609" lon="0.97952">
        <ele>121</ele>
        <time>2008-04-27T08:24:44Z</time>
      </trkpt>
      <trkpt lat="49.33607" lon="0.97936">
        <ele>120</ele>
        <time>2008-04-27T08:24:47Z</time>
      </trkpt>
      <trkpt lat="49.33596" lon="0.97909">
        <ele>118</ele>
        <time>2008-04-27T08:24:50Z</time>
      </trkpt>
      <trkpt lat="49.33597" lon="0.97889">
        <ele>117</ele>
        <time>2008-04-27T08:24:53Z</time>
      </trkpt>
      <trkpt lat="49.3361" lon="0.97876">
        <ele>117</ele>
        <time>2008-04-27T08:24:56Z</time>
      </trkpt>
      <trkpt lat="49.33625" lon="0.97862">
        <ele>117</ele>
        <time>2008-04-27T08:25:00Z</time>
      </trkpt>
      <trkpt lat="49.33642" lon="0.97857">
        <ele>117</ele>
        <time>2008-04-27T08:25:04Z</time>
      </trkpt>
      <trkpt lat="49.33658" lon="0.97856">
        <ele>116</ele>
        <time>2008-04-27T08:25:08Z</time>
      </trkpt>
      <trkpt lat="49.33686" lon="0.9784">
        <ele>113</ele>
        <time>2008-04-27T08:25:15Z</time>
      </trkpt>
      <trkpt lat="49.33698" lon="0.97831">
        <ele>111</ele>
        <time>2008-04-27T08:25:17Z</time>
      </trkpt>
      <trkpt lat="49.33716" lon="0.97814">
        <ele>109</ele>
        <time>2008-04-27T08:25:19Z</time>
      </trkpt>
      <trkpt lat="49.33734" lon="0.97784">
        <ele>105</ele>
        <time>2008-04-27T08:25:21Z</time>
      </trkpt>
      <trkpt lat="49.33747" lon="0.9776">
        <ele>104</ele>
        <time>2008-04-27T08:25:23Z</time>
      </trkpt>
      <trkpt lat="49.33768" lon="0.97732">
        <ele>104</ele>
        <time>2008-04-27T08:25:25Z</time>
      </trkpt>
      <trkpt lat="49.33775" lon="0.97706">
        <ele>104</ele>
        <time>2008-04-27T08:25:27Z</time>
      </trkpt>
      <trkpt lat="49.33771" lon="0.9769">
        <ele>104</ele>
        <time>2008-04-27T08:25:29Z</time>
      </trkpt>
      <trkpt lat="49.33762" lon="0.97673">
        <ele>104</ele>
        <time>2008-04-27T08:25:32Z</time>
      </trkpt>
      <trkpt lat="49.3375" lon="0.97661">
        <ele>103</ele>
        <time>2008-04-27T08:25:35Z</time>
      </trkpt>
      <trkpt lat="49.33739" lon="0.97652">
        <ele>102</ele>
        <time>2008-04-27T08:25:38Z</time>
      </trkpt>
      <trkpt lat="49.33728" lon="0.97635">
        <ele>102</ele>
        <time>2008-04-27T08:25:41Z</time>
      </trkpt>
      <trkpt lat="49.33727" lon="0.97618">
        <ele>103</ele>
        <time>2008-04-27T08:25:44Z</time>
      </trkpt>
      <trkpt lat="49.33734" lon="0.97595">
        <ele>107</ele>
        <time>2008-04-27T08:25:48Z</time>
      </trkpt>
      <trkpt lat="49.33735" lon="0.97574">
        <ele>109</ele>
        <time>2008-04-27T08:25:52Z</time>
      </trkpt>
      <trkpt lat="49.33722" lon="0.97572">
        <ele>106</ele>
        <time>2008-04-27T08:25:58Z</time>
      </trkpt>
      <trkpt lat="49.33707" lon="0.97566">
        <ele>104</ele>
        <time>2008-04-27T08:26:02Z</time>
      </trkpt>
      <trkpt lat="49.33701" lon="0.97543">
        <ele>104</ele>
        <time>2008-04-27T08:26:07Z</time>
      </trkpt>
      <trkpt lat="49.33695" lon="0.97524">
        <ele>103</ele>
        <time>2008-04-27T08:26:11Z</time>
      </trkpt>
      <trkpt lat="49.3369" lon="0.975">
        <ele>103</ele>
        <time>2008-04-27T08:26:15Z</time>
      </trkpt>
      <trkpt lat="49.33682" lon="0.97484">
        <ele>102</ele>
        <time>2008-04-27T08:26:21Z</time>
      </trkpt>
      <trkpt lat="49.3368" lon="0.97504">
        <ele>101</ele>
        <time>2008-04-27T08:26:26Z</time>
      </trkpt>
      <trkpt lat="49.33681" lon="0.97522">
        <ele>100</ele>
        <time>2008-04-27T08:26:29Z</time>
      </trkpt>
      <trkpt lat="49.33679" lon="0.97547">
        <ele>99</ele>
        <time>2008-04-27T08:26:32Z</time>
      </trkpt>
      <trkpt lat="49.33674" lon="0.97576">
        <ele>96</ele>
        <time>2008-04-27T08:26:35Z</time>
      </trkpt>
      <trkpt lat="49.33664" lon="0.97602">
        <ele>93</ele>
        <time>2008-04-27T08:26:38Z</time>
      </trkpt>
      <trkpt lat="49.33643" lon="0.97605">
        <ele>90</ele>
        <time>2008-04-27T08:26:41Z</time>
      </trkpt>
      <trkpt lat="49.33631" lon="0.97595">
        <ele>88</ele>
        <time>2008-04-27T08:26:43Z</time>
      </trkpt>
      <trkpt lat="49.33619" lon="0.97584">
        <ele>85</ele>
        <time>2008-04-27T08:26:45Z</time>
      </trkpt>
      <trkpt lat="49.33604" lon="0.97572">
        <ele>83</ele>
        <time>2008-04-27T08:26:47Z</time>
      </trkpt>
      <trkpt lat="49.33587" lon="0.9756">
        <ele>81</ele>
        <time>2008-04-27T08:26:49Z</time>
      </trkpt>
      <trkpt lat="49.33569" lon="0.97546">
        <ele>79</ele>
        <time>2008-04-27T08:26:51Z</time>
      </trkpt>
      <trkpt lat="49.33554" lon="0.97529">
        <ele>77</ele>
        <time>2008-04-27T08:26:53Z</time>
      </trkpt>
      <trkpt lat="49.33538" lon="0.97512">
        <ele>74</ele>
        <time>2008-04-27T08:26:55Z</time>
      </trkpt>
      <trkpt lat="49.33523" lon="0.97498">
        <ele>72</ele>
        <time>2008-04-27T08:26:57Z</time>
      </trkpt>
      <trkpt lat="49.33503" lon="0.97483">
        <ele>69</ele>
        <time>2008-04-27T08:26:59Z</time>
      </trkpt>
      <trkpt lat="49.33485" lon="0.97475">
        <ele>66</ele>
        <time>2008-04-27T08:27:01Z</time>
      </trkpt>
      <trkpt lat="49.33472" lon="0.9747">
        <ele>65</ele>
        <time>2008-04-27T08:27:03Z</time>
      </trkpt>
      <trkpt lat="49.33458" lon="0.97463">
        <ele>63</ele>
        <time>2008-04-27T08:27:06Z</time>
      </trkpt>
      <trkpt lat="49.33459" lon="0.97436">
        <ele>61</ele>
        <time>2008-04-27T08:27:12Z</time>
      </trkpt>
      <trkpt lat="49.33465" lon="0.97413">
        <ele>62</ele>
        <time>2008-04-27T08:27:19Z</time>
      </trkpt>
      <trkpt lat="49.33463" lon="0.97393">
        <ele>62</ele>
        <time>2008-04-27T08:27:26Z</time>
      </trkpt>
      <trkpt lat="49.3345" lon="0.9738">
        <ele>59</ele>
        <time>2008-04-27T08:27:47Z</time>
      </trkpt>
      <trkpt lat="49.33443" lon="0.97367">
        <ele>58</ele>
        <time>2008-04-27T08:27:50Z</time>
      </trkpt>
      <trkpt lat="49.33432" lon="0.97352">
        <ele>56</ele>
        <time>2008-04-27T08:27:54Z</time>
      </trkpt>
      <trkpt lat="49.33422" lon="0.9733">
        <ele>56</ele>
        <time>2008-04-27T08:27:58Z</time>
      </trkpt>
      <trkpt lat="49.33423" lon="0.97305">
        <ele>57</ele>
        <time>2008-04-27T08:28:04Z</time>
      </trkpt>
      <trkpt lat="49.33452" lon="0.97276">
        <ele>61</ele>
        <time>2008-04-27T08:28:11Z</time>
      </trkpt>
      <trkpt lat="49.33472" lon="0.9726">
        <ele>64</ele>
        <time>2008-04-27T08:28:18Z</time>
      </trkpt>
      <trkpt lat="49.33488" lon="0.97241">
        <ele>66</ele>
        <time>2008-04-27T08:28:26Z</time>
      </trkpt>
      <trkpt lat="49.33505" lon="0.97226">
        <ele>69</ele>
        <time>2008-04-27T08:28:34Z</time>
      </trkpt>
      <trkpt lat="49.33518" lon="0.97207">
        <ele>70</ele>
        <time>2008-04-27T08:28:39Z</time>
      </trkpt>
      <trkpt lat="49.33531" lon="0.97194">
        <ele>72</ele>
        <time>2008-04-27T08:28:43Z</time>
      </trkpt>
      <trkpt lat="49.33544" lon="0.97177">
        <ele>74</ele>
        <time>2008-04-27T08:28:47Z</time>
      </trkpt>
      <trkpt lat="49.33556" lon="0.97153">
        <ele>75</ele>
        <time>2008-04-27T08:28:52Z</time>
      </trkpt>
      <trkpt lat="49.33567" lon="0.97137">
        <ele>77</ele>
        <time>2008-04-27T08:28:57Z</time>
      </trkpt>
      <trkpt lat="49.33579" lon="0.97116">
        <ele>79</ele>
        <time>2008-04-27T08:29:04Z</time>
      </trkpt>
      <trkpt lat="49.33584" lon="0.97093">
        <ele>78</ele>
        <time>2008-04-27T08:29:11Z</time>
      </trkpt>
      <trkpt lat="49.33592" lon="0.97076">
        <ele>79</ele>
        <time>2008-04-27T08:29:18Z</time>
      </trkpt>
      <trkpt lat="49.33598" lon="0.9706">
        <ele>79</ele>
        <time>2008-04-27T08:29:24Z</time>
      </trkpt>
      <trkpt lat="49.33605" lon="0.97043">
        <ele>79</ele>
        <time>2008-04-27T08:29:32Z</time>
      </trkpt>
      <trkpt lat="49.33617" lon="0.97032">
        <ele>81</ele>
        <time>2008-04-27T08:29:38Z</time>
      </trkpt>
      <trkpt lat="49.33628" lon="0.97012">
        <ele>83</ele>
        <time>2008-04-27T08:29:45Z</time>
      </trkpt>
      <trkpt lat="49.33632" lon="0.96992">
        <ele>83</ele>
        <time>2008-04-27T08:29:51Z</time>
      </trkpt>
      <trkpt lat="49.33638" lon="0.96967">
        <ele>83</ele>
        <time>2008-04-27T08:29:56Z</time>
      </trkpt>
      <trkpt lat="49.33638" lon="0.96943">
        <ele>81</ele>
        <time>2008-04-27T08:30:00Z</time>
      </trkpt>
      <trkpt lat="49.33641" lon="0.96926">
        <ele>81</ele>
        <time>2008-04-27T08:30:04Z</time>
      </trkpt>
      <trkpt lat="49.33647" lon="0.96905">
        <ele>82</ele>
        <time>2008-04-27T08:30:09Z</time>
      </trkpt>
      <trkpt lat="49.33644" lon="0.96876">
        <ele>79</ele>
        <time>2008-04-27T08:30:15Z</time>
      </trkpt>
      <trkpt lat="49.33643" lon="0.96844">
        <ele>78</ele>
        <time>2008-04-27T08:30:20Z</time>
      </trkpt>
      <trkpt lat="49.33644" lon="0.96817">
        <ele>77</ele>
        <time>2008-04-27T08:30:25Z</time>
      </trkpt>
      <trkpt lat="49.33647" lon="0.96777">
        <ele>77</ele>
        <time>2008-04-27T08:30:35Z</time>
      </trkpt>
      <trkpt lat="49.33643" lon="0.96736">
        <ele>76</ele>
        <time>2008-04-27T08:30:43Z</time>
      </trkpt>
      <trkpt lat="49.33639" lon="0.96699">
        <ele>76</ele>
        <time>2008-04-27T08:30:50Z</time>
      </trkpt>
      <trkpt lat="49.3364" lon="0.96664">
        <ele>78</ele>
        <time>2008-04-27T08:31:00Z</time>
      </trkpt>
      <trkpt lat="49.3364" lon="0.96631">
        <ele>79</ele>
        <time>2008-04-27T08:31:08Z</time>
      </trkpt>
      <trkpt lat="49.33637" lon="0.9656">
        <ele>81</ele>
        <time>2008-04-27T08:31:16Z</time>
      </trkpt>
      <trkpt lat="49.33635" lon="0.96529">
        <ele>82</ele>
        <time>2008-04-27T08:31:20Z</time>
      </trkpt>
      <trkpt lat="49.33631" lon="0.96504">
        <ele>82</ele>
        <time>2008-04-27T08:31:23Z</time>
      </trkpt>
      <trkpt lat="49.33624" lon="0.96481">
        <ele>82</ele>
        <time>2008-04-27T08:31:26Z</time>
      </trkpt>
      <trkpt lat="49.33619" lon="0.9645">
        <ele>82</ele>
        <time>2008-04-27T08:31:30Z</time>
      </trkpt>
      <trkpt lat="49.33618" lon="0.96429">
        <ele>82</ele>
        <time>2008-04-27T08:31:34Z</time>
      </trkpt>
      <trkpt lat="49.33622" lon="0.96398">
        <ele>83</ele>
        <time>2008-04-27T08:31:41Z</time>
      </trkpt>
      <trkpt lat="49.33608" lon="0.96377">
        <ele>81</ele>
        <time>2008-04-27T08:31:46Z</time>
      </trkpt>
      <trkpt lat="49.33606" lon="0.9635">
        <ele>80</ele>
        <time>2008-04-27T08:31:51Z</time>
      </trkpt>
      <trkpt lat="49.33591" lon="0.96306">
        <ele>76</ele>
        <time>2008-04-27T08:31:59Z</time>
      </trkpt>
      <trkpt lat="49.33581" lon="0.96285">
        <ele>74</ele>
        <time>2008-04-27T08:32:03Z</time>
      </trkpt>
      <trkpt lat="49.33567" lon="0.96288">
        <ele>73</ele>
        <time>2008-04-27T08:32:07Z</time>
      </trkpt>
      <trkpt lat="49.33552" lon="0.96285">
        <ele>71</ele>
        <time>2008-04-27T08:32:10Z</time>
      </trkpt>
      <trkpt lat="49.33537" lon="0.96273">
        <ele>69</ele>
        <time>2008-04-27T08:32:13Z</time>
      </trkpt>
      <trkpt lat="49.33525" lon="0.96262">
        <ele>67</ele>
        <time>2008-04-27T08:32:16Z</time>
      </trkpt>
      <trkpt lat="49.33517" lon="0.96248">
        <ele>67</ele>
        <time>2008-04-27T08:32:19Z</time>
      </trkpt>
      <trkpt lat="49.33512" lon="0.96229">
        <ele>67</ele>
        <time>2008-04-27T08:32:23Z</time>
      </trkpt>
      <trkpt lat="49.33503" lon="0.9621">
        <ele>67</ele>
        <time>2008-04-27T08:32:28Z</time>
      </trkpt>
      <trkpt lat="49.33498" lon="0.96191">
        <ele>66</ele>
        <time>2008-04-27T08:32:32Z</time>
      </trkpt>
      <trkpt lat="49.33497" lon="0.96171">
        <ele>66</ele>
        <time>2008-04-27T08:32:36Z</time>
      </trkpt>
      <trkpt lat="49.33492" lon="0.9615">
        <ele>66</ele>
        <time>2008-04-27T08:32:40Z</time>
      </trkpt>
      <trkpt lat="49.33491" lon="0.96129">
        <ele>66</ele>
        <time>2008-04-27T08:32:45Z</time>
      </trkpt>
      <trkpt lat="49.3348" lon="0.96139">
        <ele>65</ele>
        <time>2008-04-27T08:32:52Z</time>
      </trkpt>
      <trkpt lat="49.33468" lon="0.96162">
        <ele>63</ele>
        <time>2008-04-27T08:32:57Z</time>
      </trkpt>
      <trkpt lat="49.3346" lon="0.96177">
        <ele>61</ele>
        <time>2008-04-27T08:33:00Z</time>
      </trkpt>
      <trkpt lat="49.3345" lon="0.96192">
        <ele>58</ele>
        <time>2008-04-27T08:33:03Z</time>
      </trkpt>
      <trkpt lat="49.33442" lon="0.96202">
        <ele>55</ele>
        <time>2008-04-27T08:33:05Z</time>
      </trkpt>
      <trkpt lat="49.33432" lon="0.96212">
        <ele>51</ele>
        <time>2008-04-27T08:33:07Z</time>
      </trkpt>
      <trkpt lat="49.33421" lon="0.96233">
        <ele>46</ele>
        <time>2008-04-27T08:33:09Z</time>
      </trkpt>
      <trkpt lat="49.33411" lon="0.96255">
        <ele>41</ele>
        <time>2008-04-27T08:33:11Z</time>
      </trkpt>
      <trkpt lat="49.33406" lon="0.96273">
        <ele>38</ele>
        <time>2008-04-27T08:33:13Z</time>
      </trkpt>
      <trkpt lat="49.33406" lon="0.96287">
        <ele>37</ele>
        <time>2008-04-27T08:33:15Z</time>
      </trkpt>
      <trkpt lat="49.33403" lon="0.9631">
        <ele>35</ele>
        <time>2008-04-27T08:33:18Z</time>
      </trkpt>
      <trkpt lat="49.33403" lon="0.96328">
        <ele>35</ele>
        <time>2008-04-27T08:33:21Z</time>
      </trkpt>
      <trkpt lat="49.33406" lon="0.96344">
        <ele>34</ele>
        <time>2008-04-27T08:33:24Z</time>
      </trkpt>
      <trkpt lat="49.33409" lon="0.96361">
        <ele>34</ele>
        <time>2008-04-27T08:33:28Z</time>
      </trkpt>
      <trkpt lat="49.33407" lon="0.9638">
        <ele>33</ele>
        <time>2008-04-27T08:33:31Z</time>
      </trkpt>
      <trkpt lat="49.33405" lon="0.96403">
        <ele>33</ele>
        <time>2008-04-27T08:33:34Z</time>
      </trkpt>
      <trkpt lat="49.33406" lon="0.96421">
        <ele>33</ele>
        <time>2008-04-27T08:33:37Z</time>
      </trkpt>
      <trkpt lat="49.33414" lon="0.96436">
        <ele>33</ele>
        <time>2008-04-27T08:33:40Z</time>
      </trkpt>
      <trkpt lat="49.33419" lon="0.96449">
        <ele>33</ele>
        <time>2008-04-27T08:33:43Z</time>
      </trkpt>
      <trkpt lat="49.33425" lon="0.96459">
        <ele>33</ele>
        <time>2008-04-27T08:33:46Z</time>
      </trkpt>
      <trkpt lat="49.3343" lon="0.96476">
        <ele>33</ele>
        <time>2008-04-27T08:33:50Z</time>
      </trkpt>
      <trkpt lat="49.33433" lon="0.96501">
        <ele>33</ele>
        <time>2008-04-27T08:33:56Z</time>
      </trkpt>
      <trkpt lat="49.33442" lon="0.96522">
        <ele>33</ele>
        <time>2008-04-27T08:34:00Z</time>
      </trkpt>
      <trkpt lat="49.33445" lon="0.9654">
        <ele>33</ele>
        <time>2008-04-27T08:34:05Z</time>
      </trkpt>
      <trkpt lat="49.33437" lon="0.96558">
        <ele>33</ele>
        <time>2008-04-27T08:34:10Z</time>
      </trkpt>
      <trkpt lat="49.33425" lon="0.96596">
        <ele>33</ele>
        <time>2008-04-27T08:35:31Z</time>
      </trkpt>
      <trkpt lat="49.33424" lon="0.9658">
        <ele>33</ele>
        <time>2008-04-27T08:38:50Z</time>
      </trkpt>
      <trkpt lat="49.3341" lon="0.96581">
        <ele>33</ele>
        <time>2008-04-27T08:38:56Z</time>
      </trkpt>
      <trkpt lat="49.33398" lon="0.96577">
        <ele>33</ele>
        <time>2008-04-27T08:39:01Z</time>
      </trkpt>
      <trkpt lat="49.33381" lon="0.96571">
        <ele>33</ele>
        <time>2008-04-27T08:39:07Z</time>
      </trkpt>
      <trkpt lat="49.33367" lon="0.96563">
        <ele>33</ele>
        <time>2008-04-27T08:39:11Z</time>
      </trkpt>
      <trkpt lat="49.3336" lon="0.96548">
        <ele>33</ele>
        <time>2008-04-27T08:39:14Z</time>
      </trkpt>
      <trkpt lat="49.33357" lon="0.9653">
        <ele>33</ele>
        <time>2008-04-27T08:39:17Z</time>
      </trkpt>
      <trkpt lat="49.33357" lon="0.9651">
        <ele>33</ele>
        <time>2008-04-27T08:39:20Z</time>
      </trkpt>
      <trkpt lat="49.33356" lon="0.96492">
        <ele>33</ele>
        <time>2008-04-27T08:39:23Z</time>
      </trkpt>
      <trkpt lat="49.33355" lon="0.96472">
        <ele>33</ele>
        <time>2008-04-27T08:39:26Z</time>
      </trkpt>
      <trkpt lat="49.33354" lon="0.96452">
        <ele>33</ele>
        <time>2008-04-27T08:39:29Z</time>
      </trkpt>
      <trkpt lat="49.3335" lon="0.96433">
        <ele>33</ele>
        <time>2008-04-27T08:39:32Z</time>
      </trkpt>
      <trkpt lat="49.33345" lon="0.96414">
        <ele>33</ele>
        <time>2008-04-27T08:39:35Z</time>
      </trkpt>
      <trkpt lat="49.33339" lon="0.96398">
        <ele>33</ele>
        <time>2008-04-27T08:39:38Z</time>
      </trkpt>
      <trkpt lat="49.33337" lon="0.9638">
        <ele>33</ele>
        <time>2008-04-27T08:39:42Z</time>
      </trkpt>
      <trkpt lat="49.33331" lon="0.96364">
        <ele>33</ele>
        <time>2008-04-27T08:39:45Z</time>
      </trkpt>
      <trkpt lat="49.33322" lon="0.96343">
        <ele>33</ele>
        <time>2008-04-27T08:39:49Z</time>
      </trkpt>
      <trkpt lat="49.33316" lon="0.96324">
        <ele>33</ele>
        <time>2008-04-27T08:39:53Z</time>
      </trkpt>
      <trkpt lat="49.33307" lon="0.96309">
        <ele>33</ele>
        <time>2008-04-27T08:39:58Z</time>
      </trkpt>
      <trkpt lat="49.33294" lon="0.96312">
        <ele>33</ele>
        <time>2008-04-27T08:40:03Z</time>
      </trkpt>
      <trkpt lat="49.33282" lon="0.96314">
        <ele>33</ele>
        <time>2008-04-27T08:40:09Z</time>
      </trkpt>
      <trkpt lat="49.33271" lon="0.96319">
        <ele>34</ele>
        <time>2008-04-27T08:40:15Z</time>
      </trkpt>
      <trkpt lat="49.3326" lon="0.96329">
        <ele>35</ele>
        <time>2008-04-27T08:40:21Z</time>
      </trkpt>
      <trkpt lat="49.33251" lon="0.96334">
        <ele>36</ele>
        <time>2008-04-27T08:40:27Z</time>
      </trkpt>
      <trkpt lat="49.33239" lon="0.9634">
        <ele>38</ele>
        <time>2008-04-27T08:40:34Z</time>
      </trkpt>
      <trkpt lat="49.33227" lon="0.96334">
        <ele>40</ele>
        <time>2008-04-27T08:40:42Z</time>
      </trkpt>
      <trkpt lat="49.33217" lon="0.96337">
        <ele>42</ele>
        <time>2008-04-27T08:40:49Z</time>
      </trkpt>
      <trkpt lat="49.33204" lon="0.96339">
        <ele>45</ele>
        <time>2008-04-27T08:40:54Z</time>
      </trkpt>
      <trkpt lat="49.3319" lon="0.96338">
        <ele>47</ele>
        <time>2008-04-27T08:41:03Z</time>
      </trkpt>
      <trkpt lat="49.33183" lon="0.96324">
        <ele>48</ele>
        <time>2008-04-27T08:41:12Z</time>
      </trkpt>
      <trkpt lat="49.33172" lon="0.96314">
        <ele>50</ele>
        <time>2008-04-27T08:41:21Z</time>
      </trkpt>
      <trkpt lat="49.33163" lon="0.96313">
        <ele>52</ele>
        <time>2008-04-27T08:41:29Z</time>
      </trkpt>
      <trkpt lat="49.33151" lon="0.96318">
        <ele>54</ele>
        <time>2008-04-27T08:41:38Z</time>
      </trkpt>
      <trkpt lat="49.33142" lon="0.96327">
        <ele>56</ele>
        <time>2008-04-27T08:41:46Z</time>
      </trkpt>
      <trkpt lat="49.3313" lon="0.96332">
        <ele>58</ele>
        <time>2008-04-27T08:41:54Z</time>
      </trkpt>
      <trkpt lat="49.33121" lon="0.96333">
        <ele>59</ele>
        <time>2008-04-27T08:42:01Z</time>
      </trkpt>
      <trkpt lat="49.33111" lon="0.96328">
        <ele>61</ele>
        <time>2008-04-27T08:42:09Z</time>
      </trkpt>
      <trkpt lat="49.33101" lon="0.96322">
        <ele>62</ele>
        <time>2008-04-27T08:42:17Z</time>
      </trkpt>
      <trkpt lat="49.33107" lon="0.96308">
        <ele>61</ele>
        <time>2008-04-27T08:42:23Z</time>
      </trkpt>
      <trkpt lat="49.33115" lon="0.96298">
        <ele>59</ele>
        <time>2008-04-27T08:42:28Z</time>
      </trkpt>
      <trkpt lat="49.33124" lon="0.96285">
        <ele>58</ele>
        <time>2008-04-27T08:42:34Z</time>
      </trkpt>
      <trkpt lat="49.33131" lon="0.96274">
        <ele>57</ele>
        <time>2008-04-27T08:42:39Z</time>
      </trkpt>
      <trkpt lat="49.33138" lon="0.96263">
        <ele>57</ele>
        <time>2008-04-27T08:42:44Z</time>
      </trkpt>
      <trkpt lat="49.33144" lon="0.9625">
        <ele>57</ele>
        <time>2008-04-27T08:42:49Z</time>
      </trkpt>
      <trkpt lat="49.33149" lon="0.96234">
        <ele>57</ele>
        <time>2008-04-27T08:42:54Z</time>
      </trkpt>
      <trkpt lat="49.33148" lon="0.96217">
        <ele>58</ele>
        <time>2008-04-27T08:42:59Z</time>
      </trkpt>
      <trkpt lat="49.33146" lon="0.96202">
        <ele>59</ele>
        <time>2008-04-27T08:43:03Z</time>
      </trkpt>
      <trkpt lat="49.33142" lon="0.96187">
        <ele>60</ele>
        <time>2008-04-27T08:43:07Z</time>
      </trkpt>
      <trkpt lat="49.33139" lon="0.96173">
        <ele>61</ele>
        <time>2008-04-27T08:43:11Z</time>
      </trkpt>
      <trkpt lat="49.33135" lon="0.96158">
        <ele>63</ele>
        <time>2008-04-27T08:43:17Z</time>
      </trkpt>
      <trkpt lat="49.33129" lon="0.96146">
        <ele>65</ele>
        <time>2008-04-27T08:43:24Z</time>
      </trkpt>
      <trkpt lat="49.33121" lon="0.96136">
        <ele>67</ele>
        <time>2008-04-27T08:43:32Z</time>
      </trkpt>
      <trkpt lat="49.33111" lon="0.96132">
        <ele>70</ele>
        <time>2008-04-27T08:43:40Z</time>
      </trkpt>
      <trkpt lat="49.33102" lon="0.96125">
        <ele>72</ele>
        <time>2008-04-27T08:43:48Z</time>
      </trkpt>
      <trkpt lat="49.33093" lon="0.96116">
        <ele>74</ele>
        <time>2008-04-27T08:43:57Z</time>
      </trkpt>
      <trkpt lat="49.33085" lon="0.96109">
        <ele>76</ele>
        <time>2008-04-27T08:44:05Z</time>
      </trkpt>
      <trkpt lat="49.33077" lon="0.961">
        <ele>77</ele>
        <time>2008-04-27T08:44:14Z</time>
      </trkpt>
      <trkpt lat="49.33069" lon="0.96089">
        <ele>79</ele>
        <time>2008-04-27T08:44:23Z</time>
      </trkpt>
      <trkpt lat="49.33061" lon="0.96079">
        <ele>81</ele>
        <time>2008-04-27T08:44:30Z</time>
      </trkpt>
      <trkpt lat="49.33054" lon="0.96067">
        <ele>82</ele>
        <time>2008-04-27T08:44:38Z</time>
      </trkpt>
      <trkpt lat="49.33047" lon="0.96053">
        <ele>83</ele>
        <time>2008-04-27T08:44:46Z</time>
      </trkpt>
      <trkpt lat="49.33041" lon="0.9604">
        <ele>85</ele>
        <time>2008-04-27T08:44:53Z</time>
      </trkpt>
      <trkpt lat="49.33034" lon="0.96027">
        <ele>86</ele>
        <time>2008-04-27T08:45:00Z</time>
      </trkpt>
      <trkpt lat="49.33029" lon="0.96013">
        <ele>87</ele>
        <time>2008-04-27T08:45:06Z</time>
      </trkpt>
      <trkpt lat="49.33027" lon="0.95998">
        <ele>87</ele>
        <time>2008-04-27T08:45:10Z</time>
      </trkpt>
      <trkpt lat="49.33024" lon="0.95982">
        <ele>87</ele>
        <time>2008-04-27T08:45:14Z</time>
      </trkpt>
      <trkpt lat="49.33022" lon="0.95966">
        <ele>88</ele>
        <time>2008-04-27T08:45:18Z</time>
      </trkpt>
      <trkpt lat="49.3302" lon="0.9595">
        <ele>88</ele>
        <time>2008-04-27T08:45:22Z</time>
      </trkpt>
      <trkpt lat="49.33019" lon="0.95931">
        <ele>88</ele>
        <time>2008-04-27T08:45:26Z</time>
      </trkpt>
      <trkpt lat="49.33018" lon="0.95913">
        <ele>88</ele>
        <time>2008-04-27T08:45:30Z</time>
      </trkpt>
      <trkpt lat="49.33017" lon="0.95896">
        <ele>88</ele>
        <time>2008-04-27T08:45:34Z</time>
      </trkpt>
      <trkpt lat="49.33016" lon="0.9588">
        <ele>88</ele>
        <time>2008-04-27T08:45:38Z</time>
      </trkpt>
      <trkpt lat="49.33015" lon="0.95864">
        <ele>88</ele>
        <time>2008-04-27T08:45:42Z</time>
      </trkpt>
      <trkpt lat="49.33015" lon="0.95849">
        <ele>87</ele>
        <time>2008-04-27T08:45:46Z</time>
      </trkpt>
      <trkpt lat="49.33015" lon="0.95834">
        <ele>87</ele>
        <time>2008-04-27T08:45:50Z</time>
      </trkpt>
      <trkpt lat="49.33016" lon="0.95819">
        <ele>86</ele>
        <time>2008-04-27T08:45:54Z</time>
      </trkpt>
      <trkpt lat="49.33018" lon="0.95803">
        <ele>86</ele>
        <time>2008-04-27T08:45:58Z</time>
      </trkpt>
      <trkpt lat="49.3302" lon="0.95788">
        <ele>86</ele>
        <time>2008-04-27T08:46:01Z</time>
      </trkpt>
      <trkpt lat="49.33023" lon="0.95768">
        <ele>85</ele>
        <time>2008-04-27T08:46:04Z</time>
      </trkpt>
      <trkpt lat="49.33026" lon="0.95747">
        <ele>85</ele>
        <time>2008-04-27T08:46:07Z</time>
      </trkpt>
      <trkpt lat="49.33029" lon="0.95732">
        <ele>85</ele>
        <time>2008-04-27T08:46:10Z</time>
      </trkpt>
      <trkpt lat="49.33033" lon="0.95717">
        <ele>85</ele>
        <time>2008-04-27T08:46:13Z</time>
      </trkpt>
      <trkpt lat="49.33038" lon="0.95699">
        <ele>85</ele>
        <time>2008-04-27T08:46:16Z</time>
      </trkpt>
      <trkpt lat="49.33043" lon="0.95682">
        <ele>85</ele>
        <time>2008-04-27T08:46:19Z</time>
      </trkpt>
      <trkpt lat="49.33049" lon="0.95666">
        <ele>85</ele>
        <time>2008-04-27T08:46:22Z</time>
      </trkpt>
      <trkpt lat="49.33054" lon="0.9565">
        <ele>85</ele>
        <time>2008-04-27T08:46:25Z</time>
      </trkpt>
      <trkpt lat="49.33055" lon="0.95635">
        <ele>86</ele>
        <time>2008-04-27T08:46:28Z</time>
      </trkpt>
      <trkpt lat="49.33046" lon="0.95627">
        <ele>90</ele>
        <time>2008-04-27T08:46:32Z</time>
      </trkpt>
      <trkpt lat="49.33035" lon="0.95624">
        <ele>93</ele>
        <time>2008-04-27T08:46:36Z</time>
      </trkpt>
      <trkpt lat="49.33025" lon="0.95619">
        <ele>96</ele>
        <time>2008-04-27T08:46:40Z</time>
      </trkpt>
      <trkpt lat="49.33015" lon="0.95617">
        <ele>99</ele>
        <time>2008-04-27T08:46:44Z</time>
      </trkpt>
      <trkpt lat="49.33005" lon="0.95613">
        <ele>101</ele>
        <time>2008-04-27T08:46:48Z</time>
      </trkpt>
      <trkpt lat="49.32994" lon="0.95609">
        <ele>103</ele>
        <time>2008-04-27T08:46:53Z</time>
      </trkpt>
      <trkpt lat="49.32984" lon="0.95606">
        <ele>105</ele>
        <time>2008-04-27T08:46:57Z</time>
      </trkpt>
      <trkpt lat="49.32973" lon="0.95603">
        <ele>107</ele>
        <time>2008-04-27T08:47:02Z</time>
      </trkpt>
      <trkpt lat="49.32963" lon="0.956">
        <ele>108</ele>
        <time>2008-04-27T08:47:07Z</time>
      </trkpt>
      <trkpt lat="49.32952" lon="0.95596">
        <ele>109</ele>
        <time>2008-04-27T08:47:13Z</time>
      </trkpt>
      <trkpt lat="49.32941" lon="0.95591">
        <ele>111</ele>
        <time>2008-04-27T08:47:19Z</time>
      </trkpt>
      <trkpt lat="49.32931" lon="0.95587">
        <ele>111</ele>
        <time>2008-04-27T08:47:24Z</time>
      </trkpt>
      <trkpt lat="49.32921" lon="0.95588">
        <ele>112</ele>
        <time>2008-04-27T08:47:32Z</time>
      </trkpt>
      <trkpt lat="49.32918" lon="0.95607">
        <ele>112</ele>
        <time>2008-04-27T08:47:37Z</time>
      </trkpt>
      <trkpt lat="49.32915" lon="0.95625">
        <ele>112</ele>
        <time>2008-04-27T08:47:41Z</time>
      </trkpt>
      <trkpt lat="49.32912" lon="0.95641">
        <ele>112</ele>
        <time>2008-04-27T08:47:44Z</time>
      </trkpt>
      <trkpt lat="49.3291" lon="0.95655">
        <ele>111</ele>
        <time>2008-04-27T08:47:47Z</time>
      </trkpt>
      <trkpt lat="49.32907" lon="0.95672">
        <ele>111</ele>
        <time>2008-04-27T08:47:52Z</time>
      </trkpt>
      <trkpt lat="49.32902" lon="0.95687">
        <ele>111</ele>
        <time>2008-04-27T08:48:00Z</time>
      </trkpt>
      <trkpt lat="49.32897" lon="0.95674">
        <ele>112</ele>
        <time>2008-04-27T08:48:10Z</time>
      </trkpt>
      <trkpt lat="49.32895" lon="0.95671">
        <ele>112</ele>
        <time>2008-04-27T08:50:05Z</time>
      </trkpt>
      <trkpt lat="49.32897" lon="0.95667">
        <ele>112</ele>
        <time>2008-04-27T08:53:59Z</time>
      </trkpt>
      <trkpt lat="49.32892" lon="0.95671">
        <ele>112</ele>
        <time>2008-04-27T08:57:59Z</time>
      </trkpt>
      <trkpt lat="49.32898" lon="0.95668">
        <ele>112</ele>
        <time>2008-04-27T09:04:08Z</time>
      </trkpt>
      <trkpt lat="49.32903" lon="0.95677">
        <ele>111</ele>
        <time>2008-04-27T09:09:27Z</time>
      </trkpt>
      <trkpt lat="49.32888" lon="0.95668">
        <ele>112</ele>
        <time>2008-04-27T09:11:13Z</time>
      </trkpt>
      <trkpt lat="49.3288" lon="0.95669">
        <ele>113</ele>
        <time>2008-04-27T09:11:18Z</time>
      </trkpt>
      <trkpt lat="49.32869" lon="0.95666">
        <ele>113</ele>
        <time>2008-04-27T09:11:24Z</time>
      </trkpt>
      <trkpt lat="49.32859" lon="0.95663">
        <ele>114</ele>
        <time>2008-04-27T09:11:30Z</time>
      </trkpt>
      <trkpt lat="49.32848" lon="0.95657">
        <ele>115</ele>
        <time>2008-04-27T09:11:35Z</time>
      </trkpt>
      <trkpt lat="49.32836" lon="0.95652">
        <ele>115</ele>
        <time>2008-04-27T09:11:42Z</time>
      </trkpt>
      <trkpt lat="49.32824" lon="0.95649">
        <ele>116</ele>
        <time>2008-04-27T09:11:47Z</time>
      </trkpt>
      <trkpt lat="49.32814" lon="0.95643">
        <ele>116</ele>
        <time>2008-04-27T09:11:52Z</time>
      </trkpt>
      <trkpt lat="49.32804" lon="0.9564">
        <ele>116</ele>
        <time>2008-04-27T09:11:58Z</time>
      </trkpt>
      <trkpt lat="49.32788" lon="0.95639">
        <ele>117</ele>
        <time>2008-04-27T09:12:06Z</time>
      </trkpt>
      <trkpt lat="49.32777" lon="0.95635">
        <ele>117</ele>
        <time>2008-04-27T09:12:11Z</time>
      </trkpt>
      <trkpt lat="49.32767" lon="0.95633">
        <ele>117</ele>
        <time>2008-04-27T09:12:15Z</time>
      </trkpt>
      <trkpt lat="49.32756" lon="0.95629">
        <ele>117</ele>
        <time>2008-04-27T09:12:20Z</time>
      </trkpt>
      <trkpt lat="49.32744" lon="0.95624">
        <ele>117</ele>
        <time>2008-04-27T09:12:26Z</time>
      </trkpt>
      <trkpt lat="49.32733" lon="0.95619">
        <ele>117</ele>
        <time>2008-04-27T09:12:30Z</time>
      </trkpt>
      <trkpt lat="49.32721" lon="0.95612">
        <ele>117</ele>
        <time>2008-04-27T09:12:34Z</time>
      </trkpt>
      <trkpt lat="49.32709" lon="0.95607">
        <ele>117</ele>
        <time>2008-04-27T09:12:39Z</time>
      </trkpt>
      <trkpt lat="49.32693" lon="0.95607">
        <ele>117</ele>
        <time>2008-04-27T09:12:45Z</time>
      </trkpt>
      <trkpt lat="49.32671" lon="0.95601">
        <ele>117</ele>
        <time>2008-04-27T09:12:54Z</time>
      </trkpt>
      <trkpt lat="49.32652" lon="0.95594">
        <ele>117</ele>
        <time>2008-04-27T09:13:00Z</time>
      </trkpt>
      <trkpt lat="49.32635" lon="0.95592">
        <ele>117</ele>
        <time>2008-04-27T09:13:04Z</time>
      </trkpt>
      <trkpt lat="49.32618" lon="0.95587">
        <ele>117</ele>
        <time>2008-04-27T09:13:09Z</time>
      </trkpt>
      <trkpt lat="49.32599" lon="0.95581">
        <ele>117</ele>
        <time>2008-04-27T09:13:14Z</time>
      </trkpt>
      <trkpt lat="49.32581" lon="0.95574">
        <ele>117</ele>
        <time>2008-04-27T09:13:19Z</time>
      </trkpt>
      <trkpt lat="49.32565" lon="0.95567">
        <ele>117</ele>
        <time>2008-04-27T09:13:24Z</time>
      </trkpt>
      <trkpt lat="49.32547" lon="0.95561">
        <ele>117</ele>
        <time>2008-04-27T09:13:30Z</time>
      </trkpt>
      <trkpt lat="49.32531" lon="0.9556">
        <ele>117</ele>
        <time>2008-04-27T09:13:35Z</time>
      </trkpt>
      <trkpt lat="49.32522" lon="0.95576">
        <ele>117</ele>
        <time>2008-04-27T09:13:40Z</time>
      </trkpt>
      <trkpt lat="49.32515" lon="0.95597">
        <ele>117</ele>
        <time>2008-04-27T09:13:44Z</time>
      </trkpt>
      <trkpt lat="49.32507" lon="0.9562">
        <ele>117</ele>
        <time>2008-04-27T09:13:48Z</time>
      </trkpt>
      <trkpt lat="49.32496" lon="0.95643">
        <ele>117</ele>
        <time>2008-04-27T09:13:53Z</time>
      </trkpt>
      <trkpt lat="49.32484" lon="0.95672">
        <ele>116</ele>
        <time>2008-04-27T09:13:58Z</time>
      </trkpt>
      <trkpt lat="49.32482" lon="0.957">
        <ele>116</ele>
        <time>2008-04-27T09:14:03Z</time>
      </trkpt>
      <trkpt lat="49.32478" lon="0.95724">
        <ele>116</ele>
        <time>2008-04-27T09:14:08Z</time>
      </trkpt>
      <trkpt lat="49.32466" lon="0.95743">
        <ele>116</ele>
        <time>2008-04-27T09:14:13Z</time>
      </trkpt>
      <trkpt lat="49.32457" lon="0.95763">
        <ele>115</ele>
        <time>2008-04-27T09:14:22Z</time>
      </trkpt>
      <trkpt lat="49.32463" lon="0.95783">
        <ele>115</ele>
        <time>2008-04-27T09:14:27Z</time>
      </trkpt>
      <trkpt lat="49.32459" lon="0.95799">
        <ele>115</ele>
        <time>2008-04-27T09:14:32Z</time>
      </trkpt>
      <trkpt lat="49.32461" lon="0.95817">
        <ele>115</ele>
        <time>2008-04-27T09:14:39Z</time>
      </trkpt>
      <trkpt lat="49.32457" lon="0.95834">
        <ele>115</ele>
        <time>2008-04-27T09:14:43Z</time>
      </trkpt>
      <trkpt lat="49.32451" lon="0.95848">
        <ele>115</ele>
        <time>2008-04-27T09:14:46Z</time>
      </trkpt>
      <trkpt lat="49.32443" lon="0.9586">
        <ele>114</ele>
        <time>2008-04-27T09:14:49Z</time>
      </trkpt>
      <trkpt lat="49.32438" lon="0.95872">
        <ele>114</ele>
        <time>2008-04-27T09:14:52Z</time>
      </trkpt>
      <trkpt lat="49.32435" lon="0.95888">
        <ele>114</ele>
        <time>2008-04-27T09:14:57Z</time>
      </trkpt>
      <trkpt lat="49.32429" lon="0.95901">
        <ele>114</ele>
        <time>2008-04-27T09:15:00Z</time>
      </trkpt>
      <trkpt lat="49.32425" lon="0.95919">
        <ele>113</ele>
        <time>2008-04-27T09:15:03Z</time>
      </trkpt>
      <trkpt lat="49.32422" lon="0.95933">
        <ele>113</ele>
        <time>2008-04-27T09:15:06Z</time>
      </trkpt>
      <trkpt lat="49.32429" lon="0.95946">
        <ele>113</ele>
        <time>2008-04-27T09:15:10Z</time>
      </trkpt>
      <trkpt lat="49.32422" lon="0.95961">
        <ele>112</ele>
        <time>2008-04-27T09:15:15Z</time>
      </trkpt>
      <trkpt lat="49.32417" lon="0.95975">
        <ele>112</ele>
        <time>2008-04-27T09:15:20Z</time>
      </trkpt>
      <trkpt lat="49.32412" lon="0.95993">
        <ele>112</ele>
        <time>2008-04-27T09:15:24Z</time>
      </trkpt>
      <trkpt lat="49.32408" lon="0.96009">
        <ele>112</ele>
        <time>2008-04-27T09:15:28Z</time>
      </trkpt>
      <trkpt lat="49.32409" lon="0.96027">
        <ele>112</ele>
        <time>2008-04-27T09:15:32Z</time>
      </trkpt>
      <trkpt lat="49.32411" lon="0.96046">
        <ele>112</ele>
        <time>2008-04-27T09:15:37Z</time>
      </trkpt>
      <trkpt lat="49.32412" lon="0.96063">
        <ele>112</ele>
        <time>2008-04-27T09:15:41Z</time>
      </trkpt>
      <trkpt lat="49.32412" lon="0.96081">
        <ele>112</ele>
        <time>2008-04-27T09:15:45Z</time>
      </trkpt>
      <trkpt lat="49.32407" lon="0.96124">
        <ele>112</ele>
        <time>2008-04-27T09:15:48Z</time>
      </trkpt>
      <trkpt lat="49.32407" lon="0.96166">
        <ele>111</ele>
        <time>2008-04-27T09:15:51Z</time>
      </trkpt>
      <trkpt lat="49.32413" lon="0.96197">
        <ele>111</ele>
        <time>2008-04-27T09:15:54Z</time>
      </trkpt>
      <trkpt lat="49.32418" lon="0.96229">
        <ele>111</ele>
        <time>2008-04-27T09:15:57Z</time>
      </trkpt>
      <trkpt lat="49.3242" lon="0.96279">
        <ele>110</ele>
        <time>2008-04-27T09:16:00Z</time>
      </trkpt>
      <trkpt lat="49.32424" lon="0.96316">
        <ele>109</ele>
        <time>2008-04-27T09:16:05Z</time>
      </trkpt>
      <trkpt lat="49.32424" lon="0.96363">
        <ele>108</ele>
        <time>2008-04-27T09:16:09Z</time>
      </trkpt>
      <trkpt lat="49.32406" lon="0.96456">
        <ele>106</ele>
        <time>2008-04-27T09:16:16Z</time>
      </trkpt>
      <trkpt lat="49.32386" lon="0.96533">
        <ele>105</ele>
        <time>2008-04-27T09:16:21Z</time>
      </trkpt>
      <trkpt lat="49.32376" lon="0.96547">
        <ele>104</ele>
        <time>2008-04-27T09:16:25Z</time>
      </trkpt>
      <trkpt lat="49.32364" lon="0.96563">
        <ele>103</ele>
        <time>2008-04-27T09:16:28Z</time>
      </trkpt>
      <trkpt lat="49.32356" lon="0.96578">
        <ele>102</ele>
        <time>2008-04-27T09:16:30Z</time>
      </trkpt>
      <trkpt lat="49.32347" lon="0.96603">
        <ele>101</ele>
        <time>2008-04-27T09:16:32Z</time>
      </trkpt>
      <trkpt lat="49.32338" lon="0.96624">
        <ele>99</ele>
        <time>2008-04-27T09:16:34Z</time>
      </trkpt>
      <trkpt lat="49.32325" lon="0.9664">
        <ele>96</ele>
        <time>2008-04-27T09:16:36Z</time>
      </trkpt>
      <trkpt lat="49.32317" lon="0.96661">
        <ele>94</ele>
        <time>2008-04-27T09:16:38Z</time>
      </trkpt>
      <trkpt lat="49.32305" lon="0.96684">
        <ele>91</ele>
        <time>2008-04-27T09:16:40Z</time>
      </trkpt>
      <trkpt lat="49.32295" lon="0.96713">
        <ele>87</ele>
        <time>2008-04-27T09:16:42Z</time>
      </trkpt>
      <trkpt lat="49.32288" lon="0.9674">
        <ele>85</ele>
        <time>2008-04-27T09:16:44Z</time>
      </trkpt>
      <trkpt lat="49.32273" lon="0.96846">
        <ele>82</ele>
        <time>2008-04-27T09:16:46Z</time>
      </trkpt>
      <trkpt lat="49.32272" lon="0.96862">
        <ele>82</ele>
        <time>2008-04-27T09:16:47Z</time>
      </trkpt>
      <trkpt lat="49.32264" lon="0.96926">
        <ele>85</ele>
        <time>2008-04-27T09:16:48Z</time>
      </trkpt>
      <trkpt lat="49.32261" lon="0.96988">
        <ele>89</ele>
        <time>2008-04-27T09:16:50Z</time>
      </trkpt>
      <trkpt lat="49.32264" lon="0.97004">
        <ele>90</ele>
        <time>2008-04-27T09:16:51Z</time>
      </trkpt>
      <trkpt lat="49.32265" lon="0.97054">
        <ele>90</ele>
        <time>2008-04-27T09:16:52Z</time>
      </trkpt>
      <trkpt lat="49.32272" lon="0.97079">
        <ele>89</ele>
        <time>2008-04-27T09:16:53Z</time>
      </trkpt>
      <trkpt lat="49.32281" lon="0.97109">
        <ele>86</ele>
        <time>2008-04-27T09:16:54Z</time>
      </trkpt>
      <trkpt lat="49.32286" lon="0.97144">
        <ele>81</ele>
        <time>2008-04-27T09:16:55Z</time>
      </trkpt>
      <trkpt lat="49.32287" lon="0.97189">
        <ele>70</ele>
        <time>2008-04-27T09:16:56Z</time>
      </trkpt>
      <trkpt lat="49.32293" lon="0.97218">
        <ele>64</ele>
        <time>2008-04-27T09:16:57Z</time>
      </trkpt>
      <trkpt lat="49.32302" lon="0.97237">
        <ele>60</ele>
        <time>2008-04-27T09:16:58Z</time>
      </trkpt>
      <trkpt lat="49.32309" lon="0.97247">
        <ele>58</ele>
        <time>2008-04-27T09:16:59Z</time>
      </trkpt>
      <trkpt lat="49.32322" lon="0.97257">
        <ele>58</ele>
        <time>2008-04-27T09:17:00Z</time>
      </trkpt>
      <trkpt lat="49.32331" lon="0.97271">
        <ele>56</ele>
        <time>2008-04-27T09:17:01Z</time>
      </trkpt>
      <trkpt lat="49.32341" lon="0.97281">
        <ele>57</ele>
        <time>2008-04-27T09:17:02Z</time>
      </trkpt>
      <trkpt lat="49.32352" lon="0.97292">
        <ele>56</ele>
        <time>2008-04-27T09:17:03Z</time>
      </trkpt>
      <trkpt lat="49.32362" lon="0.97297">
        <ele>58</ele>
        <time>2008-04-27T09:17:04Z</time>
      </trkpt>
      <trkpt lat="49.32374" lon="0.97309">
        <ele>57</ele>
        <time>2008-04-27T09:17:05Z</time>
      </trkpt>
      <trkpt lat="49.32388" lon="0.97323">
        <ele>57</ele>
        <time>2008-04-27T09:17:06Z</time>
      </trkpt>
      <trkpt lat="49.32397" lon="0.9734">
        <ele>56</ele>
        <time>2008-04-27T09:17:07Z</time>
      </trkpt>
      <trkpt lat="49.3241" lon="0.97352">
        <ele>55</ele>
        <time>2008-04-27T09:17:08Z</time>
      </trkpt>
      <trkpt lat="49.32422" lon="0.97363">
        <ele>55</ele>
        <time>2008-04-27T09:17:09Z</time>
      </trkpt>
      <trkpt lat="49.32426" lon="0.97362">
        <ele>55</ele>
        <time>2008-04-27T09:17:10Z</time>
      </trkpt>
      <trkpt lat="49.32424" lon="0.97381">
        <ele>52</ele>
        <time>2008-04-27T09:17:11Z</time>
      </trkpt>
      <trkpt lat="49.32414" lon="0.97389">
        <ele>50</ele>
        <time>2008-04-27T09:17:13Z</time>
      </trkpt>
      <trkpt lat="49.32393" lon="0.97383">
        <ele>48</ele>
        <time>2008-04-27T09:17:18Z</time>
      </trkpt>
      <trkpt lat="49.32377" lon="0.97374">
        <ele>46</ele>
        <time>2008-04-27T09:17:22Z</time>
      </trkpt>
      <trkpt lat="49.32358" lon="0.97367">
        <ele>43</ele>
        <time>2008-04-27T09:17:30Z</time>
      </trkpt>
      <trkpt lat="49.32346" lon="0.97368">
        <ele>41</ele>
        <time>2008-04-27T09:17:34Z</time>
      </trkpt>
      <trkpt lat="49.3233" lon="0.97372">
        <ele>38</ele>
        <time>2008-04-27T09:17:37Z</time>
      </trkpt>
      <trkpt lat="49.32316" lon="0.9737">
        <ele>36</ele>
        <time>2008-04-27T09:17:39Z</time>
      </trkpt>
      <trkpt lat="49.32305" lon="0.97367">
        <ele>36</ele>
        <time>2008-04-27T09:17:41Z</time>
      </trkpt>
      <trkpt lat="49.32295" lon="0.97365">
        <ele>36</ele>
        <time>2008-04-27T09:17:44Z</time>
      </trkpt>
      <trkpt lat="49.32264" lon="0.97345">
        <ele>35</ele>
        <time>2008-04-27T09:17:49Z</time>
      </trkpt>
      <trkpt lat="49.32198" lon="0.97326">
        <ele>38</ele>
        <time>2008-04-27T09:18:08Z</time>
      </trkpt>
      <trkpt lat="49.32193" lon="0.97346">
        <ele>39</ele>
        <time>2008-04-27T09:18:17Z</time>
      </trkpt>
      <trkpt lat="49.32204" lon="0.97362">
        <ele>40</ele>
        <time>2008-04-27T09:18:23Z</time>
      </trkpt>
      <trkpt lat="49.32221" lon="0.97378">
        <ele>40</ele>
        <time>2008-04-27T09:18:27Z</time>
      </trkpt>
      <trkpt lat="49.3223" lon="0.97386">
        <ele>40</ele>
        <time>2008-04-27T09:18:30Z</time>
      </trkpt>
      <trkpt lat="49.32244" lon="0.97402">
        <ele>40</ele>
        <time>2008-04-27T09:18:35Z</time>
      </trkpt>
      <trkpt lat="49.32257" lon="0.97414">
        <ele>39</ele>
        <time>2008-04-27T09:18:43Z</time>
      </trkpt>
      <trkpt lat="49.32271" lon="0.97427">
        <ele>39</ele>
        <time>2008-04-27T09:18:49Z</time>
      </trkpt>
      <trkpt lat="49.32283" lon="0.9744">
        <ele>39</ele>
        <time>2008-04-27T09:18:56Z</time>
      </trkpt>
      <trkpt lat="49.32296" lon="0.97458">
        <ele>39</ele>
        <time>2008-04-27T09:19:04Z</time>
      </trkpt>
      <trkpt lat="49.32309" lon="0.97478">
        <ele>38</ele>
        <time>2008-04-27T09:19:14Z</time>
      </trkpt>
      <trkpt lat="49.32321" lon="0.97499">
        <ele>40</ele>
        <time>2008-04-27T09:19:25Z</time>
      </trkpt>
      <trkpt lat="49.32327" lon="0.97516">
        <ele>42</ele>
        <time>2008-04-27T09:19:36Z</time>
      </trkpt>
      <trkpt lat="49.32341" lon="0.97538">
        <ele>43</ele>
        <time>2008-04-27T09:19:49Z</time>
      </trkpt>
      <trkpt lat="49.3235" lon="0.97556">
        <ele>44</ele>
        <time>2008-04-27T09:20:01Z</time>
      </trkpt>
      <trkpt lat="49.32357" lon="0.97574">
        <ele>46</ele>
        <time>2008-04-27T09:20:12Z</time>
      </trkpt>
      <trkpt lat="49.32347" lon="0.97606">
        <ele>53</ele>
        <time>2008-04-27T09:20:45Z</time>
      </trkpt>
      <trkpt lat="49.32312" lon="0.97645">
        <ele>63</ele>
        <time>2008-04-27T09:21:58Z</time>
      </trkpt>
      <trkpt lat="49.32295" lon="0.97651">
        <ele>64</ele>
        <time>2008-04-27T09:22:17Z</time>
      </trkpt>
      <trkpt lat="49.32278" lon="0.97669">
        <ele>66</ele>
        <time>2008-04-27T09:22:35Z</time>
      </trkpt>
      <trkpt lat="49.32264" lon="0.97667">
        <ele>67</ele>
        <time>2008-04-27T09:26:25Z</time>
      </trkpt>
      <trkpt lat="49.32256" lon="0.97674">
        <ele>67</ele>
        <time>2008-04-27T09:27:15Z</time>
      </trkpt>
      <trkpt lat="49.32245" lon="0.97675">
        <ele>68</ele>
        <time>2008-04-27T09:27:23Z</time>
      </trkpt>
      <trkpt lat="49.32234" lon="0.97669">
        <ele>69</ele>
        <time>2008-04-27T09:27:28Z</time>
      </trkpt>
      <trkpt lat="49.32222" lon="0.97667">
        <ele>70</ele>
        <time>2008-04-27T09:27:33Z</time>
      </trkpt>
      <trkpt lat="49.3221" lon="0.97663">
        <ele>71</ele>
        <time>2008-04-27T09:27:38Z</time>
      </trkpt>
      <trkpt lat="49.322" lon="0.9766">
        <ele>71</ele>
        <time>2008-04-27T09:27:43Z</time>
      </trkpt>
      <trkpt lat="49.32188" lon="0.97657">
        <ele>73</ele>
        <time>2008-04-27T09:27:50Z</time>
      </trkpt>
      <trkpt lat="49.32176" lon="0.97652">
        <ele>74</ele>
        <time>2008-04-27T09:27:56Z</time>
      </trkpt>
      <trkpt lat="49.32163" lon="0.97648">
        <ele>76</ele>
        <time>2008-04-27T09:28:03Z</time>
      </trkpt>
      <trkpt lat="49.32151" lon="0.97647">
        <ele>77</ele>
        <time>2008-04-27T09:28:09Z</time>
      </trkpt>
      <trkpt lat="49.32139" lon="0.97642">
        <ele>79</ele>
        <time>2008-04-27T09:28:15Z</time>
      </trkpt>
      <trkpt lat="49.32126" lon="0.97639">
        <ele>80</ele>
        <time>2008-04-27T09:28:21Z</time>
      </trkpt>
      <trkpt lat="49.32115" lon="0.97636">
        <ele>82</ele>
        <time>2008-04-27T09:28:26Z</time>
      </trkpt>
      <trkpt lat="49.32106" lon="0.97634">
        <ele>83</ele>
        <time>2008-04-27T09:28:30Z</time>
      </trkpt>
      <trkpt lat="49.32094" lon="0.97628">
        <ele>85</ele>
        <time>2008-04-27T09:28:35Z</time>
      </trkpt>
      <trkpt lat="49.32084" lon="0.97625">
        <ele>86</ele>
        <time>2008-04-27T09:28:39Z</time>
      </trkpt>
      <trkpt lat="49.3207" lon="0.97619">
        <ele>87</ele>
        <time>2008-04-27T09:28:44Z</time>
      </trkpt>
      <trkpt lat="49.32058" lon="0.97615">
        <ele>87</ele>
        <time>2008-04-27T09:28:48Z</time>
      </trkpt>
      <trkpt lat="49.32047" lon="0.97614">
        <ele>88</ele>
        <time>2008-04-27T09:28:52Z</time>
      </trkpt>
      <trkpt lat="49.32036" lon="0.9761">
        <ele>88</ele>
        <time>2008-04-27T09:28:56Z</time>
      </trkpt>
      <trkpt lat="49.32024" lon="0.97603">
        <ele>89</ele>
        <time>2008-04-27T09:29:00Z</time>
      </trkpt>
      <trkpt lat="49.32012" lon="0.97595">
        <ele>89</ele>
        <time>2008-04-27T09:29:04Z</time>
      </trkpt>
      <trkpt lat="49.31996" lon="0.97593">
        <ele>90</ele>
        <time>2008-04-27T09:29:09Z</time>
      </trkpt>
      <trkpt lat="49.31981" lon="0.97589">
        <ele>90</ele>
        <time>2008-04-27T09:29:13Z</time>
      </trkpt>
      <trkpt lat="49.31971" lon="0.97585">
        <ele>90</ele>
        <time>2008-04-27T09:29:16Z</time>
      </trkpt>
      <trkpt lat="49.31959" lon="0.9758">
        <ele>91</ele>
        <time>2008-04-27T09:29:20Z</time>
      </trkpt>
      <trkpt lat="49.31949" lon="0.97573">
        <ele>91</ele>
        <time>2008-04-27T09:29:24Z</time>
      </trkpt>
      <trkpt lat="49.31945" lon="0.97578">
        <ele>91</ele>
        <time>2008-04-27T09:32:49Z</time>
      </trkpt>
      <trkpt lat="49.3193" lon="0.97569">
        <ele>92</ele>
        <time>2008-04-27T09:34:49Z</time>
      </trkpt>
      <trkpt lat="49.31918" lon="0.97568">
        <ele>93</ele>
        <time>2008-04-27T09:34:56Z</time>
      </trkpt>
      <trkpt lat="49.31906" lon="0.97561">
        <ele>94</ele>
        <time>2008-04-27T09:35:00Z</time>
      </trkpt>
      <trkpt lat="49.31894" lon="0.97556">
        <ele>94</ele>
        <time>2008-04-27T09:35:04Z</time>
      </trkpt>
      <trkpt lat="49.31883" lon="0.97551">
        <ele>95</ele>
        <time>2008-04-27T09:35:08Z</time>
      </trkpt>
      <trkpt lat="49.3187" lon="0.97545">
        <ele>95</ele>
        <time>2008-04-27T09:35:12Z</time>
      </trkpt>
      <trkpt lat="49.31856" lon="0.9754">
        <ele>96</ele>
        <time>2008-04-27T09:35:16Z</time>
      </trkpt>
      <trkpt lat="49.31844" lon="0.97535">
        <ele>96</ele>
        <time>2008-04-27T09:35:20Z</time>
      </trkpt>
      <trkpt lat="49.31832" lon="0.97527">
        <ele>97</ele>
        <time>2008-04-27T09:35:24Z</time>
      </trkpt>
      <trkpt lat="49.31825" lon="0.97513">
        <ele>97</ele>
        <time>2008-04-27T09:35:28Z</time>
      </trkpt>
      <trkpt lat="49.31817" lon="0.97495">
        <ele>98</ele>
        <time>2008-04-27T09:35:32Z</time>
      </trkpt>
      <trkpt lat="49.31811" lon="0.9748">
        <ele>98</ele>
        <time>2008-04-27T09:35:36Z</time>
      </trkpt>
      <trkpt lat="49.31801" lon="0.97468">
        <ele>98</ele>
        <time>2008-04-27T09:35:40Z</time>
      </trkpt>
      <trkpt lat="49.31793" lon="0.97462">
        <ele>99</ele>
        <time>2008-04-27T09:35:43Z</time>
      </trkpt>
      <trkpt lat="49.31782" lon="0.97453">
        <ele>99</ele>
        <time>2008-04-27T09:35:47Z</time>
      </trkpt>
      <trkpt lat="49.31773" lon="0.97445">
        <ele>99</ele>
        <time>2008-04-27T09:35:50Z</time>
      </trkpt>
      <trkpt lat="49.31764" lon="0.97431">
        <ele>100</ele>
        <time>2008-04-27T09:35:54Z</time>
      </trkpt>
      <trkpt lat="49.31756" lon="0.97421">
        <ele>100</ele>
        <time>2008-04-27T09:35:58Z</time>
      </trkpt>
      <trkpt lat="49.31745" lon="0.97406">
        <ele>100</ele>
        <time>2008-04-27T09:36:05Z</time>
      </trkpt>
      <trkpt lat="49.31735" lon="0.9739">
        <ele>101</ele>
        <time>2008-04-27T09:36:09Z</time>
      </trkpt>
      <trkpt lat="49.3173" lon="0.97374">
        <ele>101</ele>
        <time>2008-04-27T09:36:12Z</time>
      </trkpt>
      <trkpt lat="49.31723" lon="0.97357">
        <ele>101</ele>
        <time>2008-04-27T09:36:16Z</time>
      </trkpt>
      <trkpt lat="49.31716" lon="0.97338">
        <ele>101</ele>
        <time>2008-04-27T09:36:19Z</time>
      </trkpt>
      <trkpt lat="49.3171" lon="0.97323">
        <ele>101</ele>
        <time>2008-04-27T09:36:22Z</time>
      </trkpt>
      <trkpt lat="49.31699" lon="0.97303">
        <ele>101</ele>
        <time>2008-04-27T09:36:26Z</time>
      </trkpt>
      <trkpt lat="49.31692" lon="0.9729">
        <ele>101</ele>
        <time>2008-04-27T09:36:31Z</time>
      </trkpt>
      <trkpt lat="49.31682" lon="0.97278">
        <ele>102</ele>
        <time>2008-04-27T09:36:34Z</time>
      </trkpt>
      <trkpt lat="49.31674" lon="0.97265">
        <ele>102</ele>
        <time>2008-04-27T09:36:37Z</time>
      </trkpt>
      <trkpt lat="49.31664" lon="0.97247">
        <ele>102</ele>
        <time>2008-04-27T09:36:40Z</time>
      </trkpt>
      <trkpt lat="49.31657" lon="0.97234">
        <ele>103</ele>
        <time>2008-04-27T09:36:43Z</time>
      </trkpt>
      <trkpt lat="49.31648" lon="0.97215">
        <ele>103</ele>
        <time>2008-04-27T09:36:47Z</time>
      </trkpt>
      <trkpt lat="49.31638" lon="0.97198">
        <ele>103</ele>
        <time>2008-04-27T09:36:51Z</time>
      </trkpt>
      <trkpt lat="49.31629" lon="0.97187">
        <ele>104</ele>
        <time>2008-04-27T09:36:55Z</time>
      </trkpt>
      <trkpt lat="49.3162" lon="0.97175">
        <ele>104</ele>
        <time>2008-04-27T09:36:59Z</time>
      </trkpt>
      <trkpt lat="49.31611" lon="0.97155">
        <ele>105</ele>
        <time>2008-04-27T09:37:04Z</time>
      </trkpt>
      <trkpt lat="49.31603" lon="0.97139">
        <ele>105</ele>
        <time>2008-04-27T09:37:08Z</time>
      </trkpt>
      <trkpt lat="49.31589" lon="0.97123">
        <ele>106</ele>
        <time>2008-04-27T09:37:12Z</time>
      </trkpt>
      <trkpt lat="49.31579" lon="0.97104">
        <ele>107</ele>
        <time>2008-04-27T09:37:17Z</time>
      </trkpt>
      <trkpt lat="49.31579" lon="0.9708">
        <ele>106</ele>
        <time>2008-04-27T09:37:25Z</time>
      </trkpt>
      <trkpt lat="49.31574" lon="0.97057">
        <ele>106</ele>
        <time>2008-04-27T09:37:31Z</time>
      </trkpt>
      <trkpt lat="49.31568" lon="0.97033">
        <ele>106</ele>
        <time>2008-04-27T09:37:41Z</time>
      </trkpt>
      <trkpt lat="49.31562" lon="0.97009">
        <ele>106</ele>
        <time>2008-04-27T09:37:49Z</time>
      </trkpt>
      <trkpt lat="49.31556" lon="0.96976">
        <ele>105</ele>
        <time>2008-04-27T09:38:22Z</time>
      </trkpt>
      <trkpt lat="49.31557" lon="0.96949">
        <ele>104</ele>
        <time>2008-04-27T09:38:28Z</time>
      </trkpt>
      <trkpt lat="49.31558" lon="0.96927">
        <ele>103</ele>
        <time>2008-04-27T09:38:32Z</time>
      </trkpt>
      <trkpt lat="49.31558" lon="0.96898">
        <ele>101</ele>
        <time>2008-04-27T09:38:37Z</time>
      </trkpt>
      <trkpt lat="49.31558" lon="0.96878">
        <ele>100</ele>
        <time>2008-04-27T09:38:41Z</time>
      </trkpt>
      <trkpt lat="49.31561" lon="0.9684">
        <ele>98</ele>
        <time>2008-04-27T09:38:48Z</time>
      </trkpt>
      <trkpt lat="49.3156" lon="0.96811">
        <ele>96</ele>
        <time>2008-04-27T09:38:55Z</time>
      </trkpt>
      <trkpt lat="49.31559" lon="0.96789">
        <ele>95</ele>
        <time>2008-04-27T09:39:01Z</time>
      </trkpt>
      <trkpt lat="49.31552" lon="0.96762">
        <ele>94</ele>
        <time>2008-04-27T09:39:12Z</time>
      </trkpt>
      <trkpt lat="49.31545" lon="0.96742">
        <ele>94</ele>
        <time>2008-04-27T09:39:17Z</time>
      </trkpt>
      <trkpt lat="49.31538" lon="0.96723">
        <ele>93</ele>
        <time>2008-04-27T09:39:20Z</time>
      </trkpt>
      <trkpt lat="49.31532" lon="0.9671">
        <ele>92</ele>
        <time>2008-04-27T09:39:23Z</time>
      </trkpt>
      <trkpt lat="49.31534" lon="0.96681">
        <ele>87</ele>
        <time>2008-04-27T09:39:31Z</time>
      </trkpt>
      <trkpt lat="49.31544" lon="0.96657">
        <ele>85</ele>
        <time>2008-04-27T09:39:36Z</time>
      </trkpt>
      <trkpt lat="49.31539" lon="0.96641">
        <ele>86</ele>
        <time>2008-04-27T09:39:52Z</time>
      </trkpt>
      <trkpt lat="49.31537" lon="0.96603">
        <ele>86</ele>
        <time>2008-04-27T09:40:04Z</time>
      </trkpt>
      <trkpt lat="49.31552" lon="0.96584">
        <ele>91</ele>
        <time>2008-04-27T09:40:32Z</time>
      </trkpt>
      <trkpt lat="49.31574" lon="0.96584">
        <ele>93</ele>
        <time>2008-04-27T09:40:59Z</time>
      </trkpt>
      <trkpt lat="49.31589" lon="0.96576">
        <ele>97</ele>
        <time>2008-04-27T09:41:15Z</time>
      </trkpt>
      <trkpt lat="49.31608" lon="0.96585">
        <ele>97</ele>
        <time>2008-04-27T09:41:29Z</time>
      </trkpt>
      <trkpt lat="49.31622" lon="0.96599">
        <ele>97</ele>
        <time>2008-04-27T09:41:36Z</time>
      </trkpt>
      <trkpt lat="49.31638" lon="0.96602">
        <ele>99</ele>
        <time>2008-04-27T09:41:50Z</time>
      </trkpt>
      <trkpt lat="49.31661" lon="0.96602">
        <ele>101</ele>
        <time>2008-04-27T09:42:06Z</time>
      </trkpt>
      <trkpt lat="49.31673" lon="0.96609">
        <ele>101</ele>
        <time>2008-04-27T09:42:15Z</time>
      </trkpt>
      <trkpt lat="49.31682" lon="0.96583">
        <ele>103</ele>
        <time>2008-04-27T09:42:26Z</time>
      </trkpt>
      <trkpt lat="49.31691" lon="0.96567">
        <ele>104</ele>
        <time>2008-04-27T09:42:32Z</time>
      </trkpt>
      <trkpt lat="49.31699" lon="0.96554">
        <ele>104</ele>
        <time>2008-04-27T09:42:39Z</time>
      </trkpt>
      <trkpt lat="49.31711" lon="0.96559">
        <ele>104</ele>
        <time>2008-04-27T09:42:47Z</time>
      </trkpt>
      <trkpt lat="49.31709" lon="0.96539">
        <ele>104</ele>
        <time>2008-04-27T09:44:16Z</time>
      </trkpt>
      <trkpt lat="49.31718" lon="0.96519">
        <ele>104</ele>
        <time>2008-04-27T09:44:23Z</time>
      </trkpt>
      <trkpt lat="49.31722" lon="0.96499">
        <ele>104</ele>
        <time>2008-04-27T09:44:29Z</time>
      </trkpt>
      <trkpt lat="49.31732" lon="0.96487">
        <ele>104</ele>
        <time>2008-04-27T09:44:34Z</time>
      </trkpt>
      <trkpt lat="49.31749" lon="0.96482">
        <ele>103</ele>
        <time>2008-04-27T09:44:39Z</time>
      </trkpt>
      <trkpt lat="49.31767" lon="0.96483">
        <ele>101</ele>
        <time>2008-04-27T09:44:43Z</time>
      </trkpt>
      <trkpt lat="49.31784" lon="0.96484">
        <ele>100</ele>
        <time>2008-04-27T09:44:46Z</time>
      </trkpt>
      <trkpt lat="49.31795" lon="0.96481">
        <ele>99</ele>
        <time>2008-04-27T09:44:48Z</time>
      </trkpt>
      <trkpt lat="49.31807" lon="0.96475">
        <ele>98</ele>
        <time>2008-04-27T09:44:50Z</time>
      </trkpt>
      <trkpt lat="49.31818" lon="0.96462">
        <ele>97</ele>
        <time>2008-04-27T09:44:53Z</time>
      </trkpt>
      <trkpt lat="49.31818" lon="0.96445">
        <ele>97</ele>
        <time>2008-04-27T09:44:57Z</time>
      </trkpt>
      <trkpt lat="49.31828" lon="0.96412">
        <ele>97</ele>
        <time>2008-04-27T09:45:02Z</time>
      </trkpt>
      <trkpt lat="49.31841" lon="0.96398">
        <ele>96</ele>
        <time>2008-04-27T09:45:06Z</time>
      </trkpt>
      <trkpt lat="49.31863" lon="0.9639">
        <ele>93</ele>
        <time>2008-04-27T09:45:09Z</time>
      </trkpt>
      <trkpt lat="49.31878" lon="0.96386">
        <ele>91</ele>
        <time>2008-04-27T09:45:11Z</time>
      </trkpt>
      <trkpt lat="49.3189" lon="0.96378">
        <ele>89</ele>
        <time>2008-04-27T09:45:13Z</time>
      </trkpt>
      <trkpt lat="49.31902" lon="0.96373">
        <ele>87</ele>
        <time>2008-04-27T09:45:15Z</time>
      </trkpt>
      <trkpt lat="49.31915" lon="0.96367">
        <ele>83</ele>
        <time>2008-04-27T09:45:17Z</time>
      </trkpt>
      <trkpt lat="49.31924" lon="0.96354">
        <ele>81</ele>
        <time>2008-04-27T09:45:19Z</time>
      </trkpt>
      <trkpt lat="49.3193" lon="0.96338">
        <ele>79</ele>
        <time>2008-04-27T09:45:21Z</time>
      </trkpt>
      <trkpt lat="49.31936" lon="0.9632">
        <ele>78</ele>
        <time>2008-04-27T09:45:24Z</time>
      </trkpt>
      <trkpt lat="49.31943" lon="0.96302">
        <ele>78</ele>
        <time>2008-04-27T09:45:27Z</time>
      </trkpt>
      <trkpt lat="49.31951" lon="0.96281">
        <ele>78</ele>
        <time>2008-04-27T09:45:30Z</time>
      </trkpt>
      <trkpt lat="49.31956" lon="0.96264">
        <ele>78</ele>
        <time>2008-04-27T09:45:32Z</time>
      </trkpt>
      <trkpt lat="49.31962" lon="0.96244">
        <ele>79</ele>
        <time>2008-04-27T09:45:35Z</time>
      </trkpt>
      <trkpt lat="49.31971" lon="0.96222">
        <ele>78</ele>
        <time>2008-04-27T09:45:39Z</time>
      </trkpt>
      <trkpt lat="49.31974" lon="0.962">
        <ele>78</ele>
        <time>2008-04-27T09:45:42Z</time>
      </trkpt>
      <trkpt lat="49.31974" lon="0.96175">
        <ele>78</ele>
        <time>2008-04-27T09:45:44Z</time>
      </trkpt>
      <trkpt lat="49.31974" lon="0.96146">
        <ele>78</ele>
        <time>2008-04-27T09:45:46Z</time>
      </trkpt>
      <trkpt lat="49.31973" lon="0.96119">
        <ele>77</ele>
        <time>2008-04-27T09:45:48Z</time>
      </trkpt>
      <trkpt lat="49.31972" lon="0.96091">
        <ele>75</ele>
        <time>2008-04-27T09:45:50Z</time>
      </trkpt>
      <trkpt lat="49.31972" lon="0.96062">
        <ele>73</ele>
        <time>2008-04-27T09:45:52Z</time>
      </trkpt>
      <trkpt lat="49.3197" lon="0.96034">
        <ele>72</ele>
        <time>2008-04-27T09:45:54Z</time>
      </trkpt>
      <trkpt lat="49.3197" lon="0.96007">
        <ele>70</ele>
        <time>2008-04-27T09:45:56Z</time>
      </trkpt>
      <trkpt lat="49.31968" lon="0.95978">
        <ele>69</ele>
        <time>2008-04-27T09:45:58Z</time>
      </trkpt>
      <trkpt lat="49.31962" lon="0.95945">
        <ele>70</ele>
        <time>2008-04-27T09:46:00Z</time>
      </trkpt>
      <trkpt lat="49.3196" lon="0.95931">
        <ele>70</ele>
        <time>2008-04-27T09:46:01Z</time>
      </trkpt>
      <trkpt lat="49.31959" lon="0.95912">
        <ele>70</ele>
        <time>2008-04-27T09:46:03Z</time>
      </trkpt>
      <trkpt lat="49.31959" lon="0.95895">
        <ele>70</ele>
        <time>2008-04-27T09:46:05Z</time>
      </trkpt>
      <trkpt lat="49.31959" lon="0.95878">
        <ele>70</ele>
        <time>2008-04-27T09:46:07Z</time>
      </trkpt>
      <trkpt lat="49.31959" lon="0.9586">
        <ele>71</ele>
        <time>2008-04-27T09:46:10Z</time>
      </trkpt>
      <trkpt lat="49.31958" lon="0.95842">
        <ele>71</ele>
        <time>2008-04-27T09:46:13Z</time>
      </trkpt>
      <trkpt lat="49.31958" lon="0.95826">
        <ele>71</ele>
        <time>2008-04-27T09:46:16Z</time>
      </trkpt>
      <trkpt lat="49.31959" lon="0.95805">
        <ele>71</ele>
        <time>2008-04-27T09:46:20Z</time>
      </trkpt>
      <trkpt lat="49.31962" lon="0.95787">
        <ele>72</ele>
        <time>2008-04-27T09:46:25Z</time>
      </trkpt>
      <trkpt lat="49.31965" lon="0.95764">
        <ele>72</ele>
        <time>2008-04-27T09:46:32Z</time>
      </trkpt>
      <trkpt lat="49.3197" lon="0.95737">
        <ele>74</ele>
        <time>2008-04-27T09:46:43Z</time>
      </trkpt>
      <trkpt lat="49.31975" lon="0.95703">
        <ele>76</ele>
        <time>2008-04-27T09:46:56Z</time>
      </trkpt>
      <trkpt lat="49.31977" lon="0.95675">
        <ele>76</ele>
        <time>2008-04-27T09:47:07Z</time>
      </trkpt>
      <trkpt lat="49.31977" lon="0.9565">
        <ele>77</ele>
        <time>2008-04-27T09:47:14Z</time>
      </trkpt>
      <trkpt lat="49.31977" lon="0.95619">
        <ele>77</ele>
        <time>2008-04-27T09:47:22Z</time>
      </trkpt>
      <trkpt lat="49.31977" lon="0.95591">
        <ele>77</ele>
        <time>2008-04-27T09:47:28Z</time>
      </trkpt>
      <trkpt lat="49.31976" lon="0.95565">
        <ele>76</ele>
        <time>2008-04-27T09:47:33Z</time>
      </trkpt>
      <trkpt lat="49.31976" lon="0.95547">
        <ele>75</ele>
        <time>2008-04-27T09:47:36Z</time>
      </trkpt>
      <trkpt lat="49.31975" lon="0.95527">
        <ele>74</ele>
        <time>2008-04-27T09:47:40Z</time>
      </trkpt>
      <trkpt lat="49.31972" lon="0.95505">
        <ele>74</ele>
        <time>2008-04-27T09:47:44Z</time>
      </trkpt>
      <trkpt lat="49.31979" lon="0.95486">
        <ele>72</ele>
        <time>2008-04-27T09:47:49Z</time>
      </trkpt>
      <trkpt lat="49.31985" lon="0.95458">
        <ele>73</ele>
        <time>2008-04-27T09:47:52Z</time>
      </trkpt>
      <trkpt lat="49.31987" lon="0.95434">
        <ele>74</ele>
        <time>2008-04-27T09:47:54Z</time>
      </trkpt>
      <trkpt lat="49.3199" lon="0.95417">
        <ele>75</ele>
        <time>2008-04-27T09:47:56Z</time>
      </trkpt>
      <trkpt lat="49.31993" lon="0.95401">
        <ele>76</ele>
        <time>2008-04-27T09:47:59Z</time>
      </trkpt>
      <trkpt lat="49.32001" lon="0.9538">
        <ele>79</ele>
        <time>2008-04-27T09:48:05Z</time>
      </trkpt>
      <trkpt lat="49.32011" lon="0.95359">
        <ele>82</ele>
        <time>2008-04-27T09:48:12Z</time>
      </trkpt>
      <trkpt lat="49.32017" lon="0.95335">
        <ele>84</ele>
        <time>2008-04-27T09:48:19Z</time>
      </trkpt>
      <trkpt lat="49.32021" lon="0.9531">
        <ele>86</ele>
        <time>2008-04-27T09:48:24Z</time>
      </trkpt>
      <trkpt lat="49.32024" lon="0.95282">
        <ele>88</ele>
        <time>2008-04-27T09:48:31Z</time>
      </trkpt>
      <trkpt lat="49.3203" lon="0.95253">
        <ele>89</ele>
        <time>2008-04-27T09:48:40Z</time>
      </trkpt>
      <trkpt lat="49.32036" lon="0.95226">
        <ele>90</ele>
        <time>2008-04-27T09:48:48Z</time>
      </trkpt>
      <trkpt lat="49.3204" lon="0.952">
        <ele>89</ele>
        <time>2008-04-27T09:48:55Z</time>
      </trkpt>
      <trkpt lat="49.32042" lon="0.95179">
        <ele>89</ele>
        <time>2008-04-27T09:49:01Z</time>
      </trkpt>
      <trkpt lat="49.32046" lon="0.95154">
        <ele>88</ele>
        <time>2008-04-27T09:49:07Z</time>
      </trkpt>
      <trkpt lat="49.32045" lon="0.95123">
        <ele>87</ele>
        <time>2008-04-27T09:49:15Z</time>
      </trkpt>
      <trkpt lat="49.32046" lon="0.95095">
        <ele>86</ele>
        <time>2008-04-27T09:49:21Z</time>
      </trkpt>
      <trkpt lat="49.32045" lon="0.95071">
        <ele>84</ele>
        <time>2008-04-27T09:49:27Z</time>
      </trkpt>
      <trkpt lat="49.32039" lon="0.95045">
        <ele>84</ele>
        <time>2008-04-27T09:49:38Z</time>
      </trkpt>
      <trkpt lat="49.32026" lon="0.95033">
        <ele>83</ele>
        <time>2008-04-27T09:49:45Z</time>
      </trkpt>
      <trkpt lat="49.32009" lon="0.95022">
        <ele>84</ele>
        <time>2008-04-27T09:49:51Z</time>
      </trkpt>
      <trkpt lat="49.3199" lon="0.95007">
        <ele>85</ele>
        <time>2008-04-27T09:49:56Z</time>
      </trkpt>
      <trkpt lat="49.31974" lon="0.94989">
        <ele>87</ele>
        <time>2008-04-27T09:50:00Z</time>
      </trkpt>
      <trkpt lat="49.31964" lon="0.94987">
        <ele>87</ele>
        <time>2008-04-27T09:50:05Z</time>
      </trkpt>
      <trkpt lat="49.3195" lon="0.9498">
        <ele>88</ele>
        <time>2008-04-27T09:50:11Z</time>
      </trkpt>
      <trkpt lat="49.31939" lon="0.94966">
        <ele>89</ele>
        <time>2008-04-27T09:50:17Z</time>
      </trkpt>
      <trkpt lat="49.31946" lon="0.94949">
        <ele>89</ele>
        <time>2008-04-27T09:50:23Z</time>
      </trkpt>
      <trkpt lat="49.31956" lon="0.94932">
        <ele>89</ele>
        <time>2008-04-27T09:50:28Z</time>
      </trkpt>
      <trkpt lat="49.31965" lon="0.94914">
        <ele>90</ele>
        <time>2008-04-27T09:50:32Z</time>
      </trkpt>
      <trkpt lat="49.31973" lon="0.94897">
        <ele>90</ele>
        <time>2008-04-27T09:50:35Z</time>
      </trkpt>
      <trkpt lat="49.31982" lon="0.94876">
        <ele>91</ele>
        <time>2008-04-27T09:50:39Z</time>
      </trkpt>
      <trkpt lat="49.31991" lon="0.94855">
        <ele>92</ele>
        <time>2008-04-27T09:50:44Z</time>
      </trkpt>
      <trkpt lat="49.31996" lon="0.94839">
        <ele>93</ele>
        <time>2008-04-27T09:50:49Z</time>
      </trkpt>
      <trkpt lat="49.32004" lon="0.94819">
        <ele>94</ele>
        <time>2008-04-27T09:50:56Z</time>
      </trkpt>
      <trkpt lat="49.32009" lon="0.94798">
        <ele>94</ele>
        <time>2008-04-27T09:51:02Z</time>
      </trkpt>
      <trkpt lat="49.32016" lon="0.94777">
        <ele>95</ele>
        <time>2008-04-27T09:51:08Z</time>
      </trkpt>
      <trkpt lat="49.32024" lon="0.94758">
        <ele>96</ele>
        <time>2008-04-27T09:51:12Z</time>
      </trkpt>
      <trkpt lat="49.32016" lon="0.94745">
        <ele>97</ele>
        <time>2008-04-27T09:51:19Z</time>
      </trkpt>
      <trkpt lat="49.32001" lon="0.94744">
        <ele>97</ele>
        <time>2008-04-27T09:51:27Z</time>
      </trkpt>
      <trkpt lat="49.31985" lon="0.94741">
        <ele>98</ele>
        <time>2008-04-27T09:51:35Z</time>
      </trkpt>
      <trkpt lat="49.31971" lon="0.94735">
        <ele>99</ele>
        <time>2008-04-27T09:51:41Z</time>
      </trkpt>
      <trkpt lat="49.3196" lon="0.94729">
        <ele>100</ele>
        <time>2008-04-27T09:51:46Z</time>
      </trkpt>
      <trkpt lat="49.31946" lon="0.9473">
        <ele>101</ele>
        <time>2008-04-27T09:51:52Z</time>
      </trkpt>
      <trkpt lat="49.31933" lon="0.94731">
        <ele>102</ele>
        <time>2008-04-27T09:51:58Z</time>
      </trkpt>
      <trkpt lat="49.31918" lon="0.94728">
        <ele>103</ele>
        <time>2008-04-27T09:52:05Z</time>
      </trkpt>
      <trkpt lat="49.31905" lon="0.94726">
        <ele>104</ele>
        <time>2008-04-27T09:52:11Z</time>
      </trkpt>
      <trkpt lat="49.31892" lon="0.94723">
        <ele>104</ele>
        <time>2008-04-27T09:52:17Z</time>
      </trkpt>
      <trkpt lat="49.31879" lon="0.94717">
        <ele>106</ele>
        <time>2008-04-27T09:52:23Z</time>
      </trkpt>
      <trkpt lat="49.31865" lon="0.94712">
        <ele>107</ele>
        <time>2008-04-27T09:52:29Z</time>
      </trkpt>
      <trkpt lat="49.31852" lon="0.94709">
        <ele>107</ele>
        <time>2008-04-27T09:52:34Z</time>
      </trkpt>
      <trkpt lat="49.31838" lon="0.94713">
        <ele>108</ele>
        <time>2008-04-27T09:52:39Z</time>
      </trkpt>
      <trkpt lat="49.31828" lon="0.94717">
        <ele>108</ele>
        <time>2008-04-27T09:52:43Z</time>
      </trkpt>
      <trkpt lat="49.31818" lon="0.94726">
        <ele>108</ele>
        <time>2008-04-27T09:52:48Z</time>
      </trkpt>
      <trkpt lat="49.31807" lon="0.94727">
        <ele>109</ele>
        <time>2008-04-27T09:52:53Z</time>
      </trkpt>
      <trkpt lat="49.31799" lon="0.94736">
        <ele>109</ele>
        <time>2008-04-27T09:52:57Z</time>
      </trkpt>
      <trkpt lat="49.3179" lon="0.94747">
        <ele>110</ele>
        <time>2008-04-27T09:53:01Z</time>
      </trkpt>
      <trkpt lat="49.31781" lon="0.94756">
        <ele>110</ele>
        <time>2008-04-27T09:53:05Z</time>
      </trkpt>
      <trkpt lat="49.31772" lon="0.94766">
        <ele>110</ele>
        <time>2008-04-27T09:53:09Z</time>
      </trkpt>
      <trkpt lat="49.31761" lon="0.94777">
        <ele>111</ele>
        <time>2008-04-27T09:53:13Z</time>
      </trkpt>
      <trkpt lat="49.31754" lon="0.94787">
        <ele>111</ele>
        <time>2008-04-27T09:53:16Z</time>
      </trkpt>
      <trkpt lat="49.31747" lon="0.948">
        <ele>111</ele>
        <time>2008-04-27T09:53:19Z</time>
      </trkpt>
      <trkpt lat="49.31738" lon="0.94813">
        <ele>111</ele>
        <time>2008-04-27T09:53:22Z</time>
      </trkpt>
      <trkpt lat="49.31729" lon="0.94826">
        <ele>111</ele>
        <time>2008-04-27T09:53:25Z</time>
      </trkpt>
      <trkpt lat="49.31719" lon="0.94839">
        <ele>110</ele>
        <time>2008-04-27T09:53:28Z</time>
      </trkpt>
      <trkpt lat="49.3171" lon="0.9485">
        <ele>110</ele>
        <time>2008-04-27T09:53:31Z</time>
      </trkpt>
      <trkpt lat="49.31702" lon="0.9486">
        <ele>110</ele>
        <time>2008-04-27T09:53:34Z</time>
      </trkpt>
      <trkpt lat="49.31694" lon="0.94871">
        <ele>110</ele>
        <time>2008-04-27T09:53:37Z</time>
      </trkpt>
      <trkpt lat="49.31685" lon="0.94881">
        <ele>110</ele>
        <time>2008-04-27T09:53:40Z</time>
      </trkpt>
      <trkpt lat="49.31677" lon="0.94891">
        <ele>110</ele>
        <time>2008-04-27T09:53:43Z</time>
      </trkpt>
      <trkpt lat="49.31668" lon="0.949">
        <ele>110</ele>
        <time>2008-04-27T09:53:46Z</time>
      </trkpt>
      <trkpt lat="49.3166" lon="0.9491">
        <ele>111</ele>
        <time>2008-04-27T09:53:49Z</time>
      </trkpt>
      <trkpt lat="49.31653" lon="0.94919">
        <ele>111</ele>
        <time>2008-04-27T09:53:52Z</time>
      </trkpt>
      <trkpt lat="49.31635" lon="0.94941">
        <ele>113</ele>
        <time>2008-04-27T09:53:59Z</time>
      </trkpt>
      <trkpt lat="49.31624" lon="0.94954">
        <ele>114</ele>
        <time>2008-04-27T09:54:04Z</time>
      </trkpt>
      <trkpt lat="49.31615" lon="0.94965">
        <ele>115</ele>
        <time>2008-04-27T09:54:08Z</time>
      </trkpt>
      <trkpt lat="49.31603" lon="0.94971">
        <ele>116</ele>
        <time>2008-04-27T09:54:12Z</time>
      </trkpt>
      <trkpt lat="49.3159" lon="0.9497">
        <ele>117</ele>
        <time>2008-04-27T09:54:16Z</time>
      </trkpt>
      <trkpt lat="49.3158" lon="0.9497">
        <ele>117</ele>
        <time>2008-04-27T09:54:19Z</time>
      </trkpt>
      <trkpt lat="49.3157" lon="0.9497">
        <ele>118</ele>
        <time>2008-04-27T09:54:22Z</time>
      </trkpt>
      <trkpt lat="49.31559" lon="0.94967">
        <ele>118</ele>
        <time>2008-04-27T09:54:25Z</time>
      </trkpt>
      <trkpt lat="49.31548" lon="0.94966">
        <ele>118</ele>
        <time>2008-04-27T09:54:28Z</time>
      </trkpt>
      <trkpt lat="49.31538" lon="0.94968">
        <ele>119</ele>
        <time>2008-04-27T09:54:31Z</time>
      </trkpt>
      <trkpt lat="49.31527" lon="0.94971">
        <ele>119</ele>
        <time>2008-04-27T09:54:34Z</time>
      </trkpt>
      <trkpt lat="49.31519" lon="0.94979">
        <ele>119</ele>
        <time>2008-04-27T09:54:37Z</time>
      </trkpt>
      <trkpt lat="49.31511" lon="0.94986">
        <ele>119</ele>
        <time>2008-04-27T09:54:40Z</time>
      </trkpt>
      <trkpt lat="49.31501" lon="0.94999">
        <ele>119</ele>
        <time>2008-04-27T09:54:44Z</time>
      </trkpt>
      <trkpt lat="49.31489" lon="0.95">
        <ele>119</ele>
        <time>2008-04-27T09:54:48Z</time>
      </trkpt>
      <trkpt lat="49.31476" lon="0.95002">
        <ele>119</ele>
        <time>2008-04-27T09:54:52Z</time>
      </trkpt>
      <trkpt lat="49.3146" lon="0.95008">
        <ele>119</ele>
        <time>2008-04-27T09:54:57Z</time>
      </trkpt>
      <trkpt lat="49.31445" lon="0.95014">
        <ele>119</ele>
        <time>2008-04-27T09:55:03Z</time>
      </trkpt>
      <trkpt lat="49.31428" lon="0.95025">
        <ele>119</ele>
        <time>2008-04-27T09:55:08Z</time>
      </trkpt>
      <trkpt lat="49.31406" lon="0.95025">
        <ele>119</ele>
        <time>2008-04-27T09:55:15Z</time>
      </trkpt>
      <trkpt lat="49.31389" lon="0.95031">
        <ele>119</ele>
        <time>2008-04-27T09:55:20Z</time>
      </trkpt>
      <trkpt lat="49.31373" lon="0.95029">
        <ele>119</ele>
        <time>2008-04-27T09:55:24Z</time>
      </trkpt>
      <trkpt lat="49.31357" lon="0.95025">
        <ele>120</ele>
        <time>2008-04-27T09:55:27Z</time>
      </trkpt>
      <trkpt lat="49.31344" lon="0.95021">
        <ele>120</ele>
        <time>2008-04-27T09:55:30Z</time>
      </trkpt>
      <trkpt lat="49.31327" lon="0.95022">
        <ele>120</ele>
        <time>2008-04-27T09:55:34Z</time>
      </trkpt>
      <trkpt lat="49.3131" lon="0.95021">
        <ele>121</ele>
        <time>2008-04-27T09:55:39Z</time>
      </trkpt>
      <trkpt lat="49.31296" lon="0.95022">
        <ele>121</ele>
        <time>2008-04-27T09:55:43Z</time>
      </trkpt>
      <trkpt lat="49.31282" lon="0.95017">
        <ele>121</ele>
        <time>2008-04-27T09:55:46Z</time>
      </trkpt>
      <trkpt lat="49.31268" lon="0.95012">
        <ele>122</ele>
        <time>2008-04-27T09:55:49Z</time>
      </trkpt>
      <trkpt lat="49.31255" lon="0.95005">
        <ele>122</ele>
        <time>2008-04-27T09:55:52Z</time>
      </trkpt>
      <trkpt lat="49.31244" lon="0.95002">
        <ele>122</ele>
        <time>2008-04-27T09:55:55Z</time>
      </trkpt>
      <trkpt lat="49.31232" lon="0.95002">
        <ele>122</ele>
        <time>2008-04-27T09:55:58Z</time>
      </trkpt>
      <trkpt lat="49.31221" lon="0.95004">
        <ele>122</ele>
        <time>2008-04-27T09:56:01Z</time>
      </trkpt>
      <trkpt lat="49.31206" lon="0.95007">
        <ele>122</ele>
        <time>2008-04-27T09:56:05Z</time>
      </trkpt>
      <trkpt lat="49.31191" lon="0.95008">
        <ele>122</ele>
        <time>2008-04-27T09:56:09Z</time>
      </trkpt>
      <trkpt lat="49.31179" lon="0.95003">
        <ele>122</ele>
        <time>2008-04-27T09:56:13Z</time>
      </trkpt>
      <trkpt lat="49.31177" lon="0.94982">
        <ele>122</ele>
        <time>2008-04-27T09:56:17Z</time>
      </trkpt>
      <trkpt lat="49.31176" lon="0.94965">
        <ele>122</ele>
        <time>2008-04-27T09:56:20Z</time>
      </trkpt>
      <trkpt lat="49.31173" lon="0.94945">
        <ele>122</ele>
        <time>2008-04-27T09:56:23Z</time>
      </trkpt>
      <trkpt lat="49.31169" lon="0.94918">
        <ele>122</ele>
        <time>2008-04-27T09:56:27Z</time>
      </trkpt>
      <trkpt lat="49.31166" lon="0.94894">
        <ele>122</ele>
        <time>2008-04-27T09:56:30Z</time>
      </trkpt>
      <trkpt lat="49.31164" lon="0.94878">
        <ele>122</ele>
        <time>2008-04-27T09:56:33Z</time>
      </trkpt>
      <trkpt lat="49.31165" lon="0.94856">
        <ele>121</ele>
        <time>2008-04-27T09:56:37Z</time>
      </trkpt>
      <trkpt lat="49.31165" lon="0.94829">
        <ele>121</ele>
        <time>2008-04-27T09:56:41Z</time>
      </trkpt>
      <trkpt lat="49.31169" lon="0.94808">
        <ele>121</ele>
        <time>2008-04-27T09:56:44Z</time>
      </trkpt>
      <trkpt lat="49.31179" lon="0.94793">
        <ele>120</ele>
        <time>2008-04-27T09:56:47Z</time>
      </trkpt>
      <trkpt lat="49.31188" lon="0.94774">
        <ele>120</ele>
        <time>2008-04-27T09:56:50Z</time>
      </trkpt>
      <trkpt lat="49.31197" lon="0.94756">
        <ele>120</ele>
        <time>2008-04-27T09:56:53Z</time>
      </trkpt>
      <trkpt lat="49.31209" lon="0.94742">
        <ele>120</ele>
        <time>2008-04-27T09:56:56Z</time>
      </trkpt>
      <trkpt lat="49.31222" lon="0.94735">
        <ele>119</ele>
        <time>2008-04-27T09:56:59Z</time>
      </trkpt>
      <trkpt lat="49.31234" lon="0.9472">
        <ele>119</ele>
        <time>2008-04-27T09:57:02Z</time>
      </trkpt>
      <trkpt lat="49.31249" lon="0.94706">
        <ele>119</ele>
        <time>2008-04-27T09:57:05Z</time>
      </trkpt>
      <trkpt lat="49.31262" lon="0.94692">
        <ele>119</ele>
        <time>2008-04-27T09:57:08Z</time>
      </trkpt>
      <trkpt lat="49.31273" lon="0.94683">
        <ele>118</ele>
        <time>2008-04-27T09:57:11Z</time>
      </trkpt>
      <trkpt lat="49.31287" lon="0.94667">
        <ele>118</ele>
        <time>2008-04-27T09:57:15Z</time>
      </trkpt>
      <trkpt lat="49.31297" lon="0.9465">
        <ele>118</ele>
        <time>2008-04-27T09:57:18Z</time>
      </trkpt>
      <trkpt lat="49.31309" lon="0.94637">
        <ele>118</ele>
        <time>2008-04-27T09:57:21Z</time>
      </trkpt>
      <trkpt lat="49.31321" lon="0.94628">
        <ele>118</ele>
        <time>2008-04-27T09:57:24Z</time>
      </trkpt>
      <trkpt lat="49.31333" lon="0.9462">
        <ele>118</ele>
        <time>2008-04-27T09:57:27Z</time>
      </trkpt>
      <trkpt lat="49.31345" lon="0.94609">
        <ele>118</ele>
        <time>2008-04-27T09:57:30Z</time>
      </trkpt>
      <trkpt lat="49.31355" lon="0.946">
        <ele>118</ele>
        <time>2008-04-27T09:57:33Z</time>
      </trkpt>
      <trkpt lat="49.31365" lon="0.94588">
        <ele>118</ele>
        <time>2008-04-27T09:57:36Z</time>
      </trkpt>
      <trkpt lat="49.31377" lon="0.94575">
        <ele>119</ele>
        <time>2008-04-27T09:57:40Z</time>
      </trkpt>
      <trkpt lat="49.31392" lon="0.94566">
        <ele>119</ele>
        <time>2008-04-27T09:57:44Z</time>
      </trkpt>
      <trkpt lat="49.31406" lon="0.94557">
        <ele>119</ele>
        <time>2008-04-27T09:57:48Z</time>
      </trkpt>
      <trkpt lat="49.31417" lon="0.94547">
        <ele>120</ele>
        <time>2008-04-27T09:57:51Z</time>
      </trkpt>
      <trkpt lat="49.31433" lon="0.94534">
        <ele>120</ele>
        <time>2008-04-27T09:57:55Z</time>
      </trkpt>
      <trkpt lat="49.31445" lon="0.94522">
        <ele>120</ele>
        <time>2008-04-27T09:57:58Z</time>
      </trkpt>
      <trkpt lat="49.31453" lon="0.94509">
        <ele>119</ele>
        <time>2008-04-27T09:58:01Z</time>
      </trkpt>
      <trkpt lat="49.31454" lon="0.94494">
        <ele>119</ele>
        <time>2008-04-27T09:58:04Z</time>
      </trkpt>
      <trkpt lat="49.31448" lon="0.94476">
        <ele>119</ele>
        <time>2008-04-27T09:58:08Z</time>
      </trkpt>
      <trkpt lat="49.31446" lon="0.94451">
        <ele>119</ele>
        <time>2008-04-27T09:58:11Z</time>
      </trkpt>
      <trkpt lat="49.31446" lon="0.94429">
        <ele>119</ele>
        <time>2008-04-27T09:58:14Z</time>
      </trkpt>
      <trkpt lat="49.31443" lon="0.94406">
        <ele>119</ele>
        <time>2008-04-27T09:58:17Z</time>
      </trkpt>
      <trkpt lat="49.31436" lon="0.94385">
        <ele>119</ele>
        <time>2008-04-27T09:58:20Z</time>
      </trkpt>
      <trkpt lat="49.31429" lon="0.94368">
        <ele>118</ele>
        <time>2008-04-27T09:58:23Z</time>
      </trkpt>
      <trkpt lat="49.31429" lon="0.9435">
        <ele>118</ele>
        <time>2008-04-27T09:58:26Z</time>
      </trkpt>
      <trkpt lat="49.31431" lon="0.94327">
        <ele>117</ele>
        <time>2008-04-27T09:58:30Z</time>
      </trkpt>
      <trkpt lat="49.31436" lon="0.94307">
        <ele>116</ele>
        <time>2008-04-27T09:58:33Z</time>
      </trkpt>
      <trkpt lat="49.31447" lon="0.94288">
        <ele>115</ele>
        <time>2008-04-27T09:58:36Z</time>
      </trkpt>
      <trkpt lat="49.31463" lon="0.94289">
        <ele>115</ele>
        <time>2008-04-27T09:58:40Z</time>
      </trkpt>
      <trkpt lat="49.31476" lon="0.94282">
        <ele>115</ele>
        <time>2008-04-27T09:58:44Z</time>
      </trkpt>
      <trkpt lat="49.31492" lon="0.94276">
        <ele>115</ele>
        <time>2008-04-27T09:58:48Z</time>
      </trkpt>
      <trkpt lat="49.31509" lon="0.94271">
        <ele>115</ele>
        <time>2008-04-27T09:58:51Z</time>
      </trkpt>
      <trkpt lat="49.31527" lon="0.94267">
        <ele>115</ele>
        <time>2008-04-27T09:58:54Z</time>
      </trkpt>
      <trkpt lat="49.3155" lon="0.94259">
        <ele>115</ele>
        <time>2008-04-27T09:58:58Z</time>
      </trkpt>
      <trkpt lat="49.3157" lon="0.94253">
        <ele>115</ele>
        <time>2008-04-27T09:59:02Z</time>
      </trkpt>
      <trkpt lat="49.31589" lon="0.94248">
        <ele>115</ele>
        <time>2008-04-27T09:59:06Z</time>
      </trkpt>
      <trkpt lat="49.31604" lon="0.94245">
        <ele>116</ele>
        <time>2008-04-27T09:59:10Z</time>
      </trkpt>
      <trkpt lat="49.31619" lon="0.94241">
        <ele>116</ele>
        <time>2008-04-27T09:59:14Z</time>
      </trkpt>
      <trkpt lat="49.31634" lon="0.94237">
        <ele>116</ele>
        <time>2008-04-27T09:59:18Z</time>
      </trkpt>
      <trkpt lat="49.31651" lon="0.94229">
        <ele>117</ele>
        <time>2008-04-27T09:59:23Z</time>
      </trkpt>
      <trkpt lat="49.31663" lon="0.94226">
        <ele>117</ele>
        <time>2008-04-27T09:59:26Z</time>
      </trkpt>
      <trkpt lat="49.31677" lon="0.94223">
        <ele>117</ele>
        <time>2008-04-27T09:59:30Z</time>
      </trkpt>
      <trkpt lat="49.3169" lon="0.9422">
        <ele>117</ele>
        <time>2008-04-27T09:59:34Z</time>
      </trkpt>
      <trkpt lat="49.3171" lon="0.94216">
        <ele>117</ele>
        <time>2008-04-27T09:59:40Z</time>
      </trkpt>
      <trkpt lat="49.31727" lon="0.94211">
        <ele>117</ele>
        <time>2008-04-27T09:59:44Z</time>
      </trkpt>
      <trkpt lat="49.31744" lon="0.94209">
        <ele>117</ele>
        <time>2008-04-27T09:59:48Z</time>
      </trkpt>
      <trkpt lat="49.31761" lon="0.94205">
        <ele>117</ele>
        <time>2008-04-27T09:59:52Z</time>
      </trkpt>
      <trkpt lat="49.31779" lon="0.94197">
        <ele>117</ele>
        <time>2008-04-27T09:59:56Z</time>
      </trkpt>
      <trkpt lat="49.31794" lon="0.94194">
        <ele>117</ele>
        <time>2008-04-27T09:59:59Z</time>
      </trkpt>
      <trkpt lat="49.31809" lon="0.94191">
        <ele>117</ele>
        <time>2008-04-27T10:00:02Z</time>
      </trkpt>
      <trkpt lat="49.31841" lon="0.94185">
        <ele>116</ele>
        <time>2008-04-27T10:00:09Z</time>
      </trkpt>
      <trkpt lat="49.3186" lon="0.94179">
        <ele>115</ele>
        <time>2008-04-27T10:00:14Z</time>
      </trkpt>
      <trkpt lat="49.31874" lon="0.94177">
        <ele>115</ele>
        <time>2008-04-27T10:00:17Z</time>
      </trkpt>
      <trkpt lat="49.31892" lon="0.94173">
        <ele>115</ele>
        <time>2008-04-27T10:00:21Z</time>
      </trkpt>
      <trkpt lat="49.31908" lon="0.94168">
        <ele>115</ele>
        <time>2008-04-27T10:00:25Z</time>
      </trkpt>
      <trkpt lat="49.31925" lon="0.94163">
        <ele>115</ele>
        <time>2008-04-27T10:00:29Z</time>
      </trkpt>
      <trkpt lat="49.31939" lon="0.94159">
        <ele>115</ele>
        <time>2008-04-27T10:00:32Z</time>
      </trkpt>
      <trkpt lat="49.31955" lon="0.94154">
        <ele>114</ele>
        <time>2008-04-27T10:00:36Z</time>
      </trkpt>
      <trkpt lat="49.31969" lon="0.94147">
        <ele>114</ele>
        <time>2008-04-27T10:00:40Z</time>
      </trkpt>
      <trkpt lat="49.31985" lon="0.94141">
        <ele>113</ele>
        <time>2008-04-27T10:00:45Z</time>
      </trkpt>
      <trkpt lat="49.32005" lon="0.94138">
        <ele>113</ele>
        <time>2008-04-27T10:00:49Z</time>
      </trkpt>
      <trkpt lat="49.3202" lon="0.94134">
        <ele>112</ele>
        <time>2008-04-27T10:00:52Z</time>
      </trkpt>
      <trkpt lat="49.32033" lon="0.94128">
        <ele>111</ele>
        <time>2008-04-27T10:00:55Z</time>
      </trkpt>
      <trkpt lat="49.32048" lon="0.94123">
        <ele>111</ele>
        <time>2008-04-27T10:00:58Z</time>
      </trkpt>
      <trkpt lat="49.3206" lon="0.9412">
        <ele>110</ele>
        <time>2008-04-27T10:01:00Z</time>
      </trkpt>
      <trkpt lat="49.32072" lon="0.94119">
        <ele>110</ele>
        <time>2008-04-27T10:01:02Z</time>
      </trkpt>
      <trkpt lat="49.32089" lon="0.94115">
        <ele>110</ele>
        <time>2008-04-27T10:01:05Z</time>
      </trkpt>
      <trkpt lat="49.32102" lon="0.94112">
        <ele>110</ele>
        <time>2008-04-27T10:01:07Z</time>
      </trkpt>
      <trkpt lat="49.32121" lon="0.94107">
        <ele>108</ele>
        <time>2008-04-27T10:01:09Z</time>
      </trkpt>
      <trkpt lat="49.32141" lon="0.94101">
        <ele>108</ele>
        <time>2008-04-27T10:01:11Z</time>
      </trkpt>
      <trkpt lat="49.32159" lon="0.94096">
        <ele>107</ele>
        <time>2008-04-27T10:01:13Z</time>
      </trkpt>
      <trkpt lat="49.32176" lon="0.94089">
        <ele>106</ele>
        <time>2008-04-27T10:01:15Z</time>
      </trkpt>
      <trkpt lat="49.32191" lon="0.94085">
        <ele>105</ele>
        <time>2008-04-27T10:01:17Z</time>
      </trkpt>
      <trkpt lat="49.32203" lon="0.94079">
        <ele>104</ele>
        <time>2008-04-27T10:01:19Z</time>
      </trkpt>
      <trkpt lat="49.32216" lon="0.94075">
        <ele>103</ele>
        <time>2008-04-27T10:01:21Z</time>
      </trkpt>
      <trkpt lat="49.32229" lon="0.94072">
        <ele>101</ele>
        <time>2008-04-27T10:01:23Z</time>
      </trkpt>
      <trkpt lat="49.32243" lon="0.9407">
        <ele>100</ele>
        <time>2008-04-27T10:01:25Z</time>
      </trkpt>
      <trkpt lat="49.3226" lon="0.94068">
        <ele>98</ele>
        <time>2008-04-27T10:01:27Z</time>
      </trkpt>
      <trkpt lat="49.3228" lon="0.94066">
        <ele>96</ele>
        <time>2008-04-27T10:01:29Z</time>
      </trkpt>
      <trkpt lat="49.323" lon="0.94064">
        <ele>94</ele>
        <time>2008-04-27T10:01:31Z</time>
      </trkpt>
      <trkpt lat="49.3231" lon="0.94055">
        <ele>92</ele>
        <time>2008-04-27T10:01:33Z</time>
      </trkpt>
      <trkpt lat="49.32307" lon="0.9403">
        <ele>92</ele>
        <time>2008-04-27T10:01:36Z</time>
      </trkpt>
      <trkpt lat="49.32298" lon="0.94012">
        <ele>93</ele>
        <time>2008-04-27T10:01:42Z</time>
      </trkpt>
      <trkpt lat="49.32291" lon="0.9399">
        <ele>94</ele>
        <time>2008-04-27T10:01:51Z</time>
      </trkpt>
      <trkpt lat="49.32296" lon="0.93969">
        <ele>95</ele>
        <time>2008-04-27T10:01:58Z</time>
      </trkpt>
      <trkpt lat="49.32302" lon="0.93951">
        <ele>96</ele>
        <time>2008-04-27T10:02:04Z</time>
      </trkpt>
      <trkpt lat="49.32311" lon="0.93937">
        <ele>98</ele>
        <time>2008-04-27T10:02:10Z</time>
      </trkpt>
      <trkpt lat="49.32317" lon="0.93922">
        <ele>100</ele>
        <time>2008-04-27T10:02:15Z</time>
      </trkpt>
      <trkpt lat="49.3232" lon="0.93906">
        <ele>101</ele>
        <time>2008-04-27T10:02:20Z</time>
      </trkpt>
      <trkpt lat="49.32319" lon="0.93885">
        <ele>102</ele>
        <time>2008-04-27T10:02:25Z</time>
      </trkpt>
      <trkpt lat="49.32318" lon="0.93866">
        <ele>102</ele>
        <time>2008-04-27T10:02:30Z</time>
      </trkpt>
      <trkpt lat="49.32319" lon="0.93849">
        <ele>102</ele>
        <time>2008-04-27T10:02:35Z</time>
      </trkpt>
      <trkpt lat="49.32321" lon="0.93834">
        <ele>103</ele>
        <time>2008-04-27T10:02:40Z</time>
      </trkpt>
      <trkpt lat="49.32328" lon="0.93824">
        <ele>103</ele>
        <time>2008-04-27T10:02:45Z</time>
      </trkpt>
      <trkpt lat="49.32337" lon="0.93837">
        <ele>104</ele>
        <time>2008-04-27T10:02:50Z</time>
      </trkpt>
      <trkpt lat="49.32341" lon="0.9385">
        <ele>105</ele>
        <time>2008-04-27T10:02:54Z</time>
      </trkpt>
      <trkpt lat="49.32347" lon="0.93863">
        <ele>105</ele>
        <time>2008-04-27T10:02:58Z</time>
      </trkpt>
      <trkpt lat="49.32352" lon="0.93879">
        <ele>106</ele>
        <time>2008-04-27T10:03:02Z</time>
      </trkpt>
      <trkpt lat="49.32358" lon="0.93895">
        <ele>106</ele>
        <time>2008-04-27T10:03:06Z</time>
      </trkpt>
      <trkpt lat="49.32364" lon="0.93911">
        <ele>107</ele>
        <time>2008-04-27T10:03:10Z</time>
      </trkpt>
      <trkpt lat="49.3237" lon="0.93923">
        <ele>106</ele>
        <time>2008-04-27T10:03:13Z</time>
      </trkpt>
      <trkpt lat="49.32377" lon="0.93934">
        <ele>106</ele>
        <time>2008-04-27T10:03:16Z</time>
      </trkpt>
      <trkpt lat="49.32383" lon="0.93945">
        <ele>106</ele>
        <time>2008-04-27T10:03:19Z</time>
      </trkpt>
      <trkpt lat="49.32392" lon="0.93959">
        <ele>106</ele>
        <time>2008-04-27T10:03:23Z</time>
      </trkpt>
      <trkpt lat="49.32401" lon="0.93971">
        <ele>106</ele>
        <time>2008-04-27T10:03:27Z</time>
      </trkpt>
      <trkpt lat="49.32408" lon="0.93981">
        <ele>106</ele>
        <time>2008-04-27T10:03:30Z</time>
      </trkpt>
      <trkpt lat="49.32416" lon="0.93991">
        <ele>106</ele>
        <time>2008-04-27T10:03:33Z</time>
      </trkpt>
      <trkpt lat="49.32425" lon="0.94">
        <ele>106</ele>
        <time>2008-04-27T10:03:36Z</time>
      </trkpt>
      <trkpt lat="49.32433" lon="0.94008">
        <ele>105</ele>
        <time>2008-04-27T10:03:39Z</time>
      </trkpt>
      <trkpt lat="49.32442" lon="0.94017">
        <ele>105</ele>
        <time>2008-04-27T10:03:42Z</time>
      </trkpt>
      <trkpt lat="49.3245" lon="0.94027">
        <ele>105</ele>
        <time>2008-04-27T10:03:45Z</time>
      </trkpt>
      <trkpt lat="49.32459" lon="0.94037">
        <ele>105</ele>
        <time>2008-04-27T10:03:48Z</time>
      </trkpt>
      <trkpt lat="49.32468" lon="0.94048">
        <ele>105</ele>
        <time>2008-04-27T10:03:51Z</time>
      </trkpt>
      <trkpt lat="49.32477" lon="0.94058">
        <ele>105</ele>
        <time>2008-04-27T10:03:54Z</time>
      </trkpt>
      <trkpt lat="49.32488" lon="0.94069">
        <ele>105</ele>
        <time>2008-04-27T10:03:57Z</time>
      </trkpt>
      <trkpt lat="49.32497" lon="0.94081">
        <ele>105</ele>
        <time>2008-04-27T10:04:00Z</time>
      </trkpt>
      <trkpt lat="49.32507" lon="0.94095">
        <ele>105</ele>
        <time>2008-04-27T10:04:03Z</time>
      </trkpt>
      <trkpt lat="49.32517" lon="0.94109">
        <ele>105</ele>
        <time>2008-04-27T10:04:06Z</time>
      </trkpt>
      <trkpt lat="49.32524" lon="0.94119">
        <ele>105</ele>
        <time>2008-04-27T10:04:08Z</time>
      </trkpt>
      <trkpt lat="49.32531" lon="0.94129">
        <ele>105</ele>
        <time>2008-04-27T10:04:10Z</time>
      </trkpt>
      <trkpt lat="49.32539" lon="0.94139">
        <ele>106</ele>
        <time>2008-04-27T10:04:12Z</time>
      </trkpt>
      <trkpt lat="49.32546" lon="0.94149">
        <ele>106</ele>
        <time>2008-04-27T10:04:14Z</time>
      </trkpt>
      <trkpt lat="49.32554" lon="0.94157">
        <ele>106</ele>
        <time>2008-04-27T10:04:16Z</time>
      </trkpt>
      <trkpt lat="49.32564" lon="0.94172">
        <ele>106</ele>
        <time>2008-04-27T10:04:19Z</time>
      </trkpt>
      <trkpt lat="49.32571" lon="0.94189">
        <ele>106</ele>
        <time>2008-04-27T10:04:22Z</time>
      </trkpt>
      <trkpt lat="49.32582" lon="0.942">
        <ele>107</ele>
        <time>2008-04-27T10:04:25Z</time>
      </trkpt>
      <trkpt lat="49.32591" lon="0.94213">
        <ele>107</ele>
        <time>2008-04-27T10:04:28Z</time>
      </trkpt>
      <trkpt lat="49.326" lon="0.94228">
        <ele>107</ele>
        <time>2008-04-27T10:04:31Z</time>
      </trkpt>
      <trkpt lat="49.32604" lon="0.94243">
        <ele>107</ele>
        <time>2008-04-27T10:04:33Z</time>
      </trkpt>
      <trkpt lat="49.32609" lon="0.94258">
        <ele>107</ele>
        <time>2008-04-27T10:04:35Z</time>
      </trkpt>
      <trkpt lat="49.32615" lon="0.94272">
        <ele>108</ele>
        <time>2008-04-27T10:04:37Z</time>
      </trkpt>
      <trkpt lat="49.32621" lon="0.94286">
        <ele>108</ele>
        <time>2008-04-27T10:04:39Z</time>
      </trkpt>
      <trkpt lat="49.32626" lon="0.94299">
        <ele>109</ele>
        <time>2008-04-27T10:04:41Z</time>
      </trkpt>
      <trkpt lat="49.32631" lon="0.94311">
        <ele>109</ele>
        <time>2008-04-27T10:04:43Z</time>
      </trkpt>
      <trkpt lat="49.32635" lon="0.94325">
        <ele>109</ele>
        <time>2008-04-27T10:04:45Z</time>
      </trkpt>
      <trkpt lat="49.32642" lon="0.94343">
        <ele>109</ele>
        <time>2008-04-27T10:04:48Z</time>
      </trkpt>
      <trkpt lat="49.32647" lon="0.94361">
        <ele>109</ele>
        <time>2008-04-27T10:04:51Z</time>
      </trkpt>
      <trkpt lat="49.32655" lon="0.94377">
        <ele>110</ele>
        <time>2008-04-27T10:04:55Z</time>
      </trkpt>
      <trkpt lat="49.32665" lon="0.94391">
        <ele>111</ele>
        <time>2008-04-27T10:05:00Z</time>
      </trkpt>
      <trkpt lat="49.32683" lon="0.94386">
        <ele>113</ele>
        <time>2008-04-27T10:05:05Z</time>
      </trkpt>
      <trkpt lat="49.32698" lon="0.94382">
        <ele>113</ele>
        <time>2008-04-27T10:05:09Z</time>
      </trkpt>
      <trkpt lat="49.32714" lon="0.94378">
        <ele>114</ele>
        <time>2008-04-27T10:05:14Z</time>
      </trkpt>
      <trkpt lat="49.32728" lon="0.94372">
        <ele>114</ele>
        <time>2008-04-27T10:05:18Z</time>
      </trkpt>
      <trkpt lat="49.32743" lon="0.94369">
        <ele>114</ele>
        <time>2008-04-27T10:05:22Z</time>
      </trkpt>
      <trkpt lat="49.32759" lon="0.94364">
        <ele>114</ele>
        <time>2008-04-27T10:05:26Z</time>
      </trkpt>
      <trkpt lat="49.32776" lon="0.94362">
        <ele>114</ele>
        <time>2008-04-27T10:05:30Z</time>
      </trkpt>
      <trkpt lat="49.32797" lon="0.94358">
        <ele>113</ele>
        <time>2008-04-27T10:05:34Z</time>
      </trkpt>
      <trkpt lat="49.32817" lon="0.94354">
        <ele>113</ele>
        <time>2008-04-27T10:05:38Z</time>
      </trkpt>
      <trkpt lat="49.32837" lon="0.94346">
        <ele>113</ele>
        <time>2008-04-27T10:05:45Z</time>
      </trkpt>
      <trkpt lat="49.32858" lon="0.94343">
        <ele>113</ele>
        <time>2008-04-27T10:05:53Z</time>
      </trkpt>
      <trkpt lat="49.32874" lon="0.94336">
        <ele>113</ele>
        <time>2008-04-27T10:05:59Z</time>
      </trkpt>
      <trkpt lat="49.32888" lon="0.9433">
        <ele>113</ele>
        <time>2008-04-27T10:06:04Z</time>
      </trkpt>
      <trkpt lat="49.32901" lon="0.9432">
        <ele>113</ele>
        <time>2008-04-27T10:06:08Z</time>
      </trkpt>
      <trkpt lat="49.32916" lon="0.94316">
        <ele>113</ele>
        <time>2008-04-27T10:06:13Z</time>
      </trkpt>
      <trkpt lat="49.32933" lon="0.9431">
        <ele>113</ele>
        <time>2008-04-27T10:06:20Z</time>
      </trkpt>
      <trkpt lat="49.32947" lon="0.94303">
        <ele>113</ele>
        <time>2008-04-27T10:06:24Z</time>
      </trkpt>
      <trkpt lat="49.32958" lon="0.94295">
        <ele>113</ele>
        <time>2008-04-27T10:06:27Z</time>
      </trkpt>
      <trkpt lat="49.32971" lon="0.94286">
        <ele>112</ele>
        <time>2008-04-27T10:06:30Z</time>
      </trkpt>
      <trkpt lat="49.32985" lon="0.94279">
        <ele>112</ele>
        <time>2008-04-27T10:06:33Z</time>
      </trkpt>
      <trkpt lat="49.33002" lon="0.94284">
        <ele>110</ele>
        <time>2008-04-27T10:06:37Z</time>
      </trkpt>
      <trkpt lat="49.33011" lon="0.94309">
        <ele>108</ele>
        <time>2008-04-27T10:06:46Z</time>
      </trkpt>
      <trkpt lat="49.33012" lon="0.9433">
        <ele>108</ele>
        <time>2008-04-27T10:06:52Z</time>
      </trkpt>
      <trkpt lat="49.33013" lon="0.94362">
        <ele>107</ele>
        <time>2008-04-27T10:07:01Z</time>
      </trkpt>
      <trkpt lat="49.33015" lon="0.94387">
        <ele>106</ele>
        <time>2008-04-27T10:07:08Z</time>
      </trkpt>
      <trkpt lat="49.33017" lon="0.94408">
        <ele>106</ele>
        <time>2008-04-27T10:07:14Z</time>
      </trkpt>
      <trkpt lat="49.33013" lon="0.94434">
        <ele>106</ele>
        <time>2008-04-27T10:07:20Z</time>
      </trkpt>
      <trkpt lat="49.33014" lon="0.94458">
        <ele>106</ele>
        <time>2008-04-27T10:07:27Z</time>
      </trkpt>
      <trkpt lat="49.33014" lon="0.94481">
        <ele>105</ele>
        <time>2008-04-27T10:07:34Z</time>
      </trkpt>
      <trkpt lat="49.33013" lon="0.94502">
        <ele>105</ele>
        <time>2008-04-27T10:07:39Z</time>
      </trkpt>
      <trkpt lat="49.33015" lon="0.94527">
        <ele>105</ele>
        <time>2008-04-27T10:07:46Z</time>
      </trkpt>
      <trkpt lat="49.33013" lon="0.94554">
        <ele>106</ele>
        <time>2008-04-27T10:07:53Z</time>
      </trkpt>
      <trkpt lat="49.33013" lon="0.94582">
        <ele>106</ele>
        <time>2008-04-27T10:08:00Z</time>
      </trkpt>
      <trkpt lat="49.33027" lon="0.94619">
        <ele>105</ele>
        <time>2008-04-27T10:08:08Z</time>
      </trkpt>
      <trkpt lat="49.33026" lon="0.9465">
        <ele>104</ele>
        <time>2008-04-27T10:08:13Z</time>
      </trkpt>
      <trkpt lat="49.33025" lon="0.94679">
        <ele>104</ele>
        <time>2008-04-27T10:08:17Z</time>
      </trkpt>
      <trkpt lat="49.33028" lon="0.94705">
        <ele>103</ele>
        <time>2008-04-27T10:08:21Z</time>
      </trkpt>
      <trkpt lat="49.33032" lon="0.94729">
        <ele>103</ele>
        <time>2008-04-27T10:08:25Z</time>
      </trkpt>
      <trkpt lat="49.33045" lon="0.94749">
        <ele>102</ele>
        <time>2008-04-27T10:08:30Z</time>
      </trkpt>
      <trkpt lat="49.33045" lon="0.94776">
        <ele>102</ele>
        <time>2008-04-27T10:08:36Z</time>
      </trkpt>
      <trkpt lat="49.33043" lon="0.94802">
        <ele>103</ele>
        <time>2008-04-27T10:08:40Z</time>
      </trkpt>
      <trkpt lat="49.33036" lon="0.94833">
        <ele>103</ele>
        <time>2008-04-27T10:08:44Z</time>
      </trkpt>
      <trkpt lat="49.33034" lon="0.94854">
        <ele>103</ele>
        <time>2008-04-27T10:08:48Z</time>
      </trkpt>
      <trkpt lat="49.33029" lon="0.9488">
        <ele>103</ele>
        <time>2008-04-27T10:08:53Z</time>
      </trkpt>
      <trkpt lat="49.33026" lon="0.94907">
        <ele>103</ele>
        <time>2008-04-27T10:08:57Z</time>
      </trkpt>
      <trkpt lat="49.3302" lon="0.94937">
        <ele>102</ele>
        <time>2008-04-27T10:09:01Z</time>
      </trkpt>
      <trkpt lat="49.33014" lon="0.94959">
        <ele>101</ele>
        <time>2008-04-27T10:09:04Z</time>
      </trkpt>
      <trkpt lat="49.33012" lon="0.94985">
        <ele>100</ele>
        <time>2008-04-27T10:09:07Z</time>
      </trkpt>
      <trkpt lat="49.33004" lon="0.95014">
        <ele>98</ele>
        <time>2008-04-27T10:09:10Z</time>
      </trkpt>
      <trkpt lat="49.33003" lon="0.95031">
        <ele>97</ele>
        <time>2008-04-27T10:09:13Z</time>
      </trkpt>
      <trkpt lat="49.33002" lon="0.95054">
        <ele>95</ele>
        <time>2008-04-27T10:09:17Z</time>
      </trkpt>
      <trkpt lat="49.33021" lon="0.95063">
        <ele>95</ele>
        <time>2008-04-27T10:09:23Z</time>
      </trkpt>
      <trkpt lat="49.33038" lon="0.95065">
        <ele>96</ele>
        <time>2008-04-27T10:09:26Z</time>
      </trkpt>
      <trkpt lat="49.33048" lon="0.95069">
        <ele>96</ele>
        <time>2008-04-27T10:09:28Z</time>
      </trkpt>
      <trkpt lat="49.3306" lon="0.95078">
        <ele>96</ele>
        <time>2008-04-27T10:09:31Z</time>
      </trkpt>
      <trkpt lat="49.33061" lon="0.95095">
        <ele>94</ele>
        <time>2008-04-27T10:09:35Z</time>
      </trkpt>
      <trkpt lat="49.33055" lon="0.95124">
        <ele>90</ele>
        <time>2008-04-27T10:09:41Z</time>
      </trkpt>
      <trkpt lat="49.33062" lon="0.95141">
        <ele>89</ele>
        <time>2008-04-27T10:09:45Z</time>
      </trkpt>
      <trkpt lat="49.33079" lon="0.95162">
        <ele>87</ele>
        <time>2008-04-27T10:09:49Z</time>
      </trkpt>
      <trkpt lat="49.33093" lon="0.95177">
        <ele>84</ele>
        <time>2008-04-27T10:09:53Z</time>
      </trkpt>
      <trkpt lat="49.33107" lon="0.95197">
        <ele>83</ele>
        <time>2008-04-27T10:09:56Z</time>
      </trkpt>
      <trkpt lat="49.33117" lon="0.95215">
        <ele>81</ele>
        <time>2008-04-27T10:09:58Z</time>
      </trkpt>
      <trkpt lat="49.33124" lon="0.9523">
        <ele>80</ele>
        <time>2008-04-27T10:10:00Z</time>
      </trkpt>
      <trkpt lat="49.33138" lon="0.95244">
        <ele>76</ele>
        <time>2008-04-27T10:10:03Z</time>
      </trkpt>
      <trkpt lat="49.33159" lon="0.95256">
        <ele>75</ele>
        <time>2008-04-27T10:10:06Z</time>
      </trkpt>
      <trkpt lat="49.3317" lon="0.95266">
        <ele>75</ele>
        <time>2008-04-27T10:10:08Z</time>
      </trkpt>
      <trkpt lat="49.3318" lon="0.95277">
        <ele>74</ele>
        <time>2008-04-27T10:10:10Z</time>
      </trkpt>
      <trkpt lat="49.33192" lon="0.95293">
        <ele>72</ele>
        <time>2008-04-27T10:10:12Z</time>
      </trkpt>
      <trkpt lat="49.33207" lon="0.95306">
        <ele>70</ele>
        <time>2008-04-27T10:10:14Z</time>
      </trkpt>
      <trkpt lat="49.3322" lon="0.9532">
        <ele>67</ele>
        <time>2008-04-27T10:10:16Z</time>
      </trkpt>
      <trkpt lat="49.33235" lon="0.95332">
        <ele>66</ele>
        <time>2008-04-27T10:10:18Z</time>
      </trkpt>
      <trkpt lat="49.3325" lon="0.95343">
        <ele>67</ele>
        <time>2008-04-27T10:10:20Z</time>
      </trkpt>
      <trkpt lat="49.33265" lon="0.95369">
        <ele>64</ele>
        <time>2008-04-27T10:10:22Z</time>
      </trkpt>
      <trkpt lat="49.3328" lon="0.95386">
        <ele>61</ele>
        <time>2008-04-27T10:10:24Z</time>
      </trkpt>
      <trkpt lat="49.33298" lon="0.95394">
        <ele>62</ele>
        <time>2008-04-27T10:10:26Z</time>
      </trkpt>
      <trkpt lat="49.33314" lon="0.95407">
        <ele>61</ele>
        <time>2008-04-27T10:10:28Z</time>
      </trkpt>
      <trkpt lat="49.33324" lon="0.95429">
        <ele>58</ele>
        <time>2008-04-27T10:10:30Z</time>
      </trkpt>
      <trkpt lat="49.33335" lon="0.95449">
        <ele>55</ele>
        <time>2008-04-27T10:10:32Z</time>
      </trkpt>
      <trkpt lat="49.33342" lon="0.95476">
        <ele>53</ele>
        <time>2008-04-27T10:10:34Z</time>
      </trkpt>
      <trkpt lat="49.33346" lon="0.95509">
        <ele>50</ele>
        <time>2008-04-27T10:10:36Z</time>
      </trkpt>
      <trkpt lat="49.33346" lon="0.95538">
        <ele>48</ele>
        <time>2008-04-27T10:10:38Z</time>
      </trkpt>
      <trkpt lat="49.33343" lon="0.95561">
        <ele>48</ele>
        <time>2008-04-27T10:10:40Z</time>
      </trkpt>
      <trkpt lat="49.33338" lon="0.95583">
        <ele>47</ele>
        <time>2008-04-27T10:10:42Z</time>
      </trkpt>
      <trkpt lat="49.33331" lon="0.95605">
        <ele>45</ele>
        <time>2008-04-27T10:10:44Z</time>
      </trkpt>
      <trkpt lat="49.33334" lon="0.9561">
        <ele>45</ele>
        <time>2008-04-27T10:10:46Z</time>
      </trkpt>
      <trkpt lat="49.33352" lon="0.95607">
        <ele>46</ele>
        <time>2008-04-27T10:10:52Z</time>
      </trkpt>
      <trkpt lat="49.33368" lon="0.95618">
        <ele>45</ele>
        <time>2008-04-27T10:10:56Z</time>
      </trkpt>
      <trkpt lat="49.3337" lon="0.9563">
        <ele>45</ele>
        <time>2008-04-27T10:11:00Z</time>
      </trkpt>
      <trkpt lat="49.33357" lon="0.95649">
        <ele>43</ele>
        <time>2008-04-27T10:11:03Z</time>
      </trkpt>
      <trkpt lat="49.33348" lon="0.95666">
        <ele>42</ele>
        <time>2008-04-27T10:11:06Z</time>
      </trkpt>
      <trkpt lat="49.33339" lon="0.95682">
        <ele>41</ele>
        <time>2008-04-27T10:11:09Z</time>
      </trkpt>
      <trkpt lat="49.33328" lon="0.95699">
        <ele>40</ele>
        <time>2008-04-27T10:11:12Z</time>
      </trkpt>
      <trkpt lat="49.33317" lon="0.95718">
        <ele>39</ele>
        <time>2008-04-27T10:11:16Z</time>
      </trkpt>
      <trkpt lat="49.33307" lon="0.95737">
        <ele>38</ele>
        <time>2008-04-27T10:11:20Z</time>
      </trkpt>
      <trkpt lat="49.33296" lon="0.9576">
        <ele>37</ele>
        <time>2008-04-27T10:11:25Z</time>
      </trkpt>
      <trkpt lat="49.33284" lon="0.95785">
        <ele>37</ele>
        <time>2008-04-27T10:11:29Z</time>
      </trkpt>
      <trkpt lat="49.33276" lon="0.95805">
        <ele>36</ele>
        <time>2008-04-27T10:11:32Z</time>
      </trkpt>
      <trkpt lat="49.33269" lon="0.95823">
        <ele>36</ele>
        <time>2008-04-27T10:11:37Z</time>
      </trkpt>
      <trkpt lat="49.33265" lon="0.95825">
        <ele>37</ele>
        <time>2008-04-27T10:14:20Z</time>
      </trkpt>
      <trkpt lat="49.33259" lon="0.95842">
        <ele>36</ele>
        <time>2008-04-27T10:14:25Z</time>
      </trkpt>
      <trkpt lat="49.33253" lon="0.9586">
        <ele>36</ele>
        <time>2008-04-27T10:14:29Z</time>
      </trkpt>
      <trkpt lat="49.33247" lon="0.95881">
        <ele>36</ele>
        <time>2008-04-27T10:14:33Z</time>
      </trkpt>
      <trkpt lat="49.33239" lon="0.95903">
        <ele>37</ele>
        <time>2008-04-27T10:14:38Z</time>
      </trkpt>
      <trkpt lat="49.33234" lon="0.95923">
        <ele>37</ele>
        <time>2008-04-27T10:14:43Z</time>
      </trkpt>
      <trkpt lat="49.33225" lon="0.95965">
        <ele>37</ele>
        <time>2008-04-27T10:14:51Z</time>
      </trkpt>
      <trkpt lat="49.33222" lon="0.95985">
        <ele>37</ele>
        <time>2008-04-27T10:14:55Z</time>
      </trkpt>
      <trkpt lat="49.33217" lon="0.96006">
        <ele>38</ele>
        <time>2008-04-27T10:14:58Z</time>
      </trkpt>
      <trkpt lat="49.33214" lon="0.96025">
        <ele>38</ele>
        <time>2008-04-27T10:15:01Z</time>
      </trkpt>
      <trkpt lat="49.33211" lon="0.96045">
        <ele>39</ele>
        <time>2008-04-27T10:15:04Z</time>
      </trkpt>
      <trkpt lat="49.3321" lon="0.96064">
        <ele>39</ele>
        <time>2008-04-27T10:15:07Z</time>
      </trkpt>
      <trkpt lat="49.3321" lon="0.96083">
        <ele>40</ele>
        <time>2008-04-27T10:15:10Z</time>
      </trkpt>
      <trkpt lat="49.33208" lon="0.96103">
        <ele>40</ele>
        <time>2008-04-27T10:15:13Z</time>
      </trkpt>
      <trkpt lat="49.33206" lon="0.96127">
        <ele>40</ele>
        <time>2008-04-27T10:15:16Z</time>
      </trkpt>
      <trkpt lat="49.33205" lon="0.9615">
        <ele>41</ele>
        <time>2008-04-27T10:15:19Z</time>
      </trkpt>
      <trkpt lat="49.33203" lon="0.96171">
        <ele>41</ele>
        <time>2008-04-27T10:15:22Z</time>
      </trkpt>
      <trkpt lat="49.33202" lon="0.96192">
        <ele>41</ele>
        <time>2008-04-27T10:15:25Z</time>
      </trkpt>
      <trkpt lat="49.33203" lon="0.96213">
        <ele>41</ele>
        <time>2008-04-27T10:15:28Z</time>
      </trkpt>
      <trkpt lat="49.33204" lon="0.96236">
        <ele>41</ele>
        <time>2008-04-27T10:15:31Z</time>
      </trkpt>
      <trkpt lat="49.33205" lon="0.96259">
        <ele>40</ele>
        <time>2008-04-27T10:15:34Z</time>
      </trkpt>
      <trkpt lat="49.33209" lon="0.96282">
        <ele>39</ele>
        <time>2008-04-27T10:15:37Z</time>
      </trkpt>
      <trkpt lat="49.33208" lon="0.96308">
        <ele>41</ele>
        <time>2008-04-27T10:15:40Z</time>
      </trkpt>
      <trkpt lat="49.33214" lon="0.96328">
        <ele>42</ele>
        <time>2008-04-27T10:15:43Z</time>
      </trkpt>
      <trkpt lat="49.33216" lon="0.96346">
        <ele>43</ele>
        <time>2008-04-27T10:15:46Z</time>
      </trkpt>
      <trkpt lat="49.3322" lon="0.96369">
        <ele>43</ele>
        <time>2008-04-27T10:15:49Z</time>
      </trkpt>
      <trkpt lat="49.33223" lon="0.96388">
        <ele>44</ele>
        <time>2008-04-27T10:15:51Z</time>
      </trkpt>
      <trkpt lat="49.33229" lon="0.96414">
        <ele>45</ele>
        <time>2008-04-27T10:15:54Z</time>
      </trkpt>
      <trkpt lat="49.33236" lon="0.96434">
        <ele>45</ele>
        <time>2008-04-27T10:15:57Z</time>
      </trkpt>
      <trkpt lat="49.33242" lon="0.96453">
        <ele>44</ele>
        <time>2008-04-27T10:16:00Z</time>
      </trkpt>
      <trkpt lat="49.33252" lon="0.96471">
        <ele>43</ele>
        <time>2008-04-27T10:16:03Z</time>
      </trkpt>
      <trkpt lat="49.3326" lon="0.96492">
        <ele>43</ele>
        <time>2008-04-27T10:16:06Z</time>
      </trkpt>
      <trkpt lat="49.33266" lon="0.96516">
        <ele>43</ele>
        <time>2008-04-27T10:16:10Z</time>
      </trkpt>
      <trkpt lat="49.33272" lon="0.96541">
        <ele>42</ele>
        <time>2008-04-27T10:16:14Z</time>
      </trkpt>
      <trkpt lat="49.33275" lon="0.96562">
        <ele>43</ele>
        <time>2008-04-27T10:16:17Z</time>
      </trkpt>
      <trkpt lat="49.33267" lon="0.96582">
        <ele>46</ele>
        <time>2008-04-27T10:16:24Z</time>
      </trkpt>
      <trkpt lat="49.33274" lon="0.96604">
        <ele>45</ele>
        <time>2008-04-27T10:16:31Z</time>
      </trkpt>
      <trkpt lat="49.33279" lon="0.96624">
        <ele>45</ele>
        <time>2008-04-27T10:16:37Z</time>
      </trkpt>
      <trkpt lat="49.33278" lon="0.9665">
        <ele>46</ele>
        <time>2008-04-27T10:16:45Z</time>
      </trkpt>
      <trkpt lat="49.33284" lon="0.96671">
        <ele>45</ele>
        <time>2008-04-27T10:16:51Z</time>
      </trkpt>
      <trkpt lat="49.33286" lon="0.96694">
        <ele>46</ele>
        <time>2008-04-27T10:16:56Z</time>
      </trkpt>
      <trkpt lat="49.33288" lon="0.96721">
        <ele>47</ele>
        <time>2008-04-27T10:17:01Z</time>
      </trkpt>
      <trkpt lat="49.33294" lon="0.96744">
        <ele>47</ele>
        <time>2008-04-27T10:17:06Z</time>
      </trkpt>
      <trkpt lat="49.33296" lon="0.96765">
        <ele>47</ele>
        <time>2008-04-27T10:17:14Z</time>
      </trkpt>
      <trkpt lat="49.33308" lon="0.96784">
        <ele>45</ele>
        <time>2008-04-27T10:17:24Z</time>
      </trkpt>
      <trkpt lat="49.33311" lon="0.96809">
        <ele>45</ele>
        <time>2008-04-27T10:17:30Z</time>
      </trkpt>
      <trkpt lat="49.33315" lon="0.9683">
        <ele>44</ele>
        <time>2008-04-27T10:17:34Z</time>
      </trkpt>
      <trkpt lat="49.33278" lon="0.96899">
        <ele>49</ele>
        <time>2008-04-27T10:19:18Z</time>
      </trkpt>
      <trkpt lat="49.33279" lon="0.96929">
        <ele>48</ele>
        <time>2008-04-27T10:28:13Z</time>
      </trkpt>
      <trkpt lat="49.33273" lon="0.96953">
        <ele>47</ele>
        <time>2008-04-27T10:28:21Z</time>
      </trkpt>
      <trkpt lat="49.33269" lon="0.96973">
        <ele>46</ele>
        <time>2008-04-27T10:28:26Z</time>
      </trkpt>
      <trkpt lat="49.33263" lon="0.96997">
        <ele>45</ele>
        <time>2008-04-27T10:28:31Z</time>
      </trkpt>
      <trkpt lat="49.33254" lon="0.97023">
        <ele>44</ele>
        <time>2008-04-27T10:28:35Z</time>
      </trkpt>
      <trkpt lat="49.33245" lon="0.97045">
        <ele>43</ele>
        <time>2008-04-27T10:28:38Z</time>
      </trkpt>
      <trkpt lat="49.33235" lon="0.97072">
        <ele>42</ele>
        <time>2008-04-27T10:28:43Z</time>
      </trkpt>
      <trkpt lat="49.3322" lon="0.97095">
        <ele>42</ele>
        <time>2008-04-27T10:28:48Z</time>
      </trkpt>
      <trkpt lat="49.332" lon="0.97123">
        <ele>43</ele>
        <time>2008-04-27T10:28:55Z</time>
      </trkpt>
      <trkpt lat="49.33187" lon="0.97147">
        <ele>44</ele>
        <time>2008-04-27T10:28:59Z</time>
      </trkpt>
      <trkpt lat="49.33177" lon="0.97159">
        <ele>44</ele>
        <time>2008-04-27T10:29:02Z</time>
      </trkpt>
      <trkpt lat="49.33165" lon="0.97167">
        <ele>45</ele>
        <time>2008-04-27T10:29:05Z</time>
      </trkpt>
      <trkpt lat="49.33154" lon="0.97176">
        <ele>46</ele>
        <time>2008-04-27T10:29:08Z</time>
      </trkpt>
      <trkpt lat="49.33144" lon="0.97185">
        <ele>46</ele>
        <time>2008-04-27T10:29:11Z</time>
      </trkpt>
      <trkpt lat="49.33133" lon="0.97189">
        <ele>47</ele>
        <time>2008-04-27T10:29:14Z</time>
      </trkpt>
      <trkpt lat="49.3312" lon="0.97192">
        <ele>49</ele>
        <time>2008-04-27T10:29:17Z</time>
      </trkpt>
      <trkpt lat="49.33107" lon="0.97191">
        <ele>49</ele>
        <time>2008-04-27T10:29:20Z</time>
      </trkpt>
      <trkpt lat="49.33094" lon="0.9719">
        <ele>50</ele>
        <time>2008-04-27T10:29:23Z</time>
      </trkpt>
      <trkpt lat="49.3308" lon="0.97192">
        <ele>51</ele>
        <time>2008-04-27T10:29:26Z</time>
      </trkpt>
      <trkpt lat="49.33068" lon="0.97194">
        <ele>51</ele>
        <time>2008-04-27T10:29:29Z</time>
      </trkpt>
      <trkpt lat="49.33055" lon="0.97184">
        <ele>52</ele>
        <time>2008-04-27T10:29:33Z</time>
      </trkpt>
      <trkpt lat="49.33043" lon="0.97176">
        <ele>54</ele>
        <time>2008-04-27T10:29:36Z</time>
      </trkpt>
      <trkpt lat="49.3303" lon="0.9716">
        <ele>56</ele>
        <time>2008-04-27T10:29:40Z</time>
      </trkpt>
      <trkpt lat="49.33016" lon="0.97142">
        <ele>58</ele>
        <time>2008-04-27T10:29:43Z</time>
      </trkpt>
      <trkpt lat="49.32998" lon="0.9712">
        <ele>60</ele>
        <time>2008-04-27T10:29:46Z</time>
      </trkpt>
      <trkpt lat="49.32988" lon="0.9711">
        <ele>60</ele>
        <time>2008-04-27T10:29:49Z</time>
      </trkpt>
      <trkpt lat="49.32974" lon="0.97126">
        <ele>55</ele>
        <time>2008-04-27T10:29:57Z</time>
      </trkpt>
      <trkpt lat="49.32971" lon="0.97163">
        <ele>49</ele>
        <time>2008-04-27T10:30:02Z</time>
      </trkpt>
      <trkpt lat="49.32966" lon="0.97194">
        <ele>44</ele>
        <time>2008-04-27T10:30:05Z</time>
      </trkpt>
      <trkpt lat="49.3296" lon="0.9722">
        <ele>40</ele>
        <time>2008-04-27T10:30:08Z</time>
      </trkpt>
      <trkpt lat="49.32954" lon="0.9724">
        <ele>36</ele>
        <time>2008-04-27T10:30:11Z</time>
      </trkpt>
      <trkpt lat="49.32941" lon="0.97256">
        <ele>32</ele>
        <time>2008-04-27T10:30:13Z</time>
      </trkpt>
      <trkpt lat="49.32932" lon="0.97273">
        <ele>30</ele>
        <time>2008-04-27T10:30:15Z</time>
      </trkpt>
      <trkpt lat="49.32922" lon="0.97292">
        <ele>28</ele>
        <time>2008-04-27T10:30:17Z</time>
      </trkpt>
      <trkpt lat="49.32909" lon="0.97321">
        <ele>26</ele>
        <time>2008-04-27T10:30:20Z</time>
      </trkpt>
      <trkpt lat="49.32896" lon="0.97351">
        <ele>25</ele>
        <time>2008-04-27T10:30:22Z</time>
      </trkpt>
      <trkpt lat="49.32892" lon="0.97376">
        <ele>25</ele>
        <time>2008-04-27T10:30:24Z</time>
      </trkpt>
      <trkpt lat="49.32902" lon="0.97385">
        <ele>25</ele>
        <time>2008-04-27T10:30:29Z</time>
      </trkpt>
      <trkpt lat="49.3292" lon="0.97391">
        <ele>25</ele>
        <time>2008-04-27T10:30:38Z</time>
      </trkpt>
      <trkpt lat="49.32941" lon="0.97393">
        <ele>25</ele>
        <time>2008-04-27T10:30:44Z</time>
      </trkpt>
      <trkpt lat="49.32954" lon="0.97395">
        <ele>26</ele>
        <time>2008-04-27T10:30:48Z</time>
      </trkpt>
      <trkpt lat="49.32968" lon="0.97396">
        <ele>26</ele>
        <time>2008-04-27T10:30:52Z</time>
      </trkpt>
      <trkpt lat="49.32976" lon="0.97398">
        <ele>27</ele>
        <time>2008-04-27T10:30:55Z</time>
      </trkpt>
      <trkpt lat="49.32982" lon="0.97399">
        <ele>27</ele>
        <time>2008-04-27T10:30:58Z</time>
      </trkpt>
      <trkpt lat="49.32994" lon="0.97402">
        <ele>27</ele>
        <time>2008-04-27T10:31:01Z</time>
      </trkpt>
      <trkpt lat="49.33007" lon="0.97404">
        <ele>27</ele>
        <time>2008-04-27T10:31:04Z</time>
      </trkpt>
      <trkpt lat="49.33016" lon="0.97408">
        <ele>28</ele>
        <time>2008-04-27T10:31:07Z</time>
      </trkpt>
      <trkpt lat="49.33028" lon="0.97413">
        <ele>28</ele>
        <time>2008-04-27T10:31:10Z</time>
      </trkpt>
      <trkpt lat="49.33043" lon="0.9742">
        <ele>28</ele>
        <time>2008-04-27T10:31:13Z</time>
      </trkpt>
      <trkpt lat="49.33051" lon="0.97427">
        <ele>28</ele>
        <time>2008-04-27T10:31:15Z</time>
      </trkpt>
      <trkpt lat="49.3305" lon="0.97441">
        <ele>28</ele>
        <time>2008-04-27T10:31:18Z</time>
      </trkpt>
      <trkpt lat="49.33053" lon="0.97453">
        <ele>28</ele>
        <time>2008-04-27T10:31:21Z</time>
      </trkpt>
      <trkpt lat="49.33063" lon="0.97467">
        <ele>29</ele>
        <time>2008-04-27T10:31:25Z</time>
      </trkpt>
      <trkpt lat="49.33071" lon="0.97476">
        <ele>30</ele>
        <time>2008-04-27T10:31:28Z</time>
      </trkpt>
      <trkpt lat="49.33083" lon="0.97482">
        <ele>30</ele>
        <time>2008-04-27T10:31:31Z</time>
      </trkpt>
      <trkpt lat="49.33096" lon="0.97483">
        <ele>31</ele>
        <time>2008-04-27T10:31:34Z</time>
      </trkpt>
      <trkpt lat="49.33103" lon="0.9749">
        <ele>31</ele>
        <time>2008-04-27T10:31:40Z</time>
      </trkpt>
      <trkpt lat="49.33107" lon="0.97506">
        <ele>32</ele>
        <time>2008-04-27T10:31:44Z</time>
      </trkpt>
      <trkpt lat="49.33115" lon="0.97523">
        <ele>33</ele>
        <time>2008-04-27T10:31:49Z</time>
      </trkpt>
      <trkpt lat="49.33126" lon="0.97534">
        <ele>34</ele>
        <time>2008-04-27T10:31:54Z</time>
      </trkpt>
      <trkpt lat="49.33142" lon="0.97543">
        <ele>34</ele>
        <time>2008-04-27T10:31:58Z</time>
      </trkpt>
      <trkpt lat="49.33153" lon="0.97549">
        <ele>34</ele>
        <time>2008-04-27T10:32:01Z</time>
      </trkpt>
      <trkpt lat="49.33163" lon="0.97559">
        <ele>35</ele>
        <time>2008-04-27T10:32:05Z</time>
      </trkpt>
      <trkpt lat="49.33169" lon="0.97573">
        <ele>36</ele>
        <time>2008-04-27T10:32:10Z</time>
      </trkpt>
      <trkpt lat="49.33181" lon="0.97588">
        <ele>37</ele>
        <time>2008-04-27T10:32:15Z</time>
      </trkpt>
      <trkpt lat="49.33187" lon="0.97605">
        <ele>38</ele>
        <time>2008-04-27T10:32:20Z</time>
      </trkpt>
      <trkpt lat="49.33195" lon="0.97622">
        <ele>39</ele>
        <time>2008-04-27T10:32:25Z</time>
      </trkpt>
      <trkpt lat="49.33201" lon="0.97636">
        <ele>39</ele>
        <time>2008-04-27T10:32:29Z</time>
      </trkpt>
      <trkpt lat="49.33208" lon="0.9765">
        <ele>40</ele>
        <time>2008-04-27T10:32:33Z</time>
      </trkpt>
      <trkpt lat="49.33219" lon="0.97658">
        <ele>40</ele>
        <time>2008-04-27T10:32:37Z</time>
      </trkpt>
      <trkpt lat="49.3323" lon="0.97669">
        <ele>40</ele>
        <time>2008-04-27T10:32:42Z</time>
      </trkpt>
      <trkpt lat="49.33241" lon="0.97678">
        <ele>40</ele>
        <time>2008-04-27T10:32:46Z</time>
      </trkpt>
      <trkpt lat="49.3325" lon="0.97688">
        <ele>41</ele>
        <time>2008-04-27T10:32:50Z</time>
      </trkpt>
      <trkpt lat="49.33258" lon="0.97705">
        <ele>41</ele>
        <time>2008-04-27T10:32:56Z</time>
      </trkpt>
      <trkpt lat="49.33271" lon="0.97715">
        <ele>43</ele>
        <time>2008-04-27T10:33:00Z</time>
      </trkpt>
      <trkpt lat="49.33279" lon="0.97722">
        <ele>44</ele>
        <time>2008-04-27T10:33:03Z</time>
      </trkpt>
      <trkpt lat="49.33283" lon="0.97736">
        <ele>45</ele>
        <time>2008-04-27T10:33:07Z</time>
      </trkpt>
      <trkpt lat="49.33282" lon="0.97758">
        <ele>46</ele>
        <time>2008-04-27T10:33:12Z</time>
      </trkpt>
      <trkpt lat="49.33287" lon="0.97775">
        <ele>47</ele>
        <time>2008-04-27T10:33:17Z</time>
      </trkpt>
      <trkpt lat="49.3329" lon="0.97791">
        <ele>48</ele>
        <time>2008-04-27T10:33:22Z</time>
      </trkpt>
      <trkpt lat="49.33294" lon="0.97809">
        <ele>49</ele>
        <time>2008-04-27T10:33:27Z</time>
      </trkpt>
      <trkpt lat="49.33298" lon="0.97822">
        <ele>51</ele>
        <time>2008-04-27T10:33:32Z</time>
      </trkpt>
      <trkpt lat="49.33301" lon="0.97844">
        <ele>52</ele>
        <time>2008-04-27T10:33:37Z</time>
      </trkpt>
      <trkpt lat="49.33304" lon="0.97861">
        <ele>54</ele>
        <time>2008-04-27T10:33:42Z</time>
      </trkpt>
      <trkpt lat="49.3331" lon="0.97875">
        <ele>55</ele>
        <time>2008-04-27T10:33:47Z</time>
      </trkpt>
      <trkpt lat="49.33312" lon="0.97894">
        <ele>57</ele>
        <time>2008-04-27T10:33:52Z</time>
      </trkpt>
      <trkpt lat="49.33313" lon="0.97912">
        <ele>58</ele>
        <time>2008-04-27T10:33:58Z</time>
      </trkpt>
      <trkpt lat="49.33315" lon="0.97932">
        <ele>60</ele>
        <time>2008-04-27T10:34:04Z</time>
      </trkpt>
      <trkpt lat="49.33316" lon="0.97946">
        <ele>61</ele>
        <time>2008-04-27T10:34:09Z</time>
      </trkpt>
      <trkpt lat="49.33319" lon="0.9797">
        <ele>63</ele>
        <time>2008-04-27T10:34:18Z</time>
      </trkpt>
      <trkpt lat="49.33318" lon="0.97987">
        <ele>63</ele>
        <time>2008-04-27T10:34:23Z</time>
      </trkpt>
      <trkpt lat="49.33322" lon="0.98005">
        <ele>65</ele>
        <time>2008-04-27T10:34:28Z</time>
      </trkpt>
      <trkpt lat="49.33321" lon="0.98026">
        <ele>66</ele>
        <time>2008-04-27T10:39:14Z</time>
      </trkpt>
      <trkpt lat="49.33324" lon="0.98081">
        <ele>70</ele>
        <time>2008-04-27T10:49:34Z</time>
      </trkpt>
      <trkpt lat="49.33332" lon="0.98057">
        <ele>71</ele>
        <time>2008-04-27T10:55:04Z</time>
      </trkpt>
      <trkpt lat="49.33333" lon="0.98078">
        <ele>72</ele>
        <time>2008-04-27T10:55:14Z</time>
      </trkpt>
      <trkpt lat="49.33338" lon="0.98111">
        <ele>75</ele>
        <time>2008-04-27T10:55:33Z</time>
      </trkpt>
      <trkpt lat="49.3334" lon="0.98129">
        <ele>76</ele>
        <time>2008-04-27T10:55:40Z</time>
      </trkpt>
      <trkpt lat="49.33339" lon="0.98149">
        <ele>76</ele>
        <time>2008-04-27T10:55:49Z</time>
      </trkpt>
      <trkpt lat="49.33346" lon="0.98174">
        <ele>77</ele>
        <time>2008-04-27T10:55:56Z</time>
      </trkpt>
      <trkpt lat="49.33353" lon="0.98198">
        <ele>78</ele>
        <time>2008-04-27T10:56:04Z</time>
      </trkpt>
      <trkpt lat="49.33357" lon="0.98226">
        <ele>79</ele>
        <time>2008-04-27T10:56:14Z</time>
      </trkpt>
      <trkpt lat="49.33353" lon="0.98249">
        <ele>80</ele>
        <time>2008-04-27T10:56:23Z</time>
      </trkpt>
      <trkpt lat="49.33355" lon="0.98278">
        <ele>82</ele>
        <time>2008-04-27T10:56:38Z</time>
      </trkpt>
      <trkpt lat="49.33346" lon="0.98292">
        <ele>85</ele>
        <time>2008-04-27T10:56:46Z</time>
      </trkpt>
      <trkpt lat="49.33335" lon="0.98302">
        <ele>88</ele>
        <time>2008-04-27T10:56:54Z</time>
      </trkpt>
      <trkpt lat="49.3332" lon="0.98294">
        <ele>87</ele>
        <time>2008-04-27T10:57:01Z</time>
      </trkpt>
      <trkpt lat="49.3331" lon="0.98282">
        <ele>84</ele>
        <time>2008-04-27T10:57:06Z</time>
      </trkpt>
      <trkpt lat="49.33299" lon="0.98253">
        <ele>81</ele>
        <time>2008-04-27T10:57:11Z</time>
      </trkpt>
      <trkpt lat="49.33288" lon="0.98226">
        <ele>79</ele>
        <time>2008-04-27T10:57:15Z</time>
      </trkpt>
      <trkpt lat="49.33264" lon="0.98192">
        <ele>78</ele>
        <time>2008-04-27T10:57:27Z</time>
      </trkpt>
      <trkpt lat="49.33249" lon="0.98161">
        <ele>80</ele>
        <time>2008-04-27T10:57:41Z</time>
      </trkpt>
      <trkpt lat="49.33236" lon="0.98141">
        <ele>82</ele>
        <time>2008-04-27T10:57:50Z</time>
      </trkpt>
      <trkpt lat="49.33229" lon="0.98116">
        <ele>80</ele>
        <time>2008-04-27T10:57:58Z</time>
      </trkpt>
      <trkpt lat="49.33212" lon="0.98096">
        <ele>82</ele>
        <time>2008-04-27T10:58:09Z</time>
      </trkpt>
      <trkpt lat="49.33195" lon="0.98096">
        <ele>85</ele>
        <time>2008-04-27T10:58:21Z</time>
      </trkpt>
      <trkpt lat="49.33184" lon="0.98093">
        <ele>87</ele>
        <time>2008-04-27T10:58:33Z</time>
      </trkpt>
      <trkpt lat="49.33195" lon="0.98125">
        <ele>88</ele>
        <time>2008-04-27T10:58:53Z</time>
      </trkpt>
      <trkpt lat="49.33207" lon="0.98148">
        <ele>88</ele>
        <time>2008-04-27T10:59:01Z</time>
      </trkpt>
      <trkpt lat="49.33214" lon="0.98167">
        <ele>89</ele>
        <time>2008-04-27T10:59:11Z</time>
      </trkpt>
      <trkpt lat="49.33216" lon="0.98192">
        <ele>91</ele>
        <time>2008-04-27T10:59:19Z</time>
      </trkpt>
      <trkpt lat="49.33229" lon="0.9822">
        <ele>91</ele>
        <time>2008-04-27T10:59:26Z</time>
      </trkpt>
      <trkpt lat="49.33236" lon="0.98238">
        <ele>91</ele>
        <time>2008-04-27T10:59:31Z</time>
      </trkpt>
      <trkpt lat="49.33238" lon="0.98268">
        <ele>94</ele>
        <time>2008-04-27T10:59:36Z</time>
      </trkpt>
      <trkpt lat="49.33254" lon="0.98292">
        <ele>95</ele>
        <time>2008-04-27T10:59:41Z</time>
      </trkpt>
      <trkpt lat="49.33264" lon="0.9831">
        <ele>96</ele>
        <time>2008-04-27T10:59:47Z</time>
      </trkpt>
      <trkpt lat="49.33253" lon="0.9832">
        <ele>99</ele>
        <time>2008-04-27T10:59:56Z</time>
      </trkpt>
      <trkpt lat="49.33234" lon="0.98296">
        <ele>99</ele>
        <time>2008-04-27T11:00:08Z</time>
      </trkpt>
      <trkpt lat="49.33221" lon="0.98294">
        <ele>101</ele>
        <time>2008-04-27T11:00:15Z</time>
      </trkpt>
      <trkpt lat="49.33211" lon="0.98291">
        <ele>102</ele>
        <time>2008-04-27T11:00:21Z</time>
      </trkpt>
      <trkpt lat="49.33198" lon="0.98271">
        <ele>101</ele>
        <time>2008-04-27T11:00:35Z</time>
      </trkpt>
      <trkpt lat="49.33203" lon="0.9825">
        <ele>99</ele>
        <time>2008-04-27T11:00:39Z</time>
      </trkpt>
      <trkpt lat="49.33202" lon="0.98236">
        <ele>98</ele>
        <time>2008-04-27T11:00:43Z</time>
      </trkpt>
      <trkpt lat="49.33194" lon="0.98213">
        <ele>97</ele>
        <time>2008-04-27T11:00:50Z</time>
      </trkpt>
      <trkpt lat="49.33194" lon="0.98191">
        <ele>95</ele>
        <time>2008-04-27T11:00:57Z</time>
      </trkpt>
      <trkpt lat="49.33186" lon="0.9817">
        <ele>95</ele>
        <time>2008-04-27T11:01:05Z</time>
      </trkpt>
      <trkpt lat="49.33175" lon="0.98162">
        <ele>96</ele>
        <time>2008-04-27T11:01:10Z</time>
      </trkpt>
      <trkpt lat="49.33166" lon="0.9815">
        <ele>96</ele>
        <time>2008-04-27T11:01:14Z</time>
      </trkpt>
      <trkpt lat="49.33158" lon="0.98128">
        <ele>95</ele>
        <time>2008-04-27T11:01:20Z</time>
      </trkpt>
      <trkpt lat="49.3314" lon="0.98118">
        <ele>97</ele>
        <time>2008-04-27T11:01:28Z</time>
      </trkpt>
      <trkpt lat="49.33124" lon="0.98105">
        <ele>98</ele>
        <time>2008-04-27T11:01:32Z</time>
      </trkpt>
      <trkpt lat="49.33109" lon="0.98093">
        <ele>97</ele>
        <time>2008-04-27T11:01:36Z</time>
      </trkpt>
      <trkpt lat="49.33092" lon="0.98106">
        <ele>100</ele>
        <time>2008-04-27T11:01:41Z</time>
      </trkpt>
      <trkpt lat="49.33075" lon="0.98122">
        <ele>100</ele>
        <time>2008-04-27T11:01:45Z</time>
      </trkpt>
      <trkpt lat="49.33068" lon="0.98136">
        <ele>101</ele>
        <time>2008-04-27T11:01:49Z</time>
      </trkpt>
      <trkpt lat="49.33062" lon="0.98157">
        <ele>102</ele>
        <time>2008-04-27T11:01:54Z</time>
      </trkpt>
      <trkpt lat="49.33054" lon="0.98171">
        <ele>102</ele>
        <time>2008-04-27T11:01:58Z</time>
      </trkpt>
      <trkpt lat="49.33047" lon="0.98179">
        <ele>102</ele>
        <time>2008-04-27T11:02:02Z</time>
      </trkpt>
      <trkpt lat="49.33039" lon="0.98192">
        <ele>102</ele>
        <time>2008-04-27T11:02:09Z</time>
      </trkpt>
      <trkpt lat="49.33032" lon="0.98209">
        <ele>100</ele>
        <time>2008-04-27T11:02:13Z</time>
      </trkpt>
      <trkpt lat="49.33029" lon="0.98227">
        <ele>100</ele>
        <time>2008-04-27T11:02:18Z</time>
      </trkpt>
      <trkpt lat="49.33026" lon="0.98247">
        <ele>99</ele>
        <time>2008-04-27T11:02:23Z</time>
      </trkpt>
      <trkpt lat="49.33021" lon="0.98263">
        <ele>98</ele>
        <time>2008-04-27T11:02:26Z</time>
      </trkpt>
      <trkpt lat="49.33016" lon="0.9827">
        <ele>96</ele>
        <time>2008-04-27T11:02:30Z</time>
      </trkpt>
      <trkpt lat="49.33014" lon="0.98299">
        <ele>95</ele>
        <time>2008-04-27T11:03:00Z</time>
      </trkpt>
      <trkpt lat="49.33054" lon="0.98328">
        <ele>106</ele>
        <time>2008-04-27T11:03:57Z</time>
      </trkpt>
      <trkpt lat="49.33073" lon="0.98352">
        <ele>109</ele>
        <time>2008-04-27T11:04:17Z</time>
      </trkpt>
      <trkpt lat="49.33085" lon="0.98379">
        <ele>111</ele>
        <time>2008-04-27T11:04:33Z</time>
      </trkpt>
      <trkpt lat="49.33088" lon="0.98405">
        <ele>111</ele>
        <time>2008-04-27T11:04:39Z</time>
      </trkpt>
      <trkpt lat="49.33093" lon="0.98426">
        <ele>111</ele>
        <time>2008-04-27T11:04:45Z</time>
      </trkpt>
      <trkpt lat="49.33107" lon="0.98446">
        <ele>113</ele>
        <time>2008-04-27T11:04:57Z</time>
      </trkpt>
      <trkpt lat="49.33114" lon="0.98465">
        <ele>114</ele>
        <time>2008-04-27T11:05:04Z</time>
      </trkpt>
      <trkpt lat="49.33107" lon="0.98485">
        <ele>113</ele>
        <time>2008-04-27T11:05:10Z</time>
      </trkpt>
      <trkpt lat="49.33097" lon="0.98519">
        <ele>112</ele>
        <time>2008-04-27T11:05:15Z</time>
      </trkpt>
      <trkpt lat="49.33094" lon="0.98539">
        <ele>111</ele>
        <time>2008-04-27T11:05:18Z</time>
      </trkpt>
      <trkpt lat="49.3309" lon="0.98556">
        <ele>110</ele>
        <time>2008-04-27T11:05:21Z</time>
      </trkpt>
      <trkpt lat="49.33091" lon="0.98566">
        <ele>110</ele>
        <time>2008-04-27T11:05:27Z</time>
      </trkpt>
      <trkpt lat="49.33083" lon="0.98592">
        <ele>107</ele>
        <time>2008-04-27T11:05:31Z</time>
      </trkpt>
      <trkpt lat="49.3308" lon="0.98609">
        <ele>106</ele>
        <time>2008-04-27T11:05:35Z</time>
      </trkpt>
      <trkpt lat="49.3308" lon="0.98623">
        <ele>106</ele>
        <time>2008-04-27T11:05:40Z</time>
      </trkpt>
      <trkpt lat="49.33086" lon="0.98631">
        <ele>107</ele>
        <time>2008-04-27T11:05:49Z</time>
      </trkpt>
      <trkpt lat="49.3309" lon="0.98647">
        <ele>107</ele>
        <time>2008-04-27T11:05:58Z</time>
      </trkpt>
      <trkpt lat="49.33091" lon="0.98671">
        <ele>107</ele>
        <time>2008-04-27T11:06:06Z</time>
      </trkpt>
      <trkpt lat="49.33086" lon="0.9869">
        <ele>106</ele>
        <time>2008-04-27T11:06:15Z</time>
      </trkpt>
      <trkpt lat="49.33085" lon="0.98716">
        <ele>106</ele>
        <time>2008-04-27T11:06:22Z</time>
      </trkpt>
      <trkpt lat="49.33082" lon="0.98737">
        <ele>107</ele>
        <time>2008-04-27T11:06:29Z</time>
      </trkpt>
      <trkpt lat="49.33067" lon="0.98742">
        <ele>108</ele>
        <time>2008-04-27T11:06:37Z</time>
      </trkpt>
      <trkpt lat="49.33054" lon="0.98751">
        <ele>108</ele>
        <time>2008-04-27T11:06:43Z</time>
      </trkpt>
      <trkpt lat="49.33041" lon="0.98759">
        <ele>110</ele>
        <time>2008-04-27T11:06:51Z</time>
      </trkpt>
      <trkpt lat="49.33029" lon="0.98773">
        <ele>112</ele>
        <time>2008-04-27T11:06:59Z</time>
      </trkpt>
      <trkpt lat="49.33018" lon="0.98784">
        <ele>113</ele>
        <time>2008-04-27T11:07:07Z</time>
      </trkpt>
      <trkpt lat="49.33006" lon="0.98795">
        <ele>115</ele>
        <time>2008-04-27T11:07:14Z</time>
      </trkpt>
      <trkpt lat="49.32993" lon="0.98801">
        <ele>116</ele>
        <time>2008-04-27T11:07:21Z</time>
      </trkpt>
      <trkpt lat="49.32982" lon="0.98812">
        <ele>117</ele>
        <time>2008-04-27T11:07:26Z</time>
      </trkpt>
      <trkpt lat="49.32971" lon="0.98827">
        <ele>117</ele>
        <time>2008-04-27T11:07:31Z</time>
      </trkpt>
      <trkpt lat="49.32962" lon="0.98835">
        <ele>118</ele>
        <time>2008-04-27T11:07:35Z</time>
      </trkpt>
      <trkpt lat="49.3295" lon="0.98836">
        <ele>118</ele>
        <time>2008-04-27T11:07:40Z</time>
      </trkpt>
      <trkpt lat="49.3294" lon="0.98819">
        <ele>118</ele>
        <time>2008-04-27T11:07:47Z</time>
      </trkpt>
      <trkpt lat="49.32934" lon="0.98798">
        <ele>118</ele>
        <time>2008-04-27T11:07:53Z</time>
      </trkpt>
      <trkpt lat="49.32928" lon="0.98766">
        <ele>118</ele>
        <time>2008-04-27T11:08:00Z</time>
      </trkpt>
      <trkpt lat="49.32921" lon="0.98743">
        <ele>118</ele>
        <time>2008-04-27T11:08:05Z</time>
      </trkpt>
      <trkpt lat="49.32914" lon="0.98722">
        <ele>118</ele>
        <time>2008-04-27T11:08:09Z</time>
      </trkpt>
      <trkpt lat="49.32909" lon="0.98702">
        <ele>118</ele>
        <time>2008-04-27T11:08:12Z</time>
      </trkpt>
      <trkpt lat="49.32903" lon="0.98683">
        <ele>118</ele>
        <time>2008-04-27T11:08:15Z</time>
      </trkpt>
      <trkpt lat="49.32897" lon="0.98663">
        <ele>118</ele>
        <time>2008-04-27T11:08:18Z</time>
      </trkpt>
      <trkpt lat="49.32888" lon="0.98644">
        <ele>118</ele>
        <time>2008-04-27T11:08:21Z</time>
      </trkpt>
      <trkpt lat="49.3288" lon="0.98623">
        <ele>117</ele>
        <time>2008-04-27T11:08:24Z</time>
      </trkpt>
      <trkpt lat="49.32871" lon="0.98601">
        <ele>117</ele>
        <time>2008-04-27T11:08:28Z</time>
      </trkpt>
      <trkpt lat="49.32863" lon="0.98581">
        <ele>117</ele>
        <time>2008-04-27T11:08:32Z</time>
      </trkpt>
      <trkpt lat="49.32857" lon="0.98556">
        <ele>117</ele>
        <time>2008-04-27T11:08:40Z</time>
      </trkpt>
      <trkpt lat="49.3285" lon="0.98535">
        <ele>116</ele>
        <time>2008-04-27T11:08:47Z</time>
      </trkpt>
      <trkpt lat="49.32848" lon="0.98516">
        <ele>115</ele>
        <time>2008-04-27T11:08:53Z</time>
      </trkpt>
      <trkpt lat="49.32855" lon="0.98495">
        <ele>113</ele>
        <time>2008-04-27T11:10:49Z</time>
      </trkpt>
      <trkpt lat="49.32855" lon="0.98479">
        <ele>113</ele>
        <time>2008-04-27T11:10:56Z</time>
      </trkpt>
      <trkpt lat="49.3285" lon="0.98455">
        <ele>111</ele>
        <time>2008-04-27T11:11:01Z</time>
      </trkpt>
      <trkpt lat="49.32853" lon="0.98434">
        <ele>110</ele>
        <time>2008-04-27T11:11:05Z</time>
      </trkpt>
      <trkpt lat="49.32857" lon="0.98417">
        <ele>109</ele>
        <time>2008-04-27T11:11:09Z</time>
      </trkpt>
      <trkpt lat="49.32858" lon="0.98387">
        <ele>107</ele>
        <time>2008-04-27T11:11:12Z</time>
      </trkpt>
      <trkpt lat="49.32855" lon="0.98365">
        <ele>105</ele>
        <time>2008-04-27T11:11:15Z</time>
      </trkpt>
      <trkpt lat="49.32852" lon="0.9834">
        <ele>104</ele>
        <time>2008-04-27T11:11:19Z</time>
      </trkpt>
      <trkpt lat="49.3285" lon="0.98314">
        <ele>102</ele>
        <time>2008-04-27T11:11:23Z</time>
      </trkpt>
      <trkpt lat="49.32849" lon="0.98288">
        <ele>99</ele>
        <time>2008-04-27T11:11:26Z</time>
      </trkpt>
      <trkpt lat="49.32846" lon="0.98264">
        <ele>97</ele>
        <time>2008-04-27T11:11:30Z</time>
      </trkpt>
      <trkpt lat="49.32847" lon="0.98242">
        <ele>95</ele>
        <time>2008-04-27T11:11:34Z</time>
      </trkpt>
      <trkpt lat="49.32841" lon="0.98214">
        <ele>93</ele>
        <time>2008-04-27T11:11:37Z</time>
      </trkpt>
      <trkpt lat="49.32844" lon="0.98185">
        <ele>89</ele>
        <time>2008-04-27T11:11:41Z</time>
      </trkpt>
      <trkpt lat="49.32852" lon="0.98166">
        <ele>85</ele>
        <time>2008-04-27T11:11:44Z</time>
      </trkpt>
      <trkpt lat="49.32856" lon="0.98144">
        <ele>82</ele>
        <time>2008-04-27T11:11:47Z</time>
      </trkpt>
      <trkpt lat="49.32858" lon="0.98122">
        <ele>80</ele>
        <time>2008-04-27T11:11:51Z</time>
      </trkpt>
      <trkpt lat="49.32858" lon="0.98103">
        <ele>79</ele>
        <time>2008-04-27T11:11:58Z</time>
      </trkpt>
      <trkpt lat="49.32851" lon="0.98112">
        <ele>81</ele>
        <time>2008-04-27T11:12:05Z</time>
      </trkpt>
      <trkpt lat="49.32844" lon="0.98128">
        <ele>83</ele>
        <time>2008-04-27T11:12:09Z</time>
      </trkpt>
      <trkpt lat="49.32835" lon="0.98138">
        <ele>85</ele>
        <time>2008-04-27T11:12:13Z</time>
      </trkpt>
      <trkpt lat="49.32826" lon="0.98152">
        <ele>89</ele>
        <time>2008-04-27T11:12:16Z</time>
      </trkpt>
      <trkpt lat="49.32818" lon="0.98162">
        <ele>92</ele>
        <time>2008-04-27T11:12:19Z</time>
      </trkpt>
      <trkpt lat="49.32806" lon="0.98172">
        <ele>92</ele>
        <time>2008-04-27T11:12:23Z</time>
      </trkpt>
      <trkpt lat="49.32796" lon="0.98186">
        <ele>92</ele>
        <time>2008-04-27T11:12:27Z</time>
      </trkpt>
      <trkpt lat="49.32783" lon="0.98192">
        <ele>90</ele>
        <time>2008-04-27T11:12:53Z</time>
      </trkpt>
      <trkpt lat="49.32781" lon="0.98189">
        <ele>89</ele>
        <time>2008-04-27T11:15:53Z</time>
      </trkpt>
      <trkpt lat="49.32772" lon="0.98184">
        <ele>87</ele>
        <time>2008-04-27T11:18:58Z</time>
      </trkpt>
      <trkpt lat="49.32783" lon="0.98218">
        <ele>94</ele>
        <time>2008-04-27T11:22:51Z</time>
      </trkpt>
      <trkpt lat="49.32773" lon="0.98227">
        <ele>93</ele>
        <time>2008-04-27T11:23:25Z</time>
      </trkpt>
      <trkpt lat="49.32768" lon="0.98243">
        <ele>94</ele>
        <time>2008-04-27T11:23:32Z</time>
      </trkpt>
      <trkpt lat="49.3276" lon="0.98257">
        <ele>93</ele>
        <time>2008-04-27T11:23:37Z</time>
      </trkpt>
      <trkpt lat="49.3275" lon="0.98273">
        <ele>92</ele>
        <time>2008-04-27T11:23:41Z</time>
      </trkpt>
      <trkpt lat="49.32742" lon="0.98284">
        <ele>92</ele>
        <time>2008-04-27T11:23:44Z</time>
      </trkpt>
      <trkpt lat="49.32734" lon="0.98296">
        <ele>91</ele>
        <time>2008-04-27T11:23:47Z</time>
      </trkpt>
      <trkpt lat="49.32726" lon="0.98306">
        <ele>91</ele>
        <time>2008-04-27T11:23:50Z</time>
      </trkpt>
      <trkpt lat="49.32714" lon="0.98316">
        <ele>91</ele>
        <time>2008-04-27T11:23:53Z</time>
      </trkpt>
      <trkpt lat="49.32705" lon="0.98325">
        <ele>91</ele>
        <time>2008-04-27T11:23:57Z</time>
      </trkpt>
      <trkpt lat="49.32693" lon="0.98338">
        <ele>91</ele>
        <time>2008-04-27T11:24:03Z</time>
      </trkpt>
      <trkpt lat="49.32684" lon="0.98344">
        <ele>91</ele>
        <time>2008-04-27T11:24:07Z</time>
      </trkpt>
      <trkpt lat="49.32673" lon="0.98355">
        <ele>92</ele>
        <time>2008-04-27T11:24:11Z</time>
      </trkpt>
      <trkpt lat="49.32662" lon="0.9836">
        <ele>91</ele>
        <time>2008-04-27T11:24:16Z</time>
      </trkpt>
      <trkpt lat="49.3265" lon="0.9836">
        <ele>89</ele>
        <time>2008-04-27T11:24:20Z</time>
      </trkpt>
      <trkpt lat="49.32638" lon="0.98371">
        <ele>89</ele>
        <time>2008-04-27T11:24:25Z</time>
      </trkpt>
      <trkpt lat="49.32628" lon="0.98378">
        <ele>90</ele>
        <time>2008-04-27T11:24:30Z</time>
      </trkpt>
      <trkpt lat="49.32613" lon="0.98383">
        <ele>88</ele>
        <time>2008-04-27T11:24:34Z</time>
      </trkpt>
      <trkpt lat="49.32601" lon="0.98386">
        <ele>88</ele>
        <time>2008-04-27T11:24:38Z</time>
      </trkpt>
      <trkpt lat="49.32587" lon="0.98387">
        <ele>86</ele>
        <time>2008-04-27T11:24:43Z</time>
      </trkpt>
      <trkpt lat="49.32573" lon="0.98388">
        <ele>86</ele>
        <time>2008-04-27T11:24:47Z</time>
      </trkpt>
      <trkpt lat="49.32561" lon="0.98386">
        <ele>85</ele>
        <time>2008-04-27T11:24:50Z</time>
      </trkpt>
      <trkpt lat="49.32548" lon="0.98386">
        <ele>84</ele>
        <time>2008-04-27T11:24:53Z</time>
      </trkpt>
      <trkpt lat="49.32533" lon="0.98382">
        <ele>82</ele>
        <time>2008-04-27T11:24:56Z</time>
      </trkpt>
      <trkpt lat="49.32522" lon="0.9838">
        <ele>81</ele>
        <time>2008-04-27T11:24:58Z</time>
      </trkpt>
      <trkpt lat="49.3251" lon="0.98385">
        <ele>81</ele>
        <time>2008-04-27T11:25:01Z</time>
      </trkpt>
      <trkpt lat="49.325" lon="0.98393">
        <ele>81</ele>
        <time>2008-04-27T11:25:04Z</time>
      </trkpt>
      <trkpt lat="49.3249" lon="0.98404">
        <ele>82</ele>
        <time>2008-04-27T11:25:08Z</time>
      </trkpt>
      <trkpt lat="49.32479" lon="0.98419">
        <ele>82</ele>
        <time>2008-04-27T11:25:13Z</time>
      </trkpt>
      <trkpt lat="49.3247" lon="0.98434">
        <ele>82</ele>
        <time>2008-04-27T11:25:19Z</time>
      </trkpt>
      <trkpt lat="49.3246" lon="0.98446">
        <ele>81</ele>
        <time>2008-04-27T11:25:24Z</time>
      </trkpt>
      <trkpt lat="49.32451" lon="0.98457">
        <ele>80</ele>
        <time>2008-04-27T11:25:30Z</time>
      </trkpt>
      <trkpt lat="49.32442" lon="0.98472">
        <ele>79</ele>
        <time>2008-04-27T11:25:34Z</time>
      </trkpt>
      <trkpt lat="49.32435" lon="0.98495">
        <ele>78</ele>
        <time>2008-04-27T11:25:37Z</time>
      </trkpt>
      <trkpt lat="49.32431" lon="0.98515">
        <ele>79</ele>
        <time>2008-04-27T11:25:39Z</time>
      </trkpt>
      <trkpt lat="49.32428" lon="0.98536">
        <ele>79</ele>
        <time>2008-04-27T11:25:41Z</time>
      </trkpt>
      <trkpt lat="49.3242" lon="0.98551">
        <ele>79</ele>
        <time>2008-04-27T11:25:43Z</time>
      </trkpt>
      <trkpt lat="49.32409" lon="0.98554">
        <ele>78</ele>
        <time>2008-04-27T11:25:45Z</time>
      </trkpt>
      <trkpt lat="49.32397" lon="0.98553">
        <ele>76</ele>
        <time>2008-04-27T11:25:47Z</time>
      </trkpt>
      <trkpt lat="49.32385" lon="0.98558">
        <ele>74</ele>
        <time>2008-04-27T11:25:49Z</time>
      </trkpt>
      <trkpt lat="49.32374" lon="0.98563">
        <ele>73</ele>
        <time>2008-04-27T11:25:52Z</time>
      </trkpt>
      <trkpt lat="49.32376" lon="0.98579">
        <ele>74</ele>
        <time>2008-04-27T11:25:58Z</time>
      </trkpt>
      <trkpt lat="49.32385" lon="0.98598">
        <ele>76</ele>
        <time>2008-04-27T11:26:09Z</time>
      </trkpt>
      <trkpt lat="49.32392" lon="0.98619">
        <ele>79</ele>
        <time>2008-04-27T11:26:20Z</time>
      </trkpt>
      <trkpt lat="49.32398" lon="0.98646">
        <ele>81</ele>
        <time>2008-04-27T11:26:34Z</time>
      </trkpt>
      <trkpt lat="49.32403" lon="0.9867">
        <ele>83</ele>
        <time>2008-04-27T11:26:45Z</time>
      </trkpt>
      <trkpt lat="49.32411" lon="0.9869">
        <ele>86</ele>
        <time>2008-04-27T11:26:56Z</time>
      </trkpt>
      <trkpt lat="49.32419" lon="0.98713">
        <ele>89</ele>
        <time>2008-04-27T11:27:08Z</time>
      </trkpt>
      <trkpt lat="49.32427" lon="0.98736">
        <ele>91</ele>
        <time>2008-04-27T11:27:20Z</time>
      </trkpt>
      <trkpt lat="49.32435" lon="0.98758">
        <ele>94</ele>
        <time>2008-04-27T11:27:32Z</time>
      </trkpt>
      <trkpt lat="49.32444" lon="0.98785">
        <ele>97</ele>
        <time>2008-04-27T11:27:47Z</time>
      </trkpt>
      <trkpt lat="49.32454" lon="0.98814">
        <ele>99</ele>
        <time>2008-04-27T11:28:02Z</time>
      </trkpt>
      <trkpt lat="49.32464" lon="0.98834">
        <ele>101</ele>
        <time>2008-04-27T11:28:11Z</time>
      </trkpt>
      <trkpt lat="49.3247" lon="0.9885">
        <ele>102</ele>
        <time>2008-04-27T11:28:18Z</time>
      </trkpt>
      <trkpt lat="49.32474" lon="0.9887">
        <ele>102</ele>
        <time>2008-04-27T11:28:24Z</time>
      </trkpt>
      <trkpt lat="49.32477" lon="0.98888">
        <ele>102</ele>
        <time>2008-04-27T11:28:29Z</time>
      </trkpt>
      <trkpt lat="49.32481" lon="0.98907">
        <ele>102</ele>
        <time>2008-04-27T11:28:34Z</time>
      </trkpt>
      <trkpt lat="49.32485" lon="0.98924">
        <ele>102</ele>
        <time>2008-04-27T11:28:40Z</time>
      </trkpt>
      <trkpt lat="49.32494" lon="0.98943">
        <ele>102</ele>
        <time>2008-04-27T11:28:48Z</time>
      </trkpt>
      <trkpt lat="49.32501" lon="0.98965">
        <ele>102</ele>
        <time>2008-04-27T11:28:53Z</time>
      </trkpt>
      <trkpt lat="49.32511" lon="0.9898">
        <ele>102</ele>
        <time>2008-04-27T11:28:59Z</time>
      </trkpt>
      <trkpt lat="49.32521" lon="0.98998">
        <ele>102</ele>
        <time>2008-04-27T11:29:03Z</time>
      </trkpt>
      <trkpt lat="49.32535" lon="0.99012">
        <ele>104</ele>
        <time>2008-04-27T11:29:06Z</time>
      </trkpt>
      <trkpt lat="49.32544" lon="0.9903">
        <ele>104</ele>
        <time>2008-04-27T11:29:08Z</time>
      </trkpt>
      <trkpt lat="49.32555" lon="0.99047">
        <ele>105</ele>
        <time>2008-04-27T11:29:10Z</time>
      </trkpt>
      <trkpt lat="49.32561" lon="0.99063">
        <ele>106</ele>
        <time>2008-04-27T11:29:12Z</time>
      </trkpt>
      <trkpt lat="49.3256" lon="0.99094">
        <ele>106</ele>
        <time>2008-04-27T11:29:16Z</time>
      </trkpt>
      <trkpt lat="49.32562" lon="0.99121">
        <ele>107</ele>
        <time>2008-04-27T11:29:20Z</time>
      </trkpt>
      <trkpt lat="49.32564" lon="0.9915">
        <ele>107</ele>
        <time>2008-04-27T11:29:28Z</time>
      </trkpt>
      <trkpt lat="49.32576" lon="0.99166">
        <ele>108</ele>
        <time>2008-04-27T11:29:36Z</time>
      </trkpt>
      <trkpt lat="49.32586" lon="0.99186">
        <ele>109</ele>
        <time>2008-04-27T11:29:42Z</time>
      </trkpt>
      <trkpt lat="49.32597" lon="0.99206">
        <ele>111</ele>
        <time>2008-04-27T11:29:48Z</time>
      </trkpt>
      <trkpt lat="49.32606" lon="0.99226">
        <ele>112</ele>
        <time>2008-04-27T11:29:52Z</time>
      </trkpt>
      <trkpt lat="49.32613" lon="0.99244">
        <ele>112</ele>
        <time>2008-04-27T11:29:56Z</time>
      </trkpt>
      <trkpt lat="49.3262" lon="0.99259">
        <ele>113</ele>
        <time>2008-04-27T11:30:00Z</time>
      </trkpt>
      <trkpt lat="49.32628" lon="0.99276">
        <ele>113</ele>
        <time>2008-04-27T11:30:04Z</time>
      </trkpt>
      <trkpt lat="49.32633" lon="0.99294">
        <ele>114</ele>
        <time>2008-04-27T11:30:08Z</time>
      </trkpt>
      <trkpt lat="49.32637" lon="0.99316">
        <ele>114</ele>
        <time>2008-04-27T11:30:12Z</time>
      </trkpt>
      <trkpt lat="49.32641" lon="0.99332">
        <ele>115</ele>
        <time>2008-04-27T11:30:15Z</time>
      </trkpt>
      <trkpt lat="49.32645" lon="0.99352">
        <ele>115</ele>
        <time>2008-04-27T11:30:18Z</time>
      </trkpt>
      <trkpt lat="49.32643" lon="0.9938">
        <ele>115</ele>
        <time>2008-04-27T11:30:22Z</time>
      </trkpt>
      <trkpt lat="49.32648" lon="0.99396">
        <ele>115</ele>
        <time>2008-04-27T11:30:25Z</time>
      </trkpt>
      <trkpt lat="49.32651" lon="0.99412">
        <ele>116</ele>
        <time>2008-04-27T11:30:28Z</time>
      </trkpt>
      <trkpt lat="49.32655" lon="0.99427">
        <ele>117</ele>
        <time>2008-04-27T11:30:31Z</time>
      </trkpt>
      <trkpt lat="49.32659" lon="0.99441">
        <ele>118</ele>
        <time>2008-04-27T11:30:34Z</time>
      </trkpt>
      <trkpt lat="49.32663" lon="0.99454">
        <ele>119</ele>
        <time>2008-04-27T11:30:37Z</time>
      </trkpt>
      <trkpt lat="49.32667" lon="0.99468">
        <ele>119</ele>
        <time>2008-04-27T11:30:40Z</time>
      </trkpt>
      <trkpt lat="49.32671" lon="0.99482">
        <ele>119</ele>
        <time>2008-04-27T11:30:43Z</time>
      </trkpt>
      <trkpt lat="49.32676" lon="0.99494">
        <ele>120</ele>
        <time>2008-04-27T11:30:46Z</time>
      </trkpt>
      <trkpt lat="49.3268" lon="0.99508">
        <ele>120</ele>
        <time>2008-04-27T11:30:49Z</time>
      </trkpt>
      <trkpt lat="49.32684" lon="0.99521">
        <ele>120</ele>
        <time>2008-04-27T11:30:52Z</time>
      </trkpt>
      <trkpt lat="49.3269" lon="0.99533">
        <ele>121</ele>
        <time>2008-04-27T11:30:55Z</time>
      </trkpt>
      <trkpt lat="49.32694" lon="0.99547">
        <ele>121</ele>
        <time>2008-04-27T11:30:58Z</time>
      </trkpt>
      <trkpt lat="49.32699" lon="0.9956">
        <ele>121</ele>
        <time>2008-04-27T11:31:01Z</time>
      </trkpt>
      <trkpt lat="49.32704" lon="0.99573">
        <ele>121</ele>
        <time>2008-04-27T11:31:04Z</time>
      </trkpt>
      <trkpt lat="49.3271" lon="0.99585">
        <ele>121</ele>
        <time>2008-04-27T11:31:07Z</time>
      </trkpt>
      <trkpt lat="49.32715" lon="0.99599">
        <ele>121</ele>
        <time>2008-04-27T11:31:10Z</time>
      </trkpt>
      <trkpt lat="49.3272" lon="0.99615">
        <ele>121</ele>
        <time>2008-04-27T11:31:13Z</time>
      </trkpt>
      <trkpt lat="49.32725" lon="0.99634">
        <ele>121</ele>
        <time>2008-04-27T11:31:16Z</time>
      </trkpt>
      <trkpt lat="49.32731" lon="0.99651">
        <ele>122</ele>
        <time>2008-04-27T11:31:19Z</time>
      </trkpt>
      <trkpt lat="49.32736" lon="0.99669">
        <ele>122</ele>
        <time>2008-04-27T11:31:22Z</time>
      </trkpt>
      <trkpt lat="49.32742" lon="0.99685">
        <ele>122</ele>
        <time>2008-04-27T11:31:25Z</time>
      </trkpt>
      <trkpt lat="49.32747" lon="0.99702">
        <ele>121</ele>
        <time>2008-04-27T11:31:28Z</time>
      </trkpt>
      <trkpt lat="49.32752" lon="0.99719">
        <ele>121</ele>
        <time>2008-04-27T11:31:31Z</time>
      </trkpt>
      <trkpt lat="49.32757" lon="0.99737">
        <ele>121</ele>
        <time>2008-04-27T11:31:34Z</time>
      </trkpt>
      <trkpt lat="49.32763" lon="0.99755">
        <ele>120</ele>
        <time>2008-04-27T11:31:37Z</time>
      </trkpt>
      <trkpt lat="49.32765" lon="0.99771">
        <ele>120</ele>
        <time>2008-04-27T11:31:39Z</time>
      </trkpt>
      <trkpt lat="49.32769" lon="0.99783">
        <ele>119</ele>
        <time>2008-04-27T11:31:41Z</time>
      </trkpt>
      <trkpt lat="49.32776" lon="0.99798">
        <ele>119</ele>
        <time>2008-04-27T11:31:44Z</time>
      </trkpt>
      <trkpt lat="49.32783" lon="0.99816">
        <ele>118</ele>
        <time>2008-04-27T11:31:47Z</time>
      </trkpt>
      <trkpt lat="49.32787" lon="0.99828">
        <ele>117</ele>
        <time>2008-04-27T11:31:49Z</time>
      </trkpt>
      <trkpt lat="49.32791" lon="0.99841">
        <ele>117</ele>
        <time>2008-04-27T11:31:51Z</time>
      </trkpt>
      <trkpt lat="49.32795" lon="0.99855">
        <ele>116</ele>
        <time>2008-04-27T11:31:53Z</time>
      </trkpt>
      <trkpt lat="49.32799" lon="0.99867">
        <ele>116</ele>
        <time>2008-04-27T11:31:55Z</time>
      </trkpt>
      <trkpt lat="49.328" lon="0.99883">
        <ele>114</ele>
        <time>2008-04-27T11:31:57Z</time>
      </trkpt>
      <trkpt lat="49.32793" lon="0.99897">
        <ele>113</ele>
        <time>2008-04-27T11:31:59Z</time>
      </trkpt>
      <trkpt lat="49.32786" lon="0.9991">
        <ele>111</ele>
        <time>2008-04-27T11:32:01Z</time>
      </trkpt>
      <trkpt lat="49.32778" lon="0.99922">
        <ele>110</ele>
        <time>2008-04-27T11:32:03Z</time>
      </trkpt>
      <trkpt lat="49.32769" lon="0.99932">
        <ele>108</ele>
        <time>2008-04-27T11:32:05Z</time>
      </trkpt>
      <trkpt lat="49.32758" lon="0.99941">
        <ele>107</ele>
        <time>2008-04-27T11:32:07Z</time>
      </trkpt>
      <trkpt lat="49.32745" lon="0.99946">
        <ele>105</ele>
        <time>2008-04-27T11:32:09Z</time>
      </trkpt>
      <trkpt lat="49.32731" lon="0.99947">
        <ele>103</ele>
        <time>2008-04-27T11:32:11Z</time>
      </trkpt>
      <trkpt lat="49.32715" lon="0.9995">
        <ele>101</ele>
        <time>2008-04-27T11:32:13Z</time>
      </trkpt>
      <trkpt lat="49.327" lon="0.99956">
        <ele>99</ele>
        <time>2008-04-27T11:32:15Z</time>
      </trkpt>
      <trkpt lat="49.32689" lon="0.9996">
        <ele>97</ele>
        <time>2008-04-27T11:32:17Z</time>
      </trkpt>
      <trkpt lat="49.32685" lon="0.99976">
        <ele>93</ele>
        <time>2008-04-27T11:32:20Z</time>
      </trkpt>
      <trkpt lat="49.32688" lon="0.99992">
        <ele>90</ele>
        <time>2008-04-27T11:32:23Z</time>
      </trkpt>
      <trkpt lat="49.32678" lon="1.00005">
        <ele>86</ele>
        <time>2008-04-27T11:32:27Z</time>
      </trkpt>
      <trkpt lat="49.32687" lon="1.00016">
        <ele>84</ele>
        <time>2008-04-27T11:32:34Z</time>
      </trkpt>
      <trkpt lat="49.32683" lon="1.00032">
        <ele>81</ele>
        <time>2008-04-27T11:32:38Z</time>
      </trkpt>
      <trkpt lat="49.3267" lon="1.00036">
        <ele>80</ele>
        <time>2008-04-27T11:32:41Z</time>
      </trkpt>
      <trkpt lat="49.32658" lon="1.0003">
        <ele>81</ele>
        <time>2008-04-27T11:32:44Z</time>
      </trkpt>
      <trkpt lat="49.32646" lon="1.00021">
        <ele>81</ele>
        <time>2008-04-27T11:32:47Z</time>
      </trkpt>
      <trkpt lat="49.32634" lon="1.00011">
        <ele>82</ele>
        <time>2008-04-27T11:32:50Z</time>
      </trkpt>
      <trkpt lat="49.3262" lon="1.00002">
        <ele>82</ele>
        <time>2008-04-27T11:32:53Z</time>
      </trkpt>
      <trkpt lat="49.32608" lon="0.99987">
        <ele>82</ele>
        <time>2008-04-27T11:32:56Z</time>
      </trkpt>
      <trkpt lat="49.32599" lon="0.99965">
        <ele>82</ele>
        <time>2008-04-27T11:32:59Z</time>
      </trkpt>
      <trkpt lat="49.32591" lon="0.99939">
        <ele>82</ele>
        <time>2008-04-27T11:33:02Z</time>
      </trkpt>
      <trkpt lat="49.32585" lon="0.99916">
        <ele>82</ele>
        <time>2008-04-27T11:33:04Z</time>
      </trkpt>
      <trkpt lat="49.3258" lon="0.99895">
        <ele>81</ele>
        <time>2008-04-27T11:33:06Z</time>
      </trkpt>
      <trkpt lat="49.3257" lon="0.99874">
        <ele>79</ele>
        <time>2008-04-27T11:33:08Z</time>
      </trkpt>
      <trkpt lat="49.32561" lon="0.99853">
        <ele>78</ele>
        <time>2008-04-27T11:33:10Z</time>
      </trkpt>
      <trkpt lat="49.32546" lon="0.99831">
        <ele>75</ele>
        <time>2008-04-27T11:33:12Z</time>
      </trkpt>
      <trkpt lat="49.32538" lon="0.99811">
        <ele>74</ele>
        <time>2008-04-27T11:33:14Z</time>
      </trkpt>
      <trkpt lat="49.3253" lon="0.99792">
        <ele>72</ele>
        <time>2008-04-27T11:33:16Z</time>
      </trkpt>
      <trkpt lat="49.32524" lon="0.99777">
        <ele>71</ele>
        <time>2008-04-27T11:33:18Z</time>
      </trkpt>
      <trkpt lat="49.32519" lon="0.99762">
        <ele>71</ele>
        <time>2008-04-27T11:33:20Z</time>
      </trkpt>
      <trkpt lat="49.32517" lon="0.99748">
        <ele>71</ele>
        <time>2008-04-27T11:33:22Z</time>
      </trkpt>
      <trkpt lat="49.32514" lon="0.99733">
        <ele>72</ele>
        <time>2008-04-27T11:33:24Z</time>
      </trkpt>
      <trkpt lat="49.32511" lon="0.99717">
        <ele>72</ele>
        <time>2008-04-27T11:33:26Z</time>
      </trkpt>
      <trkpt lat="49.32508" lon="0.99701">
        <ele>73</ele>
        <time>2008-04-27T11:33:28Z</time>
      </trkpt>
      <trkpt lat="49.32505" lon="0.99686">
        <ele>73</ele>
        <time>2008-04-27T11:33:30Z</time>
      </trkpt>
      <trkpt lat="49.32501" lon="0.99669">
        <ele>73</ele>
        <time>2008-04-27T11:33:32Z</time>
      </trkpt>
      <trkpt lat="49.32498" lon="0.99655">
        <ele>73</ele>
        <time>2008-04-27T11:33:34Z</time>
      </trkpt>
      <trkpt lat="49.32492" lon="0.9964">
        <ele>72</ele>
        <time>2008-04-27T11:33:36Z</time>
      </trkpt>
      <trkpt lat="49.32486" lon="0.99626">
        <ele>71</ele>
        <time>2008-04-27T11:33:38Z</time>
      </trkpt>
      <trkpt lat="49.32479" lon="0.99612">
        <ele>70</ele>
        <time>2008-04-27T11:33:40Z</time>
      </trkpt>
      <trkpt lat="49.32472" lon="0.99601">
        <ele>68</ele>
        <time>2008-04-27T11:33:42Z</time>
      </trkpt>
      <trkpt lat="49.32463" lon="0.99594">
        <ele>67</ele>
        <time>2008-04-27T11:33:44Z</time>
      </trkpt>
      <trkpt lat="49.32447" lon="0.99593">
        <ele>63</ele>
        <time>2008-04-27T11:33:47Z</time>
      </trkpt>
      <trkpt lat="49.32436" lon="0.99596">
        <ele>59</ele>
        <time>2008-04-27T11:33:50Z</time>
      </trkpt>
      <trkpt lat="49.32447" lon="0.99622">
        <ele>59</ele>
        <time>2008-04-27T11:33:55Z</time>
      </trkpt>
      <trkpt lat="49.32457" lon="0.99636">
        <ele>60</ele>
        <time>2008-04-27T11:33:58Z</time>
      </trkpt>
      <trkpt lat="49.32452" lon="0.99659">
        <ele>56</ele>
        <time>2008-04-27T11:34:03Z</time>
      </trkpt>
      <trkpt lat="49.3244" lon="0.99684">
        <ele>50</ele>
        <time>2008-04-27T11:34:06Z</time>
      </trkpt>
      <trkpt lat="49.32435" lon="0.99708">
        <ele>47</ele>
        <time>2008-04-27T11:34:09Z</time>
      </trkpt>
      <trkpt lat="49.32433" lon="0.9973">
        <ele>45</ele>
        <time>2008-04-27T11:34:12Z</time>
      </trkpt>
      <trkpt lat="49.32446" lon="0.99774">
        <ele>48</ele>
        <time>2008-04-27T11:34:18Z</time>
      </trkpt>
      <trkpt lat="49.32456" lon="0.99796">
        <ele>49</ele>
        <time>2008-04-27T11:34:21Z</time>
      </trkpt>
      <trkpt lat="49.3247" lon="0.9982">
        <ele>51</ele>
        <time>2008-04-27T11:34:27Z</time>
      </trkpt>
      <trkpt lat="49.32482" lon="0.99851">
        <ele>52</ele>
        <time>2008-04-27T11:34:38Z</time>
      </trkpt>
      <trkpt lat="49.32489" lon="0.99875">
        <ele>52</ele>
        <time>2008-04-27T11:34:45Z</time>
      </trkpt>
      <trkpt lat="49.32496" lon="0.999">
        <ele>53</ele>
        <time>2008-04-27T11:34:51Z</time>
      </trkpt>
      <trkpt lat="49.32505" lon="0.99933">
        <ele>54</ele>
        <time>2008-04-27T11:35:00Z</time>
      </trkpt>
      <trkpt lat="49.32515" lon="0.9996">
        <ele>55</ele>
        <time>2008-04-27T11:35:07Z</time>
      </trkpt>
      <trkpt lat="49.32526" lon="0.99985">
        <ele>56</ele>
        <time>2008-04-27T11:35:14Z</time>
      </trkpt>
      <trkpt lat="49.32549" lon="1.00014">
        <ele>62</ele>
        <time>2008-04-27T11:35:29Z</time>
      </trkpt>
      <trkpt lat="49.32562" lon="1.00037">
        <ele>64</ele>
        <time>2008-04-27T11:35:41Z</time>
      </trkpt>
      <trkpt lat="49.32575" lon="1.00056">
        <ele>64</ele>
        <time>2008-04-27T11:35:50Z</time>
      </trkpt>
      <trkpt lat="49.32586" lon="1.00083">
        <ele>63</ele>
        <time>2008-04-27T11:36:00Z</time>
      </trkpt>
      <trkpt lat="49.32599" lon="1.00098">
        <ele>63</ele>
        <time>2008-04-27T11:36:09Z</time>
      </trkpt>
      <trkpt lat="49.32609" lon="1.00113">
        <ele>62</ele>
        <time>2008-04-27T11:36:17Z</time>
      </trkpt>
      <trkpt lat="49.32621" lon="1.00118">
        <ele>62</ele>
        <time>2008-04-27T11:36:23Z</time>
      </trkpt>
      <trkpt lat="49.32632" lon="1.00125">
        <ele>61</ele>
        <time>2008-04-27T11:36:27Z</time>
      </trkpt>
      <trkpt lat="49.32644" lon="1.00131">
        <ele>61</ele>
        <time>2008-04-27T11:36:31Z</time>
      </trkpt>
      <trkpt lat="49.32656" lon="1.00139">
        <ele>61</ele>
        <time>2008-04-27T11:36:37Z</time>
      </trkpt>
      <trkpt lat="49.32667" lon="1.00151">
        <ele>60</ele>
        <time>2008-04-27T11:36:47Z</time>
      </trkpt>
      <trkpt lat="49.32677" lon="1.00155">
        <ele>61</ele>
        <time>2008-04-27T11:36:54Z</time>
      </trkpt>
      <trkpt lat="49.32688" lon="1.00156">
        <ele>61</ele>
        <time>2008-04-27T11:36:58Z</time>
      </trkpt>
      <trkpt lat="49.32704" lon="1.00157">
        <ele>62</ele>
        <time>2008-04-27T11:37:07Z</time>
      </trkpt>
      <trkpt lat="49.32727" lon="1.00168">
        <ele>64</ele>
        <time>2008-04-27T11:37:20Z</time>
      </trkpt>
      <trkpt lat="49.32746" lon="1.00171">
        <ele>66</ele>
        <time>2008-04-27T11:37:30Z</time>
      </trkpt>
      <trkpt lat="49.32763" lon="1.00178">
        <ele>66</ele>
        <time>2008-04-27T11:37:38Z</time>
      </trkpt>
      <trkpt lat="49.3278" lon="1.00186">
        <ele>67</ele>
        <time>2008-04-27T11:37:46Z</time>
      </trkpt>
      <trkpt lat="49.32797" lon="1.00194">
        <ele>67</ele>
        <time>2008-04-27T11:37:54Z</time>
      </trkpt>
      <trkpt lat="49.32821" lon="1.00199">
        <ele>67</ele>
        <time>2008-04-27T11:38:06Z</time>
      </trkpt>
      <trkpt lat="49.3283" lon="1.00204">
        <ele>67</ele>
        <time>2008-04-27T11:38:11Z</time>
      </trkpt>
      <trkpt lat="49.32846" lon="1.00209">
        <ele>67</ele>
        <time>2008-04-27T11:38:20Z</time>
      </trkpt>
      <trkpt lat="49.32859" lon="1.00218">
        <ele>68</ele>
        <time>2008-04-27T11:38:26Z</time>
      </trkpt>
      <trkpt lat="49.32875" lon="1.00226">
        <ele>70</ele>
        <time>2008-04-27T11:38:32Z</time>
      </trkpt>
      <trkpt lat="49.32891" lon="1.00234">
        <ele>71</ele>
        <time>2008-04-27T11:38:40Z</time>
      </trkpt>
      <trkpt lat="49.32914" lon="1.00241">
        <ele>72</ele>
        <time>2008-04-27T11:38:54Z</time>
      </trkpt>
      <trkpt lat="49.32929" lon="1.00252">
        <ele>73</ele>
        <time>2008-04-27T11:39:01Z</time>
      </trkpt>
      <trkpt lat="49.32942" lon="1.00257">
        <ele>74</ele>
        <time>2008-04-27T11:39:04Z</time>
      </trkpt>
      <trkpt lat="49.32954" lon="1.0026">
        <ele>75</ele>
        <time>2008-04-27T11:39:06Z</time>
      </trkpt>
      <trkpt lat="49.32965" lon="1.00265">
        <ele>76</ele>
        <time>2008-04-27T11:39:08Z</time>
      </trkpt>
      <trkpt lat="49.32969" lon="1.00285">
        <ele>76</ele>
        <time>2008-04-27T11:39:10Z</time>
      </trkpt>
      <trkpt lat="49.32961" lon="1.00326">
        <ele>79</ele>
        <time>2008-04-27T11:39:14Z</time>
      </trkpt>
      <trkpt lat="49.32962" lon="1.00349">
        <ele>81</ele>
        <time>2008-04-27T11:39:22Z</time>
      </trkpt>
      <trkpt lat="49.32966" lon="1.00364">
        <ele>82</ele>
        <time>2008-04-27T11:42:42Z</time>
      </trkpt>
      <trkpt lat="49.32971" lon="1.00379">
        <ele>84</ele>
        <time>2008-04-27T11:42:50Z</time>
      </trkpt>
      <trkpt lat="49.32975" lon="1.00397">
        <ele>85</ele>
        <time>2008-04-27T11:42:58Z</time>
      </trkpt>
      <trkpt lat="49.32981" lon="1.0042">
        <ele>88</ele>
        <time>2008-04-27T11:43:07Z</time>
      </trkpt>
      <trkpt lat="49.3299" lon="1.00444">
        <ele>93</ele>
        <time>2008-04-27T11:43:17Z</time>
      </trkpt>
      <trkpt lat="49.32999" lon="1.00463">
        <ele>96</ele>
        <time>2008-04-27T11:43:26Z</time>
      </trkpt>
      <trkpt lat="49.33004" lon="1.00487">
        <ele>99</ele>
        <time>2008-04-27T11:43:37Z</time>
      </trkpt>
      <trkpt lat="49.3301" lon="1.0051">
        <ele>101</ele>
        <time>2008-04-27T11:43:49Z</time>
      </trkpt>
      <trkpt lat="49.33015" lon="1.0053">
        <ele>102</ele>
        <time>2008-04-27T11:44:00Z</time>
      </trkpt>
      <trkpt lat="49.33026" lon="1.0055">
        <ele>105</ele>
        <time>2008-04-27T11:44:11Z</time>
      </trkpt>
      <trkpt lat="49.33031" lon="1.00572">
        <ele>104</ele>
        <time>2008-04-27T11:44:20Z</time>
      </trkpt>
      <trkpt lat="49.33036" lon="1.00594">
        <ele>103</ele>
        <time>2008-04-27T11:44:29Z</time>
      </trkpt>
      <trkpt lat="49.33042" lon="1.00609">
        <ele>104</ele>
        <time>2008-04-27T11:44:35Z</time>
      </trkpt>
      <trkpt lat="49.33048" lon="1.0063">
        <ele>104</ele>
        <time>2008-04-27T11:44:41Z</time>
      </trkpt>
      <trkpt lat="49.33054" lon="1.00655">
        <ele>104</ele>
        <time>2008-04-27T11:44:48Z</time>
      </trkpt>
      <trkpt lat="49.33064" lon="1.0068">
        <ele>105</ele>
        <time>2008-04-27T11:44:56Z</time>
      </trkpt>
      <trkpt lat="49.33074" lon="1.00704">
        <ele>106</ele>
        <time>2008-04-27T11:45:05Z</time>
      </trkpt>
      <trkpt lat="49.33084" lon="1.00737">
        <ele>108</ele>
        <time>2008-04-27T11:45:15Z</time>
      </trkpt>
      <trkpt lat="49.33095" lon="1.00767">
        <ele>110</ele>
        <time>2008-04-27T11:45:23Z</time>
      </trkpt>
      <trkpt lat="49.33107" lon="1.00794">
        <ele>113</ele>
        <time>2008-04-27T11:45:32Z</time>
      </trkpt>
      <trkpt lat="49.33118" lon="1.00814">
        <ele>115</ele>
        <time>2008-04-27T11:45:42Z</time>
      </trkpt>
      <trkpt lat="49.33126" lon="1.00839">
        <ele>115</ele>
        <time>2008-04-27T11:45:54Z</time>
      </trkpt>
      <trkpt lat="49.33134" lon="1.00862">
        <ele>116</ele>
        <time>2008-04-27T11:46:05Z</time>
      </trkpt>
      <trkpt lat="49.33144" lon="1.00885">
        <ele>116</ele>
        <time>2008-04-27T11:46:16Z</time>
      </trkpt>
      <trkpt lat="49.33154" lon="1.00901">
        <ele>118</ele>
        <time>2008-04-27T11:46:25Z</time>
      </trkpt>
      <trkpt lat="49.33164" lon="1.00918">
        <ele>118</ele>
        <time>2008-04-27T11:46:35Z</time>
      </trkpt>
      <trkpt lat="49.33173" lon="1.00941">
        <ele>118</ele>
        <time>2008-04-27T11:46:45Z</time>
      </trkpt>
      <trkpt lat="49.33184" lon="1.00962">
        <ele>119</ele>
        <time>2008-04-27T11:46:52Z</time>
      </trkpt>
      <trkpt lat="49.33195" lon="1.00974">
        <ele>121</ele>
        <time>2008-04-27T11:46:57Z</time>
      </trkpt>
      <trkpt lat="49.33207" lon="1.00983">
        <ele>122</ele>
        <time>2008-04-27T11:47:02Z</time>
      </trkpt>
      <trkpt lat="49.33218" lon="1.0099">
        <ele>123</ele>
        <time>2008-04-27T11:47:07Z</time>
      </trkpt>
      <trkpt lat="49.3323" lon="1.00997">
        <ele>124</ele>
        <time>2008-04-27T11:47:11Z</time>
      </trkpt>
      <trkpt lat="49.33242" lon="1.01003">
        <ele>124</ele>
        <time>2008-04-27T11:47:15Z</time>
      </trkpt>
      <trkpt lat="49.33254" lon="1.01002">
        <ele>125</ele>
        <time>2008-04-27T11:47:20Z</time>
      </trkpt>
      <trkpt lat="49.33264" lon="1.00986">
        <ele>126</ele>
        <time>2008-04-27T11:47:26Z</time>
      </trkpt>
      <trkpt lat="49.33267" lon="1.00967">
        <ele>126</ele>
        <time>2008-04-27T11:47:31Z</time>
      </trkpt>
      <trkpt lat="49.33271" lon="1.00948">
        <ele>126</ele>
        <time>2008-04-27T11:47:36Z</time>
      </trkpt>
      <trkpt lat="49.33272" lon="1.00934">
        <ele>127</ele>
        <time>2008-04-27T11:47:41Z</time>
      </trkpt>
      <trkpt lat="49.33279" lon="1.0092">
        <ele>127</ele>
        <time>2008-04-27T11:47:46Z</time>
      </trkpt>
      <trkpt lat="49.33282" lon="1.00905">
        <ele>127</ele>
        <time>2008-04-27T11:47:50Z</time>
      </trkpt>
      <trkpt lat="49.33291" lon="1.0089">
        <ele>128</ele>
        <time>2008-04-27T11:47:55Z</time>
      </trkpt>
      <trkpt lat="49.333" lon="1.00876">
        <ele>128</ele>
        <time>2008-04-27T11:48:00Z</time>
      </trkpt>
      <trkpt lat="49.33312" lon="1.00869">
        <ele>128</ele>
        <time>2008-04-27T11:48:05Z</time>
      </trkpt>
      <trkpt lat="49.33324" lon="1.00874">
        <ele>128</ele>
        <time>2008-04-27T11:48:11Z</time>
      </trkpt>
      <trkpt lat="49.33335" lon="1.00885">
        <ele>128</ele>
        <time>2008-04-27T11:48:16Z</time>
      </trkpt>
      <trkpt lat="49.33347" lon="1.00892">
        <ele>128</ele>
        <time>2008-04-27T11:48:21Z</time>
      </trkpt>
      <trkpt lat="49.3336" lon="1.00895">
        <ele>128</ele>
        <time>2008-04-27T11:48:27Z</time>
      </trkpt>
      <trkpt lat="49.33375" lon="1.00893">
        <ele>128</ele>
        <time>2008-04-27T11:48:33Z</time>
      </trkpt>
      <trkpt lat="49.33391" lon="1.00891">
        <ele>128</ele>
        <time>2008-04-27T11:48:38Z</time>
      </trkpt>
      <trkpt lat="49.33406" lon="1.00899">
        <ele>128</ele>
        <time>2008-04-27T11:48:44Z</time>
      </trkpt>
      <trkpt lat="49.33421" lon="1.00909">
        <ele>128</ele>
        <time>2008-04-27T11:48:49Z</time>
      </trkpt>
      <trkpt lat="49.33433" lon="1.00917">
        <ele>128</ele>
        <time>2008-04-27T11:48:53Z</time>
      </trkpt>
      <trkpt lat="49.33444" lon="1.00925">
        <ele>129</ele>
        <time>2008-04-27T11:48:56Z</time>
      </trkpt>
      <trkpt lat="49.33458" lon="1.00935">
        <ele>129</ele>
        <time>2008-04-27T11:49:00Z</time>
      </trkpt>
      <trkpt lat="49.33472" lon="1.00944">
        <ele>129</ele>
        <time>2008-04-27T11:49:04Z</time>
      </trkpt>
      <trkpt lat="49.33484" lon="1.00952">
        <ele>129</ele>
        <time>2008-04-27T11:49:08Z</time>
      </trkpt>
      <trkpt lat="49.33493" lon="1.00959">
        <ele>129</ele>
        <time>2008-04-27T11:49:11Z</time>
      </trkpt>
      <trkpt lat="49.33504" lon="1.00967">
        <ele>129</ele>
        <time>2008-04-27T11:49:15Z</time>
      </trkpt>
      <trkpt lat="49.33513" lon="1.00973">
        <ele>129</ele>
        <time>2008-04-27T11:49:18Z</time>
      </trkpt>
      <trkpt lat="49.33525" lon="1.00981">
        <ele>129</ele>
        <time>2008-04-27T11:49:22Z</time>
      </trkpt>
      <trkpt lat="49.33535" lon="1.0099">
        <ele>130</ele>
        <time>2008-04-27T11:49:25Z</time>
      </trkpt>
      <trkpt lat="49.33546" lon="1.00997">
        <ele>130</ele>
        <time>2008-04-27T11:49:28Z</time>
      </trkpt>
      <trkpt lat="49.33556" lon="1.01008">
        <ele>130</ele>
        <time>2008-04-27T11:49:32Z</time>
      </trkpt>
      <trkpt lat="49.33555" lon="1.01032">
        <ele>130</ele>
        <time>2008-04-27T11:49:40Z</time>
      </trkpt>
      <trkpt lat="49.33543" lon="1.01052">
        <ele>130</ele>
        <time>2008-04-27T11:49:47Z</time>
      </trkpt>
      <trkpt lat="49.33535" lon="1.01077">
        <ele>130</ele>
        <time>2008-04-27T11:50:10Z</time>
      </trkpt>
      <trkpt lat="49.33527" lon="1.01069">
        <ele>130</ele>
        <time>2008-04-27T11:52:32Z</time>
      </trkpt>
      <trkpt lat="49.33519" lon="1.01089">
        <ele>130</ele>
        <time>2008-04-27T11:52:37Z</time>
      </trkpt>
      <trkpt lat="49.33514" lon="1.01107">
        <ele>130</ele>
        <time>2008-04-27T11:52:40Z</time>
      </trkpt>
      <trkpt lat="49.33508" lon="1.01126">
        <ele>130</ele>
        <time>2008-04-27T11:52:43Z</time>
      </trkpt>
      <trkpt lat="49.33504" lon="1.01141">
        <ele>130</ele>
        <time>2008-04-27T11:52:45Z</time>
      </trkpt>
      <trkpt lat="49.335" lon="1.01155">
        <ele>130</ele>
        <time>2008-04-27T11:52:47Z</time>
      </trkpt>
      <trkpt lat="49.33497" lon="1.01172">
        <ele>130</ele>
        <time>2008-04-27T11:52:49Z</time>
      </trkpt>
      <trkpt lat="49.33492" lon="1.0119">
        <ele>130</ele>
        <time>2008-04-27T11:52:51Z</time>
      </trkpt>
      <trkpt lat="49.33487" lon="1.01207">
        <ele>130</ele>
        <time>2008-04-27T11:52:53Z</time>
      </trkpt>
      <trkpt lat="49.33482" lon="1.01224">
        <ele>130</ele>
        <time>2008-04-27T11:52:55Z</time>
      </trkpt>
      <trkpt lat="49.33481" lon="1.01234">
        <ele>130</ele>
        <time>2008-04-27T11:52:57Z</time>
      </trkpt>
      <trkpt lat="49.33477" lon="1.01253">
        <ele>130</ele>
        <time>2008-04-27T11:53:00Z</time>
      </trkpt>
      <trkpt lat="49.33471" lon="1.01271">
        <ele>130</ele>
        <time>2008-04-27T11:53:03Z</time>
      </trkpt>
      <trkpt lat="49.33467" lon="1.01285">
        <ele>130</ele>
        <time>2008-04-27T11:53:06Z</time>
      </trkpt>
      <trkpt lat="49.33464" lon="1.01301">
        <ele>130</ele>
        <time>2008-04-27T11:53:09Z</time>
      </trkpt>
      <trkpt lat="49.3346" lon="1.01316">
        <ele>130</ele>
        <time>2008-04-27T11:53:12Z</time>
      </trkpt>
      <trkpt lat="49.33452" lon="1.01329">
        <ele>130</ele>
        <time>2008-04-27T11:53:16Z</time>
      </trkpt>
      <trkpt lat="49.33443" lon="1.01321">
        <ele>130</ele>
        <time>2008-04-27T11:53:20Z</time>
      </trkpt>
      <trkpt lat="49.33436" lon="1.01305">
        <ele>130</ele>
        <time>2008-04-27T11:53:24Z</time>
      </trkpt>
      <trkpt lat="49.33431" lon="1.01291">
        <ele>130</ele>
        <time>2008-04-27T11:53:27Z</time>
      </trkpt>
      <trkpt lat="49.33424" lon="1.01276">
        <ele>130</ele>
        <time>2008-04-27T11:53:30Z</time>
      </trkpt>
      <trkpt lat="49.33417" lon="1.01261">
        <ele>129</ele>
        <time>2008-04-27T11:53:33Z</time>
      </trkpt>
      <trkpt lat="49.3341" lon="1.01244">
        <ele>129</ele>
        <time>2008-04-27T11:53:36Z</time>
      </trkpt>
      <trkpt lat="49.33404" lon="1.01225">
        <ele>129</ele>
        <time>2008-04-27T11:53:39Z</time>
      </trkpt>
      <trkpt lat="49.33397" lon="1.01206">
        <ele>129</ele>
        <time>2008-04-27T11:53:42Z</time>
      </trkpt>
      <trkpt lat="49.33389" lon="1.0119">
        <ele>129</ele>
        <time>2008-04-27T11:53:45Z</time>
      </trkpt>
      <trkpt lat="49.33382" lon="1.01181">
        <ele>129</ele>
        <time>2008-04-27T11:53:47Z</time>
      </trkpt>
      <trkpt lat="49.33374" lon="1.01172">
        <ele>129</ele>
        <time>2008-04-27T11:53:49Z</time>
      </trkpt>
      <trkpt lat="49.33365" lon="1.01164">
        <ele>129</ele>
        <time>2008-04-27T11:53:51Z</time>
      </trkpt>
      <trkpt lat="49.33355" lon="1.01157">
        <ele>129</ele>
        <time>2008-04-27T11:53:53Z</time>
      </trkpt>
      <trkpt lat="49.33345" lon="1.01154">
        <ele>129</ele>
        <time>2008-04-27T11:53:55Z</time>
      </trkpt>
      <trkpt lat="49.33334" lon="1.01152">
        <ele>129</ele>
        <time>2008-04-27T11:53:57Z</time>
      </trkpt>
      <trkpt lat="49.33324" lon="1.0115">
        <ele>128</ele>
        <time>2008-04-27T11:53:59Z</time>
      </trkpt>
      <trkpt lat="49.33313" lon="1.01147">
        <ele>128</ele>
        <time>2008-04-27T11:54:01Z</time>
      </trkpt>
      <trkpt lat="49.33303" lon="1.01142">
        <ele>128</ele>
        <time>2008-04-27T11:54:03Z</time>
      </trkpt>
      <trkpt lat="49.33292" lon="1.0114">
        <ele>127</ele>
        <time>2008-04-27T11:54:05Z</time>
      </trkpt>
      <trkpt lat="49.33283" lon="1.01146">
        <ele>127</ele>
        <time>2008-04-27T11:54:07Z</time>
      </trkpt>
      <trkpt lat="49.33279" lon="1.01162">
        <ele>128</ele>
        <time>2008-04-27T11:54:09Z</time>
      </trkpt>
      <trkpt lat="49.33272" lon="1.01182">
        <ele>128</ele>
        <time>2008-04-27T11:54:12Z</time>
      </trkpt>
      <trkpt lat="49.33263" lon="1.01193">
        <ele>128</ele>
        <time>2008-04-27T11:54:14Z</time>
      </trkpt>
      <trkpt lat="49.33252" lon="1.01209">
        <ele>129</ele>
        <time>2008-04-27T11:54:17Z</time>
      </trkpt>
      <trkpt lat="49.33242" lon="1.01216">
        <ele>129</ele>
        <time>2008-04-27T11:54:20Z</time>
      </trkpt>
      <trkpt lat="49.33231" lon="1.01208">
        <ele>129</ele>
        <time>2008-04-27T11:54:23Z</time>
      </trkpt>
      <trkpt lat="49.33225" lon="1.01189">
        <ele>128</ele>
        <time>2008-04-27T11:54:26Z</time>
      </trkpt>
      <trkpt lat="49.3322" lon="1.01172">
        <ele>128</ele>
        <time>2008-04-27T11:54:29Z</time>
      </trkpt>
      <trkpt lat="49.33215" lon="1.01157">
        <ele>128</ele>
        <time>2008-04-27T11:54:32Z</time>
      </trkpt>
      <trkpt lat="49.33213" lon="1.01141">
        <ele>127</ele>
        <time>2008-04-27T11:54:36Z</time>
      </trkpt>
      <trkpt lat="49.33218" lon="1.01139">
        <ele>127</ele>
        <time>2008-04-27T12:02:39Z</time>
      </trkpt>
      <trkpt lat="49.33208" lon="1.0113">
        <ele>127</ele>
        <time>2008-04-27T12:03:16Z</time>
      </trkpt>
      <trkpt lat="49.33201" lon="1.01114">
        <ele>126</ele>
        <time>2008-04-27T12:03:20Z</time>
      </trkpt>
      <trkpt lat="49.33196" lon="1.01098">
        <ele>126</ele>
        <time>2008-04-27T12:03:23Z</time>
      </trkpt>
      <trkpt lat="49.33189" lon="1.01083">
        <ele>126</ele>
        <time>2008-04-27T12:03:27Z</time>
      </trkpt>
      <trkpt lat="49.33183" lon="1.01067">
        <ele>125</ele>
        <time>2008-04-27T12:03:31Z</time>
      </trkpt>
      <trkpt lat="49.33176" lon="1.0105">
        <ele>124</ele>
        <time>2008-04-27T12:03:35Z</time>
      </trkpt>
      <trkpt lat="49.3317" lon="1.01037">
        <ele>124</ele>
        <time>2008-04-27T12:03:38Z</time>
      </trkpt>
      <trkpt lat="49.3316" lon="1.01026">
        <ele>123</ele>
        <time>2008-04-27T12:03:41Z</time>
      </trkpt>
      <trkpt lat="49.3315" lon="1.01017">
        <ele>122</ele>
        <time>2008-04-27T12:03:44Z</time>
      </trkpt>
      <trkpt lat="49.33141" lon="1.01008">
        <ele>121</ele>
        <time>2008-04-27T12:03:47Z</time>
      </trkpt>
      <trkpt lat="49.33128" lon="1.00999">
        <ele>119</ele>
        <time>2008-04-27T12:03:50Z</time>
      </trkpt>
      <trkpt lat="49.33116" lon="1.00987">
        <ele>118</ele>
        <time>2008-04-27T12:03:53Z</time>
      </trkpt>
      <trkpt lat="49.33107" lon="1.00975">
        <ele>118</ele>
        <time>2008-04-27T12:03:55Z</time>
      </trkpt>
      <trkpt lat="49.33098" lon="1.00966">
        <ele>118</ele>
        <time>2008-04-27T12:03:57Z</time>
      </trkpt>
      <trkpt lat="49.33089" lon="1.0096">
        <ele>118</ele>
        <time>2008-04-27T12:03:59Z</time>
      </trkpt>
      <trkpt lat="49.33078" lon="1.00952">
        <ele>118</ele>
        <time>2008-04-27T12:04:03Z</time>
      </trkpt>
      <trkpt lat="49.33068" lon="1.00944">
        <ele>118</ele>
        <time>2008-04-27T12:04:08Z</time>
      </trkpt>
      <trkpt lat="49.33059" lon="1.00934">
        <ele>118</ele>
        <time>2008-04-27T12:04:13Z</time>
      </trkpt>
      <trkpt lat="49.33047" lon="1.00918">
        <ele>118</ele>
        <time>2008-04-27T12:04:19Z</time>
      </trkpt>
      <trkpt lat="49.33037" lon="1.0091">
        <ele>119</ele>
        <time>2008-04-27T12:04:23Z</time>
      </trkpt>
      <trkpt lat="49.33025" lon="1.0091">
        <ele>120</ele>
        <time>2008-04-27T12:04:28Z</time>
      </trkpt>
      <trkpt lat="49.33015" lon="1.00919">
        <ele>121</ele>
        <time>2008-04-27T12:04:32Z</time>
      </trkpt>
      <trkpt lat="49.33003" lon="1.00927">
        <ele>122</ele>
        <time>2008-04-27T12:04:36Z</time>
      </trkpt>
      <trkpt lat="49.3299" lon="1.00937">
        <ele>123</ele>
        <time>2008-04-27T12:04:41Z</time>
      </trkpt>
      <trkpt lat="49.32979" lon="1.00947">
        <ele>123</ele>
        <time>2008-04-27T12:04:44Z</time>
      </trkpt>
      <trkpt lat="49.32968" lon="1.00959">
        <ele>124</ele>
        <time>2008-04-27T12:04:47Z</time>
      </trkpt>
      <trkpt lat="49.32957" lon="1.00968">
        <ele>124</ele>
        <time>2008-04-27T12:04:50Z</time>
      </trkpt>
      <trkpt lat="49.32947" lon="1.00976">
        <ele>124</ele>
        <time>2008-04-27T12:04:53Z</time>
      </trkpt>
      <trkpt lat="49.32938" lon="1.00983">
        <ele>124</ele>
        <time>2008-04-27T12:04:56Z</time>
      </trkpt>
      <trkpt lat="49.32929" lon="1.0099">
        <ele>124</ele>
        <time>2008-04-27T12:04:59Z</time>
      </trkpt>
      <trkpt lat="49.32921" lon="1.00996">
        <ele>124</ele>
        <time>2008-04-27T12:05:02Z</time>
      </trkpt>
      <trkpt lat="49.32912" lon="1.01006">
        <ele>125</ele>
        <time>2008-04-27T12:05:05Z</time>
      </trkpt>
      <trkpt lat="49.32901" lon="1.01014">
        <ele>125</ele>
        <time>2008-04-27T12:05:09Z</time>
      </trkpt>
      <trkpt lat="49.3289" lon="1.01022">
        <ele>125</ele>
        <time>2008-04-27T12:05:12Z</time>
      </trkpt>
      <trkpt lat="49.32882" lon="1.01028">
        <ele>125</ele>
        <time>2008-04-27T12:05:15Z</time>
      </trkpt>
      <trkpt lat="49.32872" lon="1.01034">
        <ele>125</ele>
        <time>2008-04-27T12:05:18Z</time>
      </trkpt>
      <trkpt lat="49.32864" lon="1.01038">
        <ele>125</ele>
        <time>2008-04-27T12:05:21Z</time>
      </trkpt>
      <trkpt lat="49.32855" lon="1.01047">
        <ele>125</ele>
        <time>2008-04-27T12:05:24Z</time>
      </trkpt>
      <trkpt lat="49.32845" lon="1.01052">
        <ele>125</ele>
        <time>2008-04-27T12:05:27Z</time>
      </trkpt>
      <trkpt lat="49.32834" lon="1.01059">
        <ele>125</ele>
        <time>2008-04-27T12:05:31Z</time>
      </trkpt>
      <trkpt lat="49.32822" lon="1.01068">
        <ele>124</ele>
        <time>2008-04-27T12:05:35Z</time>
      </trkpt>
      <trkpt lat="49.32811" lon="1.01077">
        <ele>124</ele>
        <time>2008-04-27T12:05:39Z</time>
      </trkpt>
      <trkpt lat="49.32797" lon="1.01086">
        <ele>124</ele>
        <time>2008-04-27T12:05:43Z</time>
      </trkpt>
      <trkpt lat="49.32787" lon="1.01094">
        <ele>123</ele>
        <time>2008-04-27T12:05:46Z</time>
      </trkpt>
      <trkpt lat="49.32775" lon="1.01102">
        <ele>123</ele>
        <time>2008-04-27T12:05:49Z</time>
      </trkpt>
      <trkpt lat="49.32762" lon="1.01115">
        <ele>122</ele>
        <time>2008-04-27T12:05:52Z</time>
      </trkpt>
      <trkpt lat="49.32751" lon="1.0112">
        <ele>122</ele>
        <time>2008-04-27T12:05:55Z</time>
      </trkpt>
      <trkpt lat="49.32742" lon="1.01126">
        <ele>122</ele>
        <time>2008-04-27T12:05:58Z</time>
      </trkpt>
      <trkpt lat="49.3273" lon="1.01133">
        <ele>121</ele>
        <time>2008-04-27T12:06:01Z</time>
      </trkpt>
      <trkpt lat="49.32722" lon="1.01138">
        <ele>121</ele>
        <time>2008-04-27T12:06:04Z</time>
      </trkpt>
      <trkpt lat="49.32711" lon="1.01147">
        <ele>120</ele>
        <time>2008-04-27T12:06:08Z</time>
      </trkpt>
      <trkpt lat="49.32705" lon="1.01137">
        <ele>120</ele>
        <time>2008-04-27T12:06:12Z</time>
      </trkpt>
      <trkpt lat="49.327" lon="1.01119">
        <ele>120</ele>
        <time>2008-04-27T12:06:16Z</time>
      </trkpt>
      <trkpt lat="49.32695" lon="1.011">
        <ele>119</ele>
        <time>2008-04-27T12:06:20Z</time>
      </trkpt>
      <trkpt lat="49.32691" lon="1.01086">
        <ele>119</ele>
        <time>2008-04-27T12:06:23Z</time>
      </trkpt>
      <trkpt lat="49.32686" lon="1.01067">
        <ele>118</ele>
        <time>2008-04-27T12:06:26Z</time>
      </trkpt>
      <trkpt lat="49.32682" lon="1.0105">
        <ele>118</ele>
        <time>2008-04-27T12:06:28Z</time>
      </trkpt>
      <trkpt lat="49.32675" lon="1.01034">
        <ele>118</ele>
        <time>2008-04-27T12:06:30Z</time>
      </trkpt>
      <trkpt lat="49.32662" lon="1.01029">
        <ele>117</ele>
        <time>2008-04-27T12:06:33Z</time>
      </trkpt>
      <trkpt lat="49.32649" lon="1.01041">
        <ele>116</ele>
        <time>2008-04-27T12:06:37Z</time>
      </trkpt>
      <trkpt lat="49.32639" lon="1.01051">
        <ele>115</ele>
        <time>2008-04-27T12:06:40Z</time>
      </trkpt>
      <trkpt lat="49.32626" lon="1.01061">
        <ele>115</ele>
        <time>2008-04-27T12:06:43Z</time>
      </trkpt>
      <trkpt lat="49.32618" lon="1.01068">
        <ele>114</ele>
        <time>2008-04-27T12:06:45Z</time>
      </trkpt>
      <trkpt lat="49.32609" lon="1.01075">
        <ele>114</ele>
        <time>2008-04-27T12:06:47Z</time>
      </trkpt>
      <trkpt lat="49.32599" lon="1.01083">
        <ele>113</ele>
        <time>2008-04-27T12:06:49Z</time>
      </trkpt>
      <trkpt lat="49.32589" lon="1.01091">
        <ele>113</ele>
        <time>2008-04-27T12:06:51Z</time>
      </trkpt>
      <trkpt lat="49.3258" lon="1.01098">
        <ele>112</ele>
        <time>2008-04-27T12:06:53Z</time>
      </trkpt>
      <trkpt lat="49.32571" lon="1.01105">
        <ele>111</ele>
        <time>2008-04-27T12:06:55Z</time>
      </trkpt>
      <trkpt lat="49.32559" lon="1.01112">
        <ele>110</ele>
        <time>2008-04-27T12:06:57Z</time>
      </trkpt>
      <trkpt lat="49.32545" lon="1.01122">
        <ele>108</ele>
        <time>2008-04-27T12:06:59Z</time>
      </trkpt>
      <trkpt lat="49.3253" lon="1.01134">
        <ele>107</ele>
        <time>2008-04-27T12:07:01Z</time>
      </trkpt>
      <trkpt lat="49.32517" lon="1.01142">
        <ele>105</ele>
        <time>2008-04-27T12:07:03Z</time>
      </trkpt>
      <trkpt lat="49.32508" lon="1.01148">
        <ele>104</ele>
        <time>2008-04-27T12:07:05Z</time>
      </trkpt>
      <trkpt lat="49.32497" lon="1.01157">
        <ele>103</ele>
        <time>2008-04-27T12:07:08Z</time>
      </trkpt>
      <trkpt lat="49.32485" lon="1.0117">
        <ele>103</ele>
        <time>2008-04-27T12:07:13Z</time>
      </trkpt>
      <trkpt lat="49.32472" lon="1.01179">
        <ele>105</ele>
        <time>2008-04-27T12:07:20Z</time>
      </trkpt>
      <trkpt lat="49.32462" lon="1.01187">
        <ele>106</ele>
        <time>2008-04-27T12:07:28Z</time>
      </trkpt>
      <trkpt lat="49.3245" lon="1.01195">
        <ele>107</ele>
        <time>2008-04-27T12:07:37Z</time>
      </trkpt>
      <trkpt lat="49.3244" lon="1.01203">
        <ele>108</ele>
        <time>2008-04-27T12:07:46Z</time>
      </trkpt>
      <trkpt lat="49.32427" lon="1.01211">
        <ele>110</ele>
        <time>2008-04-27T12:07:56Z</time>
      </trkpt>
      <trkpt lat="49.32414" lon="1.01222">
        <ele>113</ele>
        <time>2008-04-27T12:08:05Z</time>
      </trkpt>
      <trkpt lat="49.32401" lon="1.01238">
        <ele>115</ele>
        <time>2008-04-27T12:08:15Z</time>
      </trkpt>
      <trkpt lat="49.32396" lon="1.01255">
        <ele>116</ele>
        <time>2008-04-27T12:08:22Z</time>
      </trkpt>
      <trkpt lat="49.32389" lon="1.01273">
        <ele>117</ele>
        <time>2008-04-27T12:08:29Z</time>
      </trkpt>
      <trkpt lat="49.32382" lon="1.01295">
        <ele>119</ele>
        <time>2008-04-27T12:08:37Z</time>
      </trkpt>
      <trkpt lat="49.32378" lon="1.01315">
        <ele>119</ele>
        <time>2008-04-27T12:08:44Z</time>
      </trkpt>
      <trkpt lat="49.32376" lon="1.01332">
        <ele>119</ele>
        <time>2008-04-27T12:08:48Z</time>
      </trkpt>
      <trkpt lat="49.3238" lon="1.0135">
        <ele>118</ele>
        <time>2008-04-27T12:08:53Z</time>
      </trkpt>
      <trkpt lat="49.3239" lon="1.01362">
        <ele>118</ele>
        <time>2008-04-27T12:08:58Z</time>
      </trkpt>
      <trkpt lat="49.32396" lon="1.01381">
        <ele>119</ele>
        <time>2008-04-27T12:09:03Z</time>
      </trkpt>
      <trkpt lat="49.32402" lon="1.01401">
        <ele>120</ele>
        <time>2008-04-27T12:09:08Z</time>
      </trkpt>
      <trkpt lat="49.3241" lon="1.01415">
        <ele>119</ele>
        <time>2008-04-27T12:09:12Z</time>
      </trkpt>
      <trkpt lat="49.32421" lon="1.01426">
        <ele>117</ele>
        <time>2008-04-27T12:09:16Z</time>
      </trkpt>
      <trkpt lat="49.32431" lon="1.01435">
        <ele>117</ele>
        <time>2008-04-27T12:09:19Z</time>
      </trkpt>
      <trkpt lat="49.32439" lon="1.01447">
        <ele>116</ele>
        <time>2008-04-27T12:09:22Z</time>
      </trkpt>
      <trkpt lat="49.32451" lon="1.01463">
        <ele>116</ele>
        <time>2008-04-27T12:09:25Z</time>
      </trkpt>
      <trkpt lat="49.32461" lon="1.01477">
        <ele>115</ele>
        <time>2008-04-27T12:09:28Z</time>
      </trkpt>
      <trkpt lat="49.3247" lon="1.01491">
        <ele>114</ele>
        <time>2008-04-27T12:09:31Z</time>
      </trkpt>
      <trkpt lat="49.3248" lon="1.01511">
        <ele>114</ele>
        <time>2008-04-27T12:09:35Z</time>
      </trkpt>
      <trkpt lat="49.32491" lon="1.01527">
        <ele>114</ele>
        <time>2008-04-27T12:09:38Z</time>
      </trkpt>
      <trkpt lat="49.325" lon="1.01548">
        <ele>114</ele>
        <time>2008-04-27T12:09:42Z</time>
      </trkpt>
      <trkpt lat="49.32508" lon="1.01566">
        <ele>115</ele>
        <time>2008-04-27T12:09:45Z</time>
      </trkpt>
      <trkpt lat="49.32516" lon="1.01578">
        <ele>116</ele>
        <time>2008-04-27T12:09:47Z</time>
      </trkpt>
      <trkpt lat="49.32527" lon="1.01588">
        <ele>117</ele>
        <time>2008-04-27T12:09:49Z</time>
      </trkpt>
      <trkpt lat="49.32539" lon="1.01599">
        <ele>119</ele>
        <time>2008-04-27T12:09:52Z</time>
      </trkpt>
      <trkpt lat="49.32549" lon="1.01613">
        <ele>120</ele>
        <time>2008-04-27T12:09:55Z</time>
      </trkpt>
      <trkpt lat="49.3256" lon="1.01633">
        <ele>121</ele>
        <time>2008-04-27T12:09:59Z</time>
      </trkpt>
      <trkpt lat="49.32569" lon="1.0165">
        <ele>121</ele>
        <time>2008-04-27T12:10:02Z</time>
      </trkpt>
      <trkpt lat="49.32576" lon="1.01665">
        <ele>121</ele>
        <time>2008-04-27T12:10:05Z</time>
      </trkpt>
      <trkpt lat="49.32583" lon="1.01684">
        <ele>122</ele>
        <time>2008-04-27T12:10:09Z</time>
      </trkpt>
      <trkpt lat="49.32588" lon="1.01703">
        <ele>122</ele>
        <time>2008-04-27T12:10:13Z</time>
      </trkpt>
      <trkpt lat="49.32597" lon="1.01722">
        <ele>122</ele>
        <time>2008-04-27T12:10:18Z</time>
      </trkpt>
      <trkpt lat="49.32608" lon="1.01742">
        <ele>122</ele>
        <time>2008-04-27T12:10:24Z</time>
      </trkpt>
      <trkpt lat="49.32616" lon="1.01761">
        <ele>123</ele>
        <time>2008-04-27T12:10:28Z</time>
      </trkpt>
      <trkpt lat="49.32626" lon="1.0178">
        <ele>123</ele>
        <time>2008-04-27T12:10:32Z</time>
      </trkpt>
      <trkpt lat="49.32633" lon="1.01807">
        <ele>123</ele>
        <time>2008-04-27T12:10:37Z</time>
      </trkpt>
      <trkpt lat="49.32646" lon="1.01828">
        <ele>124</ele>
        <time>2008-04-27T12:10:41Z</time>
      </trkpt>
      <trkpt lat="49.32654" lon="1.01845">
        <ele>124</ele>
        <time>2008-04-27T12:10:44Z</time>
      </trkpt>
      <trkpt lat="49.32661" lon="1.01864">
        <ele>124</ele>
        <time>2008-04-27T12:10:47Z</time>
      </trkpt>
      <trkpt lat="49.32665" lon="1.01882">
        <ele>124</ele>
        <time>2008-04-27T12:10:50Z</time>
      </trkpt>
      <trkpt lat="49.32668" lon="1.019">
        <ele>125</ele>
        <time>2008-04-27T12:10:53Z</time>
      </trkpt>
      <trkpt lat="49.3267" lon="1.01914">
        <ele>125</ele>
        <time>2008-04-27T12:10:56Z</time>
      </trkpt>
      <trkpt lat="49.32672" lon="1.01935">
        <ele>125</ele>
        <time>2008-04-27T12:11:00Z</time>
      </trkpt>
      <trkpt lat="49.32671" lon="1.01967">
        <ele>123</ele>
        <time>2008-04-27T12:11:03Z</time>
      </trkpt>
      <trkpt lat="49.32676" lon="1.02005">
        <ele>123</ele>
        <time>2008-04-27T12:11:08Z</time>
      </trkpt>
      <trkpt lat="49.32687" lon="1.02023">
        <ele>123</ele>
        <time>2008-04-27T12:11:13Z</time>
      </trkpt>
      <trkpt lat="49.32696" lon="1.02044">
        <ele>123</ele>
        <time>2008-04-27T12:11:17Z</time>
      </trkpt>
      <trkpt lat="49.327" lon="1.02064">
        <ele>123</ele>
        <time>2008-04-27T12:11:20Z</time>
      </trkpt>
      <trkpt lat="49.32706" lon="1.02078">
        <ele>124</ele>
        <time>2008-04-27T12:11:23Z</time>
      </trkpt>
      <trkpt lat="49.32716" lon="1.02093">
        <ele>124</ele>
        <time>2008-04-27T12:11:27Z</time>
      </trkpt>
      <trkpt lat="49.32725" lon="1.02116">
        <ele>125</ele>
        <time>2008-04-27T12:11:32Z</time>
      </trkpt>
      <trkpt lat="49.32733" lon="1.02141">
        <ele>125</ele>
        <time>2008-04-27T12:11:36Z</time>
      </trkpt>
      <trkpt lat="49.32739" lon="1.02167">
        <ele>126</ele>
        <time>2008-04-27T12:11:39Z</time>
      </trkpt>
      <trkpt lat="49.32741" lon="1.02185">
        <ele>126</ele>
        <time>2008-04-27T12:11:41Z</time>
      </trkpt>
      <trkpt lat="49.32739" lon="1.02208">
        <ele>126</ele>
        <time>2008-04-27T12:11:43Z</time>
      </trkpt>
      <trkpt lat="49.32737" lon="1.02235">
        <ele>126</ele>
        <time>2008-04-27T12:11:46Z</time>
      </trkpt>
      <trkpt lat="49.32737" lon="1.02259">
        <ele>126</ele>
        <time>2008-04-27T12:11:49Z</time>
      </trkpt>
      <trkpt lat="49.32739" lon="1.02278">
        <ele>126</ele>
        <time>2008-04-27T12:11:52Z</time>
      </trkpt>
      <trkpt lat="49.32744" lon="1.02298">
        <ele>126</ele>
        <time>2008-04-27T12:11:55Z</time>
      </trkpt>
      <trkpt lat="49.32744" lon="1.02313">
        <ele>126</ele>
        <time>2008-04-27T12:11:57Z</time>
      </trkpt>
      <trkpt lat="49.32745" lon="1.02327">
        <ele>126</ele>
        <time>2008-04-27T12:11:59Z</time>
      </trkpt>
      <trkpt lat="49.32749" lon="1.0234">
        <ele>126</ele>
        <time>2008-04-27T12:12:01Z</time>
      </trkpt>
      <trkpt lat="49.32757" lon="1.02356">
        <ele>127</ele>
        <time>2008-04-27T12:12:04Z</time>
      </trkpt>
      <trkpt lat="49.32765" lon="1.02373">
        <ele>127</ele>
        <time>2008-04-27T12:12:07Z</time>
      </trkpt>
      <trkpt lat="49.32766" lon="1.02393">
        <ele>127</ele>
        <time>2008-04-27T12:12:10Z</time>
      </trkpt>
      <trkpt lat="49.32765" lon="1.02408">
        <ele>127</ele>
        <time>2008-04-27T12:12:12Z</time>
      </trkpt>
      <trkpt lat="49.32765" lon="1.02423">
        <ele>127</ele>
        <time>2008-04-27T12:12:14Z</time>
      </trkpt>
      <trkpt lat="49.32765" lon="1.02438">
        <ele>127</ele>
        <time>2008-04-27T12:12:16Z</time>
      </trkpt>
      <trkpt lat="49.32767" lon="1.02453">
        <ele>127</ele>
        <time>2008-04-27T12:12:18Z</time>
      </trkpt>
      <trkpt lat="49.32769" lon="1.02473">
        <ele>128</ele>
        <time>2008-04-27T12:12:21Z</time>
      </trkpt>
      <trkpt lat="49.32771" lon="1.02488">
        <ele>127</ele>
        <time>2008-04-27T12:12:23Z</time>
      </trkpt>
      <trkpt lat="49.32774" lon="1.02502">
        <ele>127</ele>
        <time>2008-04-27T12:12:25Z</time>
      </trkpt>
      <trkpt lat="49.32778" lon="1.02519">
        <ele>126</ele>
        <time>2008-04-27T12:12:28Z</time>
      </trkpt>
      <trkpt lat="49.32786" lon="1.02532">
        <ele>125</ele>
        <time>2008-04-27T12:12:31Z</time>
      </trkpt>
      <trkpt lat="49.32796" lon="1.02543">
        <ele>126</ele>
        <time>2008-04-27T12:12:34Z</time>
      </trkpt>
      <trkpt lat="49.32804" lon="1.02559">
        <ele>126</ele>
        <time>2008-04-27T12:12:38Z</time>
      </trkpt>
      <trkpt lat="49.32812" lon="1.0258">
        <ele>126</ele>
        <time>2008-04-27T12:12:42Z</time>
      </trkpt>
      <trkpt lat="49.32819" lon="1.02598">
        <ele>126</ele>
        <time>2008-04-27T12:12:45Z</time>
      </trkpt>
      <trkpt lat="49.32826" lon="1.02612">
        <ele>126</ele>
        <time>2008-04-27T12:12:48Z</time>
      </trkpt>
      <trkpt lat="49.32834" lon="1.02629">
        <ele>126</ele>
        <time>2008-04-27T12:12:51Z</time>
      </trkpt>
      <trkpt lat="49.32842" lon="1.02648">
        <ele>125</ele>
        <time>2008-04-27T12:12:54Z</time>
      </trkpt>
      <trkpt lat="49.32849" lon="1.02671">
        <ele>125</ele>
        <time>2008-04-27T12:12:57Z</time>
      </trkpt>
      <trkpt lat="49.32853" lon="1.0269">
        <ele>125</ele>
        <time>2008-04-27T12:12:59Z</time>
      </trkpt>
      <trkpt lat="49.32854" lon="1.02705">
        <ele>125</ele>
        <time>2008-04-27T12:13:01Z</time>
      </trkpt>
      <trkpt lat="49.32857" lon="1.02722">
        <ele>125</ele>
        <time>2008-04-27T12:13:04Z</time>
      </trkpt>
      <trkpt lat="49.32866" lon="1.02736">
        <ele>126</ele>
        <time>2008-04-27T12:13:07Z</time>
      </trkpt>
      <trkpt lat="49.32878" lon="1.02751">
        <ele>126</ele>
        <time>2008-04-27T12:13:10Z</time>
      </trkpt>
      <trkpt lat="49.32891" lon="1.02761">
        <ele>127</ele>
        <time>2008-04-27T12:13:13Z</time>
      </trkpt>
      <trkpt lat="49.32902" lon="1.02776">
        <ele>127</ele>
        <time>2008-04-27T12:13:16Z</time>
      </trkpt>
      <trkpt lat="49.32911" lon="1.02789">
        <ele>127</ele>
        <time>2008-04-27T12:13:19Z</time>
      </trkpt>
      <trkpt lat="49.32912" lon="1.02805">
        <ele>127</ele>
        <time>2008-04-27T12:13:22Z</time>
      </trkpt>
      <trkpt lat="49.32907" lon="1.02821">
        <ele>127</ele>
        <time>2008-04-27T12:13:25Z</time>
      </trkpt>
      <trkpt lat="49.32905" lon="1.02841">
        <ele>127</ele>
        <time>2008-04-27T12:13:28Z</time>
      </trkpt>
      <trkpt lat="49.32902" lon="1.02859">
        <ele>127</ele>
        <time>2008-04-27T12:13:31Z</time>
      </trkpt>
      <trkpt lat="49.32899" lon="1.02873">
        <ele>127</ele>
        <time>2008-04-27T12:13:34Z</time>
      </trkpt>
      <trkpt lat="49.32892" lon="1.02884">
        <ele>127</ele>
        <time>2008-04-27T12:13:37Z</time>
      </trkpt>
      <trkpt lat="49.32881" lon="1.0289">
        <ele>127</ele>
        <time>2008-04-27T12:13:40Z</time>
      </trkpt>
      <trkpt lat="49.32869" lon="1.02894">
        <ele>127</ele>
        <time>2008-04-27T12:13:43Z</time>
      </trkpt>
      <trkpt lat="49.32856" lon="1.02902">
        <ele>126</ele>
        <time>2008-04-27T12:13:46Z</time>
      </trkpt>
      <trkpt lat="49.32846" lon="1.02913">
        <ele>126</ele>
        <time>2008-04-27T12:13:49Z</time>
      </trkpt>
      <trkpt lat="49.32836" lon="1.02922">
        <ele>126</ele>
        <time>2008-04-27T12:13:52Z</time>
      </trkpt>
      <trkpt lat="49.32827" lon="1.02932">
        <ele>125</ele>
        <time>2008-04-27T12:13:55Z</time>
      </trkpt>
      <trkpt lat="49.32822" lon="1.02951">
        <ele>125</ele>
        <time>2008-04-27T12:13:58Z</time>
      </trkpt>
      <trkpt lat="49.32824" lon="1.0297">
        <ele>125</ele>
        <time>2008-04-27T12:14:01Z</time>
      </trkpt>
      <trkpt lat="49.32827" lon="1.02989">
        <ele>125</ele>
        <time>2008-04-27T12:14:04Z</time>
      </trkpt>
      <trkpt lat="49.32827" lon="1.03007">
        <ele>125</ele>
        <time>2008-04-27T12:14:07Z</time>
      </trkpt>
      <trkpt lat="49.32825" lon="1.03025">
        <ele>125</ele>
        <time>2008-04-27T12:14:10Z</time>
      </trkpt>
      <trkpt lat="49.32827" lon="1.03043">
        <ele>125</ele>
        <time>2008-04-27T12:14:13Z</time>
      </trkpt>
      <trkpt lat="49.32829" lon="1.03062">
        <ele>125</ele>
        <time>2008-04-27T12:14:16Z</time>
      </trkpt>
      <trkpt lat="49.32832" lon="1.03082">
        <ele>124</ele>
        <time>2008-04-27T12:14:19Z</time>
      </trkpt>
      <trkpt lat="49.32839" lon="1.031">
        <ele>124</ele>
        <time>2008-04-27T12:14:22Z</time>
      </trkpt>
      <trkpt lat="49.32849" lon="1.03115">
        <ele>124</ele>
        <time>2008-04-27T12:14:25Z</time>
      </trkpt>
      <trkpt lat="49.32857" lon="1.03132">
        <ele>124</ele>
        <time>2008-04-27T12:14:28Z</time>
      </trkpt>
      <trkpt lat="49.32863" lon="1.0315">
        <ele>124</ele>
        <time>2008-04-27T12:14:31Z</time>
      </trkpt>
      <trkpt lat="49.32868" lon="1.03167">
        <ele>124</ele>
        <time>2008-04-27T12:14:34Z</time>
      </trkpt>
      <trkpt lat="49.32878" lon="1.03182">
        <ele>124</ele>
        <time>2008-04-27T12:14:37Z</time>
      </trkpt>
      <trkpt lat="49.32886" lon="1.03198">
        <ele>124</ele>
        <time>2008-04-27T12:14:40Z</time>
      </trkpt>
      <trkpt lat="49.32889" lon="1.03219">
        <ele>124</ele>
        <time>2008-04-27T12:14:43Z</time>
      </trkpt>
      <trkpt lat="49.32886" lon="1.03241">
        <ele>124</ele>
        <time>2008-04-27T12:14:46Z</time>
      </trkpt>
      <trkpt lat="49.32883" lon="1.03262">
        <ele>124</ele>
        <time>2008-04-27T12:14:49Z</time>
      </trkpt>
      <trkpt lat="49.32883" lon="1.03277">
        <ele>124</ele>
        <time>2008-04-27T12:14:51Z</time>
      </trkpt>
      <trkpt lat="49.32883" lon="1.03292">
        <ele>124</ele>
        <time>2008-04-27T12:14:53Z</time>
      </trkpt>
      <trkpt lat="49.3288" lon="1.03306">
        <ele>124</ele>
        <time>2008-04-27T12:14:55Z</time>
      </trkpt>
      <trkpt lat="49.32876" lon="1.03326">
        <ele>124</ele>
        <time>2008-04-27T12:14:58Z</time>
      </trkpt>
      <trkpt lat="49.32873" lon="1.03345">
        <ele>124</ele>
        <time>2008-04-27T12:15:01Z</time>
      </trkpt>
      <trkpt lat="49.32871" lon="1.03359">
        <ele>124</ele>
        <time>2008-04-27T12:15:03Z</time>
      </trkpt>
      <trkpt lat="49.32872" lon="1.0338">
        <ele>124</ele>
        <time>2008-04-27T12:15:06Z</time>
      </trkpt>
      <trkpt lat="49.32868" lon="1.03398">
        <ele>123</ele>
        <time>2008-04-27T12:15:09Z</time>
      </trkpt>
      <trkpt lat="49.32867" lon="1.03414">
        <ele>123</ele>
        <time>2008-04-27T12:15:12Z</time>
      </trkpt>
      <trkpt lat="49.32873" lon="1.03429">
        <ele>123</ele>
        <time>2008-04-27T12:15:15Z</time>
      </trkpt>
      <trkpt lat="49.32879" lon="1.03445">
        <ele>123</ele>
        <time>2008-04-27T12:15:18Z</time>
      </trkpt>
      <trkpt lat="49.32885" lon="1.03465">
        <ele>123</ele>
        <time>2008-04-27T12:15:21Z</time>
      </trkpt>
      <trkpt lat="49.32888" lon="1.03479">
        <ele>123</ele>
        <time>2008-04-27T12:15:23Z</time>
      </trkpt>
      <trkpt lat="49.32891" lon="1.03493">
        <ele>123</ele>
        <time>2008-04-27T12:15:25Z</time>
      </trkpt>
      <trkpt lat="49.32898" lon="1.03511">
        <ele>124</ele>
        <time>2008-04-27T12:15:28Z</time>
      </trkpt>
      <trkpt lat="49.32903" lon="1.03529">
        <ele>124</ele>
        <time>2008-04-27T12:15:31Z</time>
      </trkpt>
      <trkpt lat="49.32906" lon="1.03548">
        <ele>124</ele>
        <time>2008-04-27T12:15:34Z</time>
      </trkpt>
      <trkpt lat="49.32909" lon="1.0357">
        <ele>125</ele>
        <time>2008-04-27T12:15:37Z</time>
      </trkpt>
      <trkpt lat="49.32907" lon="1.0359">
        <ele>125</ele>
        <time>2008-04-27T12:15:40Z</time>
      </trkpt>
      <trkpt lat="49.32903" lon="1.03608">
        <ele>124</ele>
        <time>2008-04-27T12:15:43Z</time>
      </trkpt>
      <trkpt lat="49.32903" lon="1.03625">
        <ele>124</ele>
        <time>2008-04-27T12:15:46Z</time>
      </trkpt>
      <trkpt lat="49.32915" lon="1.03632">
        <ele>125</ele>
        <time>2008-04-27T12:15:49Z</time>
      </trkpt>
      <trkpt lat="49.32928" lon="1.03636">
        <ele>125</ele>
        <time>2008-04-27T12:15:52Z</time>
      </trkpt>
      <trkpt lat="49.32942" lon="1.03637">
        <ele>126</ele>
        <time>2008-04-27T12:15:55Z</time>
      </trkpt>
      <trkpt lat="49.32957" lon="1.03658">
        <ele>126</ele>
        <time>2008-04-27T12:16:00Z</time>
      </trkpt>
      <trkpt lat="49.3296" lon="1.03686">
        <ele>126</ele>
        <time>2008-04-27T12:16:05Z</time>
      </trkpt>
      <trkpt lat="49.32962" lon="1.03711">
        <ele>127</ele>
        <time>2008-04-27T12:16:09Z</time>
      </trkpt>
      <trkpt lat="49.32967" lon="1.03736">
        <ele>127</ele>
        <time>2008-04-27T12:16:13Z</time>
      </trkpt>
      <trkpt lat="49.32968" lon="1.03761">
        <ele>128</ele>
        <time>2008-04-27T12:16:17Z</time>
      </trkpt>
      <trkpt lat="49.32969" lon="1.03779">
        <ele>128</ele>
        <time>2008-04-27T12:16:21Z</time>
      </trkpt>
      <trkpt lat="49.32971" lon="1.03796">
        <ele>128</ele>
        <time>2008-04-27T12:16:26Z</time>
      </trkpt>
      <trkpt lat="49.32969" lon="1.03814">
        <ele>128</ele>
        <time>2008-04-27T12:16:30Z</time>
      </trkpt>
      <trkpt lat="49.32969" lon="1.03836">
        <ele>128</ele>
        <time>2008-04-27T12:16:33Z</time>
      </trkpt>
      <trkpt lat="49.32969" lon="1.03854">
        <ele>128</ele>
        <time>2008-04-27T12:16:36Z</time>
      </trkpt>
      <trkpt lat="49.32969" lon="1.03872">
        <ele>128</ele>
        <time>2008-04-27T12:16:40Z</time>
      </trkpt>
      <trkpt lat="49.32985" lon="1.03867">
        <ele>128</ele>
        <time>2008-04-27T12:16:44Z</time>
      </trkpt>
      <trkpt lat="49.33" lon="1.03864">
        <ele>127</ele>
        <time>2008-04-27T12:16:48Z</time>
      </trkpt>
      <trkpt lat="49.33016" lon="1.03855">
        <ele>127</ele>
        <time>2008-04-27T12:16:53Z</time>
      </trkpt>
      <trkpt lat="49.33036" lon="1.03845">
        <ele>125</ele>
        <time>2008-04-27T12:17:00Z</time>
      </trkpt>
      <trkpt lat="49.3305" lon="1.0383">
        <ele>124</ele>
        <time>2008-04-27T12:17:06Z</time>
      </trkpt>
      <trkpt lat="49.33065" lon="1.03821">
        <ele>124</ele>
        <time>2008-04-27T12:17:11Z</time>
      </trkpt>
      <trkpt lat="49.33082" lon="1.03809">
        <ele>123</ele>
        <time>2008-04-27T12:17:16Z</time>
      </trkpt>
      <trkpt lat="49.33096" lon="1.038">
        <ele>123</ele>
        <time>2008-04-27T12:17:20Z</time>
      </trkpt>
      <trkpt lat="49.3311" lon="1.03793">
        <ele>123</ele>
        <time>2008-04-27T12:17:23Z</time>
      </trkpt>
      <trkpt lat="49.33129" lon="1.03795">
        <ele>122</ele>
        <time>2008-04-27T12:17:27Z</time>
      </trkpt>
      <trkpt lat="49.33193" lon="1.03811">
        <ele>120</ele>
        <time>2008-04-27T12:22:20Z</time>
      </trkpt>
      <trkpt lat="49.332" lon="1.03826">
        <ele>120</ele>
        <time>2008-04-27T12:22:25Z</time>
      </trkpt>
      <trkpt lat="49.33206" lon="1.03842">
        <ele>120</ele>
        <time>2008-04-27T12:22:29Z</time>
      </trkpt>
      <trkpt lat="49.33211" lon="1.03858">
        <ele>120</ele>
        <time>2008-04-27T12:22:33Z</time>
      </trkpt>
      <trkpt lat="49.33215" lon="1.03874">
        <ele>120</ele>
        <time>2008-04-27T12:22:36Z</time>
      </trkpt>
      <trkpt lat="49.33221" lon="1.03889">
        <ele>120</ele>
        <time>2008-04-27T12:22:39Z</time>
      </trkpt>
      <trkpt lat="49.33224" lon="1.03903">
        <ele>120</ele>
        <time>2008-04-27T12:22:42Z</time>
      </trkpt>
      <trkpt lat="49.33228" lon="1.0392">
        <ele>120</ele>
        <time>2008-04-27T12:22:45Z</time>
      </trkpt>
      <trkpt lat="49.33231" lon="1.03939">
        <ele>120</ele>
        <time>2008-04-27T12:22:48Z</time>
      </trkpt>
      <trkpt lat="49.33234" lon="1.03958">
        <ele>120</ele>
        <time>2008-04-27T12:22:51Z</time>
      </trkpt>
      <trkpt lat="49.33236" lon="1.03977">
        <ele>120</ele>
        <time>2008-04-27T12:22:54Z</time>
      </trkpt>
      <trkpt lat="49.33239" lon="1.03996">
        <ele>120</ele>
        <time>2008-04-27T12:22:57Z</time>
      </trkpt>
      <trkpt lat="49.33241" lon="1.04016">
        <ele>120</ele>
        <time>2008-04-27T12:23:00Z</time>
      </trkpt>
      <trkpt lat="49.33242" lon="1.04037">
        <ele>121</ele>
        <time>2008-04-27T12:23:03Z</time>
      </trkpt>
      <trkpt lat="49.33241" lon="1.04056">
        <ele>121</ele>
        <time>2008-04-27T12:23:06Z</time>
      </trkpt>
      <trkpt lat="49.33242" lon="1.04075">
        <ele>121</ele>
        <time>2008-04-27T12:23:09Z</time>
      </trkpt>
      <trkpt lat="49.33242" lon="1.04095">
        <ele>122</ele>
        <time>2008-04-27T12:23:12Z</time>
      </trkpt>
      <trkpt lat="49.33242" lon="1.04116">
        <ele>122</ele>
        <time>2008-04-27T12:23:15Z</time>
      </trkpt>
      <trkpt lat="49.3324" lon="1.04137">
        <ele>122</ele>
        <time>2008-04-27T12:23:18Z</time>
      </trkpt>
      <trkpt lat="49.33238" lon="1.04157">
        <ele>123</ele>
        <time>2008-04-27T12:23:21Z</time>
      </trkpt>
      <trkpt lat="49.33237" lon="1.04177">
        <ele>123</ele>
        <time>2008-04-27T12:23:24Z</time>
      </trkpt>
      <trkpt lat="49.33237" lon="1.04192">
        <ele>123</ele>
        <time>2008-04-27T12:23:26Z</time>
      </trkpt>
      <trkpt lat="49.33237" lon="1.04206">
        <ele>123</ele>
        <time>2008-04-27T12:23:28Z</time>
      </trkpt>
      <trkpt lat="49.33236" lon="1.04221">
        <ele>123</ele>
        <time>2008-04-27T12:23:30Z</time>
      </trkpt>
      <trkpt lat="49.33237" lon="1.04242">
        <ele>123</ele>
        <time>2008-04-27T12:23:33Z</time>
      </trkpt>
      <trkpt lat="49.33236" lon="1.04263">
        <ele>123</ele>
        <time>2008-04-27T12:23:36Z</time>
      </trkpt>
      <trkpt lat="49.33239" lon="1.04285">
        <ele>123</ele>
        <time>2008-04-27T12:23:39Z</time>
      </trkpt>
      <trkpt lat="49.33241" lon="1.043">
        <ele>123</ele>
        <time>2008-04-27T12:23:41Z</time>
      </trkpt>
      <trkpt lat="49.33242" lon="1.04315">
        <ele>123</ele>
        <time>2008-04-27T12:23:43Z</time>
      </trkpt>
      <trkpt lat="49.33243" lon="1.0433">
        <ele>123</ele>
        <time>2008-04-27T12:23:45Z</time>
      </trkpt>
      <trkpt lat="49.33245" lon="1.04345">
        <ele>123</ele>
        <time>2008-04-27T12:23:47Z</time>
      </trkpt>
      <trkpt lat="49.33246" lon="1.0436">
        <ele>123</ele>
        <time>2008-04-27T12:23:49Z</time>
      </trkpt>
      <trkpt lat="49.33247" lon="1.04374">
        <ele>123</ele>
        <time>2008-04-27T12:23:51Z</time>
      </trkpt>
      <trkpt lat="49.33247" lon="1.04389">
        <ele>123</ele>
        <time>2008-04-27T12:23:53Z</time>
      </trkpt>
      <trkpt lat="49.33246" lon="1.04403">
        <ele>123</ele>
        <time>2008-04-27T12:23:55Z</time>
      </trkpt>
      <trkpt lat="49.33245" lon="1.04418">
        <ele>123</ele>
        <time>2008-04-27T12:23:57Z</time>
      </trkpt>
      <trkpt lat="49.33245" lon="1.04433">
        <ele>122</ele>
        <time>2008-04-27T12:23:59Z</time>
      </trkpt>
      <trkpt lat="49.33245" lon="1.04448">
        <ele>122</ele>
        <time>2008-04-27T12:24:01Z</time>
      </trkpt>
      <trkpt lat="49.33244" lon="1.04464">
        <ele>122</ele>
        <time>2008-04-27T12:24:03Z</time>
      </trkpt>
      <trkpt lat="49.33245" lon="1.04479">
        <ele>122</ele>
        <time>2008-04-27T12:24:05Z</time>
      </trkpt>
      <trkpt lat="49.33245" lon="1.04494">
        <ele>122</ele>
        <time>2008-04-27T12:24:07Z</time>
      </trkpt>
      <trkpt lat="49.33247" lon="1.04509">
        <ele>122</ele>
        <time>2008-04-27T12:24:09Z</time>
      </trkpt>
      <trkpt lat="49.33249" lon="1.04523">
        <ele>122</ele>
        <time>2008-04-27T12:24:11Z</time>
      </trkpt>
      <trkpt lat="49.33254" lon="1.04536">
        <ele>122</ele>
        <time>2008-04-27T12:24:13Z</time>
      </trkpt>
      <trkpt lat="49.33258" lon="1.04549">
        <ele>122</ele>
        <time>2008-04-27T12:24:15Z</time>
      </trkpt>
      <trkpt lat="49.33264" lon="1.04563">
        <ele>122</ele>
        <time>2008-04-27T12:24:17Z</time>
      </trkpt>
      <trkpt lat="49.3327" lon="1.04577">
        <ele>121</ele>
        <time>2008-04-27T12:24:19Z</time>
      </trkpt>
      <trkpt lat="49.33275" lon="1.0459">
        <ele>121</ele>
        <time>2008-04-27T12:24:21Z</time>
      </trkpt>
      <trkpt lat="49.3328" lon="1.04603">
        <ele>121</ele>
        <time>2008-04-27T12:24:23Z</time>
      </trkpt>
      <trkpt lat="49.33286" lon="1.04616">
        <ele>121</ele>
        <time>2008-04-27T12:24:25Z</time>
      </trkpt>
      <trkpt lat="49.33292" lon="1.04629">
        <ele>121</ele>
        <time>2008-04-27T12:24:27Z</time>
      </trkpt>
      <trkpt lat="49.33297" lon="1.04643">
        <ele>121</ele>
        <time>2008-04-27T12:24:29Z</time>
      </trkpt>
      <trkpt lat="49.33303" lon="1.04656">
        <ele>121</ele>
        <time>2008-04-27T12:24:31Z</time>
      </trkpt>
      <trkpt lat="49.33308" lon="1.0467">
        <ele>121</ele>
        <time>2008-04-27T12:24:33Z</time>
      </trkpt>
      <trkpt lat="49.33312" lon="1.04685">
        <ele>121</ele>
        <time>2008-04-27T12:24:35Z</time>
      </trkpt>
      <trkpt lat="49.33315" lon="1.047">
        <ele>120</ele>
        <time>2008-04-27T12:24:37Z</time>
      </trkpt>
      <trkpt lat="49.33317" lon="1.04715">
        <ele>120</ele>
        <time>2008-04-27T12:24:39Z</time>
      </trkpt>
      <trkpt lat="49.33319" lon="1.0473">
        <ele>120</ele>
        <time>2008-04-27T12:24:41Z</time>
      </trkpt>
      <trkpt lat="49.3332" lon="1.04746">
        <ele>120</ele>
        <time>2008-04-27T12:24:43Z</time>
      </trkpt>
      <trkpt lat="49.33319" lon="1.04762">
        <ele>120</ele>
        <time>2008-04-27T12:24:45Z</time>
      </trkpt>
      <trkpt lat="49.33319" lon="1.04777">
        <ele>120</ele>
        <time>2008-04-27T12:24:47Z</time>
      </trkpt>
      <trkpt lat="49.33319" lon="1.04793">
        <ele>120</ele>
        <time>2008-04-27T12:24:49Z</time>
      </trkpt>
      <trkpt lat="49.33318" lon="1.04808">
        <ele>120</ele>
        <time>2008-04-27T12:24:51Z</time>
      </trkpt>
      <trkpt lat="49.33316" lon="1.04824">
        <ele>120</ele>
        <time>2008-04-27T12:24:53Z</time>
      </trkpt>
      <trkpt lat="49.33314" lon="1.04839">
        <ele>121</ele>
        <time>2008-04-27T12:24:55Z</time>
      </trkpt>
      <trkpt lat="49.33311" lon="1.04854">
        <ele>121</ele>
        <time>2008-04-27T12:24:57Z</time>
      </trkpt>
      <trkpt lat="49.3331" lon="1.0487">
        <ele>121</ele>
        <time>2008-04-27T12:24:59Z</time>
      </trkpt>
      <trkpt lat="49.33308" lon="1.04886">
        <ele>121</ele>
        <time>2008-04-27T12:25:01Z</time>
      </trkpt>
      <trkpt lat="49.33307" lon="1.04903">
        <ele>121</ele>
        <time>2008-04-27T12:25:03Z</time>
      </trkpt>
      <trkpt lat="49.33306" lon="1.0492">
        <ele>121</ele>
        <time>2008-04-27T12:25:05Z</time>
      </trkpt>
      <trkpt lat="49.33305" lon="1.04937">
        <ele>121</ele>
        <time>2008-04-27T12:25:07Z</time>
      </trkpt>
      <trkpt lat="49.33304" lon="1.04954">
        <ele>121</ele>
        <time>2008-04-27T12:25:09Z</time>
      </trkpt>
      <trkpt lat="49.33302" lon="1.04971">
        <ele>121</ele>
        <time>2008-04-27T12:25:11Z</time>
      </trkpt>
      <trkpt lat="49.33302" lon="1.04987">
        <ele>121</ele>
        <time>2008-04-27T12:25:13Z</time>
      </trkpt>
      <trkpt lat="49.33302" lon="1.05003">
        <ele>121</ele>
        <time>2008-04-27T12:25:15Z</time>
      </trkpt>
      <trkpt lat="49.33308" lon="1.05016">
        <ele>121</ele>
        <time>2008-04-27T12:25:18Z</time>
      </trkpt>
      <trkpt lat="49.3332" lon="1.05013">
        <ele>120</ele>
        <time>2008-04-27T12:25:21Z</time>
      </trkpt>
      <trkpt lat="49.33333" lon="1.05009">
        <ele>120</ele>
        <time>2008-04-27T12:25:25Z</time>
      </trkpt>
      <trkpt lat="49.33346" lon="1.05003">
        <ele>120</ele>
        <time>2008-04-27T12:25:28Z</time>
      </trkpt>
      <trkpt lat="49.33359" lon="1.04997">
        <ele>120</ele>
        <time>2008-04-27T12:25:31Z</time>
      </trkpt>
      <trkpt lat="49.33374" lon="1.04984">
        <ele>119</ele>
        <time>2008-04-27T12:25:34Z</time>
      </trkpt>
      <trkpt lat="49.33384" lon="1.04977">
        <ele>119</ele>
        <time>2008-04-27T12:25:36Z</time>
      </trkpt>
      <trkpt lat="49.33394" lon="1.04968">
        <ele>119</ele>
        <time>2008-04-27T12:25:38Z</time>
      </trkpt>
      <trkpt lat="49.33406" lon="1.04956">
        <ele>119</ele>
        <time>2008-04-27T12:25:41Z</time>
      </trkpt>
      <trkpt lat="49.33417" lon="1.04949">
        <ele>118</ele>
        <time>2008-04-27T12:25:43Z</time>
      </trkpt>
      <trkpt lat="49.33428" lon="1.04946">
        <ele>118</ele>
        <time>2008-04-27T12:25:45Z</time>
      </trkpt>
      <trkpt lat="49.33439" lon="1.04942">
        <ele>118</ele>
        <time>2008-04-27T12:25:47Z</time>
      </trkpt>
      <trkpt lat="49.33452" lon="1.04937">
        <ele>117</ele>
        <time>2008-04-27T12:25:49Z</time>
      </trkpt>
      <trkpt lat="49.33463" lon="1.04929">
        <ele>117</ele>
        <time>2008-04-27T12:25:51Z</time>
      </trkpt>
      <trkpt lat="49.33472" lon="1.04911">
        <ele>116</ele>
        <time>2008-04-27T12:25:53Z</time>
      </trkpt>
      <trkpt lat="49.33481" lon="1.0489">
        <ele>115</ele>
        <time>2008-04-27T12:25:55Z</time>
      </trkpt>
      <trkpt lat="49.33491" lon="1.04864">
        <ele>113</ele>
        <time>2008-04-27T12:25:57Z</time>
      </trkpt>
      <trkpt lat="49.33502" lon="1.04839">
        <ele>110</ele>
        <time>2008-04-27T12:25:59Z</time>
      </trkpt>
      <trkpt lat="49.33512" lon="1.04819">
        <ele>108</ele>
        <time>2008-04-27T12:26:01Z</time>
      </trkpt>
      <trkpt lat="49.33518" lon="1.04803">
        <ele>105</ele>
        <time>2008-04-27T12:26:03Z</time>
      </trkpt>
      <trkpt lat="49.33529" lon="1.04804">
        <ele>103</ele>
        <time>2008-04-27T12:26:06Z</time>
      </trkpt>
      <trkpt lat="49.3354" lon="1.04811">
        <ele>102</ele>
        <time>2008-04-27T12:26:10Z</time>
      </trkpt>
      <trkpt lat="49.33544" lon="1.04841">
        <ele>104</ele>
        <time>2008-04-27T12:26:16Z</time>
      </trkpt>
      <trkpt lat="49.33549" lon="1.04864">
        <ele>106</ele>
        <time>2008-04-27T12:26:20Z</time>
      </trkpt>
      <trkpt lat="49.33553" lon="1.04877">
        <ele>106</ele>
        <time>2008-04-27T12:26:23Z</time>
      </trkpt>
      <trkpt lat="49.3356" lon="1.04893">
        <ele>107</ele>
        <time>2008-04-27T12:26:26Z</time>
      </trkpt>
      <trkpt lat="49.33572" lon="1.04905">
        <ele>106</ele>
        <time>2008-04-27T12:26:29Z</time>
      </trkpt>
      <trkpt lat="49.3359" lon="1.04914">
        <ele>105</ele>
        <time>2008-04-27T12:26:32Z</time>
      </trkpt>
      <trkpt lat="49.33607" lon="1.04916">
        <ele>103</ele>
        <time>2008-04-27T12:26:35Z</time>
      </trkpt>
      <trkpt lat="49.3362" lon="1.04931">
        <ele>102</ele>
        <time>2008-04-27T12:26:38Z</time>
      </trkpt>
      <trkpt lat="49.33629" lon="1.04953">
        <ele>102</ele>
        <time>2008-04-27T12:26:42Z</time>
      </trkpt>
      <trkpt lat="49.33643" lon="1.04999">
        <ele>103</ele>
        <time>2008-04-27T12:26:49Z</time>
      </trkpt>
      <trkpt lat="49.33651" lon="1.0503">
        <ele>103</ele>
        <time>2008-04-27T12:26:52Z</time>
      </trkpt>
      <trkpt lat="49.33658" lon="1.05063">
        <ele>103</ele>
        <time>2008-04-27T12:26:55Z</time>
      </trkpt>
      <trkpt lat="49.33662" lon="1.05082">
        <ele>102</ele>
        <time>2008-04-27T12:26:57Z</time>
      </trkpt>
      <trkpt lat="49.33814" lon="1.05186">
        <ele>70</ele>
        <time>2008-04-27T12:27:10Z</time>
      </trkpt>
      <trkpt lat="49.33823" lon="1.0517">
        <ele>70</ele>
        <time>2008-04-27T12:27:13Z</time>
      </trkpt>
      <trkpt lat="49.33824" lon="1.05161">
        <ele>71</ele>
        <time>2008-04-27T12:27:17Z</time>
      </trkpt>
      <trkpt lat="49.33827" lon="1.05175">
        <ele>70</ele>
        <time>2008-04-27T12:27:20Z</time>
      </trkpt>
      <trkpt lat="49.33831" lon="1.05195">
        <ele>68</ele>
        <time>2008-04-27T12:27:23Z</time>
      </trkpt>
      <trkpt lat="49.33838" lon="1.05218">
        <ele>67</ele>
        <time>2008-04-27T12:27:26Z</time>
      </trkpt>
      <trkpt lat="49.33841" lon="1.05237">
        <ele>67</ele>
        <time>2008-04-27T12:27:28Z</time>
      </trkpt>
      <trkpt lat="49.33842" lon="1.05258">
        <ele>67</ele>
        <time>2008-04-27T12:27:30Z</time>
      </trkpt>
      <trkpt lat="49.33841" lon="1.05282">
        <ele>66</ele>
        <time>2008-04-27T12:27:32Z</time>
      </trkpt>
      <trkpt lat="49.33843" lon="1.05303">
        <ele>67</ele>
        <time>2008-04-27T12:27:34Z</time>
      </trkpt>
      <trkpt lat="49.33846" lon="1.05324">
        <ele>68</ele>
        <time>2008-04-27T12:27:36Z</time>
      </trkpt>
      <trkpt lat="49.33853" lon="1.05342">
        <ele>68</ele>
        <time>2008-04-27T12:27:38Z</time>
      </trkpt>
      <trkpt lat="49.33858" lon="1.0536">
        <ele>68</ele>
        <time>2008-04-27T12:27:40Z</time>
      </trkpt>
      <trkpt lat="49.33863" lon="1.05378">
        <ele>68</ele>
        <time>2008-04-27T12:27:42Z</time>
      </trkpt>
      <trkpt lat="49.3387" lon="1.05396">
        <ele>68</ele>
        <time>2008-04-27T12:27:44Z</time>
      </trkpt>
      <trkpt lat="49.33874" lon="1.05413">
        <ele>67</ele>
        <time>2008-04-27T12:27:46Z</time>
      </trkpt>
      <trkpt lat="49.3388" lon="1.0543">
        <ele>68</ele>
        <time>2008-04-27T12:27:48Z</time>
      </trkpt>
      <trkpt lat="49.33889" lon="1.05446">
        <ele>68</ele>
        <time>2008-04-27T12:27:50Z</time>
      </trkpt>
      <trkpt lat="49.33902" lon="1.05464">
        <ele>68</ele>
        <time>2008-04-27T12:27:53Z</time>
      </trkpt>
      <trkpt lat="49.33915" lon="1.05469">
        <ele>67</ele>
        <time>2008-04-27T12:27:55Z</time>
      </trkpt>
      <trkpt lat="49.33928" lon="1.05477">
        <ele>65</ele>
        <time>2008-04-27T12:27:57Z</time>
      </trkpt>
      <trkpt lat="49.33942" lon="1.05486">
        <ele>65</ele>
        <time>2008-04-27T12:27:59Z</time>
      </trkpt>
      <trkpt lat="49.33955" lon="1.05491">
        <ele>64</ele>
        <time>2008-04-27T12:28:01Z</time>
      </trkpt>
      <trkpt lat="49.33971" lon="1.05492">
        <ele>62</ele>
        <time>2008-04-27T12:28:03Z</time>
      </trkpt>
      <trkpt lat="49.33985" lon="1.05494">
        <ele>62</ele>
        <time>2008-04-27T12:28:05Z</time>
      </trkpt>
      <trkpt lat="49.33998" lon="1.05495">
        <ele>63</ele>
        <time>2008-04-27T12:28:07Z</time>
      </trkpt>
      <trkpt lat="49.34009" lon="1.05499">
        <ele>63</ele>
        <time>2008-04-27T12:28:09Z</time>
      </trkpt>
      <trkpt lat="49.34022" lon="1.05497">
        <ele>64</ele>
        <time>2008-04-27T12:28:11Z</time>
      </trkpt>
      <trkpt lat="49.34031" lon="1.05496">
        <ele>64</ele>
        <time>2008-04-27T12:28:13Z</time>
      </trkpt>
      <trkpt lat="49.34039" lon="1.05509">
        <ele>64</ele>
        <time>2008-04-27T12:28:18Z</time>
      </trkpt>
      <trkpt lat="49.34047" lon="1.05525">
        <ele>62</ele>
        <time>2008-04-27T12:28:22Z</time>
      </trkpt>
      <trkpt lat="49.34063" lon="1.05537">
        <ele>61</ele>
        <time>2008-04-27T12:28:25Z</time>
      </trkpt>
      <trkpt lat="49.34074" lon="1.05549">
        <ele>62</ele>
        <time>2008-04-27T12:28:27Z</time>
      </trkpt>
      <trkpt lat="49.34084" lon="1.05562">
        <ele>64</ele>
        <time>2008-04-27T12:28:29Z</time>
      </trkpt>
      <trkpt lat="49.34092" lon="1.0558">
        <ele>64</ele>
        <time>2008-04-27T12:28:31Z</time>
      </trkpt>
      <trkpt lat="49.341" lon="1.05598">
        <ele>63</ele>
        <time>2008-04-27T12:28:33Z</time>
      </trkpt>
      <trkpt lat="49.34109" lon="1.05619">
        <ele>61</ele>
        <time>2008-04-27T12:28:35Z</time>
      </trkpt>
      <trkpt lat="49.34118" lon="1.05642">
        <ele>61</ele>
        <time>2008-04-27T12:28:37Z</time>
      </trkpt>
      <trkpt lat="49.34128" lon="1.05665">
        <ele>61</ele>
        <time>2008-04-27T12:28:39Z</time>
      </trkpt>
      <trkpt lat="49.34139" lon="1.05683">
        <ele>61</ele>
        <time>2008-04-27T12:28:41Z</time>
      </trkpt>
      <trkpt lat="49.34148" lon="1.05702">
        <ele>61</ele>
        <time>2008-04-27T12:28:43Z</time>
      </trkpt>
      <trkpt lat="49.34157" lon="1.05725">
        <ele>60</ele>
        <time>2008-04-27T12:28:46Z</time>
      </trkpt>
      <trkpt lat="49.34168" lon="1.05749">
        <ele>63</ele>
        <time>2008-04-27T12:28:49Z</time>
      </trkpt>
      <trkpt lat="49.34173" lon="1.05773">
        <ele>63</ele>
        <time>2008-04-27T12:28:52Z</time>
      </trkpt>
      <trkpt lat="49.34177" lon="1.05793">
        <ele>63</ele>
        <time>2008-04-27T12:28:55Z</time>
      </trkpt>
      <trkpt lat="49.34183" lon="1.05828">
        <ele>63</ele>
        <time>2008-04-27T12:28:59Z</time>
      </trkpt>
      <trkpt lat="49.34188" lon="1.05866">
        <ele>63</ele>
        <time>2008-04-27T12:29:02Z</time>
      </trkpt>
      <trkpt lat="49.3419" lon="1.05896">
        <ele>63</ele>
        <time>2008-04-27T12:29:05Z</time>
      </trkpt>
      <trkpt lat="49.34195" lon="1.05923">
        <ele>65</ele>
        <time>2008-04-27T12:29:08Z</time>
      </trkpt>
      <trkpt lat="49.34199" lon="1.05943">
        <ele>66</ele>
        <time>2008-04-27T12:29:10Z</time>
      </trkpt>
      <trkpt lat="49.342" lon="1.05969">
        <ele>67</ele>
        <time>2008-04-27T12:29:12Z</time>
      </trkpt>
      <trkpt lat="49.34202" lon="1.05997">
        <ele>69</ele>
        <time>2008-04-27T12:29:14Z</time>
      </trkpt>
      <trkpt lat="49.34198" lon="1.0604">
        <ele>68</ele>
        <time>2008-04-27T12:29:16Z</time>
      </trkpt>
      <trkpt lat="49.34195" lon="1.06069">
        <ele>67</ele>
        <time>2008-04-27T12:29:18Z</time>
      </trkpt>
      <trkpt lat="49.34189" lon="1.06096">
        <ele>66</ele>
        <time>2008-04-27T12:29:20Z</time>
      </trkpt>
      <trkpt lat="49.34184" lon="1.0612">
        <ele>65</ele>
        <time>2008-04-27T12:29:22Z</time>
      </trkpt>
      <trkpt lat="49.34183" lon="1.06142">
        <ele>65</ele>
        <time>2008-04-27T12:29:24Z</time>
      </trkpt>
      <trkpt lat="49.34179" lon="1.06162">
        <ele>64</ele>
        <time>2008-04-27T12:29:26Z</time>
      </trkpt>
      <trkpt lat="49.34175" lon="1.06182">
        <ele>64</ele>
        <time>2008-04-27T12:29:28Z</time>
      </trkpt>
      <trkpt lat="49.34171" lon="1.06202">
        <ele>64</ele>
        <time>2008-04-27T12:29:30Z</time>
      </trkpt>
      <trkpt lat="49.34163" lon="1.06224">
        <ele>63</ele>
        <time>2008-04-27T12:29:32Z</time>
      </trkpt>
      <trkpt lat="49.34156" lon="1.06246">
        <ele>64</ele>
        <time>2008-04-27T12:29:34Z</time>
      </trkpt>
      <trkpt lat="49.3415" lon="1.06265">
        <ele>65</ele>
        <time>2008-04-27T12:29:36Z</time>
      </trkpt>
      <trkpt lat="49.34143" lon="1.06284">
        <ele>64</ele>
        <time>2008-04-27T12:29:38Z</time>
      </trkpt>
      <trkpt lat="49.34135" lon="1.06302">
        <ele>64</ele>
        <time>2008-04-27T12:29:40Z</time>
      </trkpt>
      <trkpt lat="49.34128" lon="1.06322">
        <ele>64</ele>
        <time>2008-04-27T12:29:42Z</time>
      </trkpt>
      <trkpt lat="49.34119" lon="1.06342">
        <ele>64</ele>
        <time>2008-04-27T12:29:44Z</time>
      </trkpt>
      <trkpt lat="49.3411" lon="1.06366">
        <ele>64</ele>
        <time>2008-04-27T12:29:46Z</time>
      </trkpt>
      <trkpt lat="49.34101" lon="1.06388">
        <ele>63</ele>
        <time>2008-04-27T12:29:48Z</time>
      </trkpt>
      <trkpt lat="49.34092" lon="1.06408">
        <ele>63</ele>
        <time>2008-04-27T12:29:50Z</time>
      </trkpt>
      <trkpt lat="49.34082" lon="1.06426">
        <ele>62</ele>
        <time>2008-04-27T12:29:52Z</time>
      </trkpt>
      <trkpt lat="49.34071" lon="1.06444">
        <ele>62</ele>
        <time>2008-04-27T12:29:54Z</time>
      </trkpt>
      <trkpt lat="49.34061" lon="1.06461">
        <ele>61</ele>
        <time>2008-04-27T12:29:56Z</time>
      </trkpt>
      <trkpt lat="49.3405" lon="1.06478">
        <ele>60</ele>
        <time>2008-04-27T12:29:58Z</time>
      </trkpt>
      <trkpt lat="49.34039" lon="1.06498">
        <ele>60</ele>
        <time>2008-04-27T12:30:00Z</time>
      </trkpt>
      <trkpt lat="49.34026" lon="1.06518">
        <ele>60</ele>
        <time>2008-04-27T12:30:02Z</time>
      </trkpt>
      <trkpt lat="49.34015" lon="1.06538">
        <ele>60</ele>
        <time>2008-04-27T12:30:04Z</time>
      </trkpt>
      <trkpt lat="49.34002" lon="1.06554">
        <ele>59</ele>
        <time>2008-04-27T12:30:06Z</time>
      </trkpt>
      <trkpt lat="49.3399" lon="1.0657">
        <ele>58</ele>
        <time>2008-04-27T12:30:08Z</time>
      </trkpt>
      <trkpt lat="49.33978" lon="1.06584">
        <ele>57</ele>
        <time>2008-04-27T12:30:10Z</time>
      </trkpt>
      <trkpt lat="49.33967" lon="1.06597">
        <ele>56</ele>
        <time>2008-04-27T12:30:12Z</time>
      </trkpt>
      <trkpt lat="49.33956" lon="1.06611">
        <ele>56</ele>
        <time>2008-04-27T12:30:14Z</time>
      </trkpt>
      <trkpt lat="49.33944" lon="1.06626">
        <ele>56</ele>
        <time>2008-04-27T12:30:16Z</time>
      </trkpt>
      <trkpt lat="49.33934" lon="1.0664">
        <ele>57</ele>
        <time>2008-04-27T12:30:18Z</time>
      </trkpt>
      <trkpt lat="49.33923" lon="1.06654">
        <ele>56</ele>
        <time>2008-04-27T12:30:20Z</time>
      </trkpt>
      <trkpt lat="49.33911" lon="1.06668">
        <ele>55</ele>
        <time>2008-04-27T12:30:22Z</time>
      </trkpt>
      <trkpt lat="49.339" lon="1.06683">
        <ele>55</ele>
        <time>2008-04-27T12:30:24Z</time>
      </trkpt>
      <trkpt lat="49.33889" lon="1.06699">
        <ele>55</ele>
        <time>2008-04-27T12:30:26Z</time>
      </trkpt>
      <trkpt lat="49.33876" lon="1.06714">
        <ele>55</ele>
        <time>2008-04-27T12:30:28Z</time>
      </trkpt>
      <trkpt lat="49.33865" lon="1.06728">
        <ele>55</ele>
        <time>2008-04-27T12:30:30Z</time>
      </trkpt>
      <trkpt lat="49.33853" lon="1.06741">
        <ele>54</ele>
        <time>2008-04-27T12:30:32Z</time>
      </trkpt>
      <trkpt lat="49.3384" lon="1.0676">
        <ele>53</ele>
        <time>2008-04-27T12:30:34Z</time>
      </trkpt>
      <trkpt lat="49.33826" lon="1.06782">
        <ele>52</ele>
        <time>2008-04-27T12:30:36Z</time>
      </trkpt>
      <trkpt lat="49.33816" lon="1.06799">
        <ele>51</ele>
        <time>2008-04-27T12:30:38Z</time>
      </trkpt>
      <trkpt lat="49.33808" lon="1.06813">
        <ele>50</ele>
        <time>2008-04-27T12:30:40Z</time>
      </trkpt>
      <trkpt lat="49.33802" lon="1.06827">
        <ele>49</ele>
        <time>2008-04-27T12:30:42Z</time>
      </trkpt>
      <trkpt lat="49.33795" lon="1.06832">
        <ele>47</ele>
        <time>2008-04-27T12:30:45Z</time>
      </trkpt>
      <trkpt lat="49.33787" lon="1.06837">
        <ele>44</ele>
        <time>2008-04-27T12:30:49Z</time>
      </trkpt>
      <trkpt lat="49.33779" lon="1.06853">
        <ele>42</ele>
        <time>2008-04-27T12:30:53Z</time>
      </trkpt>
      <trkpt lat="49.3377" lon="1.06865">
        <ele>39</ele>
        <time>2008-04-27T12:30:57Z</time>
      </trkpt>
      <trkpt lat="49.33767" lon="1.06882">
        <ele>38</ele>
        <time>2008-04-27T12:31:32Z</time>
      </trkpt>
      <trkpt lat="49.33765" lon="1.06896">
        <ele>38</ele>
        <time>2008-04-27T12:31:35Z</time>
      </trkpt>
      <trkpt lat="49.33765" lon="1.06911">
        <ele>38</ele>
        <time>2008-04-27T12:31:38Z</time>
      </trkpt>
      <trkpt lat="49.33763" lon="1.06928">
        <ele>37</ele>
        <time>2008-04-27T12:31:41Z</time>
      </trkpt>
      <trkpt lat="49.33759" lon="1.06945">
        <ele>36</ele>
        <time>2008-04-27T12:31:44Z</time>
      </trkpt>
      <trkpt lat="49.3375" lon="1.0696">
        <ele>33</ele>
        <time>2008-04-27T12:31:47Z</time>
      </trkpt>
      <trkpt lat="49.33743" lon="1.0697">
        <ele>31</ele>
        <time>2008-04-27T12:31:49Z</time>
      </trkpt>
      <trkpt lat="49.33735" lon="1.0698">
        <ele>29</ele>
        <time>2008-04-27T12:31:51Z</time>
      </trkpt>
      <trkpt lat="49.33727" lon="1.06992">
        <ele>28</ele>
        <time>2008-04-27T12:31:53Z</time>
      </trkpt>
      <trkpt lat="49.3372" lon="1.07007">
        <ele>28</ele>
        <time>2008-04-27T12:31:55Z</time>
      </trkpt>
      <trkpt lat="49.33714" lon="1.07023">
        <ele>29</ele>
        <time>2008-04-27T12:31:57Z</time>
      </trkpt>
      <trkpt lat="49.33705" lon="1.07044">
        <ele>31</ele>
        <time>2008-04-27T12:31:59Z</time>
      </trkpt>
      <trkpt lat="49.33699" lon="1.07066">
        <ele>32</ele>
        <time>2008-04-27T12:32:01Z</time>
      </trkpt>
      <trkpt lat="49.33694" lon="1.07085">
        <ele>32</ele>
        <time>2008-04-27T12:32:03Z</time>
      </trkpt>
      <trkpt lat="49.33693" lon="1.07104">
        <ele>32</ele>
        <time>2008-04-27T12:32:05Z</time>
      </trkpt>
      <trkpt lat="49.33694" lon="1.07124">
        <ele>32</ele>
        <time>2008-04-27T12:32:07Z</time>
      </trkpt>
      <trkpt lat="49.33697" lon="1.07144">
        <ele>31</ele>
        <time>2008-04-27T12:32:09Z</time>
      </trkpt>
      <trkpt lat="49.33705" lon="1.07166">
        <ele>31</ele>
        <time>2008-04-27T12:32:11Z</time>
      </trkpt>
      <trkpt lat="49.33709" lon="1.07189">
        <ele>30</ele>
        <time>2008-04-27T12:32:13Z</time>
      </trkpt>
      <trkpt lat="49.33713" lon="1.07214">
        <ele>29</ele>
        <time>2008-04-27T12:32:15Z</time>
      </trkpt>
      <trkpt lat="49.33716" lon="1.07239">
        <ele>28</ele>
        <time>2008-04-27T12:32:17Z</time>
      </trkpt>
      <trkpt lat="49.33717" lon="1.07261">
        <ele>27</ele>
        <time>2008-04-27T12:32:19Z</time>
      </trkpt>
      <trkpt lat="49.33714" lon="1.07279">
        <ele>27</ele>
        <time>2008-04-27T12:32:22Z</time>
      </trkpt>
      <trkpt lat="49.33709" lon="1.07298">
        <ele>26</ele>
        <time>2008-04-27T12:32:25Z</time>
      </trkpt>
      <trkpt lat="49.33703" lon="1.07319">
        <ele>24</ele>
        <time>2008-04-27T12:32:28Z</time>
      </trkpt>
      <trkpt lat="49.33693" lon="1.07343">
        <ele>23</ele>
        <time>2008-04-27T12:32:31Z</time>
      </trkpt>
      <trkpt lat="49.33682" lon="1.07362">
        <ele>22</ele>
        <time>2008-04-27T12:32:33Z</time>
      </trkpt>
      <trkpt lat="49.33667" lon="1.07382">
        <ele>21</ele>
        <time>2008-04-27T12:32:35Z</time>
      </trkpt>
      <trkpt lat="49.33651" lon="1.07401">
        <ele>20</ele>
        <time>2008-04-27T12:32:37Z</time>
      </trkpt>
      <trkpt lat="49.33633" lon="1.07422">
        <ele>18</ele>
        <time>2008-04-27T12:32:39Z</time>
      </trkpt>
      <trkpt lat="49.33624" lon="1.07433">
        <ele>17</ele>
        <time>2008-04-27T12:32:40Z</time>
      </trkpt>
      <trkpt lat="49.33616" lon="1.07444">
        <ele>16</ele>
        <time>2008-04-27T12:32:41Z</time>
      </trkpt>
      <trkpt lat="49.33607" lon="1.07456">
        <ele>14</ele>
        <time>2008-04-27T12:32:42Z</time>
      </trkpt>
      <trkpt lat="49.33598" lon="1.0747">
        <ele>13</ele>
        <time>2008-04-27T12:32:43Z</time>
      </trkpt>
      <trkpt lat="49.33588" lon="1.07484">
        <ele>12</ele>
        <time>2008-04-27T12:32:44Z</time>
      </trkpt>
      <trkpt lat="49.33579" lon="1.07497">
        <ele>12</ele>
        <time>2008-04-27T12:32:45Z</time>
      </trkpt>
      <trkpt lat="49.33569" lon="1.0751">
        <ele>12</ele>
        <time>2008-04-27T12:32:46Z</time>
      </trkpt>
      <trkpt lat="49.33557" lon="1.07528">
        <ele>11</ele>
        <time>2008-04-27T12:32:48Z</time>
      </trkpt>
      <trkpt lat="49.33548" lon="1.0754">
        <ele>9</ele>
        <time>2008-04-27T12:32:52Z</time>
      </trkpt>
      <trkpt lat="49.33548" lon="1.07556">
        <ele>9</ele>
        <time>2008-04-27T12:32:55Z</time>
      </trkpt>
      <trkpt lat="49.33551" lon="1.07573">
        <ele>10</ele>
        <time>2008-04-27T12:32:58Z</time>
      </trkpt>
      <trkpt lat="49.33541" lon="1.07608">
        <ele>9</ele>
        <time>2008-04-27T12:33:06Z</time>
      </trkpt>
      <trkpt lat="49.33531" lon="1.07618">
        <ele>8</ele>
        <time>2008-04-27T12:33:08Z</time>
      </trkpt>
      <trkpt lat="49.33521" lon="1.07629">
        <ele>7</ele>
        <time>2008-04-27T12:33:10Z</time>
      </trkpt>
      <trkpt lat="49.33514" lon="1.07644">
        <ele>6</ele>
        <time>2008-04-27T12:33:12Z</time>
      </trkpt>
      <trkpt lat="49.33507" lon="1.07656">
        <ele>4</ele>
        <time>2008-04-27T12:33:14Z</time>
      </trkpt>
      <trkpt lat="49.33499" lon="1.07668">
        <ele>4</ele>
        <time>2008-04-27T12:33:16Z</time>
      </trkpt>
      <trkpt lat="49.3349" lon="1.07679">
        <ele>3</ele>
        <time>2008-04-27T12:33:18Z</time>
      </trkpt>
      <trkpt lat="49.33483" lon="1.07691">
        <ele>3</ele>
        <time>2008-04-27T12:33:20Z</time>
      </trkpt>
      <trkpt lat="49.33476" lon="1.07704">
        <ele>3</ele>
        <time>2008-04-27T12:33:22Z</time>
      </trkpt>
      <trkpt lat="49.33469" lon="1.07716">
        <ele>3</ele>
        <time>2008-04-27T12:33:24Z</time>
      </trkpt>
      <trkpt lat="49.33461" lon="1.07729">
        <ele>3</ele>
        <time>2008-04-27T12:33:26Z</time>
      </trkpt>
      <trkpt lat="49.33453" lon="1.07742">
        <ele>3</ele>
        <time>2008-04-27T12:33:28Z</time>
      </trkpt>
      <trkpt lat="49.33445" lon="1.07753">
        <ele>3</ele>
        <time>2008-04-27T12:33:30Z</time>
      </trkpt>
      <trkpt lat="49.33435" lon="1.07761">
        <ele>3</ele>
        <time>2008-04-27T12:33:32Z</time>
      </trkpt>
      <trkpt lat="49.33424" lon="1.07765">
        <ele>3</ele>
        <time>2008-04-27T12:33:34Z</time>
      </trkpt>
      <trkpt lat="49.33414" lon="1.07763">
        <ele>3</ele>
        <time>2008-04-27T12:33:36Z</time>
      </trkpt>
      <trkpt lat="49.33403" lon="1.07763">
        <ele>3</ele>
        <time>2008-04-27T12:33:38Z</time>
      </trkpt>
      <trkpt lat="49.33395" lon="1.07772">
        <ele>3</ele>
        <time>2008-04-27T12:33:40Z</time>
      </trkpt>
      <trkpt lat="49.33389" lon="1.07786">
        <ele>3</ele>
        <time>2008-04-27T12:33:42Z</time>
      </trkpt>
      <trkpt lat="49.33387" lon="1.078">
        <ele>3</ele>
        <time>2008-04-27T12:33:44Z</time>
      </trkpt>
      <trkpt lat="49.33392" lon="1.07817">
        <ele>3</ele>
        <time>2008-04-27T12:33:46Z</time>
      </trkpt>
      <trkpt lat="49.33397" lon="1.07833">
        <ele>3</ele>
        <time>2008-04-27T12:33:48Z</time>
      </trkpt>
      <trkpt lat="49.33404" lon="1.07849">
        <ele>3</ele>
        <time>2008-04-27T12:33:50Z</time>
      </trkpt>
      <trkpt lat="49.33409" lon="1.07865">
        <ele>3</ele>
        <time>2008-04-27T12:33:52Z</time>
      </trkpt>
      <trkpt lat="49.33414" lon="1.07881">
        <ele>3</ele>
        <time>2008-04-27T12:33:54Z</time>
      </trkpt>
      <trkpt lat="49.33419" lon="1.07898">
        <ele>3</ele>
        <time>2008-04-27T12:33:56Z</time>
      </trkpt>
      <trkpt lat="49.33423" lon="1.07923">
        <ele>3</ele>
        <time>2008-04-27T12:33:59Z</time>
      </trkpt>
      <trkpt lat="49.33424" lon="1.07939">
        <ele>3</ele>
        <time>2008-04-27T12:34:01Z</time>
      </trkpt>
      <trkpt lat="49.33426" lon="1.07953">
        <ele>3</ele>
        <time>2008-04-27T12:34:03Z</time>
      </trkpt>
      <trkpt lat="49.33429" lon="1.07968">
        <ele>3</ele>
        <time>2008-04-27T12:34:05Z</time>
      </trkpt>
      <trkpt lat="49.33432" lon="1.07983">
        <ele>3</ele>
        <time>2008-04-27T12:34:07Z</time>
      </trkpt>
      <trkpt lat="49.33434" lon="1.07999">
        <ele>3</ele>
        <time>2008-04-27T12:34:09Z</time>
      </trkpt>
      <trkpt lat="49.33436" lon="1.08014">
        <ele>4</ele>
        <time>2008-04-27T12:34:11Z</time>
      </trkpt>
      <trkpt lat="49.33438" lon="1.0803">
        <ele>4</ele>
        <time>2008-04-27T12:34:13Z</time>
      </trkpt>
      <trkpt lat="49.33441" lon="1.08047">
        <ele>4</ele>
        <time>2008-04-27T12:34:15Z</time>
      </trkpt>
      <trkpt lat="49.33444" lon="1.08066">
        <ele>4</ele>
        <time>2008-04-27T12:34:17Z</time>
      </trkpt>
      <trkpt lat="49.33448" lon="1.08083">
        <ele>4</ele>
        <time>2008-04-27T12:34:19Z</time>
      </trkpt>
      <trkpt lat="49.33451" lon="1.08101">
        <ele>4</ele>
        <time>2008-04-27T12:34:21Z</time>
      </trkpt>
      <trkpt lat="49.33454" lon="1.08121">
        <ele>4</ele>
        <time>2008-04-27T12:34:23Z</time>
      </trkpt>
      <trkpt lat="49.33456" lon="1.08141">
        <ele>5</ele>
        <time>2008-04-27T12:34:25Z</time>
      </trkpt>
      <trkpt lat="49.3346" lon="1.0816">
        <ele>5</ele>
        <time>2008-04-27T12:34:27Z</time>
      </trkpt>
      <trkpt lat="49.33464" lon="1.08181">
        <ele>5</ele>
        <time>2008-04-27T12:34:29Z</time>
      </trkpt>
      <trkpt lat="49.33467" lon="1.08199">
        <ele>5</ele>
        <time>2008-04-27T12:34:31Z</time>
      </trkpt>
      <trkpt lat="49.33469" lon="1.08219">
        <ele>5</ele>
        <time>2008-04-27T12:34:33Z</time>
      </trkpt>
      <trkpt lat="49.33473" lon="1.08238">
        <ele>5</ele>
        <time>2008-04-27T12:34:35Z</time>
      </trkpt>
      <trkpt lat="49.33476" lon="1.08255">
        <ele>5</ele>
        <time>2008-04-27T12:34:37Z</time>
      </trkpt>
      <trkpt lat="49.33479" lon="1.08272">
        <ele>5</ele>
        <time>2008-04-27T12:34:39Z</time>
      </trkpt>
      <trkpt lat="49.3348" lon="1.08291">
        <ele>5</ele>
        <time>2008-04-27T12:34:41Z</time>
      </trkpt>
      <trkpt lat="49.33482" lon="1.08309">
        <ele>5</ele>
        <time>2008-04-27T12:34:43Z</time>
      </trkpt>
      <trkpt lat="49.33484" lon="1.08327">
        <ele>5</ele>
        <time>2008-04-27T12:34:45Z</time>
      </trkpt>
      <trkpt lat="49.33489" lon="1.08346">
        <ele>5</ele>
        <time>2008-04-27T12:34:47Z</time>
      </trkpt>
      <trkpt lat="49.33493" lon="1.08365">
        <ele>5</ele>
        <time>2008-04-27T12:34:49Z</time>
      </trkpt>
      <trkpt lat="49.33497" lon="1.08383">
        <ele>5</ele>
        <time>2008-04-27T12:34:51Z</time>
      </trkpt>
      <trkpt lat="49.33501" lon="1.08401">
        <ele>5</ele>
        <time>2008-04-27T12:34:53Z</time>
      </trkpt>
      <trkpt lat="49.33504" lon="1.0842">
        <ele>5</ele>
        <time>2008-04-27T12:34:55Z</time>
      </trkpt>
      <trkpt lat="49.33509" lon="1.08437">
        <ele>5</ele>
        <time>2008-04-27T12:34:57Z</time>
      </trkpt>
      <trkpt lat="49.33513" lon="1.08455">
        <ele>5</ele>
        <time>2008-04-27T12:34:59Z</time>
      </trkpt>
      <trkpt lat="49.33517" lon="1.08474">
        <ele>5</ele>
        <time>2008-04-27T12:35:01Z</time>
      </trkpt>
      <trkpt lat="49.33521" lon="1.08492">
        <ele>4</ele>
        <time>2008-04-27T12:35:03Z</time>
      </trkpt>
      <trkpt lat="49.33524" lon="1.08511">
        <ele>4</ele>
        <time>2008-04-27T12:35:05Z</time>
      </trkpt>
      <trkpt lat="49.33527" lon="1.0853">
        <ele>4</ele>
        <time>2008-04-27T12:35:07Z</time>
      </trkpt>
      <trkpt lat="49.33529" lon="1.08549">
        <ele>4</ele>
        <time>2008-04-27T12:35:09Z</time>
      </trkpt>
      <trkpt lat="49.33534" lon="1.08568">
        <ele>4</ele>
        <time>2008-04-27T12:35:11Z</time>
      </trkpt>
      <trkpt lat="49.33538" lon="1.08586">
        <ele>4</ele>
        <time>2008-04-27T12:35:13Z</time>
      </trkpt>
      <trkpt lat="49.33542" lon="1.08604">
        <ele>4</ele>
        <time>2008-04-27T12:35:15Z</time>
      </trkpt>
      <trkpt lat="49.33546" lon="1.08623">
        <ele>4</ele>
        <time>2008-04-27T12:35:17Z</time>
      </trkpt>
      <trkpt lat="49.33551" lon="1.08641">
        <ele>5</ele>
        <time>2008-04-27T12:35:19Z</time>
      </trkpt>
      <trkpt lat="49.33555" lon="1.08658">
        <ele>5</ele>
        <time>2008-04-27T12:35:21Z</time>
      </trkpt>
      <trkpt lat="49.33562" lon="1.08674">
        <ele>5</ele>
        <time>2008-04-27T12:35:23Z</time>
      </trkpt>
      <trkpt lat="49.33569" lon="1.08691">
        <ele>5</ele>
        <time>2008-04-27T12:35:25Z</time>
      </trkpt>
      <trkpt lat="49.33575" lon="1.08707">
        <ele>5</ele>
        <time>2008-04-27T12:35:27Z</time>
      </trkpt>
      <trkpt lat="49.33583" lon="1.08721">
        <ele>6</ele>
        <time>2008-04-27T12:35:29Z</time>
      </trkpt>
      <trkpt lat="49.33595" lon="1.08726">
        <ele>6</ele>
        <time>2008-04-27T12:35:31Z</time>
      </trkpt>
      <trkpt lat="49.33605" lon="1.0872">
        <ele>6</ele>
        <time>2008-04-27T12:35:33Z</time>
      </trkpt>
      <trkpt lat="49.33615" lon="1.08706">
        <ele>6</ele>
        <time>2008-04-27T12:35:36Z</time>
      </trkpt>
      <trkpt lat="49.3363" lon="1.08691">
        <ele>6</ele>
        <time>2008-04-27T12:35:39Z</time>
      </trkpt>
      <trkpt lat="49.33646" lon="1.0868">
        <ele>6</ele>
        <time>2008-04-27T12:35:42Z</time>
      </trkpt>
      <trkpt lat="49.33661" lon="1.08672">
        <ele>7</ele>
        <time>2008-04-27T12:35:45Z</time>
      </trkpt>
      <trkpt lat="49.33678" lon="1.08665">
        <ele>7</ele>
        <time>2008-04-27T12:35:49Z</time>
      </trkpt>
      <trkpt lat="49.33691" lon="1.08653">
        <ele>8</ele>
        <time>2008-04-27T12:35:52Z</time>
      </trkpt>
      <trkpt lat="49.33707" lon="1.08643">
        <ele>9</ele>
        <time>2008-04-27T12:35:56Z</time>
      </trkpt>
      <trkpt lat="49.33723" lon="1.08636">
        <ele>9</ele>
        <time>2008-04-27T12:35:59Z</time>
      </trkpt>
      <trkpt lat="49.33735" lon="1.08626">
        <ele>10</ele>
        <time>2008-04-27T12:36:02Z</time>
      </trkpt>
      <trkpt lat="49.33748" lon="1.08617">
        <ele>11</ele>
        <time>2008-04-27T12:36:06Z</time>
      </trkpt>
      <trkpt lat="49.33761" lon="1.08612">
        <ele>12</ele>
        <time>2008-04-27T12:36:10Z</time>
      </trkpt>
      <trkpt lat="49.33773" lon="1.08605">
        <ele>13</ele>
        <time>2008-04-27T12:36:15Z</time>
      </trkpt>
      <trkpt lat="49.33785" lon="1.086">
        <ele>14</ele>
        <time>2008-04-27T12:36:20Z</time>
      </trkpt>
      <trkpt lat="49.33795" lon="1.08596">
        <ele>15</ele>
        <time>2008-04-27T12:36:26Z</time>
      </trkpt>
      <trkpt lat="49.33806" lon="1.08592">
        <ele>16</ele>
        <time>2008-04-27T12:36:32Z</time>
      </trkpt>
      <trkpt lat="49.33816" lon="1.08586">
        <ele>17</ele>
        <time>2008-04-27T12:36:40Z</time>
      </trkpt>
      <trkpt lat="49.33818" lon="1.08569">
        <ele>17</ele>
        <time>2008-04-27T12:36:45Z</time>
      </trkpt>
      <trkpt lat="49.33818" lon="1.08553">
        <ele>18</ele>
        <time>2008-04-27T12:36:49Z</time>
      </trkpt>
      <trkpt lat="49.33817" lon="1.08534">
        <ele>18</ele>
        <time>2008-04-27T12:36:54Z</time>
      </trkpt>
      <trkpt lat="49.33815" lon="1.08519">
        <ele>19</ele>
        <time>2008-04-27T12:36:58Z</time>
      </trkpt>
      <trkpt lat="49.33814" lon="1.08504">
        <ele>19</ele>
        <time>2008-04-27T12:37:02Z</time>
      </trkpt>
      <trkpt lat="49.33812" lon="1.08488">
        <ele>19</ele>
        <time>2008-04-27T12:37:06Z</time>
      </trkpt>
      <trkpt lat="49.33811" lon="1.08471">
        <ele>20</ele>
        <time>2008-04-27T12:37:10Z</time>
      </trkpt>
      <trkpt lat="49.33809" lon="1.08454">
        <ele>20</ele>
        <time>2008-04-27T12:37:14Z</time>
      </trkpt>
      <trkpt lat="49.33806" lon="1.08436">
        <ele>20</ele>
        <time>2008-04-27T12:37:18Z</time>
      </trkpt>
      <trkpt lat="49.33805" lon="1.08419">
        <ele>21</ele>
        <time>2008-04-27T12:37:22Z</time>
      </trkpt>
      <trkpt lat="49.33804" lon="1.08402">
        <ele>21</ele>
        <time>2008-04-27T12:37:26Z</time>
      </trkpt>
      <trkpt lat="49.33805" lon="1.08381">
        <ele>21</ele>
        <time>2008-04-27T12:37:31Z</time>
      </trkpt>
      <trkpt lat="49.33803" lon="1.08361">
        <ele>22</ele>
        <time>2008-04-27T12:37:35Z</time>
      </trkpt>
      <trkpt lat="49.33803" lon="1.08345">
        <ele>22</ele>
        <time>2008-04-27T12:37:38Z</time>
      </trkpt>
      <trkpt lat="49.33806" lon="1.08327">
        <ele>23</ele>
        <time>2008-04-27T12:37:41Z</time>
      </trkpt>
      <trkpt lat="49.33813" lon="1.08315">
        <ele>23</ele>
        <time>2008-04-27T12:37:44Z</time>
      </trkpt>
      <trkpt lat="49.33824" lon="1.08307">
        <ele>24</ele>
        <time>2008-04-27T12:37:47Z</time>
      </trkpt>
      <trkpt lat="49.33835" lon="1.08297">
        <ele>24</ele>
        <time>2008-04-27T12:37:50Z</time>
      </trkpt>
      <trkpt lat="49.33846" lon="1.08285">
        <ele>25</ele>
        <time>2008-04-27T12:37:53Z</time>
      </trkpt>
      <trkpt lat="49.33856" lon="1.08272">
        <ele>25</ele>
        <time>2008-04-27T12:37:56Z</time>
      </trkpt>
      <trkpt lat="49.33865" lon="1.08259">
        <ele>25</ele>
        <time>2008-04-27T12:37:59Z</time>
      </trkpt>
      <trkpt lat="49.33872" lon="1.08249">
        <ele>25</ele>
        <time>2008-04-27T12:38:01Z</time>
      </trkpt>
      <trkpt lat="49.33884" lon="1.08235">
        <ele>25</ele>
        <time>2008-04-27T12:38:04Z</time>
      </trkpt>
      <trkpt lat="49.33892" lon="1.08226">
        <ele>25</ele>
        <time>2008-04-27T12:38:06Z</time>
      </trkpt>
      <trkpt lat="49.33901" lon="1.08217">
        <ele>25</ele>
        <time>2008-04-27T12:38:08Z</time>
      </trkpt>
      <trkpt lat="49.33909" lon="1.08207">
        <ele>25</ele>
        <time>2008-04-27T12:38:10Z</time>
      </trkpt>
      <trkpt lat="49.33918" lon="1.08197">
        <ele>25</ele>
        <time>2008-04-27T12:38:12Z</time>
      </trkpt>
      <trkpt lat="49.33929" lon="1.08187">
        <ele>25</ele>
        <time>2008-04-27T12:38:14Z</time>
      </trkpt>
      <trkpt lat="49.33938" lon="1.08177">
        <ele>25</ele>
        <time>2008-04-27T12:38:16Z</time>
      </trkpt>
      <trkpt lat="49.33947" lon="1.08168">
        <ele>25</ele>
        <time>2008-04-27T12:38:18Z</time>
      </trkpt>
      <trkpt lat="49.33957" lon="1.0816">
        <ele>25</ele>
        <time>2008-04-27T12:38:20Z</time>
      </trkpt>
      <trkpt lat="49.33966" lon="1.08149">
        <ele>25</ele>
        <time>2008-04-27T12:38:22Z</time>
      </trkpt>
      <trkpt lat="49.33976" lon="1.0814">
        <ele>25</ele>
        <time>2008-04-27T12:38:24Z</time>
      </trkpt>
      <trkpt lat="49.33984" lon="1.0813">
        <ele>24</ele>
        <time>2008-04-27T12:38:26Z</time>
      </trkpt>
      <trkpt lat="49.33994" lon="1.08121">
        <ele>24</ele>
        <time>2008-04-27T12:38:28Z</time>
      </trkpt>
      <trkpt lat="49.34003" lon="1.08111">
        <ele>24</ele>
        <time>2008-04-27T12:38:30Z</time>
      </trkpt>
      <trkpt lat="49.34011" lon="1.08101">
        <ele>24</ele>
        <time>2008-04-27T12:38:32Z</time>
      </trkpt>
      <trkpt lat="49.34021" lon="1.08092">
        <ele>24</ele>
        <time>2008-04-27T12:38:35Z</time>
      </trkpt>
      <trkpt lat="49.34026" lon="1.08074">
        <ele>24</ele>
        <time>2008-04-27T12:38:38Z</time>
      </trkpt>
      <trkpt lat="49.3403" lon="1.08057">
        <ele>24</ele>
        <time>2008-04-27T12:38:41Z</time>
      </trkpt>
      <trkpt lat="49.34035" lon="1.08039">
        <ele>24</ele>
        <time>2008-04-27T12:38:44Z</time>
      </trkpt>
      <trkpt lat="49.3404" lon="1.0802">
        <ele>24</ele>
        <time>2008-04-27T12:38:47Z</time>
      </trkpt>
      <trkpt lat="49.34045" lon="1.08003">
        <ele>24</ele>
        <time>2008-04-27T12:38:50Z</time>
      </trkpt>
      <trkpt lat="49.34049" lon="1.07984">
        <ele>25</ele>
        <time>2008-04-27T12:38:53Z</time>
      </trkpt>
      <trkpt lat="49.34055" lon="1.07967">
        <ele>25</ele>
        <time>2008-04-27T12:38:56Z</time>
      </trkpt>
      <trkpt lat="49.34061" lon="1.0795">
        <ele>25</ele>
        <time>2008-04-27T12:38:59Z</time>
      </trkpt>
      <trkpt lat="49.34066" lon="1.07933">
        <ele>25</ele>
        <time>2008-04-27T12:39:02Z</time>
      </trkpt>
      <trkpt lat="49.34071" lon="1.07916">
        <ele>26</ele>
        <time>2008-04-27T12:39:05Z</time>
      </trkpt>
      <trkpt lat="49.34076" lon="1.07898">
        <ele>26</ele>
        <time>2008-04-27T12:39:08Z</time>
      </trkpt>
      <trkpt lat="49.34082" lon="1.07881">
        <ele>27</ele>
        <time>2008-04-27T12:39:11Z</time>
      </trkpt>
      <trkpt lat="49.34088" lon="1.07864">
        <ele>27</ele>
        <time>2008-04-27T12:39:14Z</time>
      </trkpt>
      <trkpt lat="49.34093" lon="1.07846">
        <ele>28</ele>
        <time>2008-04-27T12:39:17Z</time>
      </trkpt>
      <trkpt lat="49.34098" lon="1.07829">
        <ele>28</ele>
        <time>2008-04-27T12:39:20Z</time>
      </trkpt>
      <trkpt lat="49.34103" lon="1.07814">
        <ele>28</ele>
        <time>2008-04-27T12:39:23Z</time>
      </trkpt>
      <trkpt lat="49.34109" lon="1.07799">
        <ele>29</ele>
        <time>2008-04-27T12:39:26Z</time>
      </trkpt>
      <trkpt lat="49.34117" lon="1.07789">
        <ele>29</ele>
        <time>2008-04-27T12:39:29Z</time>
      </trkpt>
      <trkpt lat="49.34127" lon="1.07783">
        <ele>30</ele>
        <time>2008-04-27T12:39:32Z</time>
      </trkpt>
      <trkpt lat="49.34136" lon="1.07778">
        <ele>30</ele>
        <time>2008-04-27T12:39:35Z</time>
      </trkpt>
      <trkpt lat="49.34148" lon="1.07777">
        <ele>30</ele>
        <time>2008-04-27T12:39:39Z</time>
      </trkpt>
      <trkpt lat="49.34157" lon="1.07788">
        <ele>30</ele>
        <time>2008-04-27T12:39:43Z</time>
      </trkpt>
      <trkpt lat="49.34164" lon="1.07801">
        <ele>30</ele>
        <time>2008-04-27T12:39:46Z</time>
      </trkpt>
      <trkpt lat="49.3417" lon="1.07814">
        <ele>30</ele>
        <time>2008-04-27T12:39:49Z</time>
      </trkpt>
      <trkpt lat="49.34177" lon="1.07829">
        <ele>29</ele>
        <time>2008-04-27T12:39:52Z</time>
      </trkpt>
      <trkpt lat="49.34187" lon="1.07854">
        <ele>29</ele>
        <time>2008-04-27T12:39:57Z</time>
      </trkpt>
      <trkpt lat="49.34191" lon="1.07864">
        <ele>29</ele>
        <time>2008-04-27T12:39:59Z</time>
      </trkpt>
      <trkpt lat="49.34199" lon="1.07881">
        <ele>28</ele>
        <time>2008-04-27T12:40:02Z</time>
      </trkpt>
      <trkpt lat="49.34204" lon="1.07895">
        <ele>28</ele>
        <time>2008-04-27T12:40:04Z</time>
      </trkpt>
      <trkpt lat="49.3421" lon="1.07908">
        <ele>28</ele>
        <time>2008-04-27T12:40:06Z</time>
      </trkpt>
      <trkpt lat="49.34215" lon="1.0792">
        <ele>28</ele>
        <time>2008-04-27T12:40:08Z</time>
      </trkpt>
      <trkpt lat="49.3422" lon="1.07934">
        <ele>27</ele>
        <time>2008-04-27T12:40:10Z</time>
      </trkpt>
      <trkpt lat="49.34224" lon="1.07948">
        <ele>27</ele>
        <time>2008-04-27T12:40:12Z</time>
      </trkpt>
      <trkpt lat="49.34228" lon="1.07962">
        <ele>27</ele>
        <time>2008-04-27T12:40:14Z</time>
      </trkpt>
      <trkpt lat="49.34232" lon="1.07977">
        <ele>26</ele>
        <time>2008-04-27T12:40:16Z</time>
      </trkpt>
      <trkpt lat="49.34235" lon="1.07994">
        <ele>26</ele>
        <time>2008-04-27T12:40:18Z</time>
      </trkpt>
      <trkpt lat="49.34239" lon="1.0801">
        <ele>26</ele>
        <time>2008-04-27T12:40:20Z</time>
      </trkpt>
      <trkpt lat="49.34244" lon="1.08028">
        <ele>26</ele>
        <time>2008-04-27T12:40:22Z</time>
      </trkpt>
      <trkpt lat="49.34247" lon="1.08045">
        <ele>26</ele>
        <time>2008-04-27T12:40:24Z</time>
      </trkpt>
      <trkpt lat="49.34251" lon="1.08063">
        <ele>25</ele>
        <time>2008-04-27T12:40:26Z</time>
      </trkpt>
      <trkpt lat="49.34254" lon="1.08081">
        <ele>25</ele>
        <time>2008-04-27T12:40:28Z</time>
      </trkpt>
      <trkpt lat="49.34257" lon="1.08099">
        <ele>25</ele>
        <time>2008-04-27T12:40:30Z</time>
      </trkpt>
      <trkpt lat="49.3426" lon="1.08117">
        <ele>25</ele>
        <time>2008-04-27T12:40:32Z</time>
      </trkpt>
      <trkpt lat="49.34263" lon="1.08135">
        <ele>24</ele>
        <time>2008-04-27T12:40:34Z</time>
      </trkpt>
      <trkpt lat="49.34266" lon="1.08152">
        <ele>24</ele>
        <time>2008-04-27T12:40:36Z</time>
      </trkpt>
      <trkpt lat="49.34269" lon="1.0817">
        <ele>24</ele>
        <time>2008-04-27T12:40:38Z</time>
      </trkpt>
      <trkpt lat="49.34271" lon="1.08187">
        <ele>24</ele>
        <time>2008-04-27T12:40:40Z</time>
      </trkpt>
      <trkpt lat="49.34273" lon="1.08202">
        <ele>24</ele>
        <time>2008-04-27T12:40:42Z</time>
      </trkpt>
      <trkpt lat="49.34281" lon="1.08207">
        <ele>24</ele>
        <time>2008-04-27T12:40:45Z</time>
      </trkpt>
      <trkpt lat="49.3429" lon="1.08195">
        <ele>24</ele>
        <time>2008-04-27T12:40:48Z</time>
      </trkpt>
      <trkpt lat="49.34302" lon="1.08183">
        <ele>24</ele>
        <time>2008-04-27T12:40:51Z</time>
      </trkpt>
      <trkpt lat="49.34313" lon="1.08171">
        <ele>25</ele>
        <time>2008-04-27T12:40:54Z</time>
      </trkpt>
      <trkpt lat="49.34323" lon="1.0816">
        <ele>25</ele>
        <time>2008-04-27T12:40:57Z</time>
      </trkpt>
      <trkpt lat="49.34334" lon="1.08148">
        <ele>25</ele>
        <time>2008-04-27T12:41:00Z</time>
      </trkpt>
      <trkpt lat="49.34344" lon="1.08137">
        <ele>26</ele>
        <time>2008-04-27T12:41:03Z</time>
      </trkpt>
      <trkpt lat="49.34355" lon="1.08126">
        <ele>27</ele>
        <time>2008-04-27T12:41:06Z</time>
      </trkpt>
      <trkpt lat="49.34365" lon="1.08116">
        <ele>27</ele>
        <time>2008-04-27T12:41:09Z</time>
      </trkpt>
      <trkpt lat="49.34376" lon="1.08106">
        <ele>28</ele>
        <time>2008-04-27T12:41:12Z</time>
      </trkpt>
      <trkpt lat="49.34386" lon="1.08096">
        <ele>28</ele>
        <time>2008-04-27T12:41:15Z</time>
      </trkpt>
      <trkpt lat="49.34395" lon="1.08085">
        <ele>29</ele>
        <time>2008-04-27T12:41:18Z</time>
      </trkpt>
      <trkpt lat="49.34406" lon="1.08076">
        <ele>29</ele>
        <time>2008-04-27T12:41:21Z</time>
      </trkpt>
      <trkpt lat="49.34414" lon="1.08064">
        <ele>30</ele>
        <time>2008-04-27T12:41:24Z</time>
      </trkpt>
      <trkpt lat="49.34422" lon="1.08054">
        <ele>31</ele>
        <time>2008-04-27T12:41:27Z</time>
      </trkpt>
      <trkpt lat="49.34429" lon="1.08043">
        <ele>31</ele>
        <time>2008-04-27T12:41:30Z</time>
      </trkpt>
      <trkpt lat="49.34438" lon="1.08032">
        <ele>32</ele>
        <time>2008-04-27T12:41:33Z</time>
      </trkpt>
      <trkpt lat="49.34446" lon="1.08021">
        <ele>33</ele>
        <time>2008-04-27T12:41:36Z</time>
      </trkpt>
      <trkpt lat="49.34453" lon="1.08011">
        <ele>33</ele>
        <time>2008-04-27T12:41:39Z</time>
      </trkpt>
      <trkpt lat="49.3446" lon="1.08001">
        <ele>34</ele>
        <time>2008-04-27T12:41:42Z</time>
      </trkpt>
      <trkpt lat="49.34469" lon="1.07988">
        <ele>35</ele>
        <time>2008-04-27T12:41:46Z</time>
      </trkpt>
      <trkpt lat="49.34477" lon="1.07977">
        <ele>36</ele>
        <time>2008-04-27T12:41:50Z</time>
      </trkpt>
      <trkpt lat="49.34484" lon="1.07966">
        <ele>37</ele>
        <time>2008-04-27T12:41:54Z</time>
      </trkpt>
      <trkpt lat="49.34492" lon="1.07956">
        <ele>38</ele>
        <time>2008-04-27T12:41:58Z</time>
      </trkpt>
      <trkpt lat="49.34499" lon="1.07944">
        <ele>39</ele>
        <time>2008-04-27T12:42:02Z</time>
      </trkpt>
      <trkpt lat="49.34508" lon="1.07933">
        <ele>40</ele>
        <time>2008-04-27T12:42:07Z</time>
      </trkpt>
      <trkpt lat="49.34517" lon="1.07919">
        <ele>42</ele>
        <time>2008-04-27T12:42:12Z</time>
      </trkpt>
      <trkpt lat="49.34525" lon="1.07903">
        <ele>43</ele>
        <time>2008-04-27T12:42:17Z</time>
      </trkpt>
      <trkpt lat="49.34531" lon="1.07887">
        <ele>44</ele>
        <time>2008-04-27T12:42:22Z</time>
      </trkpt>
      <trkpt lat="49.34538" lon="1.07877">
        <ele>45</ele>
        <time>2008-04-27T12:42:26Z</time>
      </trkpt>
      <trkpt lat="49.34547" lon="1.07865">
        <ele>46</ele>
        <time>2008-04-27T12:42:31Z</time>
      </trkpt>
      <trkpt lat="49.34559" lon="1.07854">
        <ele>47</ele>
        <time>2008-04-27T12:42:37Z</time>
      </trkpt>
      <trkpt lat="49.34567" lon="1.07865">
        <ele>47</ele>
        <time>2008-04-27T12:42:42Z</time>
      </trkpt>
      <trkpt lat="49.34573" lon="1.07881">
        <ele>47</ele>
        <time>2008-04-27T12:42:45Z</time>
      </trkpt>
      <trkpt lat="49.3458" lon="1.07895">
        <ele>47</ele>
        <time>2008-04-27T12:42:48Z</time>
      </trkpt>
      <trkpt lat="49.34585" lon="1.07915">
        <ele>46</ele>
        <time>2008-04-27T12:42:51Z</time>
      </trkpt>
      <trkpt lat="49.34587" lon="1.07932">
        <ele>45</ele>
        <time>2008-04-27T12:42:53Z</time>
      </trkpt>
      <trkpt lat="49.3459" lon="1.07948">
        <ele>45</ele>
        <time>2008-04-27T12:42:55Z</time>
      </trkpt>
      <trkpt lat="49.34594" lon="1.07966">
        <ele>45</ele>
        <time>2008-04-27T12:42:57Z</time>
      </trkpt>
      <trkpt lat="49.34599" lon="1.07985">
        <ele>44</ele>
        <time>2008-04-27T12:42:59Z</time>
      </trkpt>
      <trkpt lat="49.34604" lon="1.08004">
        <ele>44</ele>
        <time>2008-04-27T12:43:01Z</time>
      </trkpt>
      <trkpt lat="49.34608" lon="1.08025">
        <ele>43</ele>
        <time>2008-04-27T12:43:03Z</time>
      </trkpt>
      <trkpt lat="49.34614" lon="1.08046">
        <ele>43</ele>
        <time>2008-04-27T12:43:05Z</time>
      </trkpt>
      <trkpt lat="49.3462" lon="1.08067">
        <ele>43</ele>
        <time>2008-04-27T12:43:07Z</time>
      </trkpt>
      <trkpt lat="49.34626" lon="1.08089">
        <ele>42</ele>
        <time>2008-04-27T12:43:09Z</time>
      </trkpt>
      <trkpt lat="49.34634" lon="1.08111">
        <ele>41</ele>
        <time>2008-04-27T12:43:11Z</time>
      </trkpt>
      <trkpt lat="49.34642" lon="1.08133">
        <ele>40</ele>
        <time>2008-04-27T12:43:13Z</time>
      </trkpt>
      <trkpt lat="49.34652" lon="1.08152">
        <ele>39</ele>
        <time>2008-04-27T12:43:15Z</time>
      </trkpt>
      <trkpt lat="49.34663" lon="1.08171">
        <ele>39</ele>
        <time>2008-04-27T12:43:17Z</time>
      </trkpt>
      <trkpt lat="49.34674" lon="1.08191">
        <ele>38</ele>
        <time>2008-04-27T12:43:19Z</time>
      </trkpt>
      <trkpt lat="49.34685" lon="1.0821">
        <ele>37</ele>
        <time>2008-04-27T12:43:21Z</time>
      </trkpt>
      <trkpt lat="49.34696" lon="1.08229">
        <ele>37</ele>
        <time>2008-04-27T12:43:23Z</time>
      </trkpt>
      <trkpt lat="49.34707" lon="1.08249">
        <ele>36</ele>
        <time>2008-04-27T12:43:25Z</time>
      </trkpt>
      <trkpt lat="49.34718" lon="1.08269">
        <ele>35</ele>
        <time>2008-04-27T12:43:27Z</time>
      </trkpt>
      <trkpt lat="49.34729" lon="1.08289">
        <ele>35</ele>
        <time>2008-04-27T12:43:29Z</time>
      </trkpt>
      <trkpt lat="49.3474" lon="1.08308">
        <ele>34</ele>
        <time>2008-04-27T12:43:31Z</time>
      </trkpt>
      <trkpt lat="49.34751" lon="1.08328">
        <ele>34</ele>
        <time>2008-04-27T12:43:33Z</time>
      </trkpt>
      <trkpt lat="49.34762" lon="1.08348">
        <ele>33</ele>
        <time>2008-04-27T12:43:35Z</time>
      </trkpt>
      <trkpt lat="49.34772" lon="1.08369">
        <ele>32</ele>
        <time>2008-04-27T12:43:37Z</time>
      </trkpt>
      <trkpt lat="49.34779" lon="1.08389">
        <ele>31</ele>
        <time>2008-04-27T12:43:39Z</time>
      </trkpt>
      <trkpt lat="49.34781" lon="1.08406">
        <ele>31</ele>
        <time>2008-04-27T12:43:41Z</time>
      </trkpt>
      <trkpt lat="49.34782" lon="1.08421">
        <ele>30</ele>
        <time>2008-04-27T12:43:43Z</time>
      </trkpt>
      <trkpt lat="49.34787" lon="1.08435">
        <ele>30</ele>
        <time>2008-04-27T12:43:45Z</time>
      </trkpt>
      <trkpt lat="49.34796" lon="1.08437">
        <ele>30</ele>
        <time>2008-04-27T12:43:47Z</time>
      </trkpt>
      <trkpt lat="49.34804" lon="1.08427">
        <ele>30</ele>
        <time>2008-04-27T12:43:49Z</time>
      </trkpt>
      <trkpt lat="49.34812" lon="1.08417">
        <ele>30</ele>
        <time>2008-04-27T12:43:51Z</time>
      </trkpt>
      <trkpt lat="49.3482" lon="1.08406">
        <ele>30</ele>
        <time>2008-04-27T12:43:53Z</time>
      </trkpt>
      <trkpt lat="49.3483" lon="1.08391">
        <ele>30</ele>
        <time>2008-04-27T12:43:56Z</time>
      </trkpt>
      <trkpt lat="49.3484" lon="1.08378">
        <ele>30</ele>
        <time>2008-04-27T12:43:59Z</time>
      </trkpt>
      <trkpt lat="49.3485" lon="1.08366">
        <ele>31</ele>
        <time>2008-04-27T12:44:02Z</time>
      </trkpt>
      <trkpt lat="49.3486" lon="1.08352">
        <ele>31</ele>
        <time>2008-04-27T12:44:05Z</time>
      </trkpt>
      <trkpt lat="49.34867" lon="1.08343">
        <ele>31</ele>
        <time>2008-04-27T12:44:07Z</time>
      </trkpt>
      <trkpt lat="49.34875" lon="1.08333">
        <ele>32</ele>
        <time>2008-04-27T12:44:09Z</time>
      </trkpt>
      <trkpt lat="49.34882" lon="1.08323">
        <ele>32</ele>
        <time>2008-04-27T12:44:11Z</time>
      </trkpt>
      <trkpt lat="49.3489" lon="1.08313">
        <ele>33</ele>
        <time>2008-04-27T12:44:13Z</time>
      </trkpt>
      <trkpt lat="49.34898" lon="1.08304">
        <ele>33</ele>
        <time>2008-04-27T12:44:15Z</time>
      </trkpt>
      <trkpt lat="49.34906" lon="1.08295">
        <ele>33</ele>
        <time>2008-04-27T12:44:17Z</time>
      </trkpt>
      <trkpt lat="49.34916" lon="1.08291">
        <ele>34</ele>
        <time>2008-04-27T12:44:19Z</time>
      </trkpt>
      <trkpt lat="49.34923" lon="1.08297">
        <ele>34</ele>
        <time>2008-04-27T12:44:21Z</time>
      </trkpt>
      <trkpt lat="49.3493" lon="1.08316">
        <ele>33</ele>
        <time>2008-04-27T12:44:23Z</time>
      </trkpt>
      <trkpt lat="49.34937" lon="1.08336">
        <ele>33</ele>
        <time>2008-04-27T12:44:25Z</time>
      </trkpt>
      <trkpt lat="49.34943" lon="1.08354">
        <ele>33</ele>
        <time>2008-04-27T12:44:27Z</time>
      </trkpt>
      <trkpt lat="49.34949" lon="1.0837">
        <ele>32</ele>
        <time>2008-04-27T12:44:29Z</time>
      </trkpt>
      <trkpt lat="49.34956" lon="1.08388">
        <ele>32</ele>
        <time>2008-04-27T12:44:31Z</time>
      </trkpt>
      <trkpt lat="49.34963" lon="1.08405">
        <ele>32</ele>
        <time>2008-04-27T12:44:33Z</time>
      </trkpt>
      <trkpt lat="49.34968" lon="1.08424">
        <ele>32</ele>
        <time>2008-04-27T12:44:35Z</time>
      </trkpt>
      <trkpt lat="49.34973" lon="1.08441">
        <ele>32</ele>
        <time>2008-04-27T12:44:37Z</time>
      </trkpt>
      <trkpt lat="49.34977" lon="1.08458">
        <ele>32</ele>
        <time>2008-04-27T12:44:39Z</time>
      </trkpt>
      <trkpt lat="49.34977" lon="1.08477">
        <ele>32</ele>
        <time>2008-04-27T12:44:41Z</time>
      </trkpt>
      <trkpt lat="49.34982" lon="1.08496">
        <ele>32</ele>
        <time>2008-04-27T12:44:43Z</time>
      </trkpt>
      <trkpt lat="49.3499" lon="1.08509">
        <ele>32</ele>
        <time>2008-04-27T12:44:45Z</time>
      </trkpt>
      <trkpt lat="49.34999" lon="1.08521">
        <ele>32</ele>
        <time>2008-04-27T12:44:47Z</time>
      </trkpt>
      <trkpt lat="49.35006" lon="1.08531">
        <ele>32</ele>
        <time>2008-04-27T12:44:49Z</time>
      </trkpt>
      <trkpt lat="49.35014" lon="1.0854">
        <ele>32</ele>
        <time>2008-04-27T12:44:51Z</time>
      </trkpt>
      <trkpt lat="49.35022" lon="1.0855">
        <ele>31</ele>
        <time>2008-04-27T12:44:54Z</time>
      </trkpt>
      <trkpt lat="49.3503" lon="1.08552">
        <ele>31</ele>
        <time>2008-04-27T12:45:00Z</time>
      </trkpt>
      <trkpt lat="49.35039" lon="1.08539">
        <ele>32</ele>
        <time>2008-04-27T12:45:05Z</time>
      </trkpt>
      <trkpt lat="49.35045" lon="1.0852">
        <ele>34</ele>
        <time>2008-04-27T12:45:10Z</time>
      </trkpt>
      <trkpt lat="49.3505" lon="1.08502">
        <ele>36</ele>
        <time>2008-04-27T12:45:15Z</time>
      </trkpt>
      <trkpt lat="49.35056" lon="1.08488">
        <ele>37</ele>
        <time>2008-04-27T12:45:19Z</time>
      </trkpt>
      <trkpt lat="49.35062" lon="1.08473">
        <ele>38</ele>
        <time>2008-04-27T12:45:23Z</time>
      </trkpt>
      <trkpt lat="49.35067" lon="1.08459">
        <ele>39</ele>
        <time>2008-04-27T12:45:27Z</time>
      </trkpt>
      <trkpt lat="49.35072" lon="1.08445">
        <ele>39</ele>
        <time>2008-04-27T12:45:31Z</time>
      </trkpt>
      <trkpt lat="49.35078" lon="1.08431">
        <ele>40</ele>
        <time>2008-04-27T12:45:35Z</time>
      </trkpt>
      <trkpt lat="49.35084" lon="1.08417">
        <ele>41</ele>
        <time>2008-04-27T12:45:39Z</time>
      </trkpt>
      <trkpt lat="49.35089" lon="1.08401">
        <ele>41</ele>
        <time>2008-04-27T12:45:43Z</time>
      </trkpt>
      <trkpt lat="49.35097" lon="1.08389">
        <ele>42</ele>
        <time>2008-04-27T12:45:47Z</time>
      </trkpt>
      <trkpt lat="49.35106" lon="1.08377">
        <ele>42</ele>
        <time>2008-04-27T12:45:51Z</time>
      </trkpt>
      <trkpt lat="49.35114" lon="1.08363">
        <ele>42</ele>
        <time>2008-04-27T12:45:57Z</time>
      </trkpt>
      <trkpt lat="49.35122" lon="1.08343">
        <ele>43</ele>
        <time>2008-04-27T12:46:03Z</time>
      </trkpt>
      <trkpt lat="49.35136" lon="1.08327">
        <ele>43</ele>
        <time>2008-04-27T12:46:11Z</time>
      </trkpt>
      <trkpt lat="49.35151" lon="1.08308">
        <ele>44</ele>
        <time>2008-04-27T12:46:17Z</time>
      </trkpt>
      <trkpt lat="49.35165" lon="1.08293">
        <ele>44</ele>
        <time>2008-04-27T12:46:21Z</time>
      </trkpt>
      <trkpt lat="49.35178" lon="1.0828">
        <ele>44</ele>
        <time>2008-04-27T12:46:24Z</time>
      </trkpt>
      <trkpt lat="49.35191" lon="1.08264">
        <ele>44</ele>
        <time>2008-04-27T12:46:28Z</time>
      </trkpt>
      <trkpt lat="49.35203" lon="1.0825">
        <ele>45</ele>
        <time>2008-04-27T12:46:32Z</time>
      </trkpt>
      <trkpt lat="49.35218" lon="1.0823">
        <ele>46</ele>
        <time>2008-04-27T12:46:37Z</time>
      </trkpt>
      <trkpt lat="49.35236" lon="1.08216">
        <ele>46</ele>
        <time>2008-04-27T12:46:41Z</time>
      </trkpt>
      <trkpt lat="49.3525" lon="1.08202">
        <ele>46</ele>
        <time>2008-04-27T12:46:45Z</time>
      </trkpt>
      <trkpt lat="49.35266" lon="1.08188">
        <ele>46</ele>
        <time>2008-04-27T12:46:51Z</time>
      </trkpt>
      <trkpt lat="49.3528" lon="1.08171">
        <ele>47</ele>
        <time>2008-04-27T12:46:57Z</time>
      </trkpt>
      <trkpt lat="49.35294" lon="1.08149">
        <ele>47</ele>
        <time>2008-04-27T12:47:13Z</time>
      </trkpt>
      <trkpt lat="49.353" lon="1.08134">
        <ele>48</ele>
        <time>2008-04-27T12:47:18Z</time>
      </trkpt>
      <trkpt lat="49.35306" lon="1.08118">
        <ele>48</ele>
        <time>2008-04-27T12:47:23Z</time>
      </trkpt>
      <trkpt lat="49.35312" lon="1.08104">
        <ele>49</ele>
        <time>2008-04-27T12:47:27Z</time>
      </trkpt>
      <trkpt lat="49.35316" lon="1.0809">
        <ele>49</ele>
        <time>2008-04-27T12:47:34Z</time>
      </trkpt>
      <trkpt lat="49.35325" lon="1.08069">
        <ele>50</ele>
        <time>2008-04-27T12:47:40Z</time>
      </trkpt>
      <trkpt lat="49.35335" lon="1.08045">
        <ele>51</ele>
        <time>2008-04-27T12:47:43Z</time>
      </trkpt>
      <trkpt lat="49.35345" lon="1.08023">
        <ele>52</ele>
        <time>2008-04-27T12:47:45Z</time>
      </trkpt>
      <trkpt lat="49.35357" lon="1.08004">
        <ele>53</ele>
        <time>2008-04-27T12:47:47Z</time>
      </trkpt>
      <trkpt lat="49.35368" lon="1.07991">
        <ele>53</ele>
        <time>2008-04-27T12:47:49Z</time>
      </trkpt>
      <trkpt lat="49.35382" lon="1.07971">
        <ele>54</ele>
        <time>2008-04-27T12:47:53Z</time>
      </trkpt>
      <trkpt lat="49.35391" lon="1.07954">
        <ele>55</ele>
        <time>2008-04-27T12:47:58Z</time>
      </trkpt>
      <trkpt lat="49.35401" lon="1.07929">
        <ele>57</ele>
        <time>2008-04-27T12:48:05Z</time>
      </trkpt>
      <trkpt lat="49.35416" lon="1.07908">
        <ele>58</ele>
        <time>2008-04-27T12:48:11Z</time>
      </trkpt>
      <trkpt lat="49.35429" lon="1.07887">
        <ele>59</ele>
        <time>2008-04-27T12:48:18Z</time>
      </trkpt>
      <trkpt lat="49.35434" lon="1.07872">
        <ele>59</ele>
        <time>2008-04-27T12:48:42Z</time>
      </trkpt>
      <trkpt lat="49.35432" lon="1.0789">
        <ele>59</ele>
        <time>2008-04-27T12:55:11Z</time>
      </trkpt>
      <trkpt lat="49.35443" lon="1.07898">
        <ele>59</ele>
        <time>2008-04-27T12:55:15Z</time>
      </trkpt>
      <trkpt lat="49.35453" lon="1.07906">
        <ele>58</ele>
        <time>2008-04-27T12:55:18Z</time>
      </trkpt>
      <trkpt lat="49.35464" lon="1.07917">
        <ele>58</ele>
        <time>2008-04-27T12:55:21Z</time>
      </trkpt>
      <trkpt lat="49.35474" lon="1.07928">
        <ele>57</ele>
        <time>2008-04-27T12:55:24Z</time>
      </trkpt>
      <trkpt lat="49.35485" lon="1.07938">
        <ele>57</ele>
        <time>2008-04-27T12:55:27Z</time>
      </trkpt>
      <trkpt lat="49.35496" lon="1.07948">
        <ele>57</ele>
        <time>2008-04-27T12:55:30Z</time>
      </trkpt>
      <trkpt lat="49.35506" lon="1.07959">
        <ele>57</ele>
        <time>2008-04-27T12:55:33Z</time>
      </trkpt>
      <trkpt lat="49.35517" lon="1.07969">
        <ele>57</ele>
        <time>2008-04-27T12:55:36Z</time>
      </trkpt>
      <trkpt lat="49.35529" lon="1.07982">
        <ele>57</ele>
        <time>2008-04-27T12:55:39Z</time>
      </trkpt>
      <trkpt lat="49.35537" lon="1.07991">
        <ele>57</ele>
        <time>2008-04-27T12:55:41Z</time>
      </trkpt>
      <trkpt lat="49.35544" lon="1.08001">
        <ele>57</ele>
        <time>2008-04-27T12:55:43Z</time>
      </trkpt>
      <trkpt lat="49.35551" lon="1.0801">
        <ele>56</ele>
        <time>2008-04-27T12:55:45Z</time>
      </trkpt>
      <trkpt lat="49.35561" lon="1.08024">
        <ele>56</ele>
        <time>2008-04-27T12:55:48Z</time>
      </trkpt>
      <trkpt lat="49.35568" lon="1.08034">
        <ele>56</ele>
        <time>2008-04-27T12:55:50Z</time>
      </trkpt>
      <trkpt lat="49.35577" lon="1.08043">
        <ele>56</ele>
        <time>2008-04-27T12:55:52Z</time>
      </trkpt>
      <trkpt lat="49.35585" lon="1.08054">
        <ele>56</ele>
        <time>2008-04-27T12:55:54Z</time>
      </trkpt>
      <trkpt lat="49.35594" lon="1.08065">
        <ele>56</ele>
        <time>2008-04-27T12:55:56Z</time>
      </trkpt>
      <trkpt lat="49.35603" lon="1.08077">
        <ele>55</ele>
        <time>2008-04-27T12:55:58Z</time>
      </trkpt>
      <trkpt lat="49.35612" lon="1.0809">
        <ele>54</ele>
        <time>2008-04-27T12:56:00Z</time>
      </trkpt>
      <trkpt lat="49.35619" lon="1.08102">
        <ele>54</ele>
        <time>2008-04-27T12:56:02Z</time>
      </trkpt>
      <trkpt lat="49.35628" lon="1.08113">
        <ele>53</ele>
        <time>2008-04-27T12:56:04Z</time>
      </trkpt>
      <trkpt lat="49.35636" lon="1.08123">
        <ele>53</ele>
        <time>2008-04-27T12:56:06Z</time>
      </trkpt>
      <trkpt lat="49.35644" lon="1.08134">
        <ele>53</ele>
        <time>2008-04-27T12:56:08Z</time>
      </trkpt>
      <trkpt lat="49.35652" lon="1.08145">
        <ele>53</ele>
        <time>2008-04-27T12:56:10Z</time>
      </trkpt>
      <trkpt lat="49.35661" lon="1.08155">
        <ele>52</ele>
        <time>2008-04-27T12:56:12Z</time>
      </trkpt>
      <trkpt lat="49.35668" lon="1.08167">
        <ele>52</ele>
        <time>2008-04-27T12:56:14Z</time>
      </trkpt>
      <trkpt lat="49.35677" lon="1.08178">
        <ele>52</ele>
        <time>2008-04-27T12:56:16Z</time>
      </trkpt>
      <trkpt lat="49.35685" lon="1.08188">
        <ele>51</ele>
        <time>2008-04-27T12:56:18Z</time>
      </trkpt>
      <trkpt lat="49.35693" lon="1.08198">
        <ele>51</ele>
        <time>2008-04-27T12:56:20Z</time>
      </trkpt>
      <trkpt lat="49.357" lon="1.08208">
        <ele>51</ele>
        <time>2008-04-27T12:56:22Z</time>
      </trkpt>
      <trkpt lat="49.35709" lon="1.08219">
        <ele>51</ele>
        <time>2008-04-27T12:56:24Z</time>
      </trkpt>
      <trkpt lat="49.35716" lon="1.0823">
        <ele>51</ele>
        <time>2008-04-27T12:56:26Z</time>
      </trkpt>
      <trkpt lat="49.35724" lon="1.08241">
        <ele>51</ele>
        <time>2008-04-27T12:56:28Z</time>
      </trkpt>
      <trkpt lat="49.3573" lon="1.0825">
        <ele>51</ele>
        <time>2008-04-27T12:56:30Z</time>
      </trkpt>
      <trkpt lat="49.35737" lon="1.08244">
        <ele>51</ele>
        <time>2008-04-27T12:56:33Z</time>
      </trkpt>
      <trkpt lat="49.35746" lon="1.08237">
        <ele>51</ele>
        <time>2008-04-27T12:56:36Z</time>
      </trkpt>
      <trkpt lat="49.3575" lon="1.08214">
        <ele>52</ele>
        <time>2008-04-27T12:56:40Z</time>
      </trkpt>
      <trkpt lat="49.3575" lon="1.08191">
        <ele>54</ele>
        <time>2008-04-27T12:56:43Z</time>
      </trkpt>
      <trkpt lat="49.35753" lon="1.08167">
        <ele>54</ele>
        <time>2008-04-27T12:56:47Z</time>
      </trkpt>
      <trkpt lat="49.35756" lon="1.08148">
        <ele>55</ele>
        <time>2008-04-27T12:56:50Z</time>
      </trkpt>
      <trkpt lat="49.3576" lon="1.08127">
        <ele>56</ele>
        <time>2008-04-27T12:56:55Z</time>
      </trkpt>
      <trkpt lat="49.35765" lon="1.08102">
        <ele>57</ele>
        <time>2008-04-27T12:57:01Z</time>
      </trkpt>
      <trkpt lat="49.35773" lon="1.08082">
        <ele>58</ele>
        <time>2008-04-27T12:57:05Z</time>
      </trkpt>
      <trkpt lat="49.35785" lon="1.08037">
        <ele>60</ele>
        <time>2008-04-27T12:57:16Z</time>
      </trkpt>
      <trkpt lat="49.35792" lon="1.08017">
        <ele>61</ele>
        <time>2008-04-27T12:57:20Z</time>
      </trkpt>
      <trkpt lat="49.35798" lon="1.07997">
        <ele>62</ele>
        <time>2008-04-27T12:57:24Z</time>
      </trkpt>
      <trkpt lat="49.358" lon="1.07971">
        <ele>63</ele>
        <time>2008-04-27T12:57:29Z</time>
      </trkpt>
      <trkpt lat="49.35803" lon="1.0795">
        <ele>63</ele>
        <time>2008-04-27T12:57:33Z</time>
      </trkpt>
      <trkpt lat="49.3581" lon="1.0793">
        <ele>64</ele>
        <time>2008-04-27T12:57:37Z</time>
      </trkpt>
      <trkpt lat="49.35822" lon="1.07912">
        <ele>64</ele>
        <time>2008-04-27T12:57:42Z</time>
      </trkpt>
      <trkpt lat="49.35832" lon="1.079">
        <ele>65</ele>
        <time>2008-04-27T12:57:45Z</time>
      </trkpt>
      <trkpt lat="49.35841" lon="1.07885">
        <ele>65</ele>
        <time>2008-04-27T12:57:48Z</time>
      </trkpt>
      <trkpt lat="49.35851" lon="1.07878">
        <ele>66</ele>
        <time>2008-04-27T12:57:50Z</time>
      </trkpt>
      <trkpt lat="49.35863" lon="1.07873">
        <ele>66</ele>
        <time>2008-04-27T12:57:52Z</time>
      </trkpt>
      <trkpt lat="49.35874" lon="1.07863">
        <ele>66</ele>
        <time>2008-04-27T12:57:55Z</time>
      </trkpt>
      <trkpt lat="49.35885" lon="1.07854">
        <ele>67</ele>
        <time>2008-04-27T12:57:58Z</time>
      </trkpt>
      <trkpt lat="49.35902" lon="1.07844">
        <ele>67</ele>
        <time>2008-04-27T12:58:01Z</time>
      </trkpt>
      <trkpt lat="49.35915" lon="1.07839">
        <ele>67</ele>
        <time>2008-04-27T12:58:03Z</time>
      </trkpt>
      <trkpt lat="49.35927" lon="1.07833">
        <ele>67</ele>
        <time>2008-04-27T12:58:05Z</time>
      </trkpt>
      <trkpt lat="49.35941" lon="1.07824">
        <ele>67</ele>
        <time>2008-04-27T12:58:07Z</time>
      </trkpt>
      <trkpt lat="49.35953" lon="1.07813">
        <ele>66</ele>
        <time>2008-04-27T12:58:09Z</time>
      </trkpt>
      <trkpt lat="49.35966" lon="1.07805">
        <ele>66</ele>
        <time>2008-04-27T12:58:11Z</time>
      </trkpt>
      <trkpt lat="49.35981" lon="1.07795">
        <ele>66</ele>
        <time>2008-04-27T12:58:13Z</time>
      </trkpt>
      <trkpt lat="49.35991" lon="1.07782">
        <ele>65</ele>
        <time>2008-04-27T12:58:15Z</time>
      </trkpt>
      <trkpt lat="49.35996" lon="1.07765">
        <ele>65</ele>
        <time>2008-04-27T12:58:17Z</time>
      </trkpt>
      <trkpt lat="49.36" lon="1.07749">
        <ele>65</ele>
        <time>2008-04-27T12:58:20Z</time>
      </trkpt>
      <trkpt lat="49.35993" lon="1.07717">
        <ele>66</ele>
        <time>2008-04-27T12:58:28Z</time>
      </trkpt>
      <trkpt lat="49.35922" lon="1.07649">
        <ele>68</ele>
        <time>2008-04-27T12:58:39Z</time>
      </trkpt>
      <trkpt lat="49.35911" lon="1.07666">
        <ele>68</ele>
        <time>2008-04-27T12:58:43Z</time>
      </trkpt>
      <trkpt lat="49.35905" lon="1.07684">
        <ele>68</ele>
        <time>2008-04-27T12:58:46Z</time>
      </trkpt>
      <trkpt lat="49.35913" lon="1.07692">
        <ele>68</ele>
        <time>2008-04-27T12:58:49Z</time>
      </trkpt>
      <trkpt lat="49.35927" lon="1.07701">
        <ele>68</ele>
        <time>2008-04-27T12:58:52Z</time>
      </trkpt>
      <trkpt lat="49.35938" lon="1.07707">
        <ele>68</ele>
        <time>2008-04-27T12:58:54Z</time>
      </trkpt>
      <trkpt lat="49.3595" lon="1.07716">
        <ele>67</ele>
        <time>2008-04-27T12:58:56Z</time>
      </trkpt>
      <trkpt lat="49.35964" lon="1.07724">
        <ele>67</ele>
        <time>2008-04-27T12:58:58Z</time>
      </trkpt>
      <trkpt lat="49.35977" lon="1.07731">
        <ele>66</ele>
        <time>2008-04-27T12:59:00Z</time>
      </trkpt>
      <trkpt lat="49.3599" lon="1.07738">
        <ele>66</ele>
        <time>2008-04-27T12:59:02Z</time>
      </trkpt>
      <trkpt lat="49.36003" lon="1.07745">
        <ele>65</ele>
        <time>2008-04-27T12:59:04Z</time>
      </trkpt>
      <trkpt lat="49.36017" lon="1.07751">
        <ele>64</ele>
        <time>2008-04-27T12:59:06Z</time>
      </trkpt>
      <trkpt lat="49.3603" lon="1.07759">
        <ele>63</ele>
        <time>2008-04-27T12:59:08Z</time>
      </trkpt>
      <trkpt lat="49.36042" lon="1.07771">
        <ele>63</ele>
        <time>2008-04-27T12:59:10Z</time>
      </trkpt>
      <trkpt lat="49.36054" lon="1.07782">
        <ele>62</ele>
        <time>2008-04-27T12:59:12Z</time>
      </trkpt>
      <trkpt lat="49.36066" lon="1.07792">
        <ele>61</ele>
        <time>2008-04-27T12:59:14Z</time>
      </trkpt>
      <trkpt lat="49.3608" lon="1.07803">
        <ele>60</ele>
        <time>2008-04-27T12:59:16Z</time>
      </trkpt>
      <trkpt lat="49.36094" lon="1.07813">
        <ele>58</ele>
        <time>2008-04-27T12:59:18Z</time>
      </trkpt>
      <trkpt lat="49.36109" lon="1.07818">
        <ele>56</ele>
        <time>2008-04-27T12:59:20Z</time>
      </trkpt>
      <trkpt lat="49.36126" lon="1.07825">
        <ele>55</ele>
        <time>2008-04-27T12:59:22Z</time>
      </trkpt>
      <trkpt lat="49.3614" lon="1.07836">
        <ele>55</ele>
        <time>2008-04-27T12:59:24Z</time>
      </trkpt>
      <trkpt lat="49.36154" lon="1.07847">
        <ele>55</ele>
        <time>2008-04-27T12:59:26Z</time>
      </trkpt>
      <trkpt lat="49.36166" lon="1.07861">
        <ele>55</ele>
        <time>2008-04-27T12:59:28Z</time>
      </trkpt>
      <trkpt lat="49.36184" lon="1.07882">
        <ele>54</ele>
        <time>2008-04-27T12:59:30Z</time>
      </trkpt>
      <trkpt lat="49.36189" lon="1.07891">
        <ele>53</ele>
        <time>2008-04-27T12:59:31Z</time>
      </trkpt>
      <trkpt lat="49.362" lon="1.07907">
        <ele>52</ele>
        <time>2008-04-27T12:59:33Z</time>
      </trkpt>
      <trkpt lat="49.3621" lon="1.0792">
        <ele>52</ele>
        <time>2008-04-27T12:59:35Z</time>
      </trkpt>
      <trkpt lat="49.36223" lon="1.07935">
        <ele>51</ele>
        <time>2008-04-27T12:59:37Z</time>
      </trkpt>
      <trkpt lat="49.36236" lon="1.07945">
        <ele>50</ele>
        <time>2008-04-27T12:59:39Z</time>
      </trkpt>
      <trkpt lat="49.36251" lon="1.07957">
        <ele>48</ele>
        <time>2008-04-27T12:59:41Z</time>
      </trkpt>
      <trkpt lat="49.36262" lon="1.07974">
        <ele>48</ele>
        <time>2008-04-27T12:59:43Z</time>
      </trkpt>
      <trkpt lat="49.36276" lon="1.07991">
        <ele>47</ele>
        <time>2008-04-27T12:59:45Z</time>
      </trkpt>
      <trkpt lat="49.36292" lon="1.0801">
        <ele>46</ele>
        <time>2008-04-27T12:59:47Z</time>
      </trkpt>
      <trkpt lat="49.36307" lon="1.08032">
        <ele>45</ele>
        <time>2008-04-27T12:59:49Z</time>
      </trkpt>
      <trkpt lat="49.36316" lon="1.08056">
        <ele>44</ele>
        <time>2008-04-27T12:59:51Z</time>
      </trkpt>
      <trkpt lat="49.36319" lon="1.08077">
        <ele>44</ele>
        <time>2008-04-27T12:59:53Z</time>
      </trkpt>
      <trkpt lat="49.36326" lon="1.08106">
        <ele>43</ele>
        <time>2008-04-27T12:59:56Z</time>
      </trkpt>
      <trkpt lat="49.36335" lon="1.08125">
        <ele>43</ele>
        <time>2008-04-27T13:00:00Z</time>
      </trkpt>
      <trkpt lat="49.36346" lon="1.08109">
        <ele>44</ele>
        <time>2008-04-27T13:00:08Z</time>
      </trkpt>
      <trkpt lat="49.36357" lon="1.08082">
        <ele>45</ele>
        <time>2008-04-27T13:00:13Z</time>
      </trkpt>
      <trkpt lat="49.36365" lon="1.08059">
        <ele>45</ele>
        <time>2008-04-27T13:00:17Z</time>
      </trkpt>
      <trkpt lat="49.36368" lon="1.08036">
        <ele>45</ele>
        <time>2008-04-27T13:00:21Z</time>
      </trkpt>
      <trkpt lat="49.36375" lon="1.08014">
        <ele>45</ele>
        <time>2008-04-27T13:00:25Z</time>
      </trkpt>
      <trkpt lat="49.36386" lon="1.07996">
        <ele>46</ele>
        <time>2008-04-27T13:00:28Z</time>
      </trkpt>
      <trkpt lat="49.36398" lon="1.07977">
        <ele>46</ele>
        <time>2008-04-27T13:00:31Z</time>
      </trkpt>
      <trkpt lat="49.36414" lon="1.07969">
        <ele>46</ele>
        <time>2008-04-27T13:00:34Z</time>
      </trkpt>
      <trkpt lat="49.36429" lon="1.07958">
        <ele>46</ele>
        <time>2008-04-27T13:00:38Z</time>
      </trkpt>
      <trkpt lat="49.36441" lon="1.07938">
        <ele>48</ele>
        <time>2008-04-27T13:00:42Z</time>
      </trkpt>
      <trkpt lat="49.36453" lon="1.07923">
        <ele>49</ele>
        <time>2008-04-27T13:00:45Z</time>
      </trkpt>
      <trkpt lat="49.36465" lon="1.07903">
        <ele>49</ele>
        <time>2008-04-27T13:00:49Z</time>
      </trkpt>
      <trkpt lat="49.36479" lon="1.07892">
        <ele>49</ele>
        <time>2008-04-27T13:00:52Z</time>
      </trkpt>
      <trkpt lat="49.36496" lon="1.07882">
        <ele>50</ele>
        <time>2008-04-27T13:00:55Z</time>
      </trkpt>
      <trkpt lat="49.3651" lon="1.07876">
        <ele>51</ele>
        <time>2008-04-27T13:00:58Z</time>
      </trkpt>
      <trkpt lat="49.36523" lon="1.0787">
        <ele>52</ele>
        <time>2008-04-27T13:01:01Z</time>
      </trkpt>
      <trkpt lat="49.36534" lon="1.07864">
        <ele>53</ele>
        <time>2008-04-27T13:01:04Z</time>
      </trkpt>
      <trkpt lat="49.36544" lon="1.0786">
        <ele>53</ele>
        <time>2008-04-27T13:01:07Z</time>
      </trkpt>
      <trkpt lat="49.36561" lon="1.07851">
        <ele>54</ele>
        <time>2008-04-27T13:01:10Z</time>
      </trkpt>
      <trkpt lat="49.36574" lon="1.07844">
        <ele>54</ele>
        <time>2008-04-27T13:01:13Z</time>
      </trkpt>
      <trkpt lat="49.36591" lon="1.07836">
        <ele>54</ele>
        <time>2008-04-27T13:01:16Z</time>
      </trkpt>
      <trkpt lat="49.36603" lon="1.07827">
        <ele>54</ele>
        <time>2008-04-27T13:01:19Z</time>
      </trkpt>
      <trkpt lat="49.36621" lon="1.07817">
        <ele>54</ele>
        <time>2008-04-27T13:01:22Z</time>
      </trkpt>
      <trkpt lat="49.36636" lon="1.07801">
        <ele>55</ele>
        <time>2008-04-27T13:01:26Z</time>
      </trkpt>
      <trkpt lat="49.36649" lon="1.07786">
        <ele>55</ele>
        <time>2008-04-27T13:01:31Z</time>
      </trkpt>
      <trkpt lat="49.36658" lon="1.07777">
        <ele>55</ele>
        <time>2008-04-27T13:01:34Z</time>
      </trkpt>
      <trkpt lat="49.36668" lon="1.07763">
        <ele>56</ele>
        <time>2008-04-27T13:01:38Z</time>
      </trkpt>
      <trkpt lat="49.36674" lon="1.07745">
        <ele>56</ele>
        <time>2008-04-27T13:01:42Z</time>
      </trkpt>
      <trkpt lat="49.3668" lon="1.07727">
        <ele>56</ele>
        <time>2008-04-27T13:01:45Z</time>
      </trkpt>
      <trkpt lat="49.36685" lon="1.07707">
        <ele>57</ele>
        <time>2008-04-27T13:01:48Z</time>
      </trkpt>
      <trkpt lat="49.36688" lon="1.07685">
        <ele>57</ele>
        <time>2008-04-27T13:01:51Z</time>
      </trkpt>
      <trkpt lat="49.3669" lon="1.07667">
        <ele>58</ele>
        <time>2008-04-27T13:01:54Z</time>
      </trkpt>
      <trkpt lat="49.3669" lon="1.07649">
        <ele>58</ele>
        <time>2008-04-27T13:01:57Z</time>
      </trkpt>
      <trkpt lat="49.36695" lon="1.07622">
        <ele>59</ele>
        <time>2008-04-27T13:02:01Z</time>
      </trkpt>
      <trkpt lat="49.3671" lon="1.07601">
        <ele>60</ele>
        <time>2008-04-27T13:02:05Z</time>
      </trkpt>
      <trkpt lat="49.36724" lon="1.07577">
        <ele>60</ele>
        <time>2008-04-27T13:02:10Z</time>
      </trkpt>
      <trkpt lat="49.36728" lon="1.07551">
        <ele>60</ele>
        <time>2008-04-27T13:02:14Z</time>
      </trkpt>
      <trkpt lat="49.36729" lon="1.07534">
        <ele>60</ele>
        <time>2008-04-27T13:02:17Z</time>
      </trkpt>
      <trkpt lat="49.36735" lon="1.07513">
        <ele>61</ele>
        <time>2008-04-27T13:02:21Z</time>
      </trkpt>
      <trkpt lat="49.36729" lon="1.07476">
        <ele>62</ele>
        <time>2008-04-27T13:02:25Z</time>
      </trkpt>
      <trkpt lat="49.36729" lon="1.07447">
        <ele>62</ele>
        <time>2008-04-27T13:02:30Z</time>
      </trkpt>
      <trkpt lat="49.36725" lon="1.07418">
        <ele>63</ele>
        <time>2008-04-27T13:02:34Z</time>
      </trkpt>
      <trkpt lat="49.36719" lon="1.07393">
        <ele>64</ele>
        <time>2008-04-27T13:02:38Z</time>
      </trkpt>
      <trkpt lat="49.36719" lon="1.07372">
        <ele>64</ele>
        <time>2008-04-27T13:02:42Z</time>
      </trkpt>
      <trkpt lat="49.36709" lon="1.07343">
        <ele>65</ele>
        <time>2008-04-27T13:02:46Z</time>
      </trkpt>
      <trkpt lat="49.36709" lon="1.07314">
        <ele>65</ele>
        <time>2008-04-27T13:02:51Z</time>
      </trkpt>
      <trkpt lat="49.36711" lon="1.07292">
        <ele>65</ele>
        <time>2008-04-27T13:02:55Z</time>
      </trkpt>
      <trkpt lat="49.36708" lon="1.07266">
        <ele>65</ele>
        <time>2008-04-27T13:02:59Z</time>
      </trkpt>
      <trkpt lat="49.36701" lon="1.07244">
        <ele>65</ele>
        <time>2008-04-27T13:03:03Z</time>
      </trkpt>
      <trkpt lat="49.36699" lon="1.07229">
        <ele>66</ele>
        <time>2008-04-27T13:03:06Z</time>
      </trkpt>
      <trkpt lat="49.36691" lon="1.07212">
        <ele>66</ele>
        <time>2008-04-27T13:03:09Z</time>
      </trkpt>
      <trkpt lat="49.36674" lon="1.07172">
        <ele>67</ele>
        <time>2008-04-27T13:03:16Z</time>
      </trkpt>
      <trkpt lat="49.36665" lon="1.0716">
        <ele>67</ele>
        <time>2008-04-27T13:03:20Z</time>
      </trkpt>
      <trkpt lat="49.36657" lon="1.07135">
        <ele>68</ele>
        <time>2008-04-27T13:03:24Z</time>
      </trkpt>
      <trkpt lat="49.36653" lon="1.07114">
        <ele>68</ele>
        <time>2008-04-27T13:03:27Z</time>
      </trkpt>
      <trkpt lat="49.36652" lon="1.07094">
        <ele>69</ele>
        <time>2008-04-27T13:03:30Z</time>
      </trkpt>
      <trkpt lat="49.36648" lon="1.07068">
        <ele>69</ele>
        <time>2008-04-27T13:03:34Z</time>
      </trkpt>
      <trkpt lat="49.36643" lon="1.07046">
        <ele>69</ele>
        <time>2008-04-27T13:03:38Z</time>
      </trkpt>
      <trkpt lat="49.3664" lon="1.07019">
        <ele>70</ele>
        <time>2008-04-27T13:03:43Z</time>
      </trkpt>
      <trkpt lat="49.36637" lon="1.06997">
        <ele>70</ele>
        <time>2008-04-27T13:03:47Z</time>
      </trkpt>
      <trkpt lat="49.36631" lon="1.06969">
        <ele>70</ele>
        <time>2008-04-27T13:03:51Z</time>
      </trkpt>
      <trkpt lat="49.3663" lon="1.06947">
        <ele>70</ele>
        <time>2008-04-27T13:03:55Z</time>
      </trkpt>
      <trkpt lat="49.36627" lon="1.06922">
        <ele>70</ele>
        <time>2008-04-27T13:04:00Z</time>
      </trkpt>
      <trkpt lat="49.36624" lon="1.069">
        <ele>71</ele>
        <time>2008-04-27T13:04:04Z</time>
      </trkpt>
      <trkpt lat="49.36619" lon="1.06873">
        <ele>72</ele>
        <time>2008-04-27T13:04:09Z</time>
      </trkpt>
      <trkpt lat="49.36619" lon="1.0685">
        <ele>72</ele>
        <time>2008-04-27T13:04:14Z</time>
      </trkpt>
      <trkpt lat="49.36639" lon="1.06827">
        <ele>73</ele>
        <time>2008-04-27T13:05:03Z</time>
      </trkpt>
      <trkpt lat="49.36649" lon="1.06818">
        <ele>73</ele>
        <time>2008-04-27T13:05:09Z</time>
      </trkpt>
      <trkpt lat="49.36662" lon="1.06805">
        <ele>74</ele>
        <time>2008-04-27T13:05:17Z</time>
      </trkpt>
      <trkpt lat="49.36678" lon="1.06797">
        <ele>75</ele>
        <time>2008-04-27T13:05:23Z</time>
      </trkpt>
      <trkpt lat="49.36691" lon="1.06789">
        <ele>75</ele>
        <time>2008-04-27T13:05:29Z</time>
      </trkpt>
      <trkpt lat="49.36704" lon="1.06783">
        <ele>75</ele>
        <time>2008-04-27T13:05:34Z</time>
      </trkpt>
      <trkpt lat="49.36725" lon="1.06763">
        <ele>76</ele>
        <time>2008-04-27T13:05:46Z</time>
      </trkpt>
      <trkpt lat="49.36745" lon="1.0675">
        <ele>77</ele>
        <time>2008-04-27T13:05:53Z</time>
      </trkpt>
      <trkpt lat="49.36767" lon="1.06736">
        <ele>78</ele>
        <time>2008-04-27T13:06:02Z</time>
      </trkpt>
      <trkpt lat="49.36801" lon="1.06709">
        <ele>79</ele>
        <time>2008-04-27T13:06:18Z</time>
      </trkpt>
      <trkpt lat="49.3682" lon="1.06695">
        <ele>79</ele>
        <time>2008-04-27T13:06:25Z</time>
      </trkpt>
      <trkpt lat="49.3683" lon="1.06696">
        <ele>80</ele>
        <time>2008-04-27T13:06:30Z</time>
      </trkpt>
      <trkpt lat="49.36847" lon="1.06702">
        <ele>80</ele>
        <time>2008-04-27T13:06:35Z</time>
      </trkpt>
      <trkpt lat="49.36856" lon="1.06717">
        <ele>80</ele>
        <time>2008-04-27T13:06:40Z</time>
      </trkpt>
      <trkpt lat="49.36864" lon="1.06732">
        <ele>80</ele>
        <time>2008-04-27T13:06:45Z</time>
      </trkpt>
      <trkpt lat="49.36864" lon="1.06749">
        <ele>79</ele>
        <time>2008-04-27T13:06:50Z</time>
      </trkpt>
      <trkpt lat="49.36867" lon="1.06784">
        <ele>79</ele>
        <time>2008-04-27T13:08:28Z</time>
      </trkpt>
      <trkpt lat="49.36876" lon="1.06791">
        <ele>79</ele>
        <time>2008-04-27T13:08:34Z</time>
      </trkpt>
      <trkpt lat="49.36882" lon="1.06806">
        <ele>79</ele>
        <time>2008-04-27T13:08:38Z</time>
      </trkpt>
      <trkpt lat="49.36888" lon="1.0682">
        <ele>79</ele>
        <time>2008-04-27T13:08:41Z</time>
      </trkpt>
      <trkpt lat="49.36897" lon="1.06828">
        <ele>79</ele>
        <time>2008-04-27T13:08:44Z</time>
      </trkpt>
      <trkpt lat="49.36911" lon="1.06809">
        <ele>79</ele>
        <time>2008-04-27T13:08:48Z</time>
      </trkpt>
      <trkpt lat="49.36919" lon="1.06791">
        <ele>79</ele>
        <time>2008-04-27T13:08:51Z</time>
      </trkpt>
      <trkpt lat="49.36918" lon="1.06764">
        <ele>79</ele>
        <time>2008-04-27T13:08:55Z</time>
      </trkpt>
      <trkpt lat="49.36926" lon="1.0674">
        <ele>80</ele>
        <time>2008-04-27T13:09:00Z</time>
      </trkpt>
      <trkpt lat="49.36944" lon="1.06741">
        <ele>80</ele>
        <time>2008-04-27T13:09:05Z</time>
      </trkpt>
      <trkpt lat="49.3696" lon="1.06754">
        <ele>80</ele>
        <time>2008-04-27T13:09:09Z</time>
      </trkpt>
      <trkpt lat="49.36976" lon="1.06763">
        <ele>80</ele>
        <time>2008-04-27T13:09:12Z</time>
      </trkpt>
      <trkpt lat="49.36996" lon="1.06772">
        <ele>80</ele>
        <time>2008-04-27T13:09:15Z</time>
      </trkpt>
      <trkpt lat="49.37009" lon="1.06782">
        <ele>80</ele>
        <time>2008-04-27T13:09:18Z</time>
      </trkpt>
      <trkpt lat="49.37022" lon="1.06792">
        <ele>80</ele>
        <time>2008-04-27T13:09:21Z</time>
      </trkpt>
      <trkpt lat="49.37035" lon="1.06805">
        <ele>80</ele>
        <time>2008-04-27T13:09:24Z</time>
      </trkpt>
      <trkpt lat="49.37045" lon="1.06817">
        <ele>79</ele>
        <time>2008-04-27T13:09:26Z</time>
      </trkpt>
      <trkpt lat="49.3706" lon="1.06828">
        <ele>79</ele>
        <time>2008-04-27T13:09:29Z</time>
      </trkpt>
      <trkpt lat="49.37074" lon="1.06834">
        <ele>79</ele>
        <time>2008-04-27T13:09:31Z</time>
      </trkpt>
      <trkpt lat="49.37087" lon="1.06838">
        <ele>79</ele>
        <time>2008-04-27T13:09:33Z</time>
      </trkpt>
      <trkpt lat="49.371" lon="1.06851">
        <ele>79</ele>
        <time>2008-04-27T13:09:36Z</time>
      </trkpt>
      <trkpt lat="49.37115" lon="1.06862">
        <ele>79</ele>
        <time>2008-04-27T13:09:39Z</time>
      </trkpt>
      <trkpt lat="49.3713" lon="1.06872">
        <ele>79</ele>
        <time>2008-04-27T13:09:42Z</time>
      </trkpt>
      <trkpt lat="49.37143" lon="1.06882">
        <ele>78</ele>
        <time>2008-04-27T13:09:45Z</time>
      </trkpt>
      <trkpt lat="49.37156" lon="1.06891">
        <ele>78</ele>
        <time>2008-04-27T13:09:48Z</time>
      </trkpt>
      <trkpt lat="49.3717" lon="1.06898">
        <ele>78</ele>
        <time>2008-04-27T13:09:51Z</time>
      </trkpt>
      <trkpt lat="49.37183" lon="1.0691">
        <ele>78</ele>
        <time>2008-04-27T13:09:54Z</time>
      </trkpt>
      <trkpt lat="49.37198" lon="1.06921">
        <ele>78</ele>
        <time>2008-04-27T13:09:57Z</time>
      </trkpt>
      <trkpt lat="49.37215" lon="1.06932">
        <ele>78</ele>
        <time>2008-04-27T13:10:00Z</time>
      </trkpt>
      <trkpt lat="49.37228" lon="1.06944">
        <ele>77</ele>
        <time>2008-04-27T13:10:03Z</time>
      </trkpt>
      <trkpt lat="49.37238" lon="1.06955">
        <ele>77</ele>
        <time>2008-04-27T13:10:05Z</time>
      </trkpt>
      <trkpt lat="49.37247" lon="1.06964">
        <ele>77</ele>
        <time>2008-04-27T13:10:07Z</time>
      </trkpt>
      <trkpt lat="49.37257" lon="1.0697">
        <ele>77</ele>
        <time>2008-04-27T13:10:09Z</time>
      </trkpt>
      <trkpt lat="49.37273" lon="1.0698">
        <ele>77</ele>
        <time>2008-04-27T13:10:12Z</time>
      </trkpt>
      <trkpt lat="49.37288" lon="1.06993">
        <ele>77</ele>
        <time>2008-04-27T13:10:15Z</time>
      </trkpt>
      <trkpt lat="49.37286" lon="1.07014">
        <ele>77</ele>
        <time>2008-04-27T13:10:18Z</time>
      </trkpt>
      <trkpt lat="49.3728" lon="1.07031">
        <ele>77</ele>
        <time>2008-04-27T13:10:20Z</time>
      </trkpt>
      <trkpt lat="49.37275" lon="1.07049">
        <ele>77</ele>
        <time>2008-04-27T13:10:22Z</time>
      </trkpt>
      <trkpt lat="49.37269" lon="1.0707">
        <ele>77</ele>
        <time>2008-04-27T13:10:24Z</time>
      </trkpt>
      <trkpt lat="49.37262" lon="1.07088">
        <ele>76</ele>
        <time>2008-04-27T13:10:26Z</time>
      </trkpt>
      <trkpt lat="49.37255" lon="1.07107">
        <ele>76</ele>
        <time>2008-04-27T13:10:28Z</time>
      </trkpt>
      <trkpt lat="49.37248" lon="1.07125">
        <ele>76</ele>
        <time>2008-04-27T13:10:30Z</time>
      </trkpt>
      <trkpt lat="49.37242" lon="1.07144">
        <ele>76</ele>
        <time>2008-04-27T13:10:32Z</time>
      </trkpt>
      <trkpt lat="49.37236" lon="1.07164">
        <ele>75</ele>
        <time>2008-04-27T13:10:34Z</time>
      </trkpt>
      <trkpt lat="49.37229" lon="1.07184">
        <ele>75</ele>
        <time>2008-04-27T13:10:36Z</time>
      </trkpt>
      <trkpt lat="49.3722" lon="1.07207">
        <ele>75</ele>
        <time>2008-04-27T13:10:38Z</time>
      </trkpt>
      <trkpt lat="49.37211" lon="1.07232">
        <ele>74</ele>
        <time>2008-04-27T13:10:40Z</time>
      </trkpt>
      <trkpt lat="49.37206" lon="1.07254">
        <ele>74</ele>
        <time>2008-04-27T13:10:42Z</time>
      </trkpt>
      <trkpt lat="49.3721" lon="1.07269">
        <ele>74</ele>
        <time>2008-04-27T13:10:44Z</time>
      </trkpt>
      <trkpt lat="49.37217" lon="1.07278">
        <ele>73</ele>
        <time>2008-04-27T13:10:46Z</time>
      </trkpt>
      <trkpt lat="49.37233" lon="1.07285">
        <ele>73</ele>
        <time>2008-04-27T13:10:49Z</time>
      </trkpt>
      <trkpt lat="49.37245" lon="1.07292">
        <ele>73</ele>
        <time>2008-04-27T13:10:51Z</time>
      </trkpt>
      <trkpt lat="49.37256" lon="1.07297">
        <ele>73</ele>
        <time>2008-04-27T13:10:53Z</time>
      </trkpt>
      <trkpt lat="49.37269" lon="1.07301">
        <ele>73</ele>
        <time>2008-04-27T13:10:55Z</time>
      </trkpt>
      <trkpt lat="49.3728" lon="1.07308">
        <ele>72</ele>
        <time>2008-04-27T13:10:57Z</time>
      </trkpt>
      <trkpt lat="49.37292" lon="1.07315">
        <ele>72</ele>
        <time>2008-04-27T13:10:59Z</time>
      </trkpt>
      <trkpt lat="49.37304" lon="1.07321">
        <ele>72</ele>
        <time>2008-04-27T13:11:01Z</time>
      </trkpt>
      <trkpt lat="49.37315" lon="1.0733">
        <ele>72</ele>
        <time>2008-04-27T13:11:03Z</time>
      </trkpt>
      <trkpt lat="49.37329" lon="1.07339">
        <ele>72</ele>
        <time>2008-04-27T13:11:05Z</time>
      </trkpt>
      <trkpt lat="49.37383" lon="1.07366">
        <ele>71</ele>
        <time>2008-04-27T13:11:12Z</time>
      </trkpt>
      <trkpt lat="49.37392" lon="1.07371">
        <ele>70</ele>
        <time>2008-04-27T13:11:14Z</time>
      </trkpt>
      <trkpt lat="49.37406" lon="1.07385">
        <ele>70</ele>
        <time>2008-04-27T13:11:17Z</time>
      </trkpt>
      <trkpt lat="49.37417" lon="1.07392">
        <ele>70</ele>
        <time>2008-04-27T13:11:19Z</time>
      </trkpt>
      <trkpt lat="49.37432" lon="1.074">
        <ele>70</ele>
        <time>2008-04-27T13:11:21Z</time>
      </trkpt>
      <trkpt lat="49.37446" lon="1.07414">
        <ele>70</ele>
        <time>2008-04-27T13:11:23Z</time>
      </trkpt>
      <trkpt lat="49.37464" lon="1.07425">
        <ele>69</ele>
        <time>2008-04-27T13:11:25Z</time>
      </trkpt>
      <trkpt lat="49.37481" lon="1.07434">
        <ele>69</ele>
        <time>2008-04-27T13:11:27Z</time>
      </trkpt>
      <trkpt lat="49.37498" lon="1.07444">
        <ele>69</ele>
        <time>2008-04-27T13:11:29Z</time>
      </trkpt>
      <trkpt lat="49.37513" lon="1.07458">
        <ele>69</ele>
        <time>2008-04-27T13:11:31Z</time>
      </trkpt>
      <trkpt lat="49.37531" lon="1.07467">
        <ele>69</ele>
        <time>2008-04-27T13:11:33Z</time>
      </trkpt>
      <trkpt lat="49.37546" lon="1.07478">
        <ele>68</ele>
        <time>2008-04-27T13:11:35Z</time>
      </trkpt>
      <trkpt lat="49.3756" lon="1.07488">
        <ele>68</ele>
        <time>2008-04-27T13:11:37Z</time>
      </trkpt>
      <trkpt lat="49.37572" lon="1.075">
        <ele>68</ele>
        <time>2008-04-27T13:11:39Z</time>
      </trkpt>
      <trkpt lat="49.37586" lon="1.07512">
        <ele>67</ele>
        <time>2008-04-27T13:11:41Z</time>
      </trkpt>
      <trkpt lat="49.37598" lon="1.0752">
        <ele>67</ele>
        <time>2008-04-27T13:11:43Z</time>
      </trkpt>
      <trkpt lat="49.37611" lon="1.07527">
        <ele>67</ele>
        <time>2008-04-27T13:11:45Z</time>
      </trkpt>
      <trkpt lat="49.37625" lon="1.07534">
        <ele>66</ele>
        <time>2008-04-27T13:11:47Z</time>
      </trkpt>
      <trkpt lat="49.37634" lon="1.07547">
        <ele>66</ele>
        <time>2008-04-27T13:11:49Z</time>
      </trkpt>
      <trkpt lat="49.37635" lon="1.07568">
        <ele>66</ele>
        <time>2008-04-27T13:11:51Z</time>
      </trkpt>
      <trkpt lat="49.37629" lon="1.07585">
        <ele>65</ele>
        <time>2008-04-27T13:11:53Z</time>
      </trkpt>
      <trkpt lat="49.37624" lon="1.07604">
        <ele>63</ele>
        <time>2008-04-27T13:11:55Z</time>
      </trkpt>
      <trkpt lat="49.37617" lon="1.07625">
        <ele>61</ele>
        <time>2008-04-27T13:11:57Z</time>
      </trkpt>
      <trkpt lat="49.37609" lon="1.07646">
        <ele>58</ele>
        <time>2008-04-27T13:11:59Z</time>
      </trkpt>
      <trkpt lat="49.37601" lon="1.07669">
        <ele>57</ele>
        <time>2008-04-27T13:12:01Z</time>
      </trkpt>
      <trkpt lat="49.37593" lon="1.07692">
        <ele>56</ele>
        <time>2008-04-27T13:12:03Z</time>
      </trkpt>
      <trkpt lat="49.37588" lon="1.07704">
        <ele>56</ele>
        <time>2008-04-27T13:12:04Z</time>
      </trkpt>
      <trkpt lat="49.3758" lon="1.07728">
        <ele>57</ele>
        <time>2008-04-27T13:12:06Z</time>
      </trkpt>
      <trkpt lat="49.37572" lon="1.07752">
        <ele>59</ele>
        <time>2008-04-27T13:12:08Z</time>
      </trkpt>
      <trkpt lat="49.37567" lon="1.07771">
        <ele>60</ele>
        <time>2008-04-27T13:12:10Z</time>
      </trkpt>
      <trkpt lat="49.37561" lon="1.0779">
        <ele>61</ele>
        <time>2008-04-27T13:12:12Z</time>
      </trkpt>
      <trkpt lat="49.37554" lon="1.07809">
        <ele>62</ele>
        <time>2008-04-27T13:12:14Z</time>
      </trkpt>
      <trkpt lat="49.37547" lon="1.07828">
        <ele>62</ele>
        <time>2008-04-27T13:12:16Z</time>
      </trkpt>
      <trkpt lat="49.37542" lon="1.07842">
        <ele>63</ele>
        <time>2008-04-27T13:12:18Z</time>
      </trkpt>
      <trkpt lat="49.37537" lon="1.07862">
        <ele>63</ele>
        <time>2008-04-27T13:12:20Z</time>
      </trkpt>
      <trkpt lat="49.37531" lon="1.0788">
        <ele>63</ele>
        <time>2008-04-27T13:12:22Z</time>
      </trkpt>
      <trkpt lat="49.37525" lon="1.079">
        <ele>62</ele>
        <time>2008-04-27T13:12:24Z</time>
      </trkpt>
      <trkpt lat="49.37519" lon="1.07917">
        <ele>62</ele>
        <time>2008-04-27T13:12:26Z</time>
      </trkpt>
      <trkpt lat="49.37513" lon="1.07935">
        <ele>62</ele>
        <time>2008-04-27T13:12:28Z</time>
      </trkpt>
      <trkpt lat="49.37508" lon="1.07951">
        <ele>62</ele>
        <time>2008-04-27T13:12:30Z</time>
      </trkpt>
      <trkpt lat="49.37502" lon="1.07966">
        <ele>62</ele>
        <time>2008-04-27T13:12:32Z</time>
      </trkpt>
      <trkpt lat="49.37498" lon="1.0798">
        <ele>61</ele>
        <time>2008-04-27T13:12:34Z</time>
      </trkpt>
      <trkpt lat="49.37492" lon="1.07997">
        <ele>61</ele>
        <time>2008-04-27T13:12:36Z</time>
      </trkpt>
      <trkpt lat="49.37487" lon="1.08012">
        <ele>61</ele>
        <time>2008-04-27T13:12:38Z</time>
      </trkpt>
      <trkpt lat="49.37482" lon="1.08028">
        <ele>60</ele>
        <time>2008-04-27T13:12:40Z</time>
      </trkpt>
      <trkpt lat="49.37477" lon="1.08042">
        <ele>60</ele>
        <time>2008-04-27T13:12:42Z</time>
      </trkpt>
      <trkpt lat="49.37469" lon="1.0806">
        <ele>60</ele>
        <time>2008-04-27T13:12:44Z</time>
      </trkpt>
      <trkpt lat="49.37464" lon="1.08075">
        <ele>60</ele>
        <time>2008-04-27T13:12:46Z</time>
      </trkpt>
      <trkpt lat="49.3746" lon="1.0809">
        <ele>60</ele>
        <time>2008-04-27T13:12:48Z</time>
      </trkpt>
      <trkpt lat="49.37459" lon="1.08107">
        <ele>60</ele>
        <time>2008-04-27T13:12:50Z</time>
      </trkpt>
      <trkpt lat="49.37462" lon="1.08121">
        <ele>59</ele>
        <time>2008-04-27T13:12:52Z</time>
      </trkpt>
      <trkpt lat="49.3747" lon="1.08127">
        <ele>59</ele>
        <time>2008-04-27T13:12:54Z</time>
      </trkpt>
      <trkpt lat="49.37483" lon="1.08134">
        <ele>59</ele>
        <time>2008-04-27T13:12:56Z</time>
      </trkpt>
      <trkpt lat="49.37498" lon="1.08142">
        <ele>58</ele>
        <time>2008-04-27T13:12:58Z</time>
      </trkpt>
      <trkpt lat="49.37512" lon="1.08147">
        <ele>58</ele>
        <time>2008-04-27T13:13:00Z</time>
      </trkpt>
      <trkpt lat="49.37524" lon="1.08156">
        <ele>57</ele>
        <time>2008-04-27T13:13:02Z</time>
      </trkpt>
      <trkpt lat="49.37537" lon="1.08164">
        <ele>56</ele>
        <time>2008-04-27T13:13:04Z</time>
      </trkpt>
      <trkpt lat="49.37551" lon="1.0817">
        <ele>56</ele>
        <time>2008-04-27T13:13:06Z</time>
      </trkpt>
      <trkpt lat="49.37563" lon="1.08176">
        <ele>56</ele>
        <time>2008-04-27T13:13:08Z</time>
      </trkpt>
      <trkpt lat="49.37575" lon="1.08186">
        <ele>56</ele>
        <time>2008-04-27T13:13:10Z</time>
      </trkpt>
      <trkpt lat="49.37586" lon="1.082">
        <ele>55</ele>
        <time>2008-04-27T13:13:12Z</time>
      </trkpt>
      <trkpt lat="49.37596" lon="1.08211">
        <ele>55</ele>
        <time>2008-04-27T13:13:14Z</time>
      </trkpt>
      <trkpt lat="49.37605" lon="1.08196">
        <ele>55</ele>
        <time>2008-04-27T13:13:16Z</time>
      </trkpt>
      <trkpt lat="49.37608" lon="1.0817">
        <ele>56</ele>
        <time>2008-04-27T13:13:19Z</time>
      </trkpt>
      <trkpt lat="49.37615" lon="1.08142">
        <ele>57</ele>
        <time>2008-04-27T13:13:25Z</time>
      </trkpt>
      <trkpt lat="49.37621" lon="1.08117">
        <ele>58</ele>
        <time>2008-04-27T13:13:29Z</time>
      </trkpt>
      <trkpt lat="49.37628" lon="1.08095">
        <ele>58</ele>
        <time>2008-04-27T13:13:32Z</time>
      </trkpt>
      <trkpt lat="49.37634" lon="1.08069">
        <ele>59</ele>
        <time>2008-04-27T13:13:35Z</time>
      </trkpt>
      <trkpt lat="49.37638" lon="1.08049">
        <ele>59</ele>
        <time>2008-04-27T13:13:37Z</time>
      </trkpt>
      <trkpt lat="49.37645" lon="1.08029">
        <ele>59</ele>
        <time>2008-04-27T13:13:39Z</time>
      </trkpt>
      <trkpt lat="49.37648" lon="1.08018">
        <ele>59</ele>
        <time>2008-04-27T13:13:41Z</time>
      </trkpt>
      <trkpt lat="49.37657" lon="1.08005">
        <ele>59</ele>
        <time>2008-04-27T13:13:43Z</time>
      </trkpt>
      <trkpt lat="49.37667" lon="1.0799">
        <ele>58</ele>
        <time>2008-04-27T13:13:46Z</time>
      </trkpt>
      <trkpt lat="49.37672" lon="1.07968">
        <ele>58</ele>
        <time>2008-04-27T13:13:49Z</time>
      </trkpt>
      <trkpt lat="49.37678" lon="1.07944">
        <ele>58</ele>
        <time>2008-04-27T13:13:52Z</time>
      </trkpt>
      <trkpt lat="49.37672" lon="1.07929">
        <ele>58</ele>
        <time>2008-04-27T13:13:55Z</time>
      </trkpt>
      <trkpt lat="49.37658" lon="1.07916">
        <ele>58</ele>
        <time>2008-04-27T13:13:58Z</time>
      </trkpt>
      <trkpt lat="49.3765" lon="1.07906">
        <ele>59</ele>
        <time>2008-04-27T13:14:00Z</time>
      </trkpt>
      <trkpt lat="49.37642" lon="1.07893">
        <ele>59</ele>
        <time>2008-04-27T13:14:02Z</time>
      </trkpt>
      <trkpt lat="49.37636" lon="1.07877">
        <ele>59</ele>
        <time>2008-04-27T13:14:04Z</time>
      </trkpt>
      <trkpt lat="49.37633" lon="1.07858">
        <ele>59</ele>
        <time>2008-04-27T13:14:06Z</time>
      </trkpt>
      <trkpt lat="49.37649" lon="1.07839">
        <ele>57</ele>
        <time>2008-04-27T13:14:09Z</time>
      </trkpt>
      <trkpt lat="49.37665" lon="1.07825">
        <ele>55</ele>
        <time>2008-04-27T13:14:11Z</time>
      </trkpt>
      <trkpt lat="49.37685" lon="1.07812">
        <ele>53</ele>
        <time>2008-04-27T13:14:13Z</time>
      </trkpt>
      <trkpt lat="49.37712" lon="1.07803">
        <ele>51</ele>
        <time>2008-04-27T13:14:15Z</time>
      </trkpt>
      <trkpt lat="49.37722" lon="1.078">
        <ele>50</ele>
        <time>2008-04-27T13:14:16Z</time>
      </trkpt>
      <trkpt lat="49.37729" lon="1.07799">
        <ele>49</ele>
        <time>2008-04-27T13:14:17Z</time>
      </trkpt>
      <trkpt lat="49.37742" lon="1.07798">
        <ele>49</ele>
        <time>2008-04-27T13:14:19Z</time>
      </trkpt>
      <trkpt lat="49.37751" lon="1.078">
        <ele>49</ele>
        <time>2008-04-27T13:14:21Z</time>
      </trkpt>
      <trkpt lat="49.37763" lon="1.07795">
        <ele>49</ele>
        <time>2008-04-27T13:14:23Z</time>
      </trkpt>
      <trkpt lat="49.37779" lon="1.07801">
        <ele>49</ele>
        <time>2008-04-27T13:14:26Z</time>
      </trkpt>
      <trkpt lat="49.37796" lon="1.07809">
        <ele>49</ele>
        <time>2008-04-27T13:14:29Z</time>
      </trkpt>
      <trkpt lat="49.37809" lon="1.07811">
        <ele>48</ele>
        <time>2008-04-27T13:14:31Z</time>
      </trkpt>
      <trkpt lat="49.37829" lon="1.07807">
        <ele>48</ele>
        <time>2008-04-27T13:14:33Z</time>
      </trkpt>
      <trkpt lat="49.37847" lon="1.07798">
        <ele>48</ele>
        <time>2008-04-27T13:14:35Z</time>
      </trkpt>
      <trkpt lat="49.37857" lon="1.07786">
        <ele>48</ele>
        <time>2008-04-27T13:14:37Z</time>
      </trkpt>
      <trkpt lat="49.37858" lon="1.07768">
        <ele>49</ele>
        <time>2008-04-27T13:14:40Z</time>
      </trkpt>
      <trkpt lat="49.37861" lon="1.07748">
        <ele>50</ele>
        <time>2008-04-27T13:14:42Z</time>
      </trkpt>
      <trkpt lat="49.37862" lon="1.07733">
        <ele>50</ele>
        <time>2008-04-27T13:14:44Z</time>
      </trkpt>
      <trkpt lat="49.37858" lon="1.07716">
        <ele>51</ele>
        <time>2008-04-27T13:14:48Z</time>
      </trkpt>
      <trkpt lat="49.37862" lon="1.07695">
        <ele>52</ele>
        <time>2008-04-27T13:14:52Z</time>
      </trkpt>
      <trkpt lat="49.37867" lon="1.07668">
        <ele>53</ele>
        <time>2008-04-27T13:14:56Z</time>
      </trkpt>
      <trkpt lat="49.37868" lon="1.07644">
        <ele>54</ele>
        <time>2008-04-27T13:15:00Z</time>
      </trkpt>
      <trkpt lat="49.37871" lon="1.07617">
        <ele>55</ele>
        <time>2008-04-27T13:15:05Z</time>
      </trkpt>
      <trkpt lat="49.37869" lon="1.07596">
        <ele>56</ele>
        <time>2008-04-27T13:15:09Z</time>
      </trkpt>
      <trkpt lat="49.37877" lon="1.07573">
        <ele>58</ele>
        <time>2008-04-27T13:15:14Z</time>
      </trkpt>
      <trkpt lat="49.37886" lon="1.07551">
        <ele>59</ele>
        <time>2008-04-27T13:15:20Z</time>
      </trkpt>
      <trkpt lat="49.37894" lon="1.07535">
        <ele>59</ele>
        <time>2008-04-27T13:15:24Z</time>
      </trkpt>
      <trkpt lat="49.37901" lon="1.0752">
        <ele>60</ele>
        <time>2008-04-27T13:15:28Z</time>
      </trkpt>
      <trkpt lat="49.37908" lon="1.07501">
        <ele>60</ele>
        <time>2008-04-27T13:15:33Z</time>
      </trkpt>
      <trkpt lat="49.37915" lon="1.07485">
        <ele>61</ele>
        <time>2008-04-27T13:15:37Z</time>
      </trkpt>
      <trkpt lat="49.37921" lon="1.07468">
        <ele>62</ele>
        <time>2008-04-27T13:15:41Z</time>
      </trkpt>
      <trkpt lat="49.37932" lon="1.07455">
        <ele>62</ele>
        <time>2008-04-27T13:15:45Z</time>
      </trkpt>
      <trkpt lat="49.37937" lon="1.0744">
        <ele>63</ele>
        <time>2008-04-27T13:15:49Z</time>
      </trkpt>
      <trkpt lat="49.37946" lon="1.07424">
        <ele>63</ele>
        <time>2008-04-27T13:15:54Z</time>
      </trkpt>
      <trkpt lat="49.37948" lon="1.07405">
        <ele>63</ele>
        <time>2008-04-27T13:16:00Z</time>
      </trkpt>
      <trkpt lat="49.37946" lon="1.0738">
        <ele>63</ele>
        <time>2008-04-27T13:16:07Z</time>
      </trkpt>
      <trkpt lat="49.37949" lon="1.07362">
        <ele>63</ele>
        <time>2008-04-27T13:16:12Z</time>
      </trkpt>
      <trkpt lat="49.37955" lon="1.07346">
        <ele>63</ele>
        <time>2008-04-27T13:16:16Z</time>
      </trkpt>
      <trkpt lat="49.3796" lon="1.07327">
        <ele>64</ele>
        <time>2008-04-27T13:16:20Z</time>
      </trkpt>
      <trkpt lat="49.37964" lon="1.07308">
        <ele>64</ele>
        <time>2008-04-27T13:16:24Z</time>
      </trkpt>
      <trkpt lat="49.37976" lon="1.07288">
        <ele>64</ele>
        <time>2008-04-27T13:16:28Z</time>
      </trkpt>
      <trkpt lat="49.37977" lon="1.07262">
        <ele>64</ele>
        <time>2008-04-27T13:16:32Z</time>
      </trkpt>
      <trkpt lat="49.37985" lon="1.0724">
        <ele>65</ele>
        <time>2008-04-27T13:16:35Z</time>
      </trkpt>
      <trkpt lat="49.37993" lon="1.07219">
        <ele>65</ele>
        <time>2008-04-27T13:16:38Z</time>
      </trkpt>
      <trkpt lat="49.38002" lon="1.07199">
        <ele>65</ele>
        <time>2008-04-27T13:16:41Z</time>
      </trkpt>
      <trkpt lat="49.3801" lon="1.07178">
        <ele>65</ele>
        <time>2008-04-27T13:16:44Z</time>
      </trkpt>
      <trkpt lat="49.38013" lon="1.07163">
        <ele>65</ele>
        <time>2008-04-27T13:16:46Z</time>
      </trkpt>
      <trkpt lat="49.38018" lon="1.07146">
        <ele>65</ele>
        <time>2008-04-27T13:16:48Z</time>
      </trkpt>
      <trkpt lat="49.38022" lon="1.07127">
        <ele>65</ele>
        <time>2008-04-27T13:16:50Z</time>
      </trkpt>
      <trkpt lat="49.38028" lon="1.07111">
        <ele>65</ele>
        <time>2008-04-27T13:16:53Z</time>
      </trkpt>
      <trkpt lat="49.38033" lon="1.07094">
        <ele>65</ele>
        <time>2008-04-27T13:16:56Z</time>
      </trkpt>
      <trkpt lat="49.38046" lon="1.07059">
        <ele>66</ele>
        <time>2008-04-27T13:17:01Z</time>
      </trkpt>
      <trkpt lat="49.38054" lon="1.0704">
        <ele>66</ele>
        <time>2008-04-27T13:17:03Z</time>
      </trkpt>
      <trkpt lat="49.38061" lon="1.0702">
        <ele>66</ele>
        <time>2008-04-27T13:17:05Z</time>
      </trkpt>
      <trkpt lat="49.38071" lon="1.07001">
        <ele>66</ele>
        <time>2008-04-27T13:17:07Z</time>
      </trkpt>
      <trkpt lat="49.3808" lon="1.06984">
        <ele>66</ele>
        <time>2008-04-27T13:17:09Z</time>
      </trkpt>
      <trkpt lat="49.38078" lon="1.06967">
        <ele>66</ele>
        <time>2008-04-27T13:17:11Z</time>
      </trkpt>
      <trkpt lat="49.38082" lon="1.06948">
        <ele>66</ele>
        <time>2008-04-27T13:17:14Z</time>
      </trkpt>
      <trkpt lat="49.38083" lon="1.06927">
        <ele>66</ele>
        <time>2008-04-27T13:17:17Z</time>
      </trkpt>
      <trkpt lat="49.38086" lon="1.06904">
        <ele>66</ele>
        <time>2008-04-27T13:17:20Z</time>
      </trkpt>
      <trkpt lat="49.38091" lon="1.0688">
        <ele>66</ele>
        <time>2008-04-27T13:17:23Z</time>
      </trkpt>
      <trkpt lat="49.38098" lon="1.06858">
        <ele>66</ele>
        <time>2008-04-27T13:17:26Z</time>
      </trkpt>
      <trkpt lat="49.38109" lon="1.06836">
        <ele>67</ele>
        <time>2008-04-27T13:17:29Z</time>
      </trkpt>
      <trkpt lat="49.38113" lon="1.06815">
        <ele>67</ele>
        <time>2008-04-27T13:17:32Z</time>
      </trkpt>
      <trkpt lat="49.38119" lon="1.06801">
        <ele>67</ele>
        <time>2008-04-27T13:17:35Z</time>
      </trkpt>
      <trkpt lat="49.38126" lon="1.06785">
        <ele>68</ele>
        <time>2008-04-27T13:17:39Z</time>
      </trkpt>
      <trkpt lat="49.3813" lon="1.06768">
        <ele>68</ele>
        <time>2008-04-27T13:17:43Z</time>
      </trkpt>
      <trkpt lat="49.38121" lon="1.06745">
        <ele>68</ele>
        <time>2008-04-27T13:17:46Z</time>
      </trkpt>
      <trkpt lat="49.38117" lon="1.06728">
        <ele>68</ele>
        <time>2008-04-27T13:17:48Z</time>
      </trkpt>
      <trkpt lat="49.38113" lon="1.06713">
        <ele>69</ele>
        <time>2008-04-27T13:17:50Z</time>
      </trkpt>
      <trkpt lat="49.38108" lon="1.067">
        <ele>69</ele>
        <time>2008-04-27T13:17:52Z</time>
      </trkpt>
      <trkpt lat="49.381" lon="1.06686">
        <ele>69</ele>
        <time>2008-04-27T13:17:55Z</time>
      </trkpt>
      <trkpt lat="49.3809" lon="1.06676">
        <ele>69</ele>
        <time>2008-04-27T13:17:58Z</time>
      </trkpt>
      <trkpt lat="49.38078" lon="1.06668">
        <ele>69</ele>
        <time>2008-04-27T13:18:01Z</time>
      </trkpt>
      <trkpt lat="49.38065" lon="1.06662">
        <ele>69</ele>
        <time>2008-04-27T13:18:04Z</time>
      </trkpt>
      <trkpt lat="49.38052" lon="1.06653">
        <ele>69</ele>
        <time>2008-04-27T13:18:07Z</time>
      </trkpt>
      <trkpt lat="49.3804" lon="1.06625">
        <ele>70</ele>
        <time>2008-04-27T13:18:10Z</time>
      </trkpt>
      <trkpt lat="49.38039" lon="1.06607">
        <ele>70</ele>
        <time>2008-04-27T13:18:12Z</time>
      </trkpt>
      <trkpt lat="49.38038" lon="1.06587">
        <ele>70</ele>
        <time>2008-04-27T13:18:14Z</time>
      </trkpt>
      <trkpt lat="49.38038" lon="1.06573">
        <ele>70</ele>
        <time>2008-04-27T13:18:16Z</time>
      </trkpt>
      <trkpt lat="49.38042" lon="1.06552">
        <ele>70</ele>
        <time>2008-04-27T13:18:20Z</time>
      </trkpt>
      <trkpt lat="49.38043" lon="1.06523">
        <ele>70</ele>
        <time>2008-04-27T13:18:24Z</time>
      </trkpt>
      <trkpt lat="49.38039" lon="1.065">
        <ele>70</ele>
        <time>2008-04-27T13:18:27Z</time>
      </trkpt>
      <trkpt lat="49.3804" lon="1.06474">
        <ele>71</ele>
        <time>2008-04-27T13:18:30Z</time>
      </trkpt>
      <trkpt lat="49.38042" lon="1.0645">
        <ele>71</ele>
        <time>2008-04-27T13:18:33Z</time>
      </trkpt>
      <trkpt lat="49.3804" lon="1.06426">
        <ele>71</ele>
        <time>2008-04-27T13:18:36Z</time>
      </trkpt>
      <trkpt lat="49.38049" lon="1.06404">
        <ele>71</ele>
        <time>2008-04-27T13:18:39Z</time>
      </trkpt>
      <trkpt lat="49.38055" lon="1.06386">
        <ele>71</ele>
        <time>2008-04-27T13:18:42Z</time>
      </trkpt>
      <trkpt lat="49.38065" lon="1.0636">
        <ele>72</ele>
        <time>2008-04-27T13:18:46Z</time>
      </trkpt>
      <trkpt lat="49.38073" lon="1.06334">
        <ele>72</ele>
        <time>2008-04-27T13:18:49Z</time>
      </trkpt>
      <trkpt lat="49.38082" lon="1.06315">
        <ele>72</ele>
        <time>2008-04-27T13:18:51Z</time>
      </trkpt>
      <trkpt lat="49.3809" lon="1.06294">
        <ele>72</ele>
        <time>2008-04-27T13:18:53Z</time>
      </trkpt>
      <trkpt lat="49.38092" lon="1.06275">
        <ele>72</ele>
        <time>2008-04-27T13:18:55Z</time>
      </trkpt>
      <trkpt lat="49.381" lon="1.06258">
        <ele>72</ele>
        <time>2008-04-27T13:18:58Z</time>
      </trkpt>
      <trkpt lat="49.3811" lon="1.06233">
        <ele>73</ele>
        <time>2008-04-27T13:19:02Z</time>
      </trkpt>
      <trkpt lat="49.38117" lon="1.06202">
        <ele>73</ele>
        <time>2008-04-27T13:19:06Z</time>
      </trkpt>
      <trkpt lat="49.38138" lon="1.06183">
        <ele>73</ele>
        <time>2008-04-27T13:19:10Z</time>
      </trkpt>
      <trkpt lat="49.38154" lon="1.06167">
        <ele>73</ele>
        <time>2008-04-27T13:19:13Z</time>
      </trkpt>
      <trkpt lat="49.38161" lon="1.06161">
        <ele>73</ele>
        <time>2008-04-27T13:19:15Z</time>
      </trkpt>
      <trkpt lat="49.38171" lon="1.06155">
        <ele>73</ele>
        <time>2008-04-27T13:19:17Z</time>
      </trkpt>
      <trkpt lat="49.38185" lon="1.06148">
        <ele>73</ele>
        <time>2008-04-27T13:19:19Z</time>
      </trkpt>
      <trkpt lat="49.382" lon="1.06143">
        <ele>73</ele>
        <time>2008-04-27T13:19:21Z</time>
      </trkpt>
      <trkpt lat="49.38213" lon="1.06137">
        <ele>73</ele>
        <time>2008-04-27T13:19:23Z</time>
      </trkpt>
      <trkpt lat="49.38226" lon="1.06134">
        <ele>73</ele>
        <time>2008-04-27T13:19:25Z</time>
      </trkpt>
      <trkpt lat="49.3824" lon="1.06128">
        <ele>73</ele>
        <time>2008-04-27T13:19:27Z</time>
      </trkpt>
      <trkpt lat="49.38252" lon="1.06123">
        <ele>73</ele>
        <time>2008-04-27T13:19:29Z</time>
      </trkpt>
      <trkpt lat="49.38265" lon="1.06117">
        <ele>73</ele>
        <time>2008-04-27T13:19:31Z</time>
      </trkpt>
      <trkpt lat="49.38277" lon="1.06112">
        <ele>72</ele>
        <time>2008-04-27T13:19:33Z</time>
      </trkpt>
      <trkpt lat="49.38289" lon="1.06106">
        <ele>72</ele>
        <time>2008-04-27T13:19:35Z</time>
      </trkpt>
      <trkpt lat="49.383" lon="1.06101">
        <ele>72</ele>
        <time>2008-04-27T13:19:37Z</time>
      </trkpt>
      <trkpt lat="49.38313" lon="1.06098">
        <ele>72</ele>
        <time>2008-04-27T13:19:39Z</time>
      </trkpt>
      <trkpt lat="49.38325" lon="1.06096">
        <ele>72</ele>
        <time>2008-04-27T13:19:41Z</time>
      </trkpt>
      <trkpt lat="49.38337" lon="1.06095">
        <ele>72</ele>
        <time>2008-04-27T13:19:43Z</time>
      </trkpt>
      <trkpt lat="49.38349" lon="1.06092">
        <ele>72</ele>
        <time>2008-04-27T13:19:45Z</time>
      </trkpt>
      <trkpt lat="49.3836" lon="1.06087">
        <ele>72</ele>
        <time>2008-04-27T13:19:47Z</time>
      </trkpt>
      <trkpt lat="49.38372" lon="1.06084">
        <ele>72</ele>
        <time>2008-04-27T13:19:49Z</time>
      </trkpt>
      <trkpt lat="49.38383" lon="1.0608">
        <ele>72</ele>
        <time>2008-04-27T13:19:51Z</time>
      </trkpt>
      <trkpt lat="49.38398" lon="1.06077">
        <ele>72</ele>
        <time>2008-04-27T13:19:54Z</time>
      </trkpt>
      <trkpt lat="49.38409" lon="1.06074">
        <ele>72</ele>
        <time>2008-04-27T13:19:56Z</time>
      </trkpt>
      <trkpt lat="49.38417" lon="1.06071">
        <ele>72</ele>
        <time>2008-04-27T13:19:59Z</time>
      </trkpt>
      <trkpt lat="49.38428" lon="1.06082">
        <ele>72</ele>
        <time>2008-04-27T13:20:03Z</time>
      </trkpt>
      <trkpt lat="49.38438" lon="1.06093">
        <ele>72</ele>
        <time>2008-04-27T13:20:06Z</time>
      </trkpt>
      <trkpt lat="49.38448" lon="1.061">
        <ele>72</ele>
        <time>2008-04-27T13:20:08Z</time>
      </trkpt>
      <trkpt lat="49.38458" lon="1.0611">
        <ele>72</ele>
        <time>2008-04-27T13:20:10Z</time>
      </trkpt>
      <trkpt lat="49.38469" lon="1.06118">
        <ele>72</ele>
        <time>2008-04-27T13:20:13Z</time>
      </trkpt>
      <trkpt lat="49.38483" lon="1.06119">
        <ele>72</ele>
        <time>2008-04-27T13:20:17Z</time>
      </trkpt>
      <trkpt lat="49.38491" lon="1.06096">
        <ele>72</ele>
        <time>2008-04-27T13:20:23Z</time>
      </trkpt>
      <trkpt lat="49.385" lon="1.06072">
        <ele>72</ele>
        <time>2008-04-27T13:20:28Z</time>
      </trkpt>
      <trkpt lat="49.38521" lon="1.06062">
        <ele>72</ele>
        <time>2008-04-27T13:20:33Z</time>
      </trkpt>
      <trkpt lat="49.38541" lon="1.06054">
        <ele>72</ele>
        <time>2008-04-27T13:20:37Z</time>
      </trkpt>
      <trkpt lat="49.38558" lon="1.06044">
        <ele>72</ele>
        <time>2008-04-27T13:20:40Z</time>
      </trkpt>
      <trkpt lat="49.38575" lon="1.06036">
        <ele>72</ele>
        <time>2008-04-27T13:20:43Z</time>
      </trkpt>
      <trkpt lat="49.38593" lon="1.06023">
        <ele>72</ele>
        <time>2008-04-27T13:20:46Z</time>
      </trkpt>
      <trkpt lat="49.38608" lon="1.06021">
        <ele>72</ele>
        <time>2008-04-27T13:20:49Z</time>
      </trkpt>
      <trkpt lat="49.38618" lon="1.06037">
        <ele>72</ele>
        <time>2008-04-27T13:20:53Z</time>
      </trkpt>
      <trkpt lat="49.38628" lon="1.06044">
        <ele>72</ele>
        <time>2008-04-27T13:20:56Z</time>
      </trkpt>
      <trkpt lat="49.38639" lon="1.06047">
        <ele>72</ele>
        <time>2008-04-27T13:20:59Z</time>
      </trkpt>
      <trkpt lat="49.38651" lon="1.06053">
        <ele>72</ele>
        <time>2008-04-27T13:21:02Z</time>
      </trkpt>
      <trkpt lat="49.38663" lon="1.06064">
        <ele>72</ele>
        <time>2008-04-27T13:21:05Z</time>
      </trkpt>
      <trkpt lat="49.38674" lon="1.06069">
        <ele>72</ele>
        <time>2008-04-27T13:21:07Z</time>
      </trkpt>
      <trkpt lat="49.38682" lon="1.06077">
        <ele>71</ele>
        <time>2008-04-27T13:21:09Z</time>
      </trkpt>
      <trkpt lat="49.38691" lon="1.06084">
        <ele>71</ele>
        <time>2008-04-27T13:21:11Z</time>
      </trkpt>
      <trkpt lat="49.38699" lon="1.06092">
        <ele>71</ele>
        <time>2008-04-27T13:21:13Z</time>
      </trkpt>
      <trkpt lat="49.38707" lon="1.061">
        <ele>71</ele>
        <time>2008-04-27T13:21:15Z</time>
      </trkpt>
      <trkpt lat="49.38719" lon="1.06108">
        <ele>71</ele>
        <time>2008-04-27T13:21:18Z</time>
      </trkpt>
      <trkpt lat="49.38728" lon="1.06113">
        <ele>71</ele>
        <time>2008-04-27T13:21:20Z</time>
      </trkpt>
      <trkpt lat="49.38737" lon="1.06118">
        <ele>71</ele>
        <time>2008-04-27T13:21:22Z</time>
      </trkpt>
      <trkpt lat="49.38746" lon="1.06123">
        <ele>71</ele>
        <time>2008-04-27T13:21:24Z</time>
      </trkpt>
      <trkpt lat="49.38755" lon="1.0613">
        <ele>71</ele>
        <time>2008-04-27T13:21:26Z</time>
      </trkpt>
      <trkpt lat="49.38763" lon="1.06137">
        <ele>71</ele>
        <time>2008-04-27T13:21:28Z</time>
      </trkpt>
      <trkpt lat="49.38772" lon="1.06142">
        <ele>71</ele>
        <time>2008-04-27T13:21:30Z</time>
      </trkpt>
      <trkpt lat="49.38785" lon="1.0615">
        <ele>71</ele>
        <time>2008-04-27T13:21:33Z</time>
      </trkpt>
      <trkpt lat="49.38796" lon="1.0616">
        <ele>71</ele>
        <time>2008-04-27T13:21:36Z</time>
      </trkpt>
      <trkpt lat="49.38798" lon="1.06177">
        <ele>71</ele>
        <time>2008-04-27T13:21:39Z</time>
      </trkpt>
      <trkpt lat="49.38797" lon="1.06197">
        <ele>71</ele>
        <time>2008-04-27T13:21:42Z</time>
      </trkpt>
      <trkpt lat="49.38793" lon="1.06217">
        <ele>71</ele>
        <time>2008-04-27T13:21:45Z</time>
      </trkpt>
      <trkpt lat="49.38786" lon="1.06238">
        <ele>71</ele>
        <time>2008-04-27T13:21:48Z</time>
      </trkpt>
      <trkpt lat="49.38782" lon="1.06251">
        <ele>71</ele>
        <time>2008-04-27T13:21:50Z</time>
      </trkpt>
      <trkpt lat="49.38778" lon="1.06265">
        <ele>71</ele>
        <time>2008-04-27T13:21:52Z</time>
      </trkpt>
      <trkpt lat="49.38773" lon="1.06281">
        <ele>71</ele>
        <time>2008-04-27T13:21:54Z</time>
      </trkpt>
      <trkpt lat="49.38767" lon="1.063">
        <ele>71</ele>
        <time>2008-04-27T13:21:57Z</time>
      </trkpt>
      <trkpt lat="49.38762" lon="1.06316">
        <ele>71</ele>
        <time>2008-04-27T13:22:00Z</time>
      </trkpt>
      <trkpt lat="49.38757" lon="1.06333">
        <ele>71</ele>
        <time>2008-04-27T13:22:03Z</time>
      </trkpt>
      <trkpt lat="49.38752" lon="1.0635">
        <ele>71</ele>
        <time>2008-04-27T13:22:06Z</time>
      </trkpt>
      <trkpt lat="49.38748" lon="1.06367">
        <ele>71</ele>
        <time>2008-04-27T13:22:09Z</time>
      </trkpt>
      <trkpt lat="49.38744" lon="1.06385">
        <ele>71</ele>
        <time>2008-04-27T13:22:12Z</time>
      </trkpt>
      <trkpt lat="49.38738" lon="1.06407">
        <ele>71</ele>
        <time>2008-04-27T13:22:15Z</time>
      </trkpt>
      <trkpt lat="49.38741" lon="1.06418">
        <ele>71</ele>
        <time>2008-04-27T13:22:18Z</time>
      </trkpt>
      <trkpt lat="49.38761" lon="1.06383">
        <ele>71</ele>
        <time>2008-04-27T13:22:44Z</time>
      </trkpt>
      <trkpt lat="49.38764" lon="1.06356">
        <ele>71</ele>
        <time>2008-04-27T13:22:55Z</time>
      </trkpt>
    </trkseg>
  </trk>
</gpx>